<?xml version="1.0" encoding="UTF-8" standalone="no" ?>
<gpx xmlns="http://www.topografix.com/GPX/1/1" xmlns:xsi="http://www.w3.org/2001/XMLSchema-instance" xsi:schemaLocation="http://www.topografix.com/GPX/1/1 http://www.topografix.com/GPX/1/1/gpx.xsd" version="1.1" creator="VisuGPX - https://www.visugpx.com">
  <metadata>
    <name>2016-09-15 Walk from Ternand</name>
    <desc><![CDATA[2016-09-15 Walk from Ternand]]></desc>
  </metadata>
  <wpt lat="45.94549" lon="4.52754">
    <ele>346</ele>
    <name><![CDATA[2016-09-15 08:53 (Start)]]></name>
  </wpt>
  <wpt lat="45.94551" lon="4.52757">
    <ele>346</ele>
    <name><![CDATA[2016-09-15 08:53 (End)]]></name>
    <desc><![CDATA[Created by Google My Tracks on Android  Name: 2016-09-15 08:53 Activity type: walking Description: - Total distance: 20.65 km (12.8 mi) Total time: 6:18:16 Moving time: 6:12:06 Average speed: 3.28 km/h (2.0 mi/h) Average moving speed: 3.33 km/h (2.1 mi/h) Max speed: 5.40 km/h (3.4 mi/h) Average pace: 18:19 min/km (29:29 min/mi) Average moving pace: 18:01 min/km (28:60 min/mi) Fastest pace: 11:07 min/km (17:53 min/mi) Max elevation: 797 m (2615 ft) Min elevation: 91 m (298 ft) Elevation gain: 1325 m (4347 ft) Max grade: 1774 % Min grade: -25 % Recorded: 15/09/2016 08:53]]></desc>
  </wpt>
  <trk>
    <name><![CDATA[2016-09-15 08:53]]></name>
    <trkseg>
      <trkpt lat="45.94549" lon="4.52754">
        <ele>346</ele>
        <time>2016-09-15T06:53:23.618Z</time>
      </trkpt>
      <trkpt lat="45.94554" lon="4.52744">
        <ele>349</ele>
        <time>2016-09-15T06:55:17Z</time>
      </trkpt>
      <trkpt lat="45.94555" lon="4.52743">
        <ele>349</ele>
        <time>2016-09-15T06:55:18Z</time>
      </trkpt>
      <trkpt lat="45.94561" lon="4.52734">
        <ele>349</ele>
        <time>2016-09-15T06:55:26Z</time>
      </trkpt>
      <trkpt lat="45.94561" lon="4.52733">
        <ele>349</ele>
        <time>2016-09-15T06:55:27Z</time>
      </trkpt>
      <trkpt lat="45.94566" lon="4.52722">
        <ele>349</ele>
        <time>2016-09-15T06:55:35Z</time>
      </trkpt>
      <trkpt lat="45.94567" lon="4.52721">
        <ele>349</ele>
        <time>2016-09-15T06:55:36Z</time>
      </trkpt>
      <trkpt lat="45.94572" lon="4.52711">
        <ele>350</ele>
        <time>2016-09-15T06:55:44Z</time>
      </trkpt>
      <trkpt lat="45.94572" lon="4.52709">
        <ele>350</ele>
        <time>2016-09-15T06:55:45Z</time>
      </trkpt>
      <trkpt lat="45.94576" lon="4.52699">
        <ele>351</ele>
        <time>2016-09-15T06:55:52Z</time>
      </trkpt>
      <trkpt lat="45.94576" lon="4.52698">
        <ele>351</ele>
        <time>2016-09-15T06:55:53Z</time>
      </trkpt>
      <trkpt lat="45.9458" lon="4.52686">
        <ele>352</ele>
        <time>2016-09-15T06:56:01Z</time>
      </trkpt>
      <trkpt lat="45.94581" lon="4.52685">
        <ele>353</ele>
        <time>2016-09-15T06:56:02Z</time>
      </trkpt>
      <trkpt lat="45.94582" lon="4.52673">
        <ele>355</ele>
        <time>2016-09-15T06:56:10Z</time>
      </trkpt>
      <trkpt lat="45.94583" lon="4.52671">
        <ele>355</ele>
        <time>2016-09-15T06:56:11Z</time>
      </trkpt>
      <trkpt lat="45.94586" lon="4.5266">
        <ele>355</ele>
        <time>2016-09-15T06:56:18Z</time>
      </trkpt>
      <trkpt lat="45.94587" lon="4.52659">
        <ele>354</ele>
        <time>2016-09-15T06:56:19Z</time>
      </trkpt>
      <trkpt lat="45.94589" lon="4.52646">
        <ele>352</ele>
        <time>2016-09-15T06:56:26Z</time>
      </trkpt>
      <trkpt lat="45.94589" lon="4.52644">
        <ele>352</ele>
        <time>2016-09-15T06:56:27Z</time>
      </trkpt>
      <trkpt lat="45.94591" lon="4.52633">
        <ele>350</ele>
        <time>2016-09-15T06:56:34Z</time>
      </trkpt>
      <trkpt lat="45.94591" lon="4.52632">
        <ele>350</ele>
        <time>2016-09-15T06:56:35Z</time>
      </trkpt>
      <trkpt lat="45.94595" lon="4.52622">
        <ele>350</ele>
        <time>2016-09-15T06:56:41Z</time>
      </trkpt>
      <trkpt lat="45.94596" lon="4.5262">
        <ele>350</ele>
        <time>2016-09-15T06:56:42Z</time>
      </trkpt>
      <trkpt lat="45.946" lon="4.5261">
        <ele>349</ele>
        <time>2016-09-15T06:56:48Z</time>
      </trkpt>
      <trkpt lat="45.94601" lon="4.52608">
        <ele>349</ele>
        <time>2016-09-15T06:56:49Z</time>
      </trkpt>
      <trkpt lat="45.94606" lon="4.52597">
        <ele>349</ele>
        <time>2016-09-15T06:56:56Z</time>
      </trkpt>
      <trkpt lat="45.94607" lon="4.52596">
        <ele>349</ele>
        <time>2016-09-15T06:56:57Z</time>
      </trkpt>
      <trkpt lat="45.94611" lon="4.52585">
        <ele>349</ele>
        <time>2016-09-15T06:57:04Z</time>
      </trkpt>
      <trkpt lat="45.94611" lon="4.52583">
        <ele>347</ele>
        <time>2016-09-15T06:57:05Z</time>
      </trkpt>
      <trkpt lat="45.94615" lon="4.52573">
        <ele>347</ele>
        <time>2016-09-15T06:57:11Z</time>
      </trkpt>
      <trkpt lat="45.94616" lon="4.52572">
        <ele>347</ele>
        <time>2016-09-15T06:57:12Z</time>
      </trkpt>
      <trkpt lat="45.9462" lon="4.52562">
        <ele>346</ele>
        <time>2016-09-15T06:57:18Z</time>
      </trkpt>
      <trkpt lat="45.94621" lon="4.5256">
        <ele>346</ele>
        <time>2016-09-15T06:57:19Z</time>
      </trkpt>
      <trkpt lat="45.94627" lon="4.52551">
        <ele>346</ele>
        <time>2016-09-15T06:57:26Z</time>
      </trkpt>
      <trkpt lat="45.94629" lon="4.52551">
        <ele>346</ele>
        <time>2016-09-15T06:57:27Z</time>
      </trkpt>
      <trkpt lat="45.94634" lon="4.52543">
        <ele>345</ele>
        <time>2016-09-15T06:57:33Z</time>
      </trkpt>
      <trkpt lat="45.94636" lon="4.52543">
        <ele>345</ele>
        <time>2016-09-15T06:57:34Z</time>
      </trkpt>
      <trkpt lat="45.94643" lon="4.5254">
        <ele>345</ele>
        <time>2016-09-15T06:57:39Z</time>
      </trkpt>
      <trkpt lat="45.94645" lon="4.5254">
        <ele>345</ele>
        <time>2016-09-15T06:57:40Z</time>
      </trkpt>
      <trkpt lat="45.94653" lon="4.52535">
        <ele>346</ele>
        <time>2016-09-15T06:57:46Z</time>
      </trkpt>
      <trkpt lat="45.94654" lon="4.52534">
        <ele>346</ele>
        <time>2016-09-15T06:57:47Z</time>
      </trkpt>
      <trkpt lat="45.94663" lon="4.52533">
        <ele>346</ele>
        <time>2016-09-15T06:57:53Z</time>
      </trkpt>
      <trkpt lat="45.94664" lon="4.52533">
        <ele>346</ele>
        <time>2016-09-15T06:57:54Z</time>
      </trkpt>
      <trkpt lat="45.94672" lon="4.52531">
        <ele>344</ele>
        <time>2016-09-15T06:58:00Z</time>
      </trkpt>
      <trkpt lat="45.94673" lon="4.52531">
        <ele>344</ele>
        <time>2016-09-15T06:58:01Z</time>
      </trkpt>
      <trkpt lat="45.94679" lon="4.52525">
        <ele>344</ele>
        <time>2016-09-15T06:58:06Z</time>
      </trkpt>
      <trkpt lat="45.94681" lon="4.52523">
        <ele>344</ele>
        <time>2016-09-15T06:58:07Z</time>
      </trkpt>
      <trkpt lat="45.94687" lon="4.52516">
        <ele>344</ele>
        <time>2016-09-15T06:58:13Z</time>
      </trkpt>
      <trkpt lat="45.94688" lon="4.52515">
        <ele>344</ele>
        <time>2016-09-15T06:58:14Z</time>
      </trkpt>
      <trkpt lat="45.94696" lon="4.52509">
        <ele>343</ele>
        <time>2016-09-15T06:58:20Z</time>
      </trkpt>
      <trkpt lat="45.94697" lon="4.52508">
        <ele>343</ele>
        <time>2016-09-15T06:58:21Z</time>
      </trkpt>
      <trkpt lat="45.94704" lon="4.525">
        <ele>344</ele>
        <time>2016-09-15T06:58:27Z</time>
      </trkpt>
      <trkpt lat="45.94705" lon="4.52498">
        <ele>344</ele>
        <time>2016-09-15T06:58:28Z</time>
      </trkpt>
      <trkpt lat="45.94711" lon="4.52491">
        <ele>344</ele>
        <time>2016-09-15T06:58:33Z</time>
      </trkpt>
      <trkpt lat="45.94712" lon="4.52489">
        <ele>344</ele>
        <time>2016-09-15T06:58:34Z</time>
      </trkpt>
      <trkpt lat="45.94718" lon="4.52482">
        <ele>344</ele>
        <time>2016-09-15T06:58:39Z</time>
      </trkpt>
      <trkpt lat="45.94719" lon="4.52481">
        <ele>344</ele>
        <time>2016-09-15T06:58:40Z</time>
      </trkpt>
      <trkpt lat="45.94726" lon="4.52474">
        <ele>344</ele>
        <time>2016-09-15T06:58:46Z</time>
      </trkpt>
      <trkpt lat="45.94727" lon="4.52472">
        <ele>344</ele>
        <time>2016-09-15T06:58:47Z</time>
      </trkpt>
      <trkpt lat="45.94733" lon="4.52466">
        <ele>344</ele>
        <time>2016-09-15T06:58:53Z</time>
      </trkpt>
      <trkpt lat="45.94735" lon="4.52464">
        <ele>344</ele>
        <time>2016-09-15T06:58:54Z</time>
      </trkpt>
      <trkpt lat="45.94741" lon="4.52458">
        <ele>344</ele>
        <time>2016-09-15T06:59:00Z</time>
      </trkpt>
      <trkpt lat="45.94742" lon="4.52457">
        <ele>344</ele>
        <time>2016-09-15T06:59:01Z</time>
      </trkpt>
      <trkpt lat="45.9475" lon="4.52454">
        <ele>345</ele>
        <time>2016-09-15T06:59:08Z</time>
      </trkpt>
      <trkpt lat="45.94751" lon="4.52454">
        <ele>345</ele>
        <time>2016-09-15T06:59:09Z</time>
      </trkpt>
      <trkpt lat="45.94757" lon="4.52446">
        <ele>345</ele>
        <time>2016-09-15T06:59:16Z</time>
      </trkpt>
      <trkpt lat="45.94758" lon="4.52445">
        <ele>345</ele>
        <time>2016-09-15T06:59:17Z</time>
      </trkpt>
      <trkpt lat="45.94765" lon="4.52438">
        <ele>346</ele>
        <time>2016-09-15T06:59:24Z</time>
      </trkpt>
      <trkpt lat="45.94765" lon="4.52436">
        <ele>346</ele>
        <time>2016-09-15T06:59:25Z</time>
      </trkpt>
      <trkpt lat="45.94772" lon="4.5243">
        <ele>346</ele>
        <time>2016-09-15T06:59:31Z</time>
      </trkpt>
      <trkpt lat="45.94773" lon="4.52429">
        <ele>346</ele>
        <time>2016-09-15T06:59:32Z</time>
      </trkpt>
      <trkpt lat="45.94781" lon="4.52423">
        <ele>346</ele>
        <time>2016-09-15T06:59:39Z</time>
      </trkpt>
      <trkpt lat="45.94782" lon="4.52423">
        <ele>346</ele>
        <time>2016-09-15T06:59:40Z</time>
      </trkpt>
      <trkpt lat="45.94789" lon="4.52417">
        <ele>346</ele>
        <time>2016-09-15T06:59:47Z</time>
      </trkpt>
      <trkpt lat="45.9479" lon="4.52416">
        <ele>351</ele>
        <time>2016-09-15T06:59:48Z</time>
      </trkpt>
      <trkpt lat="45.94798" lon="4.52411">
        <ele>351</ele>
        <time>2016-09-15T06:59:55Z</time>
      </trkpt>
      <trkpt lat="45.94799" lon="4.5241">
        <ele>351</ele>
        <time>2016-09-15T06:59:56Z</time>
      </trkpt>
      <trkpt lat="45.94806" lon="4.52405">
        <ele>351</ele>
        <time>2016-09-15T07:00:03Z</time>
      </trkpt>
      <trkpt lat="45.94808" lon="4.52405">
        <ele>351</ele>
        <time>2016-09-15T07:00:04Z</time>
      </trkpt>
      <trkpt lat="45.94816" lon="4.52399">
        <ele>351</ele>
        <time>2016-09-15T07:00:11Z</time>
      </trkpt>
      <trkpt lat="45.94817" lon="4.52398">
        <ele>351</ele>
        <time>2016-09-15T07:00:12Z</time>
      </trkpt>
      <trkpt lat="45.94824" lon="4.52392">
        <ele>352</ele>
        <time>2016-09-15T07:00:19Z</time>
      </trkpt>
      <trkpt lat="45.94825" lon="4.52391">
        <ele>352</ele>
        <time>2016-09-15T07:00:20Z</time>
      </trkpt>
      <trkpt lat="45.94831" lon="4.52384">
        <ele>352</ele>
        <time>2016-09-15T07:00:26Z</time>
      </trkpt>
      <trkpt lat="45.94833" lon="4.52383">
        <ele>353</ele>
        <time>2016-09-15T07:00:27Z</time>
      </trkpt>
      <trkpt lat="45.94839" lon="4.52375">
        <ele>350</ele>
        <time>2016-09-15T07:00:33Z</time>
      </trkpt>
      <trkpt lat="45.9484" lon="4.52374">
        <ele>350</ele>
        <time>2016-09-15T07:00:34Z</time>
      </trkpt>
      <trkpt lat="45.94847" lon="4.52366">
        <ele>351</ele>
        <time>2016-09-15T07:00:40Z</time>
      </trkpt>
      <trkpt lat="45.94848" lon="4.52364">
        <ele>351</ele>
        <time>2016-09-15T07:00:41Z</time>
      </trkpt>
      <trkpt lat="45.94854" lon="4.52356">
        <ele>351</ele>
        <time>2016-09-15T07:00:47Z</time>
      </trkpt>
      <trkpt lat="45.94855" lon="4.52354">
        <ele>351</ele>
        <time>2016-09-15T07:00:48Z</time>
      </trkpt>
      <trkpt lat="45.9486" lon="4.52346">
        <ele>351</ele>
        <time>2016-09-15T07:00:54Z</time>
      </trkpt>
      <trkpt lat="45.94861" lon="4.52344">
        <ele>351</ele>
        <time>2016-09-15T07:00:55Z</time>
      </trkpt>
      <trkpt lat="45.94866" lon="4.52335">
        <ele>351</ele>
        <time>2016-09-15T07:01:01Z</time>
      </trkpt>
      <trkpt lat="45.94867" lon="4.52333">
        <ele>357</ele>
        <time>2016-09-15T07:01:02Z</time>
      </trkpt>
      <trkpt lat="45.94872" lon="4.52323">
        <ele>357</ele>
        <time>2016-09-15T07:01:09Z</time>
      </trkpt>
      <trkpt lat="45.94873" lon="4.52322">
        <ele>356</ele>
        <time>2016-09-15T07:01:10Z</time>
      </trkpt>
      <trkpt lat="45.94878" lon="4.52313">
        <ele>356</ele>
        <time>2016-09-15T07:01:16Z</time>
      </trkpt>
      <trkpt lat="45.94879" lon="4.52312">
        <ele>356</ele>
        <time>2016-09-15T07:01:17Z</time>
      </trkpt>
      <trkpt lat="45.94885" lon="4.52303">
        <ele>356</ele>
        <time>2016-09-15T07:01:24Z</time>
      </trkpt>
      <trkpt lat="45.94886" lon="4.52302">
        <ele>356</ele>
        <time>2016-09-15T07:01:25Z</time>
      </trkpt>
      <trkpt lat="45.9489" lon="4.52292">
        <ele>356</ele>
        <time>2016-09-15T07:01:31Z</time>
      </trkpt>
      <trkpt lat="45.94891" lon="4.52291">
        <ele>356</ele>
        <time>2016-09-15T07:01:32Z</time>
      </trkpt>
      <trkpt lat="45.94897" lon="4.52282">
        <ele>357</ele>
        <time>2016-09-15T07:01:38Z</time>
      </trkpt>
      <trkpt lat="45.94898" lon="4.52281">
        <ele>357</ele>
        <time>2016-09-15T07:01:39Z</time>
      </trkpt>
      <trkpt lat="45.94904" lon="4.52272">
        <ele>357</ele>
        <time>2016-09-15T07:01:45Z</time>
      </trkpt>
      <trkpt lat="45.94904" lon="4.52271">
        <ele>357</ele>
        <time>2016-09-15T07:01:46Z</time>
      </trkpt>
      <trkpt lat="45.9491" lon="4.52262">
        <ele>358</ele>
        <time>2016-09-15T07:01:52Z</time>
      </trkpt>
      <trkpt lat="45.94911" lon="4.52261">
        <ele>358</ele>
        <time>2016-09-15T07:01:53Z</time>
      </trkpt>
      <trkpt lat="45.94916" lon="4.52251">
        <ele>359</ele>
        <time>2016-09-15T07:02:00Z</time>
      </trkpt>
      <trkpt lat="45.94917" lon="4.5225">
        <ele>359</ele>
        <time>2016-09-15T07:02:01Z</time>
      </trkpt>
      <trkpt lat="45.94921" lon="4.5224">
        <ele>357</ele>
        <time>2016-09-15T07:02:07Z</time>
      </trkpt>
      <trkpt lat="45.94922" lon="4.52238">
        <ele>357</ele>
        <time>2016-09-15T07:02:08Z</time>
      </trkpt>
      <trkpt lat="45.94925" lon="4.52227">
        <ele>356</ele>
        <time>2016-09-15T07:02:14Z</time>
      </trkpt>
      <trkpt lat="45.94925" lon="4.52226">
        <ele>355</ele>
        <time>2016-09-15T07:02:15Z</time>
      </trkpt>
      <trkpt lat="45.94928" lon="4.52215">
        <ele>355</ele>
        <time>2016-09-15T07:02:21Z</time>
      </trkpt>
      <trkpt lat="45.94929" lon="4.52214">
        <ele>355</ele>
        <time>2016-09-15T07:02:22Z</time>
      </trkpt>
      <trkpt lat="45.94932" lon="4.52204">
        <ele>356</ele>
        <time>2016-09-15T07:02:28Z</time>
      </trkpt>
      <trkpt lat="45.94933" lon="4.52202">
        <ele>356</ele>
        <time>2016-09-15T07:02:29Z</time>
      </trkpt>
      <trkpt lat="45.94936" lon="4.52191">
        <ele>356</ele>
        <time>2016-09-15T07:02:36Z</time>
      </trkpt>
      <trkpt lat="45.94937" lon="4.5219">
        <ele>356</ele>
        <time>2016-09-15T07:02:37Z</time>
      </trkpt>
      <trkpt lat="45.9494" lon="4.52178">
        <ele>357</ele>
        <time>2016-09-15T07:02:44Z</time>
      </trkpt>
      <trkpt lat="45.94941" lon="4.52177">
        <ele>357</ele>
        <time>2016-09-15T07:02:45Z</time>
      </trkpt>
      <trkpt lat="45.94944" lon="4.52166">
        <ele>360</ele>
        <time>2016-09-15T07:02:51Z</time>
      </trkpt>
      <trkpt lat="45.94945" lon="4.52165">
        <ele>360</ele>
        <time>2016-09-15T07:02:52Z</time>
      </trkpt>
      <trkpt lat="45.94948" lon="4.52155">
        <ele>359</ele>
        <time>2016-09-15T07:02:58Z</time>
      </trkpt>
      <trkpt lat="45.94949" lon="4.52153">
        <ele>359</ele>
        <time>2016-09-15T07:02:59Z</time>
      </trkpt>
      <trkpt lat="45.94953" lon="4.52143">
        <ele>359</ele>
        <time>2016-09-15T07:03:05Z</time>
      </trkpt>
      <trkpt lat="45.94954" lon="4.52142">
        <ele>359</ele>
        <time>2016-09-15T07:03:06Z</time>
      </trkpt>
      <trkpt lat="45.94958" lon="4.52131">
        <ele>359</ele>
        <time>2016-09-15T07:03:12Z</time>
      </trkpt>
      <trkpt lat="45.94958" lon="4.52129">
        <ele>359</ele>
        <time>2016-09-15T07:03:13Z</time>
      </trkpt>
      <trkpt lat="45.94963" lon="4.5212">
        <ele>359</ele>
        <time>2016-09-15T07:03:19Z</time>
      </trkpt>
      <trkpt lat="45.94964" lon="4.52118">
        <ele>359</ele>
        <time>2016-09-15T07:03:20Z</time>
      </trkpt>
      <trkpt lat="45.94969" lon="4.52108">
        <ele>359</ele>
        <time>2016-09-15T07:03:27Z</time>
      </trkpt>
      <trkpt lat="45.94969" lon="4.52106">
        <ele>359</ele>
        <time>2016-09-15T07:03:28Z</time>
      </trkpt>
      <trkpt lat="45.94973" lon="4.52097">
        <ele>360</ele>
        <time>2016-09-15T07:03:34Z</time>
      </trkpt>
      <trkpt lat="45.94974" lon="4.52095">
        <ele>360</ele>
        <time>2016-09-15T07:03:35Z</time>
      </trkpt>
      <trkpt lat="45.94979" lon="4.52085">
        <ele>360</ele>
        <time>2016-09-15T07:03:42Z</time>
      </trkpt>
      <trkpt lat="45.9498" lon="4.52083">
        <ele>360</ele>
        <time>2016-09-15T07:03:43Z</time>
      </trkpt>
      <trkpt lat="45.94984" lon="4.52073">
        <ele>361</ele>
        <time>2016-09-15T07:03:50Z</time>
      </trkpt>
      <trkpt lat="45.94985" lon="4.52071">
        <ele>361</ele>
        <time>2016-09-15T07:03:51Z</time>
      </trkpt>
      <trkpt lat="45.9499" lon="4.52062">
        <ele>360</ele>
        <time>2016-09-15T07:03:57Z</time>
      </trkpt>
      <trkpt lat="45.9499" lon="4.52061">
        <ele>360</ele>
        <time>2016-09-15T07:03:58Z</time>
      </trkpt>
      <trkpt lat="45.94995" lon="4.52052">
        <ele>360</ele>
        <time>2016-09-15T07:04:04Z</time>
      </trkpt>
      <trkpt lat="45.94996" lon="4.5205">
        <ele>360</ele>
        <time>2016-09-15T07:04:05Z</time>
      </trkpt>
      <trkpt lat="45.95" lon="4.52041">
        <ele>360</ele>
        <time>2016-09-15T07:04:11Z</time>
      </trkpt>
      <trkpt lat="45.95001" lon="4.52039">
        <ele>360</ele>
        <time>2016-09-15T07:04:12Z</time>
      </trkpt>
      <trkpt lat="45.95005" lon="4.52029">
        <ele>360</ele>
        <time>2016-09-15T07:04:18Z</time>
      </trkpt>
      <trkpt lat="45.95006" lon="4.52028">
        <ele>360</ele>
        <time>2016-09-15T07:04:19Z</time>
      </trkpt>
      <trkpt lat="45.9501" lon="4.52018">
        <ele>360</ele>
        <time>2016-09-15T07:04:25Z</time>
      </trkpt>
      <trkpt lat="45.95011" lon="4.52017">
        <ele>360</ele>
        <time>2016-09-15T07:04:26Z</time>
      </trkpt>
      <trkpt lat="45.95017" lon="4.52008">
        <ele>361</ele>
        <time>2016-09-15T07:04:32Z</time>
      </trkpt>
      <trkpt lat="45.95018" lon="4.52007">
        <ele>361</ele>
        <time>2016-09-15T07:04:33Z</time>
      </trkpt>
      <trkpt lat="45.95023" lon="4.51999">
        <ele>362</ele>
        <time>2016-09-15T07:04:39Z</time>
      </trkpt>
      <trkpt lat="45.95024" lon="4.51998">
        <ele>362</ele>
        <time>2016-09-15T07:04:40Z</time>
      </trkpt>
      <trkpt lat="45.95031" lon="4.51989">
        <ele>362</ele>
        <time>2016-09-15T07:04:47Z</time>
      </trkpt>
      <trkpt lat="45.95032" lon="4.51988">
        <ele>362</ele>
        <time>2016-09-15T07:04:48Z</time>
      </trkpt>
      <trkpt lat="45.95037" lon="4.5198">
        <ele>362</ele>
        <time>2016-09-15T07:04:54Z</time>
      </trkpt>
      <trkpt lat="45.95038" lon="4.51978">
        <ele>362</ele>
        <time>2016-09-15T07:04:55Z</time>
      </trkpt>
      <trkpt lat="45.95044" lon="4.51969">
        <ele>362</ele>
        <time>2016-09-15T07:05:01Z</time>
      </trkpt>
      <trkpt lat="45.95045" lon="4.51968">
        <ele>362</ele>
        <time>2016-09-15T07:05:02Z</time>
      </trkpt>
      <trkpt lat="45.9505" lon="4.5196">
        <ele>362</ele>
        <time>2016-09-15T07:05:08Z</time>
      </trkpt>
      <trkpt lat="45.95051" lon="4.51958">
        <ele>362</ele>
        <time>2016-09-15T07:05:09Z</time>
      </trkpt>
      <trkpt lat="45.95057" lon="4.5195">
        <ele>363</ele>
        <time>2016-09-15T07:05:15Z</time>
      </trkpt>
      <trkpt lat="45.95058" lon="4.51949">
        <ele>363</ele>
        <time>2016-09-15T07:05:16Z</time>
      </trkpt>
      <trkpt lat="45.95065" lon="4.51941">
        <ele>364</ele>
        <time>2016-09-15T07:05:22Z</time>
      </trkpt>
      <trkpt lat="45.95066" lon="4.5194">
        <ele>364</ele>
        <time>2016-09-15T07:05:23Z</time>
      </trkpt>
      <trkpt lat="45.95072" lon="4.51932">
        <ele>365</ele>
        <time>2016-09-15T07:05:29Z</time>
      </trkpt>
      <trkpt lat="45.95073" lon="4.51931">
        <ele>365</ele>
        <time>2016-09-15T07:05:30Z</time>
      </trkpt>
      <trkpt lat="45.95081" lon="4.51924">
        <ele>366</ele>
        <time>2016-09-15T07:05:36Z</time>
      </trkpt>
      <trkpt lat="45.95082" lon="4.51923">
        <ele>367</ele>
        <time>2016-09-15T07:05:37Z</time>
      </trkpt>
      <trkpt lat="45.95088" lon="4.51917">
        <ele>366</ele>
        <time>2016-09-15T07:05:42Z</time>
      </trkpt>
      <trkpt lat="45.9509" lon="4.51916">
        <ele>367</ele>
        <time>2016-09-15T07:05:43Z</time>
      </trkpt>
      <trkpt lat="45.95096" lon="4.51908">
        <ele>367</ele>
        <time>2016-09-15T07:05:49Z</time>
      </trkpt>
      <trkpt lat="45.95097" lon="4.51907">
        <ele>367</ele>
        <time>2016-09-15T07:05:50Z</time>
      </trkpt>
      <trkpt lat="45.95103" lon="4.51899">
        <ele>366</ele>
        <time>2016-09-15T07:05:57Z</time>
      </trkpt>
      <trkpt lat="45.95104" lon="4.51898">
        <ele>366</ele>
        <time>2016-09-15T07:05:58Z</time>
      </trkpt>
      <trkpt lat="45.9511" lon="4.5189">
        <ele>366</ele>
        <time>2016-09-15T07:06:05Z</time>
      </trkpt>
      <trkpt lat="45.95111" lon="4.51888">
        <ele>366</ele>
        <time>2016-09-15T07:06:06Z</time>
      </trkpt>
      <trkpt lat="45.95118" lon="4.5188">
        <ele>366</ele>
        <time>2016-09-15T07:06:12Z</time>
      </trkpt>
      <trkpt lat="45.95119" lon="4.51879">
        <ele>366</ele>
        <time>2016-09-15T07:06:13Z</time>
      </trkpt>
      <trkpt lat="45.95126" lon="4.51872">
        <ele>366</ele>
        <time>2016-09-15T07:06:19Z</time>
      </trkpt>
      <trkpt lat="45.95127" lon="4.51871">
        <ele>366</ele>
        <time>2016-09-15T07:06:20Z</time>
      </trkpt>
      <trkpt lat="45.95134" lon="4.51865">
        <ele>366</ele>
        <time>2016-09-15T07:06:25Z</time>
      </trkpt>
      <trkpt lat="45.95135" lon="4.51864">
        <ele>366</ele>
        <time>2016-09-15T07:06:26Z</time>
      </trkpt>
      <trkpt lat="45.95141" lon="4.51857">
        <ele>367</ele>
        <time>2016-09-15T07:06:32Z</time>
      </trkpt>
      <trkpt lat="45.95143" lon="4.51856">
        <ele>367</ele>
        <time>2016-09-15T07:06:33Z</time>
      </trkpt>
      <trkpt lat="45.95149" lon="4.51848">
        <ele>367</ele>
        <time>2016-09-15T07:06:39Z</time>
      </trkpt>
      <trkpt lat="45.9515" lon="4.51847">
        <ele>367</ele>
        <time>2016-09-15T07:06:40Z</time>
      </trkpt>
      <trkpt lat="45.95157" lon="4.5184">
        <ele>368</ele>
        <time>2016-09-15T07:06:46Z</time>
      </trkpt>
      <trkpt lat="45.95158" lon="4.51838">
        <ele>369</ele>
        <time>2016-09-15T07:06:47Z</time>
      </trkpt>
      <trkpt lat="45.95161" lon="4.51828">
        <ele>371</ele>
        <time>2016-09-15T07:06:53Z</time>
      </trkpt>
      <trkpt lat="45.95161" lon="4.51826">
        <ele>371</ele>
        <time>2016-09-15T07:06:54Z</time>
      </trkpt>
      <trkpt lat="45.95163" lon="4.51815">
        <ele>372</ele>
        <time>2016-09-15T07:07:01Z</time>
      </trkpt>
      <trkpt lat="45.95164" lon="4.51813">
        <ele>372</ele>
        <time>2016-09-15T07:07:02Z</time>
      </trkpt>
      <trkpt lat="45.95167" lon="4.51802">
        <ele>370</ele>
        <time>2016-09-15T07:07:09Z</time>
      </trkpt>
      <trkpt lat="45.95168" lon="4.518">
        <ele>370</ele>
        <time>2016-09-15T07:07:10Z</time>
      </trkpt>
      <trkpt lat="45.95174" lon="4.51792">
        <ele>371</ele>
        <time>2016-09-15T07:07:17Z</time>
      </trkpt>
      <trkpt lat="45.95174" lon="4.5179">
        <ele>371</ele>
        <time>2016-09-15T07:07:18Z</time>
      </trkpt>
      <trkpt lat="45.95178" lon="4.5178">
        <ele>372</ele>
        <time>2016-09-15T07:07:25Z</time>
      </trkpt>
      <trkpt lat="45.95179" lon="4.51778">
        <ele>373</ele>
        <time>2016-09-15T07:07:26Z</time>
      </trkpt>
      <trkpt lat="45.95185" lon="4.51768">
        <ele>374</ele>
        <time>2016-09-15T07:07:34Z</time>
      </trkpt>
      <trkpt lat="45.95186" lon="4.51767">
        <ele>374</ele>
        <time>2016-09-15T07:07:35Z</time>
      </trkpt>
      <trkpt lat="45.95191" lon="4.51758">
        <ele>374</ele>
        <time>2016-09-15T07:07:42Z</time>
      </trkpt>
      <trkpt lat="45.95191" lon="4.51757">
        <ele>374</ele>
        <time>2016-09-15T07:07:43Z</time>
      </trkpt>
      <trkpt lat="45.95194" lon="4.51746">
        <ele>383</ele>
        <time>2016-09-15T07:07:50Z</time>
      </trkpt>
      <trkpt lat="45.95195" lon="4.51745">
        <ele>383</ele>
        <time>2016-09-15T07:07:51Z</time>
      </trkpt>
      <trkpt lat="45.95198" lon="4.51733">
        <ele>383</ele>
        <time>2016-09-15T07:07:59Z</time>
      </trkpt>
      <trkpt lat="45.95199" lon="4.51731">
        <ele>383</ele>
        <time>2016-09-15T07:08:00Z</time>
      </trkpt>
      <trkpt lat="45.95201" lon="4.5172">
        <ele>384</ele>
        <time>2016-09-15T07:08:08Z</time>
      </trkpt>
      <trkpt lat="45.95201" lon="4.51718">
        <ele>384</ele>
        <time>2016-09-15T07:08:09Z</time>
      </trkpt>
      <trkpt lat="45.95203" lon="4.51707">
        <ele>385</ele>
        <time>2016-09-15T07:08:17Z</time>
      </trkpt>
      <trkpt lat="45.95204" lon="4.51705">
        <ele>385</ele>
        <time>2016-09-15T07:08:18Z</time>
      </trkpt>
      <trkpt lat="45.95209" lon="4.51694">
        <ele>385</ele>
        <time>2016-09-15T07:08:27Z</time>
      </trkpt>
      <trkpt lat="45.9521" lon="4.51694">
        <ele>385</ele>
        <time>2016-09-15T07:08:28Z</time>
      </trkpt>
      <trkpt lat="45.95214" lon="4.51683">
        <ele>386</ele>
        <time>2016-09-15T07:08:37Z</time>
      </trkpt>
      <trkpt lat="45.95215" lon="4.51682">
        <ele>386</ele>
        <time>2016-09-15T07:08:38Z</time>
      </trkpt>
      <trkpt lat="45.9522" lon="4.51674">
        <ele>386</ele>
        <time>2016-09-15T07:08:46Z</time>
      </trkpt>
      <trkpt lat="45.95221" lon="4.51672">
        <ele>387</ele>
        <time>2016-09-15T07:08:47Z</time>
      </trkpt>
      <trkpt lat="45.95226" lon="4.51663">
        <ele>391</ele>
        <time>2016-09-15T07:08:55Z</time>
      </trkpt>
      <trkpt lat="45.95227" lon="4.51662">
        <ele>391</ele>
        <time>2016-09-15T07:08:56Z</time>
      </trkpt>
      <trkpt lat="45.95232" lon="4.51654">
        <ele>391</ele>
        <time>2016-09-15T07:09:03Z</time>
      </trkpt>
      <trkpt lat="45.95233" lon="4.51652">
        <ele>391</ele>
        <time>2016-09-15T07:09:04Z</time>
      </trkpt>
      <trkpt lat="45.95239" lon="4.51645">
        <ele>391</ele>
        <time>2016-09-15T07:09:11Z</time>
      </trkpt>
      <trkpt lat="45.9524" lon="4.51644">
        <ele>391</ele>
        <time>2016-09-15T07:09:12Z</time>
      </trkpt>
      <trkpt lat="45.95245" lon="4.51633">
        <ele>392</ele>
        <time>2016-09-15T07:09:19Z</time>
      </trkpt>
      <trkpt lat="45.95246" lon="4.51631">
        <ele>392</ele>
        <time>2016-09-15T07:09:20Z</time>
      </trkpt>
      <trkpt lat="45.95251" lon="4.51622">
        <ele>388</ele>
        <time>2016-09-15T07:09:26Z</time>
      </trkpt>
      <trkpt lat="45.95252" lon="4.51621">
        <ele>388</ele>
        <time>2016-09-15T07:09:27Z</time>
      </trkpt>
      <trkpt lat="45.95256" lon="4.5161">
        <ele>389</ele>
        <time>2016-09-15T07:09:34Z</time>
      </trkpt>
      <trkpt lat="45.95257" lon="4.51608">
        <ele>389</ele>
        <time>2016-09-15T07:09:35Z</time>
      </trkpt>
      <trkpt lat="45.95261" lon="4.51599">
        <ele>390</ele>
        <time>2016-09-15T07:09:41Z</time>
      </trkpt>
      <trkpt lat="45.95262" lon="4.51597">
        <ele>390</ele>
        <time>2016-09-15T07:09:42Z</time>
      </trkpt>
      <trkpt lat="45.95266" lon="4.51588">
        <ele>391</ele>
        <time>2016-09-15T07:09:48Z</time>
      </trkpt>
      <trkpt lat="45.95267" lon="4.51587">
        <ele>391</ele>
        <time>2016-09-15T07:09:49Z</time>
      </trkpt>
      <trkpt lat="45.9527" lon="4.51576">
        <ele>395</ele>
        <time>2016-09-15T07:09:56Z</time>
      </trkpt>
      <trkpt lat="45.95271" lon="4.51575">
        <ele>394</ele>
        <time>2016-09-15T07:09:57Z</time>
      </trkpt>
      <trkpt lat="45.95276" lon="4.51565">
        <ele>394</ele>
        <time>2016-09-15T07:10:05Z</time>
      </trkpt>
      <trkpt lat="45.95277" lon="4.51564">
        <ele>394</ele>
        <time>2016-09-15T07:10:06Z</time>
      </trkpt>
      <trkpt lat="45.95282" lon="4.51555">
        <ele>394</ele>
        <time>2016-09-15T07:10:13Z</time>
      </trkpt>
      <trkpt lat="45.95283" lon="4.51553">
        <ele>394</ele>
        <time>2016-09-15T07:10:14Z</time>
      </trkpt>
      <trkpt lat="45.95288" lon="4.51543">
        <ele>394</ele>
        <time>2016-09-15T07:10:21Z</time>
      </trkpt>
      <trkpt lat="45.95289" lon="4.51541">
        <ele>394</ele>
        <time>2016-09-15T07:10:22Z</time>
      </trkpt>
      <trkpt lat="45.95295" lon="4.51533">
        <ele>394</ele>
        <time>2016-09-15T07:10:28Z</time>
      </trkpt>
      <trkpt lat="45.95296" lon="4.51532">
        <ele>394</ele>
        <time>2016-09-15T07:10:29Z</time>
      </trkpt>
      <trkpt lat="45.953" lon="4.51522">
        <ele>394</ele>
        <time>2016-09-15T07:10:35Z</time>
      </trkpt>
      <trkpt lat="45.95301" lon="4.5152">
        <ele>395</ele>
        <time>2016-09-15T07:10:36Z</time>
      </trkpt>
      <trkpt lat="45.95304" lon="4.51508">
        <ele>395</ele>
        <time>2016-09-15T07:10:43Z</time>
      </trkpt>
      <trkpt lat="45.95305" lon="4.51507">
        <ele>395</ele>
        <time>2016-09-15T07:10:44Z</time>
      </trkpt>
      <trkpt lat="45.95309" lon="4.51496">
        <ele>398</ele>
        <time>2016-09-15T07:10:51Z</time>
      </trkpt>
      <trkpt lat="45.9531" lon="4.51495">
        <ele>398</ele>
        <time>2016-09-15T07:10:52Z</time>
      </trkpt>
      <trkpt lat="45.95313" lon="4.51483">
        <ele>399</ele>
        <time>2016-09-15T07:10:59Z</time>
      </trkpt>
      <trkpt lat="45.95313" lon="4.51482">
        <ele>399</ele>
        <time>2016-09-15T07:11:00Z</time>
      </trkpt>
      <trkpt lat="45.95316" lon="4.5147">
        <ele>399</ele>
        <time>2016-09-15T07:11:07Z</time>
      </trkpt>
      <trkpt lat="45.95316" lon="4.51468">
        <ele>399</ele>
        <time>2016-09-15T07:11:08Z</time>
      </trkpt>
      <trkpt lat="45.9532" lon="4.51457">
        <ele>400</ele>
        <time>2016-09-15T07:11:15Z</time>
      </trkpt>
      <trkpt lat="45.95321" lon="4.51455">
        <ele>400</ele>
        <time>2016-09-15T07:11:16Z</time>
      </trkpt>
      <trkpt lat="45.95326" lon="4.51446">
        <ele>400</ele>
        <time>2016-09-15T07:11:23Z</time>
      </trkpt>
      <trkpt lat="45.95327" lon="4.51444">
        <ele>401</ele>
        <time>2016-09-15T07:11:24Z</time>
      </trkpt>
      <trkpt lat="45.95332" lon="4.51434">
        <ele>401</ele>
        <time>2016-09-15T07:11:30Z</time>
      </trkpt>
      <trkpt lat="45.95332" lon="4.51433">
        <ele>402</ele>
        <time>2016-09-15T07:11:31Z</time>
      </trkpt>
      <trkpt lat="45.95336" lon="4.51423">
        <ele>400</ele>
        <time>2016-09-15T07:11:37Z</time>
      </trkpt>
      <trkpt lat="45.95337" lon="4.51421">
        <ele>401</ele>
        <time>2016-09-15T07:11:38Z</time>
      </trkpt>
      <trkpt lat="45.95342" lon="4.51412">
        <ele>401</ele>
        <time>2016-09-15T07:11:44Z</time>
      </trkpt>
      <trkpt lat="45.95343" lon="4.51411">
        <ele>401</ele>
        <time>2016-09-15T07:11:45Z</time>
      </trkpt>
      <trkpt lat="45.95349" lon="4.51403">
        <ele>400</ele>
        <time>2016-09-15T07:11:51Z</time>
      </trkpt>
      <trkpt lat="45.9535" lon="4.51402">
        <ele>400</ele>
        <time>2016-09-15T07:11:52Z</time>
      </trkpt>
      <trkpt lat="45.95355" lon="4.51394">
        <ele>399</ele>
        <time>2016-09-15T07:11:58Z</time>
      </trkpt>
      <trkpt lat="45.95356" lon="4.51392">
        <ele>399</ele>
        <time>2016-09-15T07:11:59Z</time>
      </trkpt>
      <trkpt lat="45.9536" lon="4.51381">
        <ele>398</ele>
        <time>2016-09-15T07:12:06Z</time>
      </trkpt>
      <trkpt lat="45.9536" lon="4.51379">
        <ele>398</ele>
        <time>2016-09-15T07:12:07Z</time>
      </trkpt>
      <trkpt lat="45.95362" lon="4.51367">
        <ele>399</ele>
        <time>2016-09-15T07:12:13Z</time>
      </trkpt>
      <trkpt lat="45.95363" lon="4.51365">
        <ele>399</ele>
        <time>2016-09-15T07:12:14Z</time>
      </trkpt>
      <trkpt lat="45.95365" lon="4.51355">
        <ele>399</ele>
        <time>2016-09-15T07:12:19Z</time>
      </trkpt>
      <trkpt lat="45.95366" lon="4.51353">
        <ele>399</ele>
        <time>2016-09-15T07:12:20Z</time>
      </trkpt>
      <trkpt lat="45.95368" lon="4.51341">
        <ele>399</ele>
        <time>2016-09-15T07:12:26Z</time>
      </trkpt>
      <trkpt lat="45.95368" lon="4.51339">
        <ele>399</ele>
        <time>2016-09-15T07:12:27Z</time>
      </trkpt>
      <trkpt lat="45.95369" lon="4.51328">
        <ele>404</ele>
        <time>2016-09-15T07:12:33Z</time>
      </trkpt>
      <trkpt lat="45.95369" lon="4.51326">
        <ele>404</ele>
        <time>2016-09-15T07:12:34Z</time>
      </trkpt>
      <trkpt lat="45.95371" lon="4.51313">
        <ele>404</ele>
        <time>2016-09-15T07:12:40Z</time>
      </trkpt>
      <trkpt lat="45.95371" lon="4.51312">
        <ele>404</ele>
        <time>2016-09-15T07:12:41Z</time>
      </trkpt>
      <trkpt lat="45.95374" lon="4.51301">
        <ele>404</ele>
        <time>2016-09-15T07:12:47Z</time>
      </trkpt>
      <trkpt lat="45.95375" lon="4.51299">
        <ele>404</ele>
        <time>2016-09-15T07:12:48Z</time>
      </trkpt>
      <trkpt lat="45.95379" lon="4.51288">
        <ele>404</ele>
        <time>2016-09-15T07:12:54Z</time>
      </trkpt>
      <trkpt lat="45.95379" lon="4.51287">
        <ele>404</ele>
        <time>2016-09-15T07:12:55Z</time>
      </trkpt>
      <trkpt lat="45.95384" lon="4.51276">
        <ele>405</ele>
        <time>2016-09-15T07:13:01Z</time>
      </trkpt>
      <trkpt lat="45.95385" lon="4.51274">
        <ele>405</ele>
        <time>2016-09-15T07:13:02Z</time>
      </trkpt>
      <trkpt lat="45.9539" lon="4.51265">
        <ele>405</ele>
        <time>2016-09-15T07:13:08Z</time>
      </trkpt>
      <trkpt lat="45.9539" lon="4.51264">
        <ele>405</ele>
        <time>2016-09-15T07:13:09Z</time>
      </trkpt>
      <trkpt lat="45.95395" lon="4.51255">
        <ele>405</ele>
        <time>2016-09-15T07:13:15Z</time>
      </trkpt>
      <trkpt lat="45.95396" lon="4.51253">
        <ele>405</ele>
        <time>2016-09-15T07:13:16Z</time>
      </trkpt>
      <trkpt lat="45.954" lon="4.51244">
        <ele>408</ele>
        <time>2016-09-15T07:13:23Z</time>
      </trkpt>
      <trkpt lat="45.95401" lon="4.51242">
        <ele>408</ele>
        <time>2016-09-15T07:13:24Z</time>
      </trkpt>
      <trkpt lat="45.95406" lon="4.51232">
        <ele>409</ele>
        <time>2016-09-15T07:13:31Z</time>
      </trkpt>
      <trkpt lat="45.95406" lon="4.51231">
        <ele>409</ele>
        <time>2016-09-15T07:13:32Z</time>
      </trkpt>
      <trkpt lat="45.95411" lon="4.51221">
        <ele>410</ele>
        <time>2016-09-15T07:13:39Z</time>
      </trkpt>
      <trkpt lat="45.95411" lon="4.51219">
        <ele>410</ele>
        <time>2016-09-15T07:13:40Z</time>
      </trkpt>
      <trkpt lat="45.95418" lon="4.51211">
        <ele>410</ele>
        <time>2016-09-15T07:13:48Z</time>
      </trkpt>
      <trkpt lat="45.95419" lon="4.5121">
        <ele>410</ele>
        <time>2016-09-15T07:13:49Z</time>
      </trkpt>
      <trkpt lat="45.95425" lon="4.51201">
        <ele>411</ele>
        <time>2016-09-15T07:16:14Z</time>
      </trkpt>
      <trkpt lat="45.95426" lon="4.512">
        <ele>412</ele>
        <time>2016-09-15T07:16:15Z</time>
      </trkpt>
      <trkpt lat="45.95432" lon="4.51191">
        <ele>412</ele>
        <time>2016-09-15T07:16:23Z</time>
      </trkpt>
      <trkpt lat="45.95432" lon="4.5119">
        <ele>413</ele>
        <time>2016-09-15T07:16:24Z</time>
      </trkpt>
      <trkpt lat="45.95438" lon="4.5118">
        <ele>413</ele>
        <time>2016-09-15T07:16:32Z</time>
      </trkpt>
      <trkpt lat="45.95438" lon="4.51179">
        <ele>413</ele>
        <time>2016-09-15T07:16:33Z</time>
      </trkpt>
      <trkpt lat="45.95443" lon="4.51169">
        <ele>413</ele>
        <time>2016-09-15T07:16:41Z</time>
      </trkpt>
      <trkpt lat="45.95443" lon="4.51167">
        <ele>413</ele>
        <time>2016-09-15T07:16:42Z</time>
      </trkpt>
      <trkpt lat="45.95449" lon="4.51158">
        <ele>421</ele>
        <time>2016-09-15T07:16:50Z</time>
      </trkpt>
      <trkpt lat="45.95449" lon="4.51157">
        <ele>421</ele>
        <time>2016-09-15T07:16:51Z</time>
      </trkpt>
      <trkpt lat="45.95454" lon="4.51146">
        <ele>422</ele>
        <time>2016-09-15T07:17:00Z</time>
      </trkpt>
      <trkpt lat="45.95455" lon="4.51146">
        <ele>422</ele>
        <time>2016-09-15T07:17:01Z</time>
      </trkpt>
      <trkpt lat="45.9546" lon="4.51137">
        <ele>422</ele>
        <time>2016-09-15T07:17:10Z</time>
      </trkpt>
      <trkpt lat="45.95461" lon="4.51136">
        <ele>422</ele>
        <time>2016-09-15T07:17:11Z</time>
      </trkpt>
      <trkpt lat="45.95467" lon="4.51128">
        <ele>423</ele>
        <time>2016-09-15T07:17:19Z</time>
      </trkpt>
      <trkpt lat="45.95467" lon="4.51127">
        <ele>423</ele>
        <time>2016-09-15T07:17:20Z</time>
      </trkpt>
      <trkpt lat="45.95473" lon="4.51119">
        <ele>424</ele>
        <time>2016-09-15T07:17:29Z</time>
      </trkpt>
      <trkpt lat="45.95474" lon="4.51118">
        <ele>424</ele>
        <time>2016-09-15T07:17:30Z</time>
      </trkpt>
      <trkpt lat="45.95481" lon="4.51109">
        <ele>425</ele>
        <time>2016-09-15T07:17:39Z</time>
      </trkpt>
      <trkpt lat="45.95481" lon="4.51108">
        <ele>426</ele>
        <time>2016-09-15T07:17:40Z</time>
      </trkpt>
      <trkpt lat="45.95487" lon="4.51099">
        <ele>428</ele>
        <time>2016-09-15T07:17:50Z</time>
      </trkpt>
      <trkpt lat="45.95487" lon="4.51098">
        <ele>428</ele>
        <time>2016-09-15T07:17:51Z</time>
      </trkpt>
      <trkpt lat="45.95493" lon="4.51089">
        <ele>431</ele>
        <time>2016-09-15T07:18:01Z</time>
      </trkpt>
      <trkpt lat="45.95494" lon="4.51088">
        <ele>431</ele>
        <time>2016-09-15T07:18:02Z</time>
      </trkpt>
      <trkpt lat="45.95498" lon="4.51078">
        <ele>434</ele>
        <time>2016-09-15T07:18:11Z</time>
      </trkpt>
      <trkpt lat="45.95499" lon="4.51077">
        <ele>433</ele>
        <time>2016-09-15T07:18:12Z</time>
      </trkpt>
      <trkpt lat="45.95504" lon="4.51067">
        <ele>434</ele>
        <time>2016-09-15T07:18:21Z</time>
      </trkpt>
      <trkpt lat="45.95505" lon="4.51066">
        <ele>434</ele>
        <time>2016-09-15T07:18:22Z</time>
      </trkpt>
      <trkpt lat="45.9551" lon="4.51056">
        <ele>434</ele>
        <time>2016-09-15T07:18:32Z</time>
      </trkpt>
      <trkpt lat="45.9551" lon="4.51054">
        <ele>434</ele>
        <time>2016-09-15T07:18:33Z</time>
      </trkpt>
      <trkpt lat="45.95515" lon="4.51043">
        <ele>434</ele>
        <time>2016-09-15T07:18:43Z</time>
      </trkpt>
      <trkpt lat="45.95515" lon="4.51042">
        <ele>434</ele>
        <time>2016-09-15T07:18:44Z</time>
      </trkpt>
      <trkpt lat="45.9552" lon="4.51032">
        <ele>435</ele>
        <time>2016-09-15T07:18:54Z</time>
      </trkpt>
      <trkpt lat="45.95521" lon="4.51031">
        <ele>435</ele>
        <time>2016-09-15T07:18:55Z</time>
      </trkpt>
      <trkpt lat="45.95525" lon="4.5102">
        <ele>436</ele>
        <time>2016-09-15T07:19:04Z</time>
      </trkpt>
      <trkpt lat="45.95526" lon="4.51019">
        <ele>436</ele>
        <time>2016-09-15T07:19:05Z</time>
      </trkpt>
      <trkpt lat="45.9553" lon="4.51008">
        <ele>436</ele>
        <time>2016-09-15T07:19:15Z</time>
      </trkpt>
      <trkpt lat="45.9553" lon="4.51007">
        <ele>436</ele>
        <time>2016-09-15T07:19:16Z</time>
      </trkpt>
      <trkpt lat="45.95533" lon="4.50995">
        <ele>442</ele>
        <time>2016-09-15T07:19:26Z</time>
      </trkpt>
      <trkpt lat="45.95533" lon="4.50994">
        <ele>442</ele>
        <time>2016-09-15T07:19:27Z</time>
      </trkpt>
      <trkpt lat="45.95535" lon="4.50982">
        <ele>442</ele>
        <time>2016-09-15T07:19:38Z</time>
      </trkpt>
      <trkpt lat="45.95535" lon="4.50981">
        <ele>442</ele>
        <time>2016-09-15T07:19:39Z</time>
      </trkpt>
      <trkpt lat="45.95537" lon="4.50969">
        <ele>443</ele>
        <time>2016-09-15T07:19:50Z</time>
      </trkpt>
      <trkpt lat="45.95537" lon="4.50968">
        <ele>443</ele>
        <time>2016-09-15T07:19:51Z</time>
      </trkpt>
      <trkpt lat="45.9554" lon="4.50955">
        <ele>443</ele>
        <time>2016-09-15T07:20:01Z</time>
      </trkpt>
      <trkpt lat="45.9554" lon="4.50954">
        <ele>443</ele>
        <time>2016-09-15T07:20:02Z</time>
      </trkpt>
      <trkpt lat="45.95543" lon="4.50943">
        <ele>444</ele>
        <time>2016-09-15T07:20:12Z</time>
      </trkpt>
      <trkpt lat="45.95543" lon="4.50941">
        <ele>444</ele>
        <time>2016-09-15T07:20:13Z</time>
      </trkpt>
      <trkpt lat="45.95547" lon="4.5093">
        <ele>445</ele>
        <time>2016-09-15T07:20:23Z</time>
      </trkpt>
      <trkpt lat="45.95547" lon="4.50929">
        <ele>445</ele>
        <time>2016-09-15T07:20:24Z</time>
      </trkpt>
      <trkpt lat="45.95553" lon="4.50919">
        <ele>446</ele>
        <time>2016-09-15T07:20:33Z</time>
      </trkpt>
      <trkpt lat="45.95554" lon="4.50918">
        <ele>446</ele>
        <time>2016-09-15T07:20:34Z</time>
      </trkpt>
      <trkpt lat="45.9556" lon="4.50909">
        <ele>452</ele>
        <time>2016-09-15T07:20:42Z</time>
      </trkpt>
      <trkpt lat="45.9556" lon="4.50908">
        <ele>452</ele>
        <time>2016-09-15T07:20:43Z</time>
      </trkpt>
      <trkpt lat="45.95567" lon="4.50899">
        <ele>453</ele>
        <time>2016-09-15T07:20:51Z</time>
      </trkpt>
      <trkpt lat="45.95568" lon="4.50898">
        <ele>453</ele>
        <time>2016-09-15T07:20:52Z</time>
      </trkpt>
      <trkpt lat="45.95573" lon="4.5089">
        <ele>453</ele>
        <time>2016-09-15T07:21:00Z</time>
      </trkpt>
      <trkpt lat="45.95574" lon="4.50889">
        <ele>453</ele>
        <time>2016-09-15T07:21:01Z</time>
      </trkpt>
      <trkpt lat="45.9558" lon="4.50879">
        <ele>455</ele>
        <time>2016-09-15T07:21:10Z</time>
      </trkpt>
      <trkpt lat="45.9558" lon="4.50878">
        <ele>455</ele>
        <time>2016-09-15T07:21:11Z</time>
      </trkpt>
      <trkpt lat="45.95586" lon="4.50869">
        <ele>459</ele>
        <time>2016-09-15T07:21:19Z</time>
      </trkpt>
      <trkpt lat="45.95586" lon="4.50868">
        <ele>459</ele>
        <time>2016-09-15T07:21:20Z</time>
      </trkpt>
      <trkpt lat="45.95591" lon="4.50859">
        <ele>460</ele>
        <time>2016-09-15T07:21:29Z</time>
      </trkpt>
      <trkpt lat="45.95592" lon="4.50858">
        <ele>460</ele>
        <time>2016-09-15T07:21:30Z</time>
      </trkpt>
      <trkpt lat="45.95597" lon="4.50849">
        <ele>462</ele>
        <time>2016-09-15T07:21:39Z</time>
      </trkpt>
      <trkpt lat="45.95597" lon="4.50848">
        <ele>462</ele>
        <time>2016-09-15T07:21:40Z</time>
      </trkpt>
      <trkpt lat="45.95602" lon="4.50837">
        <ele>462</ele>
        <time>2016-09-15T07:21:50Z</time>
      </trkpt>
      <trkpt lat="45.95602" lon="4.50836">
        <ele>462</ele>
        <time>2016-09-15T07:21:51Z</time>
      </trkpt>
      <trkpt lat="45.95608" lon="4.50827">
        <ele>471</ele>
        <time>2016-09-15T07:22:02Z</time>
      </trkpt>
      <trkpt lat="45.95608" lon="4.50826">
        <ele>471</ele>
        <time>2016-09-15T07:22:03Z</time>
      </trkpt>
      <trkpt lat="45.95614" lon="4.50816">
        <ele>472</ele>
        <time>2016-09-15T07:22:14Z</time>
      </trkpt>
      <trkpt lat="45.95614" lon="4.50815">
        <ele>472</ele>
        <time>2016-09-15T07:22:15Z</time>
      </trkpt>
      <trkpt lat="45.95619" lon="4.50805">
        <ele>473</ele>
        <time>2016-09-15T07:22:25Z</time>
      </trkpt>
      <trkpt lat="45.95619" lon="4.50804">
        <ele>473</ele>
        <time>2016-09-15T07:22:26Z</time>
      </trkpt>
      <trkpt lat="45.95624" lon="4.50793">
        <ele>474</ele>
        <time>2016-09-15T07:22:37Z</time>
      </trkpt>
      <trkpt lat="45.95624" lon="4.50792">
        <ele>474</ele>
        <time>2016-09-15T07:22:38Z</time>
      </trkpt>
      <trkpt lat="45.95624" lon="4.5078">
        <ele>475</ele>
        <time>2016-09-15T07:22:50Z</time>
      </trkpt>
      <trkpt lat="45.95624" lon="4.50779">
        <ele>475</ele>
        <time>2016-09-15T07:22:51Z</time>
      </trkpt>
      <trkpt lat="45.95622" lon="4.50767">
        <ele>475</ele>
        <time>2016-09-15T07:23:05Z</time>
      </trkpt>
      <trkpt lat="45.95622" lon="4.50766">
        <ele>475</ele>
        <time>2016-09-15T07:23:06Z</time>
      </trkpt>
      <trkpt lat="45.95617" lon="4.50756">
        <ele>475</ele>
        <time>2016-09-15T07:23:18Z</time>
      </trkpt>
      <trkpt lat="45.95617" lon="4.50755">
        <ele>475</ele>
        <time>2016-09-15T07:23:19Z</time>
      </trkpt>
      <trkpt lat="45.95616" lon="4.50743">
        <ele>481</ele>
        <time>2016-09-15T07:23:29Z</time>
      </trkpt>
      <trkpt lat="45.95616" lon="4.50741">
        <ele>482</ele>
        <time>2016-09-15T07:23:30Z</time>
      </trkpt>
      <trkpt lat="45.95616" lon="4.50729">
        <ele>482</ele>
        <time>2016-09-15T07:23:40Z</time>
      </trkpt>
      <trkpt lat="45.95616" lon="4.50728">
        <ele>482</ele>
        <time>2016-09-15T07:23:41Z</time>
      </trkpt>
      <trkpt lat="45.95616" lon="4.50715">
        <ele>483</ele>
        <time>2016-09-15T07:23:50Z</time>
      </trkpt>
      <trkpt lat="45.95616" lon="4.50714">
        <ele>483</ele>
        <time>2016-09-15T07:23:51Z</time>
      </trkpt>
      <trkpt lat="45.95616" lon="4.50702">
        <ele>483</ele>
        <time>2016-09-15T07:24:00Z</time>
      </trkpt>
      <trkpt lat="45.95616" lon="4.50701">
        <ele>484</ele>
        <time>2016-09-15T07:24:01Z</time>
      </trkpt>
      <trkpt lat="45.95616" lon="4.50689">
        <ele>484</ele>
        <time>2016-09-15T07:24:10Z</time>
      </trkpt>
      <trkpt lat="45.95616" lon="4.50688">
        <ele>484</ele>
        <time>2016-09-15T07:24:11Z</time>
      </trkpt>
      <trkpt lat="45.95617" lon="4.50675">
        <ele>484</ele>
        <time>2016-09-15T07:24:20Z</time>
      </trkpt>
      <trkpt lat="45.95617" lon="4.50674">
        <ele>484</ele>
        <time>2016-09-15T07:24:21Z</time>
      </trkpt>
      <trkpt lat="45.95617" lon="4.50661">
        <ele>491</ele>
        <time>2016-09-15T07:24:30Z</time>
      </trkpt>
      <trkpt lat="45.95617" lon="4.5066">
        <ele>491</ele>
        <time>2016-09-15T07:24:31Z</time>
      </trkpt>
      <trkpt lat="45.95615" lon="4.50648">
        <ele>492</ele>
        <time>2016-09-15T07:24:39Z</time>
      </trkpt>
      <trkpt lat="45.95615" lon="4.50647">
        <ele>492</ele>
        <time>2016-09-15T07:24:40Z</time>
      </trkpt>
      <trkpt lat="45.95615" lon="4.50634">
        <ele>493</ele>
        <time>2016-09-15T07:24:50Z</time>
      </trkpt>
      <trkpt lat="45.95615" lon="4.50633">
        <ele>493</ele>
        <time>2016-09-15T07:24:51Z</time>
      </trkpt>
      <trkpt lat="45.95613" lon="4.50621">
        <ele>494</ele>
        <time>2016-09-15T07:25:00Z</time>
      </trkpt>
      <trkpt lat="45.95613" lon="4.5062">
        <ele>494</ele>
        <time>2016-09-15T07:25:01Z</time>
      </trkpt>
      <trkpt lat="45.95613" lon="4.50607">
        <ele>495</ele>
        <time>2016-09-15T07:25:10Z</time>
      </trkpt>
      <trkpt lat="45.95612" lon="4.50606">
        <ele>496</ele>
        <time>2016-09-15T07:25:11Z</time>
      </trkpt>
      <trkpt lat="45.95612" lon="4.50593">
        <ele>497</ele>
        <time>2016-09-15T07:25:21Z</time>
      </trkpt>
      <trkpt lat="45.95612" lon="4.50592">
        <ele>497</ele>
        <time>2016-09-15T07:25:22Z</time>
      </trkpt>
      <trkpt lat="45.95611" lon="4.50579">
        <ele>503</ele>
        <time>2016-09-15T07:25:32Z</time>
      </trkpt>
      <trkpt lat="45.95611" lon="4.50578">
        <ele>503</ele>
        <time>2016-09-15T07:25:33Z</time>
      </trkpt>
      <trkpt lat="45.9561" lon="4.50566">
        <ele>504</ele>
        <time>2016-09-15T07:25:42Z</time>
      </trkpt>
      <trkpt lat="45.9561" lon="4.50564">
        <ele>504</ele>
        <time>2016-09-15T07:25:43Z</time>
      </trkpt>
      <trkpt lat="45.95608" lon="4.50552">
        <ele>504</ele>
        <time>2016-09-15T07:25:52Z</time>
      </trkpt>
      <trkpt lat="45.95608" lon="4.5055">
        <ele>504</ele>
        <time>2016-09-15T07:25:53Z</time>
      </trkpt>
      <trkpt lat="45.95608" lon="4.50538">
        <ele>505</ele>
        <time>2016-09-15T07:26:02Z</time>
      </trkpt>
      <trkpt lat="45.95608" lon="4.50537">
        <ele>505</ele>
        <time>2016-09-15T07:26:03Z</time>
      </trkpt>
      <trkpt lat="45.95606" lon="4.50524">
        <ele>506</ele>
        <time>2016-09-15T07:26:12Z</time>
      </trkpt>
      <trkpt lat="45.95606" lon="4.50522">
        <ele>506</ele>
        <time>2016-09-15T07:26:13Z</time>
      </trkpt>
      <trkpt lat="45.95606" lon="4.50511">
        <ele>507</ele>
        <time>2016-09-15T07:26:21Z</time>
      </trkpt>
      <trkpt lat="45.95606" lon="4.50509">
        <ele>507</ele>
        <time>2016-09-15T07:26:22Z</time>
      </trkpt>
      <trkpt lat="45.95607" lon="4.50497">
        <ele>511</ele>
        <time>2016-09-15T07:26:31Z</time>
      </trkpt>
      <trkpt lat="45.95607" lon="4.50495">
        <ele>511</ele>
        <time>2016-09-15T07:26:32Z</time>
      </trkpt>
      <trkpt lat="45.95608" lon="4.50484">
        <ele>511</ele>
        <time>2016-09-15T07:26:40Z</time>
      </trkpt>
      <trkpt lat="45.95608" lon="4.50482">
        <ele>511</ele>
        <time>2016-09-15T07:26:41Z</time>
      </trkpt>
      <trkpt lat="45.95609" lon="4.5047">
        <ele>512</ele>
        <time>2016-09-15T07:26:50Z</time>
      </trkpt>
      <trkpt lat="45.95609" lon="4.50468">
        <ele>512</ele>
        <time>2016-09-15T07:26:51Z</time>
      </trkpt>
      <trkpt lat="45.9561" lon="4.50457">
        <ele>512</ele>
        <time>2016-09-15T07:26:58Z</time>
      </trkpt>
      <trkpt lat="45.95611" lon="4.50455">
        <ele>512</ele>
        <time>2016-09-15T07:26:59Z</time>
      </trkpt>
      <trkpt lat="45.95612" lon="4.50442">
        <ele>513</ele>
        <time>2016-09-15T07:27:07Z</time>
      </trkpt>
      <trkpt lat="45.95612" lon="4.50441">
        <ele>513</ele>
        <time>2016-09-15T07:27:08Z</time>
      </trkpt>
      <trkpt lat="45.95615" lon="4.50429">
        <ele>514</ele>
        <time>2016-09-15T07:27:36Z</time>
      </trkpt>
      <trkpt lat="45.95615" lon="4.50429">
        <ele>514</ele>
        <time>2016-09-15T07:27:37Z</time>
      </trkpt>
      <trkpt lat="45.95614" lon="4.50417">
        <ele>514</ele>
        <time>2016-09-15T07:27:51Z</time>
      </trkpt>
      <trkpt lat="45.95613" lon="4.50416">
        <ele>515</ele>
        <time>2016-09-15T07:27:52Z</time>
      </trkpt>
      <trkpt lat="45.95611" lon="4.50404">
        <ele>515</ele>
        <time>2016-09-15T07:28:00Z</time>
      </trkpt>
      <trkpt lat="45.95611" lon="4.50403">
        <ele>515</ele>
        <time>2016-09-15T07:28:01Z</time>
      </trkpt>
      <trkpt lat="45.95606" lon="4.50392">
        <ele>515</ele>
        <time>2016-09-15T07:28:10Z</time>
      </trkpt>
      <trkpt lat="45.95606" lon="4.50391">
        <ele>515</ele>
        <time>2016-09-15T07:28:11Z</time>
      </trkpt>
      <trkpt lat="45.95603" lon="4.5038">
        <ele>515</ele>
        <time>2016-09-15T07:28:18Z</time>
      </trkpt>
      <trkpt lat="45.95602" lon="4.50379">
        <ele>515</ele>
        <time>2016-09-15T07:28:19Z</time>
      </trkpt>
      <trkpt lat="45.95597" lon="4.5037">
        <ele>515</ele>
        <time>2016-09-15T07:28:26Z</time>
      </trkpt>
      <trkpt lat="45.95596" lon="4.50369">
        <ele>515</ele>
        <time>2016-09-15T07:28:27Z</time>
      </trkpt>
      <trkpt lat="45.95591" lon="4.50359">
        <ele>516</ele>
        <time>2016-09-15T07:28:35Z</time>
      </trkpt>
      <trkpt lat="45.9559" lon="4.50358">
        <ele>517</ele>
        <time>2016-09-15T07:28:36Z</time>
      </trkpt>
      <trkpt lat="45.95587" lon="4.50347">
        <ele>519</ele>
        <time>2016-09-15T07:28:44Z</time>
      </trkpt>
      <trkpt lat="45.95586" lon="4.50345">
        <ele>519</ele>
        <time>2016-09-15T07:28:45Z</time>
      </trkpt>
      <trkpt lat="45.95583" lon="4.50334">
        <ele>524</ele>
        <time>2016-09-15T07:28:52Z</time>
      </trkpt>
      <trkpt lat="45.95583" lon="4.50333">
        <ele>524</ele>
        <time>2016-09-15T07:28:53Z</time>
      </trkpt>
      <trkpt lat="45.95576" lon="4.50324">
        <ele>525</ele>
        <time>2016-09-15T07:29:00Z</time>
      </trkpt>
      <trkpt lat="45.95575" lon="4.50323">
        <ele>525</ele>
        <time>2016-09-15T07:29:01Z</time>
      </trkpt>
      <trkpt lat="45.9557" lon="4.50313">
        <ele>526</ele>
        <time>2016-09-15T07:29:08Z</time>
      </trkpt>
      <trkpt lat="45.95569" lon="4.50312">
        <ele>526</ele>
        <time>2016-09-15T07:29:09Z</time>
      </trkpt>
      <trkpt lat="45.95565" lon="4.50301">
        <ele>526</ele>
        <time>2016-09-15T07:29:16Z</time>
      </trkpt>
      <trkpt lat="45.95564" lon="4.503">
        <ele>526</ele>
        <time>2016-09-15T07:29:17Z</time>
      </trkpt>
      <trkpt lat="45.95559" lon="4.5029">
        <ele>526</ele>
        <time>2016-09-15T07:29:24Z</time>
      </trkpt>
      <trkpt lat="45.95558" lon="4.50289">
        <ele>526</ele>
        <time>2016-09-15T07:29:25Z</time>
      </trkpt>
      <trkpt lat="45.95553" lon="4.5028">
        <ele>526</ele>
        <time>2016-09-15T07:29:32Z</time>
      </trkpt>
      <trkpt lat="45.95552" lon="4.50279">
        <ele>526</ele>
        <time>2016-09-15T07:29:33Z</time>
      </trkpt>
      <trkpt lat="45.95546" lon="4.50271">
        <ele>526</ele>
        <time>2016-09-15T07:29:41Z</time>
      </trkpt>
      <trkpt lat="45.95545" lon="4.5027">
        <ele>527</ele>
        <time>2016-09-15T07:29:42Z</time>
      </trkpt>
      <trkpt lat="45.9554" lon="4.5026">
        <ele>527</ele>
        <time>2016-09-15T07:29:51Z</time>
      </trkpt>
      <trkpt lat="45.95539" lon="4.50259">
        <ele>527</ele>
        <time>2016-09-15T07:29:52Z</time>
      </trkpt>
      <trkpt lat="45.95533" lon="4.5025">
        <ele>528</ele>
        <time>2016-09-15T07:30:00Z</time>
      </trkpt>
      <trkpt lat="45.95532" lon="4.50249">
        <ele>527</ele>
        <time>2016-09-15T07:30:01Z</time>
      </trkpt>
      <trkpt lat="45.95526" lon="4.50242">
        <ele>529</ele>
        <time>2016-09-15T07:30:09Z</time>
      </trkpt>
      <trkpt lat="45.95525" lon="4.50241">
        <ele>529</ele>
        <time>2016-09-15T07:30:10Z</time>
      </trkpt>
      <trkpt lat="45.95519" lon="4.50234">
        <ele>530</ele>
        <time>2016-09-15T07:30:17Z</time>
      </trkpt>
      <trkpt lat="45.95518" lon="4.50232">
        <ele>530</ele>
        <time>2016-09-15T07:30:18Z</time>
      </trkpt>
      <trkpt lat="45.95512" lon="4.50224">
        <ele>530</ele>
        <time>2016-09-15T07:30:27Z</time>
      </trkpt>
      <trkpt lat="45.95511" lon="4.50223">
        <ele>530</ele>
        <time>2016-09-15T07:30:28Z</time>
      </trkpt>
      <trkpt lat="45.95504" lon="4.50215">
        <ele>530</ele>
        <time>2016-09-15T07:30:36Z</time>
      </trkpt>
      <trkpt lat="45.95503" lon="4.50214">
        <ele>530</ele>
        <time>2016-09-15T07:30:37Z</time>
      </trkpt>
      <trkpt lat="45.95496" lon="4.50206">
        <ele>537</ele>
        <time>2016-09-15T07:30:45Z</time>
      </trkpt>
      <trkpt lat="45.95496" lon="4.50205">
        <ele>537</ele>
        <time>2016-09-15T07:30:46Z</time>
      </trkpt>
      <trkpt lat="45.95489" lon="4.50198">
        <ele>538</ele>
        <time>2016-09-15T07:30:55Z</time>
      </trkpt>
      <trkpt lat="45.95488" lon="4.50197">
        <ele>538</ele>
        <time>2016-09-15T07:30:56Z</time>
      </trkpt>
      <trkpt lat="45.9548" lon="4.50192">
        <ele>538</ele>
        <time>2016-09-15T07:31:06Z</time>
      </trkpt>
      <trkpt lat="45.95479" lon="4.50191">
        <ele>538</ele>
        <time>2016-09-15T07:31:07Z</time>
      </trkpt>
      <trkpt lat="45.95473" lon="4.50183">
        <ele>538</ele>
        <time>2016-09-15T07:31:15Z</time>
      </trkpt>
      <trkpt lat="45.95472" lon="4.50182">
        <ele>538</ele>
        <time>2016-09-15T07:31:16Z</time>
      </trkpt>
      <trkpt lat="45.95465" lon="4.50177">
        <ele>538</ele>
        <time>2016-09-15T07:31:26Z</time>
      </trkpt>
      <trkpt lat="45.95464" lon="4.50176">
        <ele>538</ele>
        <time>2016-09-15T07:31:27Z</time>
      </trkpt>
      <trkpt lat="45.95456" lon="4.50169">
        <ele>537</ele>
        <time>2016-09-15T07:31:38Z</time>
      </trkpt>
      <trkpt lat="45.95456" lon="4.50169">
        <ele>537</ele>
        <time>2016-09-15T07:31:39Z</time>
      </trkpt>
      <trkpt lat="45.95448" lon="4.50162">
        <ele>545</ele>
        <time>2016-09-15T07:31:49Z</time>
      </trkpt>
      <trkpt lat="45.95448" lon="4.50162">
        <ele>545</ele>
        <time>2016-09-15T07:31:50Z</time>
      </trkpt>
      <trkpt lat="45.9544" lon="4.50156">
        <ele>544</ele>
        <time>2016-09-15T07:32:00Z</time>
      </trkpt>
      <trkpt lat="45.95439" lon="4.50155">
        <ele>544</ele>
        <time>2016-09-15T07:32:01Z</time>
      </trkpt>
      <trkpt lat="45.95432" lon="4.50148">
        <ele>544</ele>
        <time>2016-09-15T07:32:10Z</time>
      </trkpt>
      <trkpt lat="45.95431" lon="4.50148">
        <ele>545</ele>
        <time>2016-09-15T07:32:11Z</time>
      </trkpt>
      <trkpt lat="45.95425" lon="4.5014">
        <ele>545</ele>
        <time>2016-09-15T07:32:20Z</time>
      </trkpt>
      <trkpt lat="45.95424" lon="4.50139">
        <ele>546</ele>
        <time>2016-09-15T07:32:21Z</time>
      </trkpt>
      <trkpt lat="45.95417" lon="4.50131">
        <ele>547</ele>
        <time>2016-09-15T07:32:29Z</time>
      </trkpt>
      <trkpt lat="45.95417" lon="4.5013">
        <ele>540</ele>
        <time>2016-09-15T07:32:30Z</time>
      </trkpt>
      <trkpt lat="45.95411" lon="4.50122">
        <ele>541</ele>
        <time>2016-09-15T07:32:38Z</time>
      </trkpt>
      <trkpt lat="45.9541" lon="4.5012">
        <ele>541</ele>
        <time>2016-09-15T07:32:39Z</time>
      </trkpt>
      <trkpt lat="45.95405" lon="4.50111">
        <ele>542</ele>
        <time>2016-09-15T07:32:47Z</time>
      </trkpt>
      <trkpt lat="45.95404" lon="4.5011">
        <ele>542</ele>
        <time>2016-09-15T07:32:48Z</time>
      </trkpt>
      <trkpt lat="45.95399" lon="4.501">
        <ele>544</ele>
        <time>2016-09-15T07:32:56Z</time>
      </trkpt>
      <trkpt lat="45.95398" lon="4.50099">
        <ele>544</ele>
        <time>2016-09-15T07:32:57Z</time>
      </trkpt>
      <trkpt lat="45.95393" lon="4.50089">
        <ele>544</ele>
        <time>2016-09-15T07:33:05Z</time>
      </trkpt>
      <trkpt lat="45.95392" lon="4.50088">
        <ele>544</ele>
        <time>2016-09-15T07:33:06Z</time>
      </trkpt>
      <trkpt lat="45.95388" lon="4.50078">
        <ele>552</ele>
        <time>2016-09-15T07:33:14Z</time>
      </trkpt>
      <trkpt lat="45.95387" lon="4.50077">
        <ele>552</ele>
        <time>2016-09-15T07:33:15Z</time>
      </trkpt>
      <trkpt lat="45.95383" lon="4.50068">
        <ele>552</ele>
        <time>2016-09-15T07:33:22Z</time>
      </trkpt>
      <trkpt lat="45.95382" lon="4.50066">
        <ele>552</ele>
        <time>2016-09-15T07:33:23Z</time>
      </trkpt>
      <trkpt lat="45.95377" lon="4.50056">
        <ele>552</ele>
        <time>2016-09-15T07:33:31Z</time>
      </trkpt>
      <trkpt lat="45.95376" lon="4.50054">
        <ele>552</ele>
        <time>2016-09-15T07:33:32Z</time>
      </trkpt>
      <trkpt lat="45.95372" lon="4.50044">
        <ele>552</ele>
        <time>2016-09-15T07:33:39Z</time>
      </trkpt>
      <trkpt lat="45.95371" lon="4.50043">
        <ele>552</ele>
        <time>2016-09-15T07:33:40Z</time>
      </trkpt>
      <trkpt lat="45.95366" lon="4.50032">
        <ele>552</ele>
        <time>2016-09-15T07:33:48Z</time>
      </trkpt>
      <trkpt lat="45.95365" lon="4.50031">
        <ele>552</ele>
        <time>2016-09-15T07:33:49Z</time>
      </trkpt>
      <trkpt lat="45.9536" lon="4.50021">
        <ele>553</ele>
        <time>2016-09-15T07:33:57Z</time>
      </trkpt>
      <trkpt lat="45.95359" lon="4.5002">
        <ele>553</ele>
        <time>2016-09-15T07:33:58Z</time>
      </trkpt>
      <trkpt lat="45.95354" lon="4.5001">
        <ele>553</ele>
        <time>2016-09-15T07:34:06Z</time>
      </trkpt>
      <trkpt lat="45.95354" lon="4.50008">
        <ele>553</ele>
        <time>2016-09-15T07:34:07Z</time>
      </trkpt>
      <trkpt lat="45.9535" lon="4.49998">
        <ele>558</ele>
        <time>2016-09-15T07:34:15Z</time>
      </trkpt>
      <trkpt lat="45.95349" lon="4.49997">
        <ele>558</ele>
        <time>2016-09-15T07:34:16Z</time>
      </trkpt>
      <trkpt lat="45.95345" lon="4.49986">
        <ele>559</ele>
        <time>2016-09-15T07:34:23Z</time>
      </trkpt>
      <trkpt lat="45.95345" lon="4.49985">
        <ele>559</ele>
        <time>2016-09-15T07:34:24Z</time>
      </trkpt>
      <trkpt lat="45.95341" lon="4.49974">
        <ele>560</ele>
        <time>2016-09-15T07:34:31Z</time>
      </trkpt>
      <trkpt lat="45.95341" lon="4.49972">
        <ele>561</ele>
        <time>2016-09-15T07:34:32Z</time>
      </trkpt>
      <trkpt lat="45.95338" lon="4.49961">
        <ele>562</ele>
        <time>2016-09-15T07:34:39Z</time>
      </trkpt>
      <trkpt lat="45.95337" lon="4.4996">
        <ele>562</ele>
        <time>2016-09-15T07:34:40Z</time>
      </trkpt>
      <trkpt lat="45.95333" lon="4.49948">
        <ele>563</ele>
        <time>2016-09-15T07:34:48Z</time>
      </trkpt>
      <trkpt lat="45.95333" lon="4.49947">
        <ele>553</ele>
        <time>2016-09-15T07:34:49Z</time>
      </trkpt>
      <trkpt lat="45.95331" lon="4.49936">
        <ele>556</ele>
        <time>2016-09-15T07:34:56Z</time>
      </trkpt>
      <trkpt lat="45.95331" lon="4.49934">
        <ele>556</ele>
        <time>2016-09-15T07:34:57Z</time>
      </trkpt>
      <trkpt lat="45.95328" lon="4.49922">
        <ele>561</ele>
        <time>2016-09-15T07:35:04Z</time>
      </trkpt>
      <trkpt lat="45.95328" lon="4.49921">
        <ele>561</ele>
        <time>2016-09-15T07:35:05Z</time>
      </trkpt>
      <trkpt lat="45.95326" lon="4.49909">
        <ele>563</ele>
        <time>2016-09-15T07:35:12Z</time>
      </trkpt>
      <trkpt lat="45.95325" lon="4.49907">
        <ele>563</ele>
        <time>2016-09-15T07:35:13Z</time>
      </trkpt>
      <trkpt lat="45.95322" lon="4.49896">
        <ele>562</ele>
        <time>2016-09-15T07:35:20Z</time>
      </trkpt>
      <trkpt lat="45.95322" lon="4.49894">
        <ele>562</ele>
        <time>2016-09-15T07:35:21Z</time>
      </trkpt>
      <trkpt lat="45.95318" lon="4.49883">
        <ele>561</ele>
        <time>2016-09-15T07:35:29Z</time>
      </trkpt>
      <trkpt lat="45.95318" lon="4.49881">
        <ele>561</ele>
        <time>2016-09-15T07:35:30Z</time>
      </trkpt>
      <trkpt lat="45.95315" lon="4.49869">
        <ele>562</ele>
        <time>2016-09-15T07:35:38Z</time>
      </trkpt>
      <trkpt lat="45.95315" lon="4.49868">
        <ele>562</ele>
        <time>2016-09-15T07:35:39Z</time>
      </trkpt>
      <trkpt lat="45.95312" lon="4.49857">
        <ele>563</ele>
        <time>2016-09-15T07:35:46Z</time>
      </trkpt>
      <trkpt lat="45.95312" lon="4.49855">
        <ele>563</ele>
        <time>2016-09-15T07:35:47Z</time>
      </trkpt>
      <trkpt lat="45.9531" lon="4.49844">
        <ele>564</ele>
        <time>2016-09-15T07:35:53Z</time>
      </trkpt>
      <trkpt lat="45.9531" lon="4.49842">
        <ele>564</ele>
        <time>2016-09-15T07:35:54Z</time>
      </trkpt>
      <trkpt lat="45.95307" lon="4.49831">
        <ele>569</ele>
        <time>2016-09-15T07:36:00Z</time>
      </trkpt>
      <trkpt lat="45.95306" lon="4.49829">
        <ele>568</ele>
        <time>2016-09-15T07:36:01Z</time>
      </trkpt>
      <trkpt lat="45.95304" lon="4.49819">
        <ele>568</ele>
        <time>2016-09-15T07:36:07Z</time>
      </trkpt>
      <trkpt lat="45.95304" lon="4.49817">
        <ele>568</ele>
        <time>2016-09-15T07:36:08Z</time>
      </trkpt>
      <trkpt lat="45.953" lon="4.49805">
        <ele>568</ele>
        <time>2016-09-15T07:36:15Z</time>
      </trkpt>
      <trkpt lat="45.95299" lon="4.49804">
        <ele>568</ele>
        <time>2016-09-15T07:36:16Z</time>
      </trkpt>
      <trkpt lat="45.95295" lon="4.49794">
        <ele>568</ele>
        <time>2016-09-15T07:36:23Z</time>
      </trkpt>
      <trkpt lat="45.95294" lon="4.49793">
        <ele>568</ele>
        <time>2016-09-15T07:36:24Z</time>
      </trkpt>
      <trkpt lat="45.95292" lon="4.49782">
        <ele>569</ele>
        <time>2016-09-15T07:36:31Z</time>
      </trkpt>
      <trkpt lat="45.95292" lon="4.4978">
        <ele>569</ele>
        <time>2016-09-15T07:36:32Z</time>
      </trkpt>
      <trkpt lat="45.95288" lon="4.49769">
        <ele>569</ele>
        <time>2016-09-15T07:36:41Z</time>
      </trkpt>
      <trkpt lat="45.95288" lon="4.49767">
        <ele>569</ele>
        <time>2016-09-15T07:36:42Z</time>
      </trkpt>
      <trkpt lat="45.95285" lon="4.49755">
        <ele>570</ele>
        <time>2016-09-15T07:36:49Z</time>
      </trkpt>
      <trkpt lat="45.95285" lon="4.49753">
        <ele>570</ele>
        <time>2016-09-15T07:36:50Z</time>
      </trkpt>
      <trkpt lat="45.95279" lon="4.49743">
        <ele>575</ele>
        <time>2016-09-15T07:36:57Z</time>
      </trkpt>
      <trkpt lat="45.95278" lon="4.49742">
        <ele>575</ele>
        <time>2016-09-15T07:36:58Z</time>
      </trkpt>
      <trkpt lat="45.95276" lon="4.4973">
        <ele>576</ele>
        <time>2016-09-15T07:37:07Z</time>
      </trkpt>
      <trkpt lat="45.95276" lon="4.49729">
        <ele>576</ele>
        <time>2016-09-15T07:37:08Z</time>
      </trkpt>
      <trkpt lat="45.95272" lon="4.49717">
        <ele>577</ele>
        <time>2016-09-15T07:37:19Z</time>
      </trkpt>
      <trkpt lat="45.95272" lon="4.49716">
        <ele>577</ele>
        <time>2016-09-15T07:37:20Z</time>
      </trkpt>
      <trkpt lat="45.95271" lon="4.49704">
        <ele>578</ele>
        <time>2016-09-15T07:37:30Z</time>
      </trkpt>
      <trkpt lat="45.95271" lon="4.49702">
        <ele>579</ele>
        <time>2016-09-15T07:37:31Z</time>
      </trkpt>
      <trkpt lat="45.95272" lon="4.49689">
        <ele>580</ele>
        <time>2016-09-15T07:37:41Z</time>
      </trkpt>
      <trkpt lat="45.95272" lon="4.49688">
        <ele>580</ele>
        <time>2016-09-15T07:37:42Z</time>
      </trkpt>
      <trkpt lat="45.95272" lon="4.49677">
        <ele>582</ele>
        <time>2016-09-15T07:37:55Z</time>
      </trkpt>
      <trkpt lat="45.95272" lon="4.49675">
        <ele>582</ele>
        <time>2016-09-15T07:37:56Z</time>
      </trkpt>
      <trkpt lat="45.95276" lon="4.49664">
        <ele>587</ele>
        <time>2016-09-15T07:38:07Z</time>
      </trkpt>
      <trkpt lat="45.95276" lon="4.49663">
        <ele>587</ele>
        <time>2016-09-15T07:38:08Z</time>
      </trkpt>
      <trkpt lat="45.95275" lon="4.49651">
        <ele>587</ele>
        <time>2016-09-15T07:38:17Z</time>
      </trkpt>
      <trkpt lat="45.95275" lon="4.4965">
        <ele>587</ele>
        <time>2016-09-15T07:38:18Z</time>
      </trkpt>
      <trkpt lat="45.95271" lon="4.49639">
        <ele>588</ele>
        <time>2016-09-15T07:38:27Z</time>
      </trkpt>
      <trkpt lat="45.95271" lon="4.49638">
        <ele>588</ele>
        <time>2016-09-15T07:38:28Z</time>
      </trkpt>
      <trkpt lat="45.9527" lon="4.49625">
        <ele>589</ele>
        <time>2016-09-15T07:38:38Z</time>
      </trkpt>
      <trkpt lat="45.95269" lon="4.49624">
        <ele>589</ele>
        <time>2016-09-15T07:38:39Z</time>
      </trkpt>
      <trkpt lat="45.95267" lon="4.49613">
        <ele>592</ele>
        <time>2016-09-15T07:38:49Z</time>
      </trkpt>
      <trkpt lat="45.95267" lon="4.49611">
        <ele>592</ele>
        <time>2016-09-15T07:38:50Z</time>
      </trkpt>
      <trkpt lat="45.95265" lon="4.49599">
        <ele>596</ele>
        <time>2016-09-15T07:38:59Z</time>
      </trkpt>
      <trkpt lat="45.95265" lon="4.49598">
        <ele>596</ele>
        <time>2016-09-15T07:39:00Z</time>
      </trkpt>
      <trkpt lat="45.95266" lon="4.49585">
        <ele>598</ele>
        <time>2016-09-15T07:39:10Z</time>
      </trkpt>
      <trkpt lat="45.95266" lon="4.49583">
        <ele>604</ele>
        <time>2016-09-15T07:39:11Z</time>
      </trkpt>
      <trkpt lat="45.95267" lon="4.49571">
        <ele>602</ele>
        <time>2016-09-15T07:39:21Z</time>
      </trkpt>
      <trkpt lat="45.95268" lon="4.4957">
        <ele>602</ele>
        <time>2016-09-15T07:39:22Z</time>
      </trkpt>
      <trkpt lat="45.9527" lon="4.49559">
        <ele>601</ele>
        <time>2016-09-15T07:39:33Z</time>
      </trkpt>
      <trkpt lat="45.9527" lon="4.49558">
        <ele>601</ele>
        <time>2016-09-15T07:39:34Z</time>
      </trkpt>
      <trkpt lat="45.95273" lon="4.49546">
        <ele>601</ele>
        <time>2016-09-15T07:39:48Z</time>
      </trkpt>
      <trkpt lat="45.95273" lon="4.49545">
        <ele>601</ele>
        <time>2016-09-15T07:39:49Z</time>
      </trkpt>
      <trkpt lat="45.95274" lon="4.49533">
        <ele>602</ele>
        <time>2016-09-15T07:40:00Z</time>
      </trkpt>
      <trkpt lat="45.95275" lon="4.49531">
        <ele>602</ele>
        <time>2016-09-15T07:40:01Z</time>
      </trkpt>
      <trkpt lat="45.95276" lon="4.49519">
        <ele>604</ele>
        <time>2016-09-15T07:40:10Z</time>
      </trkpt>
      <trkpt lat="45.95276" lon="4.49517">
        <ele>604</ele>
        <time>2016-09-15T07:40:11Z</time>
      </trkpt>
      <trkpt lat="45.9528" lon="4.49506">
        <ele>604</ele>
        <time>2016-09-15T07:40:19Z</time>
      </trkpt>
      <trkpt lat="45.95281" lon="4.49504">
        <ele>604</ele>
        <time>2016-09-15T07:40:20Z</time>
      </trkpt>
      <trkpt lat="45.95284" lon="4.49493">
        <ele>610</ele>
        <time>2016-09-15T07:40:28Z</time>
      </trkpt>
      <trkpt lat="45.95284" lon="4.49492">
        <ele>610</ele>
        <time>2016-09-15T07:40:29Z</time>
      </trkpt>
      <trkpt lat="45.95286" lon="4.49479">
        <ele>610</ele>
        <time>2016-09-15T07:40:38Z</time>
      </trkpt>
      <trkpt lat="45.95286" lon="4.49478">
        <ele>610</ele>
        <time>2016-09-15T07:40:39Z</time>
      </trkpt>
      <trkpt lat="45.95285" lon="4.49465">
        <ele>611</ele>
        <time>2016-09-15T07:40:50Z</time>
      </trkpt>
      <trkpt lat="45.95285" lon="4.49463">
        <ele>611</ele>
        <time>2016-09-15T07:40:51Z</time>
      </trkpt>
      <trkpt lat="45.95285" lon="4.49451">
        <ele>612</ele>
        <time>2016-09-15T07:41:00Z</time>
      </trkpt>
      <trkpt lat="45.95285" lon="4.49449">
        <ele>612</ele>
        <time>2016-09-15T07:41:01Z</time>
      </trkpt>
      <trkpt lat="45.95288" lon="4.49437">
        <ele>612</ele>
        <time>2016-09-15T07:41:10Z</time>
      </trkpt>
      <trkpt lat="45.95289" lon="4.49436">
        <ele>612</ele>
        <time>2016-09-15T07:41:11Z</time>
      </trkpt>
      <trkpt lat="45.9529" lon="4.49425">
        <ele>612</ele>
        <time>2016-09-15T07:41:18Z</time>
      </trkpt>
      <trkpt lat="45.95291" lon="4.49424">
        <ele>612</ele>
        <time>2016-09-15T07:41:19Z</time>
      </trkpt>
      <trkpt lat="45.95293" lon="4.49412">
        <ele>617</ele>
        <time>2016-09-15T07:41:27Z</time>
      </trkpt>
      <trkpt lat="45.95294" lon="4.49411">
        <ele>617</ele>
        <time>2016-09-15T07:41:28Z</time>
      </trkpt>
      <trkpt lat="45.95297" lon="4.494">
        <ele>617</ele>
        <time>2016-09-15T07:41:35Z</time>
      </trkpt>
      <trkpt lat="45.95297" lon="4.49399">
        <ele>617</ele>
        <time>2016-09-15T07:41:36Z</time>
      </trkpt>
      <trkpt lat="45.95301" lon="4.49387">
        <ele>617</ele>
        <time>2016-09-15T07:41:43Z</time>
      </trkpt>
      <trkpt lat="45.95302" lon="4.49385">
        <ele>617</ele>
        <time>2016-09-15T07:41:44Z</time>
      </trkpt>
      <trkpt lat="45.95306" lon="4.49374">
        <ele>617</ele>
        <time>2016-09-15T07:41:50Z</time>
      </trkpt>
      <trkpt lat="45.95307" lon="4.49372">
        <ele>617</ele>
        <time>2016-09-15T07:41:51Z</time>
      </trkpt>
      <trkpt lat="45.95311" lon="4.49363">
        <ele>617</ele>
        <time>2016-09-15T07:41:57Z</time>
      </trkpt>
      <trkpt lat="45.95312" lon="4.49361">
        <ele>617</ele>
        <time>2016-09-15T07:41:58Z</time>
      </trkpt>
      <trkpt lat="45.95315" lon="4.4935">
        <ele>617</ele>
        <time>2016-09-15T07:42:05Z</time>
      </trkpt>
      <trkpt lat="45.95316" lon="4.49349">
        <ele>617</ele>
        <time>2016-09-15T07:42:06Z</time>
      </trkpt>
      <trkpt lat="45.9532" lon="4.49338">
        <ele>616</ele>
        <time>2016-09-15T07:42:14Z</time>
      </trkpt>
      <trkpt lat="45.9532" lon="4.49337">
        <ele>616</ele>
        <time>2016-09-15T07:42:15Z</time>
      </trkpt>
      <trkpt lat="45.95323" lon="4.49325">
        <ele>619</ele>
        <time>2016-09-15T07:42:22Z</time>
      </trkpt>
      <trkpt lat="45.95324" lon="4.49323">
        <ele>619</ele>
        <time>2016-09-15T07:42:23Z</time>
      </trkpt>
      <trkpt lat="45.95329" lon="4.49313">
        <ele>621</ele>
        <time>2016-09-15T07:42:29Z</time>
      </trkpt>
      <trkpt lat="45.9533" lon="4.49311">
        <ele>621</ele>
        <time>2016-09-15T07:42:30Z</time>
      </trkpt>
      <trkpt lat="45.95334" lon="4.49302">
        <ele>618</ele>
        <time>2016-09-15T07:42:36Z</time>
      </trkpt>
      <trkpt lat="45.95335" lon="4.49301">
        <ele>618</ele>
        <time>2016-09-15T07:42:37Z</time>
      </trkpt>
      <trkpt lat="45.95342" lon="4.49295">
        <ele>619</ele>
        <time>2016-09-15T07:42:46Z</time>
      </trkpt>
      <trkpt lat="45.95343" lon="4.49294">
        <ele>619</ele>
        <time>2016-09-15T07:42:47Z</time>
      </trkpt>
      <trkpt lat="45.9535" lon="4.49287">
        <ele>619</ele>
        <time>2016-09-15T07:42:55Z</time>
      </trkpt>
      <trkpt lat="45.95352" lon="4.49287">
        <ele>619</ele>
        <time>2016-09-15T07:42:56Z</time>
      </trkpt>
      <trkpt lat="45.95359" lon="4.49279">
        <ele>620</ele>
        <time>2016-09-15T07:43:03Z</time>
      </trkpt>
      <trkpt lat="45.95359" lon="4.49278">
        <ele>620</ele>
        <time>2016-09-15T07:43:04Z</time>
      </trkpt>
      <trkpt lat="45.95366" lon="4.4927">
        <ele>621</ele>
        <time>2016-09-15T07:43:13Z</time>
      </trkpt>
      <trkpt lat="45.95367" lon="4.49269">
        <ele>621</ele>
        <time>2016-09-15T07:43:14Z</time>
      </trkpt>
      <trkpt lat="45.95374" lon="4.49262">
        <ele>621</ele>
        <time>2016-09-15T07:43:25Z</time>
      </trkpt>
      <trkpt lat="45.95375" lon="4.49262">
        <ele>621</ele>
        <time>2016-09-15T07:43:26Z</time>
      </trkpt>
      <trkpt lat="45.95383" lon="4.49259">
        <ele>622</ele>
        <time>2016-09-15T07:43:36Z</time>
      </trkpt>
      <trkpt lat="45.95384" lon="4.49259">
        <ele>622</ele>
        <time>2016-09-15T07:43:37Z</time>
      </trkpt>
      <trkpt lat="45.95391" lon="4.49252">
        <ele>623</ele>
        <time>2016-09-15T07:43:46Z</time>
      </trkpt>
      <trkpt lat="45.95391" lon="4.49251">
        <ele>623</ele>
        <time>2016-09-15T07:43:47Z</time>
      </trkpt>
      <trkpt lat="45.95399" lon="4.49246">
        <ele>631</ele>
        <time>2016-09-15T07:44:04Z</time>
      </trkpt>
      <trkpt lat="45.954" lon="4.49245">
        <ele>631</ele>
        <time>2016-09-15T07:44:05Z</time>
      </trkpt>
      <trkpt lat="45.95408" lon="4.49239">
        <ele>631</ele>
        <time>2016-09-15T07:44:18Z</time>
      </trkpt>
      <trkpt lat="45.95409" lon="4.49239">
        <ele>631</ele>
        <time>2016-09-15T07:44:19Z</time>
      </trkpt>
      <trkpt lat="45.95416" lon="4.49233">
        <ele>632</ele>
        <time>2016-09-15T07:44:28Z</time>
      </trkpt>
      <trkpt lat="45.95417" lon="4.49232">
        <ele>631</ele>
        <time>2016-09-15T07:44:29Z</time>
      </trkpt>
      <trkpt lat="45.95424" lon="4.49225">
        <ele>632</ele>
        <time>2016-09-15T07:44:39Z</time>
      </trkpt>
      <trkpt lat="45.95425" lon="4.49223">
        <ele>632</ele>
        <time>2016-09-15T07:44:40Z</time>
      </trkpt>
      <trkpt lat="45.95431" lon="4.49216">
        <ele>633</ele>
        <time>2016-09-15T07:44:45Z</time>
      </trkpt>
      <trkpt lat="45.95432" lon="4.49214">
        <ele>633</ele>
        <time>2016-09-15T07:44:46Z</time>
      </trkpt>
      <trkpt lat="45.95437" lon="4.49205">
        <ele>634</ele>
        <time>2016-09-15T07:44:53Z</time>
      </trkpt>
      <trkpt lat="45.95438" lon="4.49204">
        <ele>634</ele>
        <time>2016-09-15T07:44:54Z</time>
      </trkpt>
      <trkpt lat="45.95444" lon="4.49195">
        <ele>634</ele>
        <time>2016-09-15T07:45:03Z</time>
      </trkpt>
      <trkpt lat="45.95445" lon="4.49194">
        <ele>635</ele>
        <time>2016-09-15T07:45:04Z</time>
      </trkpt>
      <trkpt lat="45.95451" lon="4.49186">
        <ele>635</ele>
        <time>2016-09-15T07:45:11Z</time>
      </trkpt>
      <trkpt lat="45.95452" lon="4.49185">
        <ele>635</ele>
        <time>2016-09-15T07:45:12Z</time>
      </trkpt>
      <trkpt lat="45.95458" lon="4.49178">
        <ele>636</ele>
        <time>2016-09-15T07:45:20Z</time>
      </trkpt>
      <trkpt lat="45.95459" lon="4.49178">
        <ele>636</ele>
        <time>2016-09-15T07:45:21Z</time>
      </trkpt>
      <trkpt lat="45.95466" lon="4.49171">
        <ele>636</ele>
        <time>2016-09-15T07:45:29Z</time>
      </trkpt>
      <trkpt lat="45.95466" lon="4.4917">
        <ele>636</ele>
        <time>2016-09-15T07:45:30Z</time>
      </trkpt>
      <trkpt lat="45.95473" lon="4.49161">
        <ele>644</ele>
        <time>2016-09-15T07:45:44Z</time>
      </trkpt>
      <trkpt lat="45.95474" lon="4.49161">
        <ele>644</ele>
        <time>2016-09-15T07:45:45Z</time>
      </trkpt>
      <trkpt lat="45.95481" lon="4.49154">
        <ele>644</ele>
        <time>2016-09-15T07:45:52Z</time>
      </trkpt>
      <trkpt lat="45.95482" lon="4.49153">
        <ele>644</ele>
        <time>2016-09-15T07:45:53Z</time>
      </trkpt>
      <trkpt lat="45.95486" lon="4.49144">
        <ele>644</ele>
        <time>2016-09-15T07:45:59Z</time>
      </trkpt>
      <trkpt lat="45.95487" lon="4.49143">
        <ele>644</ele>
        <time>2016-09-15T07:46:00Z</time>
      </trkpt>
      <trkpt lat="45.95493" lon="4.49133">
        <ele>645</ele>
        <time>2016-09-15T07:46:08Z</time>
      </trkpt>
      <trkpt lat="45.95493" lon="4.49131">
        <ele>645</ele>
        <time>2016-09-15T07:46:09Z</time>
      </trkpt>
      <trkpt lat="45.95499" lon="4.49122">
        <ele>646</ele>
        <time>2016-09-15T07:46:30Z</time>
      </trkpt>
      <trkpt lat="45.95499" lon="4.49121">
        <ele>646</ele>
        <time>2016-09-15T07:46:31Z</time>
      </trkpt>
      <trkpt lat="45.95507" lon="4.49125">
        <ele>650</ele>
        <time>2016-09-15T07:49:45Z</time>
      </trkpt>
      <trkpt lat="45.95508" lon="4.49125">
        <ele>650</ele>
        <time>2016-09-15T07:49:46Z</time>
      </trkpt>
      <trkpt lat="45.95517" lon="4.49124">
        <ele>651</ele>
        <time>2016-09-15T07:49:55Z</time>
      </trkpt>
      <trkpt lat="45.95518" lon="4.49124">
        <ele>651</ele>
        <time>2016-09-15T07:49:56Z</time>
      </trkpt>
      <trkpt lat="45.95527" lon="4.49125">
        <ele>651</ele>
        <time>2016-09-15T07:50:07Z</time>
      </trkpt>
      <trkpt lat="45.95528" lon="4.49125">
        <ele>651</ele>
        <time>2016-09-15T07:50:08Z</time>
      </trkpt>
      <trkpt lat="45.95536" lon="4.49125">
        <ele>652</ele>
        <time>2016-09-15T07:50:20Z</time>
      </trkpt>
      <trkpt lat="45.95537" lon="4.49124">
        <ele>652</ele>
        <time>2016-09-15T07:50:21Z</time>
      </trkpt>
      <trkpt lat="45.95545" lon="4.49119">
        <ele>653</ele>
        <time>2016-09-15T07:50:41Z</time>
      </trkpt>
      <trkpt lat="45.95546" lon="4.49118">
        <ele>653</ele>
        <time>2016-09-15T07:50:42Z</time>
      </trkpt>
      <trkpt lat="45.95554" lon="4.49112">
        <ele>654</ele>
        <time>2016-09-15T07:50:57Z</time>
      </trkpt>
      <trkpt lat="45.95554" lon="4.49112">
        <ele>654</ele>
        <time>2016-09-15T07:50:58Z</time>
      </trkpt>
      <trkpt lat="45.95562" lon="4.49111">
        <ele>655</ele>
        <time>2016-09-15T07:51:10Z</time>
      </trkpt>
      <trkpt lat="45.95563" lon="4.4911">
        <ele>655</ele>
        <time>2016-09-15T07:51:11Z</time>
      </trkpt>
      <trkpt lat="45.95571" lon="4.49109">
        <ele>656</ele>
        <time>2016-09-15T07:51:22Z</time>
      </trkpt>
      <trkpt lat="45.95572" lon="4.49109">
        <ele>656</ele>
        <time>2016-09-15T07:51:23Z</time>
      </trkpt>
      <trkpt lat="45.95579" lon="4.49101">
        <ele>658</ele>
        <time>2016-09-15T07:51:32Z</time>
      </trkpt>
      <trkpt lat="45.9558" lon="4.491">
        <ele>658</ele>
        <time>2016-09-15T07:51:33Z</time>
      </trkpt>
      <trkpt lat="45.95588" lon="4.49096">
        <ele>661</ele>
        <time>2016-09-15T07:51:42Z</time>
      </trkpt>
      <trkpt lat="45.95589" lon="4.49095">
        <ele>661</ele>
        <time>2016-09-15T07:51:43Z</time>
      </trkpt>
      <trkpt lat="45.95596" lon="4.49088">
        <ele>661</ele>
        <time>2016-09-15T07:51:55Z</time>
      </trkpt>
      <trkpt lat="45.95596" lon="4.49087">
        <ele>661</ele>
        <time>2016-09-15T07:51:56Z</time>
      </trkpt>
      <trkpt lat="45.95603" lon="4.49078">
        <ele>666</ele>
        <time>2016-09-15T07:52:06Z</time>
      </trkpt>
      <trkpt lat="45.95604" lon="4.49078">
        <ele>666</ele>
        <time>2016-09-15T07:52:07Z</time>
      </trkpt>
      <trkpt lat="45.95612" lon="4.49071">
        <ele>666</ele>
        <time>2016-09-15T07:52:16Z</time>
      </trkpt>
      <trkpt lat="45.95612" lon="4.49071">
        <ele>666</ele>
        <time>2016-09-15T07:52:17Z</time>
      </trkpt>
      <trkpt lat="45.9562" lon="4.49064">
        <ele>666</ele>
        <time>2016-09-15T07:52:26Z</time>
      </trkpt>
      <trkpt lat="45.9562" lon="4.49063">
        <ele>666</ele>
        <time>2016-09-15T07:52:27Z</time>
      </trkpt>
      <trkpt lat="45.95628" lon="4.49055">
        <ele>667</ele>
        <time>2016-09-15T07:52:35Z</time>
      </trkpt>
      <trkpt lat="45.95629" lon="4.49055">
        <ele>667</ele>
        <time>2016-09-15T07:52:36Z</time>
      </trkpt>
      <trkpt lat="45.95636" lon="4.4905">
        <ele>667</ele>
        <time>2016-09-15T07:52:46Z</time>
      </trkpt>
      <trkpt lat="45.95637" lon="4.49049">
        <ele>667</ele>
        <time>2016-09-15T07:52:47Z</time>
      </trkpt>
      <trkpt lat="45.95645" lon="4.49045">
        <ele>667</ele>
        <time>2016-09-15T07:52:55Z</time>
      </trkpt>
      <trkpt lat="45.95646" lon="4.49045">
        <ele>667</ele>
        <time>2016-09-15T07:52:56Z</time>
      </trkpt>
      <trkpt lat="45.95654" lon="4.49048">
        <ele>667</ele>
        <time>2016-09-15T07:53:05Z</time>
      </trkpt>
      <trkpt lat="45.95655" lon="4.49048">
        <ele>667</ele>
        <time>2016-09-15T07:53:06Z</time>
      </trkpt>
      <trkpt lat="45.95663" lon="4.49045">
        <ele>668</ele>
        <time>2016-09-15T07:53:13Z</time>
      </trkpt>
      <trkpt lat="45.95664" lon="4.49044">
        <ele>668</ele>
        <time>2016-09-15T07:53:14Z</time>
      </trkpt>
      <trkpt lat="45.95669" lon="4.49035">
        <ele>671</ele>
        <time>2016-09-15T07:53:21Z</time>
      </trkpt>
      <trkpt lat="45.95669" lon="4.49034">
        <ele>671</ele>
        <time>2016-09-15T07:53:22Z</time>
      </trkpt>
      <trkpt lat="45.95672" lon="4.49022">
        <ele>672</ele>
        <time>2016-09-15T07:53:32Z</time>
      </trkpt>
      <trkpt lat="45.95673" lon="4.49021">
        <ele>672</ele>
        <time>2016-09-15T07:53:33Z</time>
      </trkpt>
      <trkpt lat="45.95679" lon="4.49013">
        <ele>672</ele>
        <time>2016-09-15T07:53:41Z</time>
      </trkpt>
      <trkpt lat="45.9568" lon="4.49012">
        <ele>672</ele>
        <time>2016-09-15T07:53:42Z</time>
      </trkpt>
      <trkpt lat="45.95685" lon="4.49002">
        <ele>673</ele>
        <time>2016-09-15T07:53:50Z</time>
      </trkpt>
      <trkpt lat="45.95685" lon="4.49001">
        <ele>673</ele>
        <time>2016-09-15T07:53:51Z</time>
      </trkpt>
      <trkpt lat="45.95692" lon="4.48994">
        <ele>674</ele>
        <time>2016-09-15T07:53:59Z</time>
      </trkpt>
      <trkpt lat="45.95693" lon="4.48993">
        <ele>674</ele>
        <time>2016-09-15T07:54:00Z</time>
      </trkpt>
      <trkpt lat="45.95701" lon="4.48989">
        <ele>674</ele>
        <time>2016-09-15T07:54:21Z</time>
      </trkpt>
      <trkpt lat="45.95702" lon="4.48989">
        <ele>674</ele>
        <time>2016-09-15T07:54:22Z</time>
      </trkpt>
      <trkpt lat="45.95709" lon="4.48989">
        <ele>674</ele>
        <time>2016-09-15T07:54:28Z</time>
      </trkpt>
      <trkpt lat="45.95711" lon="4.48989">
        <ele>674</ele>
        <time>2016-09-15T07:54:29Z</time>
      </trkpt>
      <trkpt lat="45.95718" lon="4.48987">
        <ele>675</ele>
        <time>2016-09-15T07:54:34Z</time>
      </trkpt>
      <trkpt lat="45.9572" lon="4.48986">
        <ele>675</ele>
        <time>2016-09-15T07:54:35Z</time>
      </trkpt>
      <trkpt lat="45.95729" lon="4.48983">
        <ele>675</ele>
        <time>2016-09-15T07:54:42Z</time>
      </trkpt>
      <trkpt lat="45.95729" lon="4.48983">
        <ele>675</ele>
        <time>2016-09-15T07:54:43Z</time>
      </trkpt>
      <trkpt lat="45.95737" lon="4.4898">
        <ele>676</ele>
        <time>2016-09-15T07:54:50Z</time>
      </trkpt>
      <trkpt lat="45.95738" lon="4.48979">
        <ele>676</ele>
        <time>2016-09-15T07:54:51Z</time>
      </trkpt>
      <trkpt lat="45.95745" lon="4.48976">
        <ele>676</ele>
        <time>2016-09-15T07:54:58Z</time>
      </trkpt>
      <trkpt lat="45.95747" lon="4.48976">
        <ele>676</ele>
        <time>2016-09-15T07:54:59Z</time>
      </trkpt>
      <trkpt lat="45.95754" lon="4.48974">
        <ele>677</ele>
        <time>2016-09-15T07:55:04Z</time>
      </trkpt>
      <trkpt lat="45.95757" lon="4.48975">
        <ele>677</ele>
        <time>2016-09-15T07:55:05Z</time>
      </trkpt>
      <trkpt lat="45.95766" lon="4.48972">
        <ele>677</ele>
        <time>2016-09-15T07:55:11Z</time>
      </trkpt>
      <trkpt lat="45.95767" lon="4.48971">
        <ele>677</ele>
        <time>2016-09-15T07:55:12Z</time>
      </trkpt>
      <trkpt lat="45.95774" lon="4.4897">
        <ele>677</ele>
        <time>2016-09-15T07:55:17Z</time>
      </trkpt>
      <trkpt lat="45.95776" lon="4.48969">
        <ele>677</ele>
        <time>2016-09-15T07:55:18Z</time>
      </trkpt>
      <trkpt lat="45.95784" lon="4.48968">
        <ele>677</ele>
        <time>2016-09-15T07:55:23Z</time>
      </trkpt>
      <trkpt lat="45.95786" lon="4.48968">
        <ele>677</ele>
        <time>2016-09-15T07:55:24Z</time>
      </trkpt>
      <trkpt lat="45.95794" lon="4.48969">
        <ele>676</ele>
        <time>2016-09-15T07:55:30Z</time>
      </trkpt>
      <trkpt lat="45.95796" lon="4.48969">
        <ele>676</ele>
        <time>2016-09-15T07:55:31Z</time>
      </trkpt>
      <trkpt lat="45.95805" lon="4.48966">
        <ele>676</ele>
        <time>2016-09-15T07:55:38Z</time>
      </trkpt>
      <trkpt lat="45.95806" lon="4.48965">
        <ele>676</ele>
        <time>2016-09-15T07:55:39Z</time>
      </trkpt>
      <trkpt lat="45.95813" lon="4.48962">
        <ele>676</ele>
        <time>2016-09-15T07:55:46Z</time>
      </trkpt>
      <trkpt lat="45.95814" lon="4.48962">
        <ele>676</ele>
        <time>2016-09-15T07:55:47Z</time>
      </trkpt>
      <trkpt lat="45.95822" lon="4.48957">
        <ele>676</ele>
        <time>2016-09-15T07:55:54Z</time>
      </trkpt>
      <trkpt lat="45.95823" lon="4.48957">
        <ele>676</ele>
        <time>2016-09-15T07:55:55Z</time>
      </trkpt>
      <trkpt lat="45.95832" lon="4.48956">
        <ele>676</ele>
        <time>2016-09-15T07:56:01Z</time>
      </trkpt>
      <trkpt lat="45.95833" lon="4.48955">
        <ele>676</ele>
        <time>2016-09-15T07:56:02Z</time>
      </trkpt>
      <trkpt lat="45.95841" lon="4.48952">
        <ele>675</ele>
        <time>2016-09-15T07:56:09Z</time>
      </trkpt>
      <trkpt lat="45.95842" lon="4.48951">
        <ele>675</ele>
        <time>2016-09-15T07:56:10Z</time>
      </trkpt>
      <trkpt lat="45.9585" lon="4.48949">
        <ele>675</ele>
        <time>2016-09-15T07:56:17Z</time>
      </trkpt>
      <trkpt lat="45.95851" lon="4.48949">
        <ele>675</ele>
        <time>2016-09-15T07:56:18Z</time>
      </trkpt>
      <trkpt lat="45.9586" lon="4.48944">
        <ele>676</ele>
        <time>2016-09-15T07:56:28Z</time>
      </trkpt>
      <trkpt lat="45.95861" lon="4.48944">
        <ele>676</ele>
        <time>2016-09-15T07:56:29Z</time>
      </trkpt>
      <trkpt lat="45.95869" lon="4.48946">
        <ele>676</ele>
        <time>2016-09-15T07:56:36Z</time>
      </trkpt>
      <trkpt lat="45.9587" lon="4.48947">
        <ele>676</ele>
        <time>2016-09-15T07:56:37Z</time>
      </trkpt>
      <trkpt lat="45.95877" lon="4.4895">
        <ele>676</ele>
        <time>2016-09-15T07:56:43Z</time>
      </trkpt>
      <trkpt lat="45.95879" lon="4.4895">
        <ele>676</ele>
        <time>2016-09-15T07:56:44Z</time>
      </trkpt>
      <trkpt lat="45.95887" lon="4.48946">
        <ele>676</ele>
        <time>2016-09-15T07:56:50Z</time>
      </trkpt>
      <trkpt lat="45.95888" lon="4.48945">
        <ele>676</ele>
        <time>2016-09-15T07:56:51Z</time>
      </trkpt>
      <trkpt lat="45.95895" lon="4.48942">
        <ele>676</ele>
        <time>2016-09-15T07:56:56Z</time>
      </trkpt>
      <trkpt lat="45.95897" lon="4.48942">
        <ele>676</ele>
        <time>2016-09-15T07:56:57Z</time>
      </trkpt>
      <trkpt lat="45.95904" lon="4.4894">
        <ele>676</ele>
        <time>2016-09-15T07:57:02Z</time>
      </trkpt>
      <trkpt lat="45.95906" lon="4.4894">
        <ele>676</ele>
        <time>2016-09-15T07:57:03Z</time>
      </trkpt>
      <trkpt lat="45.95914" lon="4.48939">
        <ele>677</ele>
        <time>2016-09-15T07:57:13Z</time>
      </trkpt>
      <trkpt lat="45.95915" lon="4.48939">
        <ele>677</ele>
        <time>2016-09-15T07:57:14Z</time>
      </trkpt>
      <trkpt lat="45.95923" lon="4.48933">
        <ele>678</ele>
        <time>2016-09-15T07:57:21Z</time>
      </trkpt>
      <trkpt lat="45.95924" lon="4.48933">
        <ele>678</ele>
        <time>2016-09-15T07:57:22Z</time>
      </trkpt>
      <trkpt lat="45.95931" lon="4.48926">
        <ele>678</ele>
        <time>2016-09-15T07:57:28Z</time>
      </trkpt>
      <trkpt lat="45.95931" lon="4.48925">
        <ele>678</ele>
        <time>2016-09-15T07:57:29Z</time>
      </trkpt>
      <trkpt lat="45.95939" lon="4.48919">
        <ele>678</ele>
        <time>2016-09-15T07:57:36Z</time>
      </trkpt>
      <trkpt lat="45.9594" lon="4.48919">
        <ele>678</ele>
        <time>2016-09-15T07:57:37Z</time>
      </trkpt>
      <trkpt lat="45.95946" lon="4.48911">
        <ele>681</ele>
        <time>2016-09-15T07:57:46Z</time>
      </trkpt>
      <trkpt lat="45.95947" lon="4.4891">
        <ele>681</ele>
        <time>2016-09-15T07:57:47Z</time>
      </trkpt>
      <trkpt lat="45.95955" lon="4.48915">
        <ele>682</ele>
        <time>2016-09-15T07:57:57Z</time>
      </trkpt>
      <trkpt lat="45.95955" lon="4.48915">
        <ele>682</ele>
        <time>2016-09-15T07:57:58Z</time>
      </trkpt>
      <trkpt lat="45.95963" lon="4.48909">
        <ele>682</ele>
        <time>2016-09-15T07:58:05Z</time>
      </trkpt>
      <trkpt lat="45.95964" lon="4.48908">
        <ele>682</ele>
        <time>2016-09-15T07:58:06Z</time>
      </trkpt>
      <trkpt lat="45.95971" lon="4.48905">
        <ele>683</ele>
        <time>2016-09-15T07:58:13Z</time>
      </trkpt>
      <trkpt lat="45.95973" lon="4.48905">
        <ele>683</ele>
        <time>2016-09-15T07:58:14Z</time>
      </trkpt>
      <trkpt lat="45.95981" lon="4.48905">
        <ele>684</ele>
        <time>2016-09-15T07:58:23Z</time>
      </trkpt>
      <trkpt lat="45.95982" lon="4.48905">
        <ele>684</ele>
        <time>2016-09-15T07:58:24Z</time>
      </trkpt>
      <trkpt lat="45.95989" lon="4.48901">
        <ele>684</ele>
        <time>2016-09-15T07:58:31Z</time>
      </trkpt>
      <trkpt lat="45.95992" lon="4.48902">
        <ele>684</ele>
        <time>2016-09-15T07:58:32Z</time>
      </trkpt>
      <trkpt lat="45.96" lon="4.48898">
        <ele>684</ele>
        <time>2016-09-15T07:58:41Z</time>
      </trkpt>
      <trkpt lat="45.96001" lon="4.48898">
        <ele>684</ele>
        <time>2016-09-15T07:58:42Z</time>
      </trkpt>
      <trkpt lat="45.96009" lon="4.48892">
        <ele>684</ele>
        <time>2016-09-15T07:58:52Z</time>
      </trkpt>
      <trkpt lat="45.9601" lon="4.48891">
        <ele>684</ele>
        <time>2016-09-15T07:58:53Z</time>
      </trkpt>
      <trkpt lat="45.96017" lon="4.48884">
        <ele>684</ele>
        <time>2016-09-15T07:58:59Z</time>
      </trkpt>
      <trkpt lat="45.96018" lon="4.48884">
        <ele>684</ele>
        <time>2016-09-15T07:59:00Z</time>
      </trkpt>
      <trkpt lat="45.96024" lon="4.48876">
        <ele>684</ele>
        <time>2016-09-15T07:59:06Z</time>
      </trkpt>
      <trkpt lat="45.96025" lon="4.48875">
        <ele>684</ele>
        <time>2016-09-15T07:59:07Z</time>
      </trkpt>
      <trkpt lat="45.96031" lon="4.48868">
        <ele>684</ele>
        <time>2016-09-15T07:59:13Z</time>
      </trkpt>
      <trkpt lat="45.96032" lon="4.48867">
        <ele>684</ele>
        <time>2016-09-15T07:59:14Z</time>
      </trkpt>
      <trkpt lat="45.9604" lon="4.48862">
        <ele>684</ele>
        <time>2016-09-15T07:59:20Z</time>
      </trkpt>
      <trkpt lat="45.96041" lon="4.48862">
        <ele>684</ele>
        <time>2016-09-15T07:59:21Z</time>
      </trkpt>
      <trkpt lat="45.96049" lon="4.48859">
        <ele>684</ele>
        <time>2016-09-15T07:59:28Z</time>
      </trkpt>
      <trkpt lat="45.9605" lon="4.48859">
        <ele>684</ele>
        <time>2016-09-15T07:59:29Z</time>
      </trkpt>
      <trkpt lat="45.96057" lon="4.48852">
        <ele>684</ele>
        <time>2016-09-15T07:59:34Z</time>
      </trkpt>
      <trkpt lat="45.96058" lon="4.48851">
        <ele>684</ele>
        <time>2016-09-15T07:59:35Z</time>
      </trkpt>
      <trkpt lat="45.96065" lon="4.48843">
        <ele>684</ele>
        <time>2016-09-15T07:59:41Z</time>
      </trkpt>
      <trkpt lat="45.96066" lon="4.48841">
        <ele>684</ele>
        <time>2016-09-15T07:59:42Z</time>
      </trkpt>
      <trkpt lat="45.96065" lon="4.4883">
        <ele>688</ele>
        <time>2016-09-15T07:59:50Z</time>
      </trkpt>
      <trkpt lat="45.96065" lon="4.48828">
        <ele>688</ele>
        <time>2016-09-15T07:59:51Z</time>
      </trkpt>
      <trkpt lat="45.9606" lon="4.48818">
        <ele>689</ele>
        <time>2016-09-15T08:00:00Z</time>
      </trkpt>
      <trkpt lat="45.9606" lon="4.48818">
        <ele>689</ele>
        <time>2016-09-15T08:00:01Z</time>
      </trkpt>
      <trkpt lat="45.96059" lon="4.48805">
        <ele>690</ele>
        <time>2016-09-15T08:00:14Z</time>
      </trkpt>
      <trkpt lat="45.9606" lon="4.48805">
        <ele>690</ele>
        <time>2016-09-15T08:00:15Z</time>
      </trkpt>
      <trkpt lat="45.96058" lon="4.48792">
        <ele>690</ele>
        <time>2016-09-15T08:00:26Z</time>
      </trkpt>
      <trkpt lat="45.96058" lon="4.48791">
        <ele>690</ele>
        <time>2016-09-15T08:00:27Z</time>
      </trkpt>
      <trkpt lat="45.96059" lon="4.48778">
        <ele>691</ele>
        <time>2016-09-15T08:00:36Z</time>
      </trkpt>
      <trkpt lat="45.96058" lon="4.48777">
        <ele>691</ele>
        <time>2016-09-15T08:00:37Z</time>
      </trkpt>
      <trkpt lat="45.9606" lon="4.48765">
        <ele>691</ele>
        <time>2016-09-15T08:00:52Z</time>
      </trkpt>
      <trkpt lat="45.96059" lon="4.48763">
        <ele>691</ele>
        <time>2016-09-15T08:00:53Z</time>
      </trkpt>
      <trkpt lat="45.96058" lon="4.4875">
        <ele>693</ele>
        <time>2016-09-15T08:01:02Z</time>
      </trkpt>
      <trkpt lat="45.96058" lon="4.48749">
        <ele>694</ele>
        <time>2016-09-15T08:01:03Z</time>
      </trkpt>
      <trkpt lat="45.96056" lon="4.48737">
        <ele>694</ele>
        <time>2016-09-15T08:01:11Z</time>
      </trkpt>
      <trkpt lat="45.96055" lon="4.48736">
        <ele>694</ele>
        <time>2016-09-15T08:01:12Z</time>
      </trkpt>
      <trkpt lat="45.96052" lon="4.48724">
        <ele>695</ele>
        <time>2016-09-15T08:01:21Z</time>
      </trkpt>
      <trkpt lat="45.96052" lon="4.48723">
        <ele>695</ele>
        <time>2016-09-15T08:01:22Z</time>
      </trkpt>
      <trkpt lat="45.9605" lon="4.48712">
        <ele>696</ele>
        <time>2016-09-15T08:01:28Z</time>
      </trkpt>
      <trkpt lat="45.9605" lon="4.4871">
        <ele>696</ele>
        <time>2016-09-15T08:01:29Z</time>
      </trkpt>
      <trkpt lat="45.96046" lon="4.48699">
        <ele>696</ele>
        <time>2016-09-15T08:01:36Z</time>
      </trkpt>
      <trkpt lat="45.96045" lon="4.48698">
        <ele>696</ele>
        <time>2016-09-15T08:01:37Z</time>
      </trkpt>
      <trkpt lat="45.96044" lon="4.48686">
        <ele>697</ele>
        <time>2016-09-15T08:01:45Z</time>
      </trkpt>
      <trkpt lat="45.96044" lon="4.48685">
        <ele>697</ele>
        <time>2016-09-15T08:01:46Z</time>
      </trkpt>
      <trkpt lat="45.96041" lon="4.48674">
        <ele>697</ele>
        <time>2016-09-15T08:01:54Z</time>
      </trkpt>
      <trkpt lat="45.96041" lon="4.48672">
        <ele>697</ele>
        <time>2016-09-15T08:01:55Z</time>
      </trkpt>
      <trkpt lat="45.96039" lon="4.4866">
        <ele>700</ele>
        <time>2016-09-15T08:02:03Z</time>
      </trkpt>
      <trkpt lat="45.96039" lon="4.48659">
        <ele>700</ele>
        <time>2016-09-15T08:02:04Z</time>
      </trkpt>
      <trkpt lat="45.96035" lon="4.48647">
        <ele>700</ele>
        <time>2016-09-15T08:02:13Z</time>
      </trkpt>
      <trkpt lat="45.96035" lon="4.48645">
        <ele>700</ele>
        <time>2016-09-15T08:02:14Z</time>
      </trkpt>
      <trkpt lat="45.9603" lon="4.48635">
        <ele>701</ele>
        <time>2016-09-15T08:02:21Z</time>
      </trkpt>
      <trkpt lat="45.96029" lon="4.48633">
        <ele>701</ele>
        <time>2016-09-15T08:02:22Z</time>
      </trkpt>
      <trkpt lat="45.96024" lon="4.48623">
        <ele>701</ele>
        <time>2016-09-15T08:02:29Z</time>
      </trkpt>
      <trkpt lat="45.96024" lon="4.48621">
        <ele>701</ele>
        <time>2016-09-15T08:02:30Z</time>
      </trkpt>
      <trkpt lat="45.96021" lon="4.4861">
        <ele>701</ele>
        <time>2016-09-15T08:02:37Z</time>
      </trkpt>
      <trkpt lat="45.96021" lon="4.48608">
        <ele>701</ele>
        <time>2016-09-15T08:02:38Z</time>
      </trkpt>
      <trkpt lat="45.96021" lon="4.48596">
        <ele>701</ele>
        <time>2016-09-15T08:02:45Z</time>
      </trkpt>
      <trkpt lat="45.96022" lon="4.48595">
        <ele>701</ele>
        <time>2016-09-15T08:02:46Z</time>
      </trkpt>
      <trkpt lat="45.96028" lon="4.48586">
        <ele>701</ele>
        <time>2016-09-15T08:02:54Z</time>
      </trkpt>
      <trkpt lat="45.96028" lon="4.48585">
        <ele>701</ele>
        <time>2016-09-15T08:02:55Z</time>
      </trkpt>
      <trkpt lat="45.96033" lon="4.48575">
        <ele>704</ele>
        <time>2016-09-15T08:03:02Z</time>
      </trkpt>
      <trkpt lat="45.96034" lon="4.48574">
        <ele>704</ele>
        <time>2016-09-15T08:03:03Z</time>
      </trkpt>
      <trkpt lat="45.96038" lon="4.48563">
        <ele>705</ele>
        <time>2016-09-15T08:03:11Z</time>
      </trkpt>
      <trkpt lat="45.96038" lon="4.48562">
        <ele>705</ele>
        <time>2016-09-15T08:03:12Z</time>
      </trkpt>
      <trkpt lat="45.96039" lon="4.4855">
        <ele>705</ele>
        <time>2016-09-15T08:03:23Z</time>
      </trkpt>
      <trkpt lat="45.96038" lon="4.48549">
        <ele>705</ele>
        <time>2016-09-15T08:03:24Z</time>
      </trkpt>
      <trkpt lat="45.96035" lon="4.48537">
        <ele>705</ele>
        <time>2016-09-15T08:03:31Z</time>
      </trkpt>
      <trkpt lat="45.96034" lon="4.48536">
        <ele>705</ele>
        <time>2016-09-15T08:03:32Z</time>
      </trkpt>
      <trkpt lat="45.96034" lon="4.48524">
        <ele>706</ele>
        <time>2016-09-15T08:03:38Z</time>
      </trkpt>
      <trkpt lat="45.96034" lon="4.48522">
        <ele>706</ele>
        <time>2016-09-15T08:03:39Z</time>
      </trkpt>
      <trkpt lat="45.96034" lon="4.48511">
        <ele>706</ele>
        <time>2016-09-15T08:03:44Z</time>
      </trkpt>
      <trkpt lat="45.96033" lon="4.48508">
        <ele>706</ele>
        <time>2016-09-15T08:03:45Z</time>
      </trkpt>
      <trkpt lat="45.96031" lon="4.48496">
        <ele>707</ele>
        <time>2016-09-15T08:03:51Z</time>
      </trkpt>
      <trkpt lat="45.96031" lon="4.48494">
        <ele>707</ele>
        <time>2016-09-15T08:03:52Z</time>
      </trkpt>
      <trkpt lat="45.9603" lon="4.48482">
        <ele>707</ele>
        <time>2016-09-15T08:03:58Z</time>
      </trkpt>
      <trkpt lat="45.9603" lon="4.4848">
        <ele>707</ele>
        <time>2016-09-15T08:03:59Z</time>
      </trkpt>
      <trkpt lat="45.96027" lon="4.48469">
        <ele>707</ele>
        <time>2016-09-15T08:04:05Z</time>
      </trkpt>
      <trkpt lat="45.96027" lon="4.48467">
        <ele>707</ele>
        <time>2016-09-15T08:04:06Z</time>
      </trkpt>
      <trkpt lat="45.96025" lon="4.48454">
        <ele>706</ele>
        <time>2016-09-15T08:04:12Z</time>
      </trkpt>
      <trkpt lat="45.96025" lon="4.48453">
        <ele>706</ele>
        <time>2016-09-15T08:04:13Z</time>
      </trkpt>
      <trkpt lat="45.96025" lon="4.48441">
        <ele>706</ele>
        <time>2016-09-15T08:04:20Z</time>
      </trkpt>
      <trkpt lat="45.96026" lon="4.48439">
        <ele>706</ele>
        <time>2016-09-15T08:04:21Z</time>
      </trkpt>
      <trkpt lat="45.96027" lon="4.48427">
        <ele>706</ele>
        <time>2016-09-15T08:04:29Z</time>
      </trkpt>
      <trkpt lat="45.96027" lon="4.48425">
        <ele>706</ele>
        <time>2016-09-15T08:04:30Z</time>
      </trkpt>
      <trkpt lat="45.96029" lon="4.48413">
        <ele>708</ele>
        <time>2016-09-15T08:04:37Z</time>
      </trkpt>
      <trkpt lat="45.96029" lon="4.48412">
        <ele>708</ele>
        <time>2016-09-15T08:04:38Z</time>
      </trkpt>
      <trkpt lat="45.96029" lon="4.48399">
        <ele>709</ele>
        <time>2016-09-15T08:04:47Z</time>
      </trkpt>
      <trkpt lat="45.96029" lon="4.48398">
        <ele>709</ele>
        <time>2016-09-15T08:04:48Z</time>
      </trkpt>
      <trkpt lat="45.9603" lon="4.48385">
        <ele>710</ele>
        <time>2016-09-15T08:05:18Z</time>
      </trkpt>
      <trkpt lat="45.9603" lon="4.48385">
        <ele>710</ele>
        <time>2016-09-15T08:05:19Z</time>
      </trkpt>
      <trkpt lat="45.96029" lon="4.48373">
        <ele>711</ele>
        <time>2016-09-15T08:10:18Z</time>
      </trkpt>
      <trkpt lat="45.96029" lon="4.48372">
        <ele>711</ele>
        <time>2016-09-15T08:10:19Z</time>
      </trkpt>
      <trkpt lat="45.96031" lon="4.4836">
        <ele>712</ele>
        <time>2016-09-15T08:10:27Z</time>
      </trkpt>
      <trkpt lat="45.96031" lon="4.48359">
        <ele>712</ele>
        <time>2016-09-15T08:10:28Z</time>
      </trkpt>
      <trkpt lat="45.96032" lon="4.48347">
        <ele>712</ele>
        <time>2016-09-15T08:10:36Z</time>
      </trkpt>
      <trkpt lat="45.96032" lon="4.48345">
        <ele>712</ele>
        <time>2016-09-15T08:10:37Z</time>
      </trkpt>
      <trkpt lat="45.96032" lon="4.48333">
        <ele>719</ele>
        <time>2016-09-15T08:10:47Z</time>
      </trkpt>
      <trkpt lat="45.96032" lon="4.48331">
        <ele>719</ele>
        <time>2016-09-15T08:10:48Z</time>
      </trkpt>
      <trkpt lat="45.96032" lon="4.48319">
        <ele>719</ele>
        <time>2016-09-15T08:11:01Z</time>
      </trkpt>
      <trkpt lat="45.96032" lon="4.48318">
        <ele>719</ele>
        <time>2016-09-15T08:11:02Z</time>
      </trkpt>
      <trkpt lat="45.96033" lon="4.48306">
        <ele>721</ele>
        <time>2016-09-15T08:11:11Z</time>
      </trkpt>
      <trkpt lat="45.96034" lon="4.48305">
        <ele>721</ele>
        <time>2016-09-15T08:11:12Z</time>
      </trkpt>
      <trkpt lat="45.96033" lon="4.48293">
        <ele>722</ele>
        <time>2016-09-15T08:11:22Z</time>
      </trkpt>
      <trkpt lat="45.96033" lon="4.48291">
        <ele>722</ele>
        <time>2016-09-15T08:11:23Z</time>
      </trkpt>
      <trkpt lat="45.96032" lon="4.48279">
        <ele>723</ele>
        <time>2016-09-15T08:11:35Z</time>
      </trkpt>
      <trkpt lat="45.96031" lon="4.48278">
        <ele>723</ele>
        <time>2016-09-15T08:11:36Z</time>
      </trkpt>
      <trkpt lat="45.96028" lon="4.48267">
        <ele>723</ele>
        <time>2016-09-15T08:11:44Z</time>
      </trkpt>
      <trkpt lat="45.96028" lon="4.48265">
        <ele>723</ele>
        <time>2016-09-15T08:11:45Z</time>
      </trkpt>
      <trkpt lat="45.96023" lon="4.48255">
        <ele>722</ele>
        <time>2016-09-15T08:11:55Z</time>
      </trkpt>
      <trkpt lat="45.96023" lon="4.48254">
        <ele>722</ele>
        <time>2016-09-15T08:11:56Z</time>
      </trkpt>
      <trkpt lat="45.9602" lon="4.48242">
        <ele>729</ele>
        <time>2016-09-15T08:12:07Z</time>
      </trkpt>
      <trkpt lat="45.9602" lon="4.48241">
        <ele>729</ele>
        <time>2016-09-15T08:12:08Z</time>
      </trkpt>
      <trkpt lat="45.96019" lon="4.48229">
        <ele>731</ele>
        <time>2016-09-15T08:12:16Z</time>
      </trkpt>
      <trkpt lat="45.96019" lon="4.48227">
        <ele>731</ele>
        <time>2016-09-15T08:12:17Z</time>
      </trkpt>
      <trkpt lat="45.96014" lon="4.48217">
        <ele>733</ele>
        <time>2016-09-15T08:12:27Z</time>
      </trkpt>
      <trkpt lat="45.96014" lon="4.48216">
        <ele>733</ele>
        <time>2016-09-15T08:12:28Z</time>
      </trkpt>
      <trkpt lat="45.9601" lon="4.48205">
        <ele>734</ele>
        <time>2016-09-15T08:12:35Z</time>
      </trkpt>
      <trkpt lat="45.96009" lon="4.48204">
        <ele>734</ele>
        <time>2016-09-15T08:12:36Z</time>
      </trkpt>
      <trkpt lat="45.96005" lon="4.48193">
        <ele>736</ele>
        <time>2016-09-15T08:12:43Z</time>
      </trkpt>
      <trkpt lat="45.96005" lon="4.48192">
        <ele>736</ele>
        <time>2016-09-15T08:12:44Z</time>
      </trkpt>
      <trkpt lat="45.96001" lon="4.4818">
        <ele>737</ele>
        <time>2016-09-15T08:12:52Z</time>
      </trkpt>
      <trkpt lat="45.96" lon="4.48179">
        <ele>737</ele>
        <time>2016-09-15T08:12:53Z</time>
      </trkpt>
      <trkpt lat="45.95995" lon="4.48169">
        <ele>734</ele>
        <time>2016-09-15T08:13:03Z</time>
      </trkpt>
      <trkpt lat="45.95995" lon="4.48167">
        <ele>734</ele>
        <time>2016-09-15T08:13:04Z</time>
      </trkpt>
      <trkpt lat="45.9599" lon="4.48157">
        <ele>736</ele>
        <time>2016-09-15T08:13:15Z</time>
      </trkpt>
      <trkpt lat="45.9599" lon="4.48156">
        <ele>736</ele>
        <time>2016-09-15T08:13:16Z</time>
      </trkpt>
      <trkpt lat="45.95987" lon="4.48144">
        <ele>735</ele>
        <time>2016-09-15T08:13:27Z</time>
      </trkpt>
      <trkpt lat="45.95987" lon="4.48143">
        <ele>735</ele>
        <time>2016-09-15T08:13:28Z</time>
      </trkpt>
      <trkpt lat="45.95986" lon="4.48131">
        <ele>736</ele>
        <time>2016-09-15T08:13:36Z</time>
      </trkpt>
      <trkpt lat="45.95986" lon="4.4813">
        <ele>736</ele>
        <time>2016-09-15T08:13:37Z</time>
      </trkpt>
      <trkpt lat="45.95988" lon="4.48118">
        <ele>737</ele>
        <time>2016-09-15T08:13:47Z</time>
      </trkpt>
      <trkpt lat="45.95988" lon="4.48116">
        <ele>737</ele>
        <time>2016-09-15T08:13:48Z</time>
      </trkpt>
      <trkpt lat="45.95987" lon="4.48104">
        <ele>739</ele>
        <time>2016-09-15T08:14:00Z</time>
      </trkpt>
      <trkpt lat="45.95987" lon="4.48103">
        <ele>740</ele>
        <time>2016-09-15T08:14:01Z</time>
      </trkpt>
      <trkpt lat="45.95985" lon="4.4809">
        <ele>742</ele>
        <time>2016-09-15T08:14:15Z</time>
      </trkpt>
      <trkpt lat="45.95985" lon="4.48089">
        <ele>742</ele>
        <time>2016-09-15T08:14:16Z</time>
      </trkpt>
      <trkpt lat="45.9598" lon="4.48079">
        <ele>745</ele>
        <time>2016-09-15T08:14:25Z</time>
      </trkpt>
      <trkpt lat="45.95979" lon="4.48078">
        <ele>745</ele>
        <time>2016-09-15T08:14:26Z</time>
      </trkpt>
      <trkpt lat="45.95973" lon="4.48071">
        <ele>744</ele>
        <time>2016-09-15T08:14:32Z</time>
      </trkpt>
      <trkpt lat="45.95972" lon="4.4807">
        <ele>744</ele>
        <time>2016-09-15T08:14:33Z</time>
      </trkpt>
      <trkpt lat="45.95964" lon="4.48064">
        <ele>743</ele>
        <time>2016-09-15T08:14:41Z</time>
      </trkpt>
      <trkpt lat="45.95963" lon="4.48062">
        <ele>743</ele>
        <time>2016-09-15T08:14:42Z</time>
      </trkpt>
      <trkpt lat="45.95957" lon="4.48053">
        <ele>742</ele>
        <time>2016-09-15T08:14:50Z</time>
      </trkpt>
      <trkpt lat="45.95956" lon="4.48052">
        <ele>742</ele>
        <time>2016-09-15T08:14:51Z</time>
      </trkpt>
      <trkpt lat="45.95948" lon="4.48055">
        <ele>741</ele>
        <time>2016-09-15T08:15:02Z</time>
      </trkpt>
      <trkpt lat="45.95947" lon="4.48055">
        <ele>741</ele>
        <time>2016-09-15T08:15:03Z</time>
      </trkpt>
      <trkpt lat="45.95939" lon="4.48049">
        <ele>741</ele>
        <time>2016-09-15T08:15:16Z</time>
      </trkpt>
      <trkpt lat="45.95938" lon="4.48048">
        <ele>741</ele>
        <time>2016-09-15T08:15:17Z</time>
      </trkpt>
      <trkpt lat="45.9593" lon="4.48044">
        <ele>741</ele>
        <time>2016-09-15T08:15:29Z</time>
      </trkpt>
      <trkpt lat="45.9593" lon="4.48043">
        <ele>741</ele>
        <time>2016-09-15T08:15:30Z</time>
      </trkpt>
      <trkpt lat="45.95923" lon="4.48035">
        <ele>741</ele>
        <time>2016-09-15T08:15:41Z</time>
      </trkpt>
      <trkpt lat="45.95923" lon="4.48035">
        <ele>741</ele>
        <time>2016-09-15T08:15:42Z</time>
      </trkpt>
      <trkpt lat="45.95916" lon="4.48028">
        <ele>732</ele>
        <time>2016-09-15T08:15:51Z</time>
      </trkpt>
      <trkpt lat="45.95915" lon="4.48027">
        <ele>732</ele>
        <time>2016-09-15T08:15:52Z</time>
      </trkpt>
      <trkpt lat="45.95909" lon="4.48018">
        <ele>733</ele>
        <time>2016-09-15T08:16:01Z</time>
      </trkpt>
      <trkpt lat="45.95908" lon="4.48017">
        <ele>734</ele>
        <time>2016-09-15T08:16:02Z</time>
      </trkpt>
      <trkpt lat="45.959" lon="4.48019">
        <ele>732</ele>
        <time>2016-09-15T08:16:12Z</time>
      </trkpt>
      <trkpt lat="45.95899" lon="4.4802">
        <ele>731</ele>
        <time>2016-09-15T08:16:13Z</time>
      </trkpt>
      <trkpt lat="45.95897" lon="4.48007">
        <ele>733</ele>
        <time>2016-09-15T08:21:27Z</time>
      </trkpt>
      <trkpt lat="45.95896" lon="4.48006">
        <ele>733</ele>
        <time>2016-09-15T08:21:28Z</time>
      </trkpt>
      <trkpt lat="45.95889" lon="4.48">
        <ele>736</ele>
        <time>2016-09-15T08:21:44Z</time>
      </trkpt>
      <trkpt lat="45.95888" lon="4.47999">
        <ele>736</ele>
        <time>2016-09-15T08:21:45Z</time>
      </trkpt>
      <trkpt lat="45.95881" lon="4.47991">
        <ele>735</ele>
        <time>2016-09-15T08:21:54Z</time>
      </trkpt>
      <trkpt lat="45.9588" lon="4.4799">
        <ele>734</ele>
        <time>2016-09-15T08:21:55Z</time>
      </trkpt>
      <trkpt lat="45.95877" lon="4.47979">
        <ele>734</ele>
        <time>2016-09-15T08:22:04Z</time>
      </trkpt>
      <trkpt lat="45.95876" lon="4.47978">
        <ele>734</ele>
        <time>2016-09-15T08:22:05Z</time>
      </trkpt>
      <trkpt lat="45.9587" lon="4.47969">
        <ele>733</ele>
        <time>2016-09-15T08:22:13Z</time>
      </trkpt>
      <trkpt lat="45.95869" lon="4.47969">
        <ele>733</ele>
        <time>2016-09-15T08:22:14Z</time>
      </trkpt>
      <trkpt lat="45.95862" lon="4.47961">
        <ele>733</ele>
        <time>2016-09-15T08:22:23Z</time>
      </trkpt>
      <trkpt lat="45.95862" lon="4.4796">
        <ele>733</ele>
        <time>2016-09-15T08:22:24Z</time>
      </trkpt>
      <trkpt lat="45.95855" lon="4.47951">
        <ele>733</ele>
        <time>2016-09-15T08:22:32Z</time>
      </trkpt>
      <trkpt lat="45.95854" lon="4.47951">
        <ele>732</ele>
        <time>2016-09-15T08:22:33Z</time>
      </trkpt>
      <trkpt lat="45.95846" lon="4.47947">
        <ele>732</ele>
        <time>2016-09-15T08:22:40Z</time>
      </trkpt>
      <trkpt lat="45.95845" lon="4.47946">
        <ele>732</ele>
        <time>2016-09-15T08:22:41Z</time>
      </trkpt>
      <trkpt lat="45.95837" lon="4.47941">
        <ele>732</ele>
        <time>2016-09-15T08:22:51Z</time>
      </trkpt>
      <trkpt lat="45.95837" lon="4.47941">
        <ele>732</ele>
        <time>2016-09-15T08:22:52Z</time>
      </trkpt>
      <trkpt lat="45.95829" lon="4.47936">
        <ele>725</ele>
        <time>2016-09-15T08:23:00Z</time>
      </trkpt>
      <trkpt lat="45.95828" lon="4.47936">
        <ele>725</ele>
        <time>2016-09-15T08:23:01Z</time>
      </trkpt>
      <trkpt lat="45.9582" lon="4.47935">
        <ele>724</ele>
        <time>2016-09-15T08:23:10Z</time>
      </trkpt>
      <trkpt lat="45.95819" lon="4.47934">
        <ele>724</ele>
        <time>2016-09-15T08:23:11Z</time>
      </trkpt>
      <trkpt lat="45.95812" lon="4.47927">
        <ele>723</ele>
        <time>2016-09-15T08:23:19Z</time>
      </trkpt>
      <trkpt lat="45.95811" lon="4.47926">
        <ele>723</ele>
        <time>2016-09-15T08:23:20Z</time>
      </trkpt>
      <trkpt lat="45.95804" lon="4.47918">
        <ele>722</ele>
        <time>2016-09-15T08:23:28Z</time>
      </trkpt>
      <trkpt lat="45.95803" lon="4.47917">
        <ele>722</ele>
        <time>2016-09-15T08:23:29Z</time>
      </trkpt>
      <trkpt lat="45.958" lon="4.47906">
        <ele>724</ele>
        <time>2016-09-15T08:23:37Z</time>
      </trkpt>
      <trkpt lat="45.95799" lon="4.47905">
        <ele>724</ele>
        <time>2016-09-15T08:23:38Z</time>
      </trkpt>
      <trkpt lat="45.95796" lon="4.47894">
        <ele>723</ele>
        <time>2016-09-15T08:23:46Z</time>
      </trkpt>
      <trkpt lat="45.95796" lon="4.47893">
        <ele>723</ele>
        <time>2016-09-15T08:23:47Z</time>
      </trkpt>
      <trkpt lat="45.95792" lon="4.47881">
        <ele>722</ele>
        <time>2016-09-15T08:23:56Z</time>
      </trkpt>
      <trkpt lat="45.95792" lon="4.47879">
        <ele>722</ele>
        <time>2016-09-15T08:23:57Z</time>
      </trkpt>
      <trkpt lat="45.95793" lon="4.47867">
        <ele>722</ele>
        <time>2016-09-15T08:24:07Z</time>
      </trkpt>
      <trkpt lat="45.95793" lon="4.47865">
        <ele>722</ele>
        <time>2016-09-15T08:24:08Z</time>
      </trkpt>
      <trkpt lat="45.95786" lon="4.47857">
        <ele>722</ele>
        <time>2016-09-15T08:24:26Z</time>
      </trkpt>
      <trkpt lat="45.95785" lon="4.47856">
        <ele>722</ele>
        <time>2016-09-15T08:24:27Z</time>
      </trkpt>
      <trkpt lat="45.95777" lon="4.47854">
        <ele>721</ele>
        <time>2016-09-15T08:24:36Z</time>
      </trkpt>
      <trkpt lat="45.95776" lon="4.47854">
        <ele>721</ele>
        <time>2016-09-15T08:24:37Z</time>
      </trkpt>
      <trkpt lat="45.95768" lon="4.47853">
        <ele>721</ele>
        <time>2016-09-15T08:24:46Z</time>
      </trkpt>
      <trkpt lat="45.95767" lon="4.47853">
        <ele>721</ele>
        <time>2016-09-15T08:24:47Z</time>
      </trkpt>
      <trkpt lat="45.95759" lon="4.47852">
        <ele>721</ele>
        <time>2016-09-15T08:24:56Z</time>
      </trkpt>
      <trkpt lat="45.95758" lon="4.47852">
        <ele>720</ele>
        <time>2016-09-15T08:24:57Z</time>
      </trkpt>
      <trkpt lat="45.9575" lon="4.4785">
        <ele>719</ele>
        <time>2016-09-15T08:25:04Z</time>
      </trkpt>
      <trkpt lat="45.95749" lon="4.4785">
        <ele>719</ele>
        <time>2016-09-15T08:25:05Z</time>
      </trkpt>
      <trkpt lat="45.95741" lon="4.47842">
        <ele>719</ele>
        <time>2016-09-15T08:25:22Z</time>
      </trkpt>
      <trkpt lat="45.95741" lon="4.47842">
        <ele>719</ele>
        <time>2016-09-15T08:25:23Z</time>
      </trkpt>
      <trkpt lat="45.95736" lon="4.47851">
        <ele>718</ele>
        <time>2016-09-15T08:25:48Z</time>
      </trkpt>
      <trkpt lat="45.95736" lon="4.47852">
        <ele>718</ele>
        <time>2016-09-15T08:25:49Z</time>
      </trkpt>
      <trkpt lat="45.95729" lon="4.4786">
        <ele>718</ele>
        <time>2016-09-15T08:25:59Z</time>
      </trkpt>
      <trkpt lat="45.95728" lon="4.47861">
        <ele>718</ele>
        <time>2016-09-15T08:26:00Z</time>
      </trkpt>
      <trkpt lat="45.95732" lon="4.47851">
        <ele>718</ele>
        <time>2016-09-15T08:29:47Z</time>
      </trkpt>
      <trkpt lat="45.95732" lon="4.47849">
        <ele>718</ele>
        <time>2016-09-15T08:29:48Z</time>
      </trkpt>
      <trkpt lat="45.95729" lon="4.47838">
        <ele>719</ele>
        <time>2016-09-15T08:29:55Z</time>
      </trkpt>
      <trkpt lat="45.95729" lon="4.47837">
        <ele>719</ele>
        <time>2016-09-15T08:29:56Z</time>
      </trkpt>
      <trkpt lat="45.95723" lon="4.47828">
        <ele>718</ele>
        <time>2016-09-15T08:30:02Z</time>
      </trkpt>
      <trkpt lat="45.95723" lon="4.47826">
        <ele>718</ele>
        <time>2016-09-15T08:30:03Z</time>
      </trkpt>
      <trkpt lat="45.95719" lon="4.47816">
        <ele>718</ele>
        <time>2016-09-15T08:30:09Z</time>
      </trkpt>
      <trkpt lat="45.95718" lon="4.47815">
        <ele>718</ele>
        <time>2016-09-15T08:30:10Z</time>
      </trkpt>
      <trkpt lat="45.95714" lon="4.47805">
        <ele>717</ele>
        <time>2016-09-15T08:30:16Z</time>
      </trkpt>
      <trkpt lat="45.95713" lon="4.47803">
        <ele>717</ele>
        <time>2016-09-15T08:30:17Z</time>
      </trkpt>
      <trkpt lat="45.95709" lon="4.47793">
        <ele>717</ele>
        <time>2016-09-15T08:30:24Z</time>
      </trkpt>
      <trkpt lat="45.95708" lon="4.47791">
        <ele>717</ele>
        <time>2016-09-15T08:30:25Z</time>
      </trkpt>
      <trkpt lat="45.95702" lon="4.47783">
        <ele>717</ele>
        <time>2016-09-15T08:30:32Z</time>
      </trkpt>
      <trkpt lat="45.95701" lon="4.47782">
        <ele>717</ele>
        <time>2016-09-15T08:30:33Z</time>
      </trkpt>
      <trkpt lat="45.95695" lon="4.47773">
        <ele>717</ele>
        <time>2016-09-15T08:30:41Z</time>
      </trkpt>
      <trkpt lat="45.95695" lon="4.47772">
        <ele>717</ele>
        <time>2016-09-15T08:30:42Z</time>
      </trkpt>
      <trkpt lat="45.95688" lon="4.47764">
        <ele>718</ele>
        <time>2016-09-15T08:30:49Z</time>
      </trkpt>
      <trkpt lat="45.95688" lon="4.47763">
        <ele>718</ele>
        <time>2016-09-15T08:30:50Z</time>
      </trkpt>
      <trkpt lat="45.95683" lon="4.47754">
        <ele>718</ele>
        <time>2016-09-15T08:30:55Z</time>
      </trkpt>
      <trkpt lat="45.95682" lon="4.47752">
        <ele>718</ele>
        <time>2016-09-15T08:30:56Z</time>
      </trkpt>
      <trkpt lat="45.95677" lon="4.47743">
        <ele>716</ele>
        <time>2016-09-15T08:31:02Z</time>
      </trkpt>
      <trkpt lat="45.95676" lon="4.47742">
        <ele>716</ele>
        <time>2016-09-15T08:31:03Z</time>
      </trkpt>
      <trkpt lat="45.9567" lon="4.47732">
        <ele>715</ele>
        <time>2016-09-15T08:31:09Z</time>
      </trkpt>
      <trkpt lat="45.9567" lon="4.47731">
        <ele>714</ele>
        <time>2016-09-15T08:31:10Z</time>
      </trkpt>
      <trkpt lat="45.95664" lon="4.47721">
        <ele>717</ele>
        <time>2016-09-15T08:31:16Z</time>
      </trkpt>
      <trkpt lat="45.95663" lon="4.4772">
        <ele>717</ele>
        <time>2016-09-15T08:31:17Z</time>
      </trkpt>
      <trkpt lat="45.95658" lon="4.47711">
        <ele>717</ele>
        <time>2016-09-15T08:31:23Z</time>
      </trkpt>
      <trkpt lat="45.95657" lon="4.4771">
        <ele>717</ele>
        <time>2016-09-15T08:31:24Z</time>
      </trkpt>
      <trkpt lat="45.95652" lon="4.477">
        <ele>716</ele>
        <time>2016-09-15T08:31:30Z</time>
      </trkpt>
      <trkpt lat="45.95651" lon="4.47699">
        <ele>716</ele>
        <time>2016-09-15T08:31:31Z</time>
      </trkpt>
      <trkpt lat="45.95646" lon="4.4769">
        <ele>716</ele>
        <time>2016-09-15T08:31:37Z</time>
      </trkpt>
      <trkpt lat="45.95645" lon="4.47688">
        <ele>716</ele>
        <time>2016-09-15T08:31:38Z</time>
      </trkpt>
      <trkpt lat="45.95639" lon="4.47679">
        <ele>716</ele>
        <time>2016-09-15T08:31:44Z</time>
      </trkpt>
      <trkpt lat="45.95638" lon="4.47677">
        <ele>716</ele>
        <time>2016-09-15T08:31:45Z</time>
      </trkpt>
      <trkpt lat="45.95632" lon="4.47668">
        <ele>716</ele>
        <time>2016-09-15T08:31:51Z</time>
      </trkpt>
      <trkpt lat="45.95631" lon="4.47666">
        <ele>714</ele>
        <time>2016-09-15T08:31:52Z</time>
      </trkpt>
      <trkpt lat="45.95625" lon="4.47658">
        <ele>714</ele>
        <time>2016-09-15T08:31:58Z</time>
      </trkpt>
      <trkpt lat="45.95624" lon="4.47657">
        <ele>714</ele>
        <time>2016-09-15T08:31:59Z</time>
      </trkpt>
      <trkpt lat="45.9562" lon="4.47647">
        <ele>714</ele>
        <time>2016-09-15T08:32:05Z</time>
      </trkpt>
      <trkpt lat="45.95619" lon="4.47645">
        <ele>714</ele>
        <time>2016-09-15T08:32:06Z</time>
      </trkpt>
      <trkpt lat="45.95615" lon="4.47636">
        <ele>714</ele>
        <time>2016-09-15T08:32:12Z</time>
      </trkpt>
      <trkpt lat="45.95614" lon="4.47635">
        <ele>714</ele>
        <time>2016-09-15T08:32:13Z</time>
      </trkpt>
      <trkpt lat="45.9561" lon="4.47625">
        <ele>714</ele>
        <time>2016-09-15T08:32:20Z</time>
      </trkpt>
      <trkpt lat="45.95609" lon="4.47623">
        <ele>714</ele>
        <time>2016-09-15T08:32:21Z</time>
      </trkpt>
      <trkpt lat="45.9561" lon="4.47611">
        <ele>714</ele>
        <time>2016-09-15T08:32:28Z</time>
      </trkpt>
      <trkpt lat="45.95609" lon="4.47609">
        <ele>714</ele>
        <time>2016-09-15T08:32:29Z</time>
      </trkpt>
      <trkpt lat="45.95609" lon="4.47597">
        <ele>714</ele>
        <time>2016-09-15T08:32:36Z</time>
      </trkpt>
      <trkpt lat="45.95609" lon="4.47595">
        <ele>714</ele>
        <time>2016-09-15T08:32:37Z</time>
      </trkpt>
      <trkpt lat="45.95606" lon="4.47585">
        <ele>714</ele>
        <time>2016-09-15T08:32:44Z</time>
      </trkpt>
      <trkpt lat="45.95605" lon="4.47583">
        <ele>713</ele>
        <time>2016-09-15T08:32:45Z</time>
      </trkpt>
      <trkpt lat="45.95602" lon="4.47573">
        <ele>712</ele>
        <time>2016-09-15T08:32:52Z</time>
      </trkpt>
      <trkpt lat="45.95601" lon="4.47571">
        <ele>712</ele>
        <time>2016-09-15T08:32:53Z</time>
      </trkpt>
      <trkpt lat="45.95597" lon="4.47561">
        <ele>712</ele>
        <time>2016-09-15T08:32:59Z</time>
      </trkpt>
      <trkpt lat="45.95597" lon="4.4756">
        <ele>712</ele>
        <time>2016-09-15T08:33:00Z</time>
      </trkpt>
      <trkpt lat="45.9559" lon="4.47552">
        <ele>712</ele>
        <time>2016-09-15T08:33:06Z</time>
      </trkpt>
      <trkpt lat="45.95589" lon="4.4755">
        <ele>712</ele>
        <time>2016-09-15T08:33:07Z</time>
      </trkpt>
      <trkpt lat="45.95582" lon="4.47543">
        <ele>708</ele>
        <time>2016-09-15T08:33:13Z</time>
      </trkpt>
      <trkpt lat="45.95581" lon="4.47542">
        <ele>708</ele>
        <time>2016-09-15T08:33:14Z</time>
      </trkpt>
      <trkpt lat="45.95574" lon="4.47537">
        <ele>708</ele>
        <time>2016-09-15T08:33:20Z</time>
      </trkpt>
      <trkpt lat="45.95573" lon="4.47536">
        <ele>708</ele>
        <time>2016-09-15T08:33:21Z</time>
      </trkpt>
      <trkpt lat="45.95566" lon="4.47528">
        <ele>707</ele>
        <time>2016-09-15T08:33:28Z</time>
      </trkpt>
      <trkpt lat="45.95565" lon="4.47527">
        <ele>707</ele>
        <time>2016-09-15T08:33:29Z</time>
      </trkpt>
      <trkpt lat="45.9556" lon="4.47519">
        <ele>707</ele>
        <time>2016-09-15T08:33:35Z</time>
      </trkpt>
      <trkpt lat="45.95559" lon="4.47517">
        <ele>707</ele>
        <time>2016-09-15T08:33:36Z</time>
      </trkpt>
      <trkpt lat="45.95553" lon="4.47509">
        <ele>706</ele>
        <time>2016-09-15T08:33:43Z</time>
      </trkpt>
      <trkpt lat="45.95553" lon="4.47508">
        <ele>706</ele>
        <time>2016-09-15T08:33:44Z</time>
      </trkpt>
      <trkpt lat="45.95546" lon="4.475">
        <ele>703</ele>
        <time>2016-09-15T08:33:51Z</time>
      </trkpt>
      <trkpt lat="45.95545" lon="4.47498">
        <ele>703</ele>
        <time>2016-09-15T08:33:52Z</time>
      </trkpt>
      <trkpt lat="45.95541" lon="4.47488">
        <ele>702</ele>
        <time>2016-09-15T08:33:59Z</time>
      </trkpt>
      <trkpt lat="45.9554" lon="4.47486">
        <ele>702</ele>
        <time>2016-09-15T08:34:00Z</time>
      </trkpt>
      <trkpt lat="45.95536" lon="4.47477">
        <ele>702</ele>
        <time>2016-09-15T08:34:07Z</time>
      </trkpt>
      <trkpt lat="45.95535" lon="4.47476">
        <ele>702</ele>
        <time>2016-09-15T08:34:08Z</time>
      </trkpt>
      <trkpt lat="45.95528" lon="4.47469">
        <ele>701</ele>
        <time>2016-09-15T08:34:16Z</time>
      </trkpt>
      <trkpt lat="45.95527" lon="4.47469">
        <ele>701</ele>
        <time>2016-09-15T08:34:17Z</time>
      </trkpt>
      <trkpt lat="45.95522" lon="4.47458">
        <ele>701</ele>
        <time>2016-09-15T08:35:17Z</time>
      </trkpt>
      <trkpt lat="45.95522" lon="4.47457">
        <ele>701</ele>
        <time>2016-09-15T08:35:18Z</time>
      </trkpt>
      <trkpt lat="45.95517" lon="4.47447">
        <ele>700</ele>
        <time>2016-09-15T08:35:25Z</time>
      </trkpt>
      <trkpt lat="45.95516" lon="4.47445">
        <ele>700</ele>
        <time>2016-09-15T08:35:26Z</time>
      </trkpt>
      <trkpt lat="45.95512" lon="4.47434">
        <ele>700</ele>
        <time>2016-09-15T08:35:35Z</time>
      </trkpt>
      <trkpt lat="45.95512" lon="4.47433">
        <ele>700</ele>
        <time>2016-09-15T08:35:36Z</time>
      </trkpt>
      <trkpt lat="45.95508" lon="4.47422">
        <ele>699</ele>
        <time>2016-09-15T08:35:46Z</time>
      </trkpt>
      <trkpt lat="45.95508" lon="4.47421">
        <ele>699</ele>
        <time>2016-09-15T08:35:47Z</time>
      </trkpt>
      <trkpt lat="45.95503" lon="4.4741">
        <ele>697</ele>
        <time>2016-09-15T08:35:56Z</time>
      </trkpt>
      <trkpt lat="45.95502" lon="4.47409">
        <ele>697</ele>
        <time>2016-09-15T08:35:57Z</time>
      </trkpt>
      <trkpt lat="45.95497" lon="4.47399">
        <ele>691</ele>
        <time>2016-09-15T08:36:06Z</time>
      </trkpt>
      <trkpt lat="45.95496" lon="4.47398">
        <ele>691</ele>
        <time>2016-09-15T08:36:07Z</time>
      </trkpt>
      <trkpt lat="45.95489" lon="4.47391">
        <ele>689</ele>
        <time>2016-09-15T08:36:18Z</time>
      </trkpt>
      <trkpt lat="45.95488" lon="4.47391">
        <ele>689</ele>
        <time>2016-09-15T08:36:19Z</time>
      </trkpt>
      <trkpt lat="45.95482" lon="4.47381">
        <ele>687</ele>
        <time>2016-09-15T08:36:32Z</time>
      </trkpt>
      <trkpt lat="45.95481" lon="4.47381">
        <ele>687</ele>
        <time>2016-09-15T08:36:33Z</time>
      </trkpt>
      <trkpt lat="45.95473" lon="4.47375">
        <ele>686</ele>
        <time>2016-09-15T08:36:43Z</time>
      </trkpt>
      <trkpt lat="45.95472" lon="4.47375">
        <ele>686</ele>
        <time>2016-09-15T08:36:44Z</time>
      </trkpt>
      <trkpt lat="45.95466" lon="4.47367">
        <ele>685</ele>
        <time>2016-09-15T08:36:53Z</time>
      </trkpt>
      <trkpt lat="45.95465" lon="4.47365">
        <ele>685</ele>
        <time>2016-09-15T08:36:54Z</time>
      </trkpt>
      <trkpt lat="45.9546" lon="4.47355">
        <ele>684</ele>
        <time>2016-09-15T08:37:03Z</time>
      </trkpt>
      <trkpt lat="45.9546" lon="4.47354">
        <ele>684</ele>
        <time>2016-09-15T08:37:04Z</time>
      </trkpt>
      <trkpt lat="45.95451" lon="4.4735">
        <ele>683</ele>
        <time>2016-09-15T08:37:14Z</time>
      </trkpt>
      <trkpt lat="45.9545" lon="4.4735">
        <ele>683</ele>
        <time>2016-09-15T08:37:15Z</time>
      </trkpt>
      <trkpt lat="45.95446" lon="4.47339">
        <ele>682</ele>
        <time>2016-09-15T08:37:31Z</time>
      </trkpt>
      <trkpt lat="45.95446" lon="4.47338">
        <ele>682</ele>
        <time>2016-09-15T08:37:32Z</time>
      </trkpt>
      <trkpt lat="45.9544" lon="4.47329">
        <ele>678</ele>
        <time>2016-09-15T08:37:41Z</time>
      </trkpt>
      <trkpt lat="45.95439" lon="4.47327">
        <ele>678</ele>
        <time>2016-09-15T08:37:42Z</time>
      </trkpt>
      <trkpt lat="45.95435" lon="4.47318">
        <ele>678</ele>
        <time>2016-09-15T08:37:49Z</time>
      </trkpt>
      <trkpt lat="45.95435" lon="4.47316">
        <ele>678</ele>
        <time>2016-09-15T08:37:50Z</time>
      </trkpt>
      <trkpt lat="45.95434" lon="4.47303">
        <ele>677</ele>
        <time>2016-09-15T08:37:58Z</time>
      </trkpt>
      <trkpt lat="45.95435" lon="4.47302">
        <ele>677</ele>
        <time>2016-09-15T08:37:59Z</time>
      </trkpt>
      <trkpt lat="45.95443" lon="4.47297">
        <ele>678</ele>
        <time>2016-09-15T08:38:09Z</time>
      </trkpt>
      <trkpt lat="45.95444" lon="4.47297">
        <ele>678</ele>
        <time>2016-09-15T08:38:10Z</time>
      </trkpt>
      <trkpt lat="45.95451" lon="4.4729">
        <ele>678</ele>
        <time>2016-09-15T08:38:19Z</time>
      </trkpt>
      <trkpt lat="45.95452" lon="4.47289">
        <ele>678</ele>
        <time>2016-09-15T08:38:20Z</time>
      </trkpt>
      <trkpt lat="45.95458" lon="4.4728">
        <ele>677</ele>
        <time>2016-09-15T08:38:30Z</time>
      </trkpt>
      <trkpt lat="45.95459" lon="4.4728">
        <ele>677</ele>
        <time>2016-09-15T08:38:31Z</time>
      </trkpt>
      <trkpt lat="45.95466" lon="4.47273">
        <ele>677</ele>
        <time>2016-09-15T08:38:41Z</time>
      </trkpt>
      <trkpt lat="45.95467" lon="4.47272">
        <ele>677</ele>
        <time>2016-09-15T08:38:42Z</time>
      </trkpt>
      <trkpt lat="45.95476" lon="4.4727">
        <ele>677</ele>
        <time>2016-09-15T08:38:58Z</time>
      </trkpt>
      <trkpt lat="45.95476" lon="4.47271">
        <ele>677</ele>
        <time>2016-09-15T08:38:59Z</time>
      </trkpt>
      <trkpt lat="45.95485" lon="4.4727">
        <ele>677</ele>
        <time>2016-09-15T08:39:09Z</time>
      </trkpt>
      <trkpt lat="45.95486" lon="4.47269">
        <ele>677</ele>
        <time>2016-09-15T08:39:10Z</time>
      </trkpt>
      <trkpt lat="45.95494" lon="4.47266">
        <ele>676</ele>
        <time>2016-09-15T08:39:19Z</time>
      </trkpt>
      <trkpt lat="45.95495" lon="4.47266">
        <ele>676</ele>
        <time>2016-09-15T08:39:20Z</time>
      </trkpt>
      <trkpt lat="45.95504" lon="4.47264">
        <ele>676</ele>
        <time>2016-09-15T08:39:28Z</time>
      </trkpt>
      <trkpt lat="45.95505" lon="4.47264">
        <ele>676</ele>
        <time>2016-09-15T08:39:29Z</time>
      </trkpt>
      <trkpt lat="45.95514" lon="4.47263">
        <ele>676</ele>
        <time>2016-09-15T08:39:38Z</time>
      </trkpt>
      <trkpt lat="45.95515" lon="4.47262">
        <ele>676</ele>
        <time>2016-09-15T08:39:39Z</time>
      </trkpt>
      <trkpt lat="45.95523" lon="4.47259">
        <ele>676</ele>
        <time>2016-09-15T08:39:46Z</time>
      </trkpt>
      <trkpt lat="45.95523" lon="4.47258">
        <ele>676</ele>
        <time>2016-09-15T08:39:47Z</time>
      </trkpt>
      <trkpt lat="45.95532" lon="4.47254">
        <ele>676</ele>
        <time>2016-09-15T08:39:56Z</time>
      </trkpt>
      <trkpt lat="45.95533" lon="4.47254">
        <ele>676</ele>
        <time>2016-09-15T08:39:57Z</time>
      </trkpt>
      <trkpt lat="45.9554" lon="4.4725">
        <ele>676</ele>
        <time>2016-09-15T08:40:03Z</time>
      </trkpt>
      <trkpt lat="45.95542" lon="4.47249">
        <ele>663</ele>
        <time>2016-09-15T08:40:04Z</time>
      </trkpt>
      <trkpt lat="45.95549" lon="4.47246">
        <ele>662</ele>
        <time>2016-09-15T08:40:10Z</time>
      </trkpt>
      <trkpt lat="45.9555" lon="4.47246">
        <ele>662</ele>
        <time>2016-09-15T08:40:11Z</time>
      </trkpt>
      <trkpt lat="45.95558" lon="4.47241">
        <ele>662</ele>
        <time>2016-09-15T08:40:18Z</time>
      </trkpt>
      <trkpt lat="45.95559" lon="4.4724">
        <ele>662</ele>
        <time>2016-09-15T08:40:19Z</time>
      </trkpt>
      <trkpt lat="45.95567" lon="4.47237">
        <ele>662</ele>
        <time>2016-09-15T08:40:26Z</time>
      </trkpt>
      <trkpt lat="45.95568" lon="4.47237">
        <ele>662</ele>
        <time>2016-09-15T08:40:27Z</time>
      </trkpt>
      <trkpt lat="45.95576" lon="4.47231">
        <ele>661</ele>
        <time>2016-09-15T08:40:35Z</time>
      </trkpt>
      <trkpt lat="45.95577" lon="4.4723">
        <ele>661</ele>
        <time>2016-09-15T08:40:36Z</time>
      </trkpt>
      <trkpt lat="45.95585" lon="4.47225">
        <ele>655</ele>
        <time>2016-09-15T08:40:43Z</time>
      </trkpt>
      <trkpt lat="45.95586" lon="4.47225">
        <ele>655</ele>
        <time>2016-09-15T08:40:44Z</time>
      </trkpt>
      <trkpt lat="45.95594" lon="4.47223">
        <ele>654</ele>
        <time>2016-09-15T08:40:52Z</time>
      </trkpt>
      <trkpt lat="45.95595" lon="4.47222">
        <ele>653</ele>
        <time>2016-09-15T08:40:53Z</time>
      </trkpt>
      <trkpt lat="45.95603" lon="4.47217">
        <ele>652</ele>
        <time>2016-09-15T08:41:01Z</time>
      </trkpt>
      <trkpt lat="45.95605" lon="4.47216">
        <ele>651</ele>
        <time>2016-09-15T08:41:02Z</time>
      </trkpt>
      <trkpt lat="45.95613" lon="4.47212">
        <ele>650</ele>
        <time>2016-09-15T08:41:09Z</time>
      </trkpt>
      <trkpt lat="45.95614" lon="4.47212">
        <ele>650</ele>
        <time>2016-09-15T08:41:10Z</time>
      </trkpt>
      <trkpt lat="45.95623" lon="4.4721">
        <ele>649</ele>
        <time>2016-09-15T08:41:39Z</time>
      </trkpt>
      <trkpt lat="45.95623" lon="4.4721">
        <ele>649</ele>
        <time>2016-09-15T08:41:40Z</time>
      </trkpt>
      <trkpt lat="45.95632" lon="4.47206">
        <ele>648</ele>
        <time>2016-09-15T08:42:49Z</time>
      </trkpt>
      <trkpt lat="45.95632" lon="4.47205">
        <ele>648</ele>
        <time>2016-09-15T08:42:50Z</time>
      </trkpt>
      <trkpt lat="45.9564" lon="4.47202">
        <ele>647</ele>
        <time>2016-09-15T08:43:01Z</time>
      </trkpt>
      <trkpt lat="45.95641" lon="4.47201">
        <ele>647</ele>
        <time>2016-09-15T08:43:02Z</time>
      </trkpt>
      <trkpt lat="45.95648" lon="4.47195">
        <ele>646</ele>
        <time>2016-09-15T08:43:11Z</time>
      </trkpt>
      <trkpt lat="45.95649" lon="4.47194">
        <ele>645</ele>
        <time>2016-09-15T08:43:12Z</time>
      </trkpt>
      <trkpt lat="45.95657" lon="4.4719">
        <ele>644</ele>
        <time>2016-09-15T08:43:18Z</time>
      </trkpt>
      <trkpt lat="45.95658" lon="4.47189">
        <ele>644</ele>
        <time>2016-09-15T08:43:19Z</time>
      </trkpt>
      <trkpt lat="45.95666" lon="4.47184">
        <ele>642</ele>
        <time>2016-09-15T08:43:26Z</time>
      </trkpt>
      <trkpt lat="45.95667" lon="4.47183">
        <ele>636</ele>
        <time>2016-09-15T08:43:27Z</time>
      </trkpt>
      <trkpt lat="45.95673" lon="4.47174">
        <ele>636</ele>
        <time>2016-09-15T08:43:37Z</time>
      </trkpt>
      <trkpt lat="45.95674" lon="4.47174">
        <ele>636</ele>
        <time>2016-09-15T08:43:38Z</time>
      </trkpt>
      <trkpt lat="45.95683" lon="4.47171">
        <ele>635</ele>
        <time>2016-09-15T08:43:49Z</time>
      </trkpt>
      <trkpt lat="45.95683" lon="4.47171">
        <ele>635</ele>
        <time>2016-09-15T08:43:50Z</time>
      </trkpt>
      <trkpt lat="45.95691" lon="4.47169">
        <ele>634</ele>
        <time>2016-09-15T08:43:58Z</time>
      </trkpt>
      <trkpt lat="45.95692" lon="4.47168">
        <ele>634</ele>
        <time>2016-09-15T08:43:59Z</time>
      </trkpt>
      <trkpt lat="45.95701" lon="4.47166">
        <ele>627</ele>
        <time>2016-09-15T08:44:07Z</time>
      </trkpt>
      <trkpt lat="45.95702" lon="4.47165">
        <ele>627</ele>
        <time>2016-09-15T08:44:08Z</time>
      </trkpt>
      <trkpt lat="45.95711" lon="4.47164">
        <ele>626</ele>
        <time>2016-09-15T08:44:14Z</time>
      </trkpt>
      <trkpt lat="45.95712" lon="4.47164">
        <ele>626</ele>
        <time>2016-09-15T08:44:15Z</time>
      </trkpt>
      <trkpt lat="45.95721" lon="4.47166">
        <ele>625</ele>
        <time>2016-09-15T08:44:23Z</time>
      </trkpt>
      <trkpt lat="45.95722" lon="4.47166">
        <ele>625</ele>
        <time>2016-09-15T08:44:24Z</time>
      </trkpt>
      <trkpt lat="45.95731" lon="4.47166">
        <ele>625</ele>
        <time>2016-09-15T08:44:32Z</time>
      </trkpt>
      <trkpt lat="45.95731" lon="4.47166">
        <ele>625</ele>
        <time>2016-09-15T08:44:33Z</time>
      </trkpt>
      <trkpt lat="45.9574" lon="4.47165">
        <ele>624</ele>
        <time>2016-09-15T08:44:42Z</time>
      </trkpt>
      <trkpt lat="45.95741" lon="4.47165">
        <ele>624</ele>
        <time>2016-09-15T08:44:43Z</time>
      </trkpt>
      <trkpt lat="45.95749" lon="4.47166">
        <ele>624</ele>
        <time>2016-09-15T08:44:52Z</time>
      </trkpt>
      <trkpt lat="45.9575" lon="4.47167">
        <ele>624</ele>
        <time>2016-09-15T08:44:53Z</time>
      </trkpt>
      <trkpt lat="45.95758" lon="4.47165">
        <ele>620</ele>
        <time>2016-09-15T08:45:04Z</time>
      </trkpt>
      <trkpt lat="45.95759" lon="4.47165">
        <ele>619</ele>
        <time>2016-09-15T08:45:05Z</time>
      </trkpt>
      <trkpt lat="45.95768" lon="4.47163">
        <ele>616</ele>
        <time>2016-09-15T08:45:15Z</time>
      </trkpt>
      <trkpt lat="45.95769" lon="4.47163">
        <ele>616</ele>
        <time>2016-09-15T08:45:16Z</time>
      </trkpt>
      <trkpt lat="45.95776" lon="4.47157">
        <ele>614</ele>
        <time>2016-09-15T08:45:27Z</time>
      </trkpt>
      <trkpt lat="45.95777" lon="4.47157">
        <ele>613</ele>
        <time>2016-09-15T08:45:28Z</time>
      </trkpt>
      <trkpt lat="45.95785" lon="4.47153">
        <ele>611</ele>
        <time>2016-09-15T08:45:39Z</time>
      </trkpt>
      <trkpt lat="45.95786" lon="4.47153">
        <ele>611</ele>
        <time>2016-09-15T08:45:40Z</time>
      </trkpt>
      <trkpt lat="45.95794" lon="4.47149">
        <ele>610</ele>
        <time>2016-09-15T08:45:55Z</time>
      </trkpt>
      <trkpt lat="45.95794" lon="4.47149">
        <ele>610</ele>
        <time>2016-09-15T08:45:56Z</time>
      </trkpt>
      <trkpt lat="45.95803" lon="4.47145">
        <ele>608</ele>
        <time>2016-09-15T08:46:06Z</time>
      </trkpt>
      <trkpt lat="45.95803" lon="4.47145">
        <ele>608</ele>
        <time>2016-09-15T08:46:07Z</time>
      </trkpt>
      <trkpt lat="45.95812" lon="4.47141">
        <ele>607</ele>
        <time>2016-09-15T08:46:21Z</time>
      </trkpt>
      <trkpt lat="45.95813" lon="4.47141">
        <ele>607</ele>
        <time>2016-09-15T08:46:22Z</time>
      </trkpt>
      <trkpt lat="45.9582" lon="4.47134">
        <ele>606</ele>
        <time>2016-09-15T08:46:58Z</time>
      </trkpt>
      <trkpt lat="45.9582" lon="4.47134">
        <ele>606</ele>
        <time>2016-09-15T08:46:59Z</time>
      </trkpt>
      <trkpt lat="45.95827" lon="4.47125">
        <ele>606</ele>
        <time>2016-09-15T08:48:38Z</time>
      </trkpt>
      <trkpt lat="45.95827" lon="4.47125">
        <ele>606</ele>
        <time>2016-09-15T08:48:39Z</time>
      </trkpt>
      <trkpt lat="45.95829" lon="4.47113">
        <ele>605</ele>
        <time>2016-09-15T08:48:58Z</time>
      </trkpt>
      <trkpt lat="45.95829" lon="4.47112">
        <ele>605</ele>
        <time>2016-09-15T08:48:59Z</time>
      </trkpt>
      <trkpt lat="45.95831" lon="4.471">
        <ele>603</ele>
        <time>2016-09-15T08:49:08Z</time>
      </trkpt>
      <trkpt lat="45.95831" lon="4.47099">
        <ele>602</ele>
        <time>2016-09-15T08:49:09Z</time>
      </trkpt>
      <trkpt lat="45.95826" lon="4.47088">
        <ele>600</ele>
        <time>2016-09-15T08:49:16Z</time>
      </trkpt>
      <trkpt lat="45.95826" lon="4.47087">
        <ele>600</ele>
        <time>2016-09-15T08:49:17Z</time>
      </trkpt>
      <trkpt lat="45.95823" lon="4.47075">
        <ele>598</ele>
        <time>2016-09-15T08:49:24Z</time>
      </trkpt>
      <trkpt lat="45.95823" lon="4.47073">
        <ele>598</ele>
        <time>2016-09-15T08:49:25Z</time>
      </trkpt>
      <trkpt lat="45.9582" lon="4.47061">
        <ele>598</ele>
        <time>2016-09-15T08:49:33Z</time>
      </trkpt>
      <trkpt lat="45.95819" lon="4.4706">
        <ele>598</ele>
        <time>2016-09-15T08:49:34Z</time>
      </trkpt>
      <trkpt lat="45.95815" lon="4.47049">
        <ele>598</ele>
        <time>2016-09-15T08:49:41Z</time>
      </trkpt>
      <trkpt lat="45.95815" lon="4.47048">
        <ele>598</ele>
        <time>2016-09-15T08:49:42Z</time>
      </trkpt>
      <trkpt lat="45.95813" lon="4.47036">
        <ele>597</ele>
        <time>2016-09-15T08:49:49Z</time>
      </trkpt>
      <trkpt lat="45.95813" lon="4.47035">
        <ele>597</ele>
        <time>2016-09-15T08:49:50Z</time>
      </trkpt>
      <trkpt lat="45.9581" lon="4.47024">
        <ele>596</ele>
        <time>2016-09-15T08:49:57Z</time>
      </trkpt>
      <trkpt lat="45.95809" lon="4.47022">
        <ele>596</ele>
        <time>2016-09-15T08:49:58Z</time>
      </trkpt>
      <trkpt lat="45.95808" lon="4.4701">
        <ele>595</ele>
        <time>2016-09-15T08:50:06Z</time>
      </trkpt>
      <trkpt lat="45.95808" lon="4.47008">
        <ele>595</ele>
        <time>2016-09-15T08:50:07Z</time>
      </trkpt>
      <trkpt lat="45.95804" lon="4.46999">
        <ele>586</ele>
        <time>2016-09-15T08:50:14Z</time>
      </trkpt>
      <trkpt lat="45.95802" lon="4.46998">
        <ele>586</ele>
        <time>2016-09-15T08:50:15Z</time>
      </trkpt>
      <trkpt lat="45.95795" lon="4.46992">
        <ele>586</ele>
        <time>2016-09-15T08:50:19Z</time>
      </trkpt>
      <trkpt lat="45.95793" lon="4.4699">
        <ele>586</ele>
        <time>2016-09-15T08:50:20Z</time>
      </trkpt>
      <trkpt lat="45.95787" lon="4.46983">
        <ele>586</ele>
        <time>2016-09-15T08:50:24Z</time>
      </trkpt>
      <trkpt lat="45.95786" lon="4.46982">
        <ele>586</ele>
        <time>2016-09-15T08:50:25Z</time>
      </trkpt>
      <trkpt lat="45.95778" lon="4.46978">
        <ele>587</ele>
        <time>2016-09-15T08:50:32Z</time>
      </trkpt>
      <trkpt lat="45.95777" lon="4.46977">
        <ele>587</ele>
        <time>2016-09-15T08:50:33Z</time>
      </trkpt>
      <trkpt lat="45.9577" lon="4.46973">
        <ele>587</ele>
        <time>2016-09-15T08:50:39Z</time>
      </trkpt>
      <trkpt lat="45.95768" lon="4.46972">
        <ele>587</ele>
        <time>2016-09-15T08:50:40Z</time>
      </trkpt>
      <trkpt lat="45.9576" lon="4.46967">
        <ele>586</ele>
        <time>2016-09-15T08:50:46Z</time>
      </trkpt>
      <trkpt lat="45.95759" lon="4.46966">
        <ele>586</ele>
        <time>2016-09-15T08:50:47Z</time>
      </trkpt>
      <trkpt lat="45.9575" lon="4.46964">
        <ele>586</ele>
        <time>2016-09-15T08:50:54Z</time>
      </trkpt>
      <trkpt lat="45.95749" lon="4.46963">
        <ele>590</ele>
        <time>2016-09-15T08:50:55Z</time>
      </trkpt>
      <trkpt lat="45.95741" lon="4.46964">
        <ele>590</ele>
        <time>2016-09-15T08:51:02Z</time>
      </trkpt>
      <trkpt lat="45.9574" lon="4.46964">
        <ele>590</ele>
        <time>2016-09-15T08:51:03Z</time>
      </trkpt>
      <trkpt lat="45.95731" lon="4.46962">
        <ele>590</ele>
        <time>2016-09-15T08:51:11Z</time>
      </trkpt>
      <trkpt lat="45.9573" lon="4.46962">
        <ele>590</ele>
        <time>2016-09-15T08:51:12Z</time>
      </trkpt>
      <trkpt lat="45.95722" lon="4.4696">
        <ele>589</ele>
        <time>2016-09-15T08:51:20Z</time>
      </trkpt>
      <trkpt lat="45.95721" lon="4.4696">
        <ele>589</ele>
        <time>2016-09-15T08:51:21Z</time>
      </trkpt>
      <trkpt lat="45.95712" lon="4.46959">
        <ele>589</ele>
        <time>2016-09-15T08:51:29Z</time>
      </trkpt>
      <trkpt lat="45.95711" lon="4.46958">
        <ele>589</ele>
        <time>2016-09-15T08:51:30Z</time>
      </trkpt>
      <trkpt lat="45.95703" lon="4.4696">
        <ele>590</ele>
        <time>2016-09-15T08:51:39Z</time>
      </trkpt>
      <trkpt lat="45.95702" lon="4.46961">
        <ele>590</ele>
        <time>2016-09-15T08:51:40Z</time>
      </trkpt>
      <trkpt lat="45.95694" lon="4.46957">
        <ele>589</ele>
        <time>2016-09-15T08:51:52Z</time>
      </trkpt>
      <trkpt lat="45.95693" lon="4.46957">
        <ele>589</ele>
        <time>2016-09-15T08:51:53Z</time>
      </trkpt>
      <trkpt lat="45.95686" lon="4.46953">
        <ele>588</ele>
        <time>2016-09-15T08:51:59Z</time>
      </trkpt>
      <trkpt lat="45.95684" lon="4.46952">
        <ele>588</ele>
        <time>2016-09-15T08:52:00Z</time>
      </trkpt>
      <trkpt lat="45.95676" lon="4.46948">
        <ele>587</ele>
        <time>2016-09-15T08:52:06Z</time>
      </trkpt>
      <trkpt lat="45.95675" lon="4.46947">
        <ele>587</ele>
        <time>2016-09-15T08:52:07Z</time>
      </trkpt>
      <trkpt lat="45.95667" lon="4.46945">
        <ele>587</ele>
        <time>2016-09-15T08:52:13Z</time>
      </trkpt>
      <trkpt lat="45.95666" lon="4.46945">
        <ele>586</ele>
        <time>2016-09-15T08:52:14Z</time>
      </trkpt>
      <trkpt lat="45.95658" lon="4.46941">
        <ele>586</ele>
        <time>2016-09-15T08:52:20Z</time>
      </trkpt>
      <trkpt lat="45.95656" lon="4.46941">
        <ele>586</ele>
        <time>2016-09-15T08:52:21Z</time>
      </trkpt>
      <trkpt lat="45.95649" lon="4.4694">
        <ele>586</ele>
        <time>2016-09-15T08:52:25Z</time>
      </trkpt>
      <trkpt lat="45.95647" lon="4.4694">
        <ele>586</ele>
        <time>2016-09-15T08:52:26Z</time>
      </trkpt>
      <trkpt lat="45.9564" lon="4.4694">
        <ele>586</ele>
        <time>2016-09-15T08:52:30Z</time>
      </trkpt>
      <trkpt lat="45.95638" lon="4.4694">
        <ele>587</ele>
        <time>2016-09-15T08:52:31Z</time>
      </trkpt>
      <trkpt lat="45.9563" lon="4.46939">
        <ele>587</ele>
        <time>2016-09-15T08:52:35Z</time>
      </trkpt>
      <trkpt lat="45.95629" lon="4.46939">
        <ele>587</ele>
        <time>2016-09-15T08:52:36Z</time>
      </trkpt>
      <trkpt lat="45.9562" lon="4.46938">
        <ele>586</ele>
        <time>2016-09-15T08:52:41Z</time>
      </trkpt>
      <trkpt lat="45.95619" lon="4.46938">
        <ele>586</ele>
        <time>2016-09-15T08:52:42Z</time>
      </trkpt>
      <trkpt lat="45.95611" lon="4.46938">
        <ele>586</ele>
        <time>2016-09-15T08:52:47Z</time>
      </trkpt>
      <trkpt lat="45.95609" lon="4.46938">
        <ele>586</ele>
        <time>2016-09-15T08:52:48Z</time>
      </trkpt>
      <trkpt lat="45.95602" lon="4.46937">
        <ele>585</ele>
        <time>2016-09-15T08:52:52Z</time>
      </trkpt>
      <trkpt lat="45.956" lon="4.46937">
        <ele>585</ele>
        <time>2016-09-15T08:52:53Z</time>
      </trkpt>
      <trkpt lat="45.95592" lon="4.46936">
        <ele>584</ele>
        <time>2016-09-15T08:52:58Z</time>
      </trkpt>
      <trkpt lat="45.95591" lon="4.46936">
        <ele>584</ele>
        <time>2016-09-15T08:52:59Z</time>
      </trkpt>
      <trkpt lat="45.95582" lon="4.46934">
        <ele>585</ele>
        <time>2016-09-15T08:53:05Z</time>
      </trkpt>
      <trkpt lat="45.9558" lon="4.46933">
        <ele>585</ele>
        <time>2016-09-15T08:53:06Z</time>
      </trkpt>
      <trkpt lat="45.95572" lon="4.46929">
        <ele>585</ele>
        <time>2016-09-15T08:53:12Z</time>
      </trkpt>
      <trkpt lat="45.9557" lon="4.46927">
        <ele>585</ele>
        <time>2016-09-15T08:53:13Z</time>
      </trkpt>
      <trkpt lat="45.95564" lon="4.46921">
        <ele>586</ele>
        <time>2016-09-15T08:53:18Z</time>
      </trkpt>
      <trkpt lat="45.95563" lon="4.46919">
        <ele>586</ele>
        <time>2016-09-15T08:53:19Z</time>
      </trkpt>
      <trkpt lat="45.95558" lon="4.46911">
        <ele>577</ele>
        <time>2016-09-15T08:53:24Z</time>
      </trkpt>
      <trkpt lat="45.95557" lon="4.4691">
        <ele>577</ele>
        <time>2016-09-15T08:53:25Z</time>
      </trkpt>
      <trkpt lat="45.95553" lon="4.46901">
        <ele>577</ele>
        <time>2016-09-15T08:53:30Z</time>
      </trkpt>
      <trkpt lat="45.95552" lon="4.46899">
        <ele>577</ele>
        <time>2016-09-15T08:53:31Z</time>
      </trkpt>
      <trkpt lat="45.95547" lon="4.4689">
        <ele>576</ele>
        <time>2016-09-15T08:53:36Z</time>
      </trkpt>
      <trkpt lat="45.95546" lon="4.46887">
        <ele>576</ele>
        <time>2016-09-15T08:53:37Z</time>
      </trkpt>
      <trkpt lat="45.95542" lon="4.46877">
        <ele>576</ele>
        <time>2016-09-15T08:53:42Z</time>
      </trkpt>
      <trkpt lat="45.95541" lon="4.46875">
        <ele>576</ele>
        <time>2016-09-15T08:53:43Z</time>
      </trkpt>
      <trkpt lat="45.95536" lon="4.46866">
        <ele>575</ele>
        <time>2016-09-15T08:53:48Z</time>
      </trkpt>
      <trkpt lat="45.95535" lon="4.46864">
        <ele>575</ele>
        <time>2016-09-15T08:53:49Z</time>
      </trkpt>
      <trkpt lat="45.9553" lon="4.46855">
        <ele>575</ele>
        <time>2016-09-15T08:53:55Z</time>
      </trkpt>
      <trkpt lat="45.95529" lon="4.46853">
        <ele>575</ele>
        <time>2016-09-15T08:53:56Z</time>
      </trkpt>
      <trkpt lat="45.95524" lon="4.46845">
        <ele>575</ele>
        <time>2016-09-15T08:54:02Z</time>
      </trkpt>
      <trkpt lat="45.95523" lon="4.46843">
        <ele>575</ele>
        <time>2016-09-15T08:54:03Z</time>
      </trkpt>
      <trkpt lat="45.95517" lon="4.46836">
        <ele>575</ele>
        <time>2016-09-15T08:54:09Z</time>
      </trkpt>
      <trkpt lat="45.95515" lon="4.46834">
        <ele>575</ele>
        <time>2016-09-15T08:54:10Z</time>
      </trkpt>
      <trkpt lat="45.9551" lon="4.46826">
        <ele>568</ele>
        <time>2016-09-15T08:54:15Z</time>
      </trkpt>
      <trkpt lat="45.95509" lon="4.46825">
        <ele>568</ele>
        <time>2016-09-15T08:54:16Z</time>
      </trkpt>
      <trkpt lat="45.95502" lon="4.46818">
        <ele>567</ele>
        <time>2016-09-15T08:54:33Z</time>
      </trkpt>
      <trkpt lat="45.95501" lon="4.46818">
        <ele>566</ele>
        <time>2016-09-15T08:54:34Z</time>
      </trkpt>
      <trkpt lat="45.95494" lon="4.46811">
        <ele>570</ele>
        <time>2016-09-15T08:54:42Z</time>
      </trkpt>
      <trkpt lat="45.95493" lon="4.4681">
        <ele>570</ele>
        <time>2016-09-15T08:54:43Z</time>
      </trkpt>
      <trkpt lat="45.95486" lon="4.46804">
        <ele>569</ele>
        <time>2016-09-15T08:54:49Z</time>
      </trkpt>
      <trkpt lat="45.95484" lon="4.46803">
        <ele>569</ele>
        <time>2016-09-15T08:54:50Z</time>
      </trkpt>
      <trkpt lat="45.95477" lon="4.46796">
        <ele>568</ele>
        <time>2016-09-15T08:54:57Z</time>
      </trkpt>
      <trkpt lat="45.95475" lon="4.46795">
        <ele>567</ele>
        <time>2016-09-15T08:54:58Z</time>
      </trkpt>
      <trkpt lat="45.95468" lon="4.46789">
        <ele>567</ele>
        <time>2016-09-15T08:55:04Z</time>
      </trkpt>
      <trkpt lat="45.95467" lon="4.46789">
        <ele>567</ele>
        <time>2016-09-15T08:55:05Z</time>
      </trkpt>
      <trkpt lat="45.95459" lon="4.46783">
        <ele>566</ele>
        <time>2016-09-15T08:55:12Z</time>
      </trkpt>
      <trkpt lat="45.95458" lon="4.46782">
        <ele>566</ele>
        <time>2016-09-15T08:55:13Z</time>
      </trkpt>
      <trkpt lat="45.95449" lon="4.4678">
        <ele>566</ele>
        <time>2016-09-15T08:55:19Z</time>
      </trkpt>
      <trkpt lat="45.95448" lon="4.4678">
        <ele>566</ele>
        <time>2016-09-15T08:55:20Z</time>
      </trkpt>
      <trkpt lat="45.9544" lon="4.46782">
        <ele>567</ele>
        <time>2016-09-15T08:55:25Z</time>
      </trkpt>
      <trkpt lat="45.95438" lon="4.46782">
        <ele>567</ele>
        <time>2016-09-15T08:55:26Z</time>
      </trkpt>
      <trkpt lat="45.95431" lon="4.4678">
        <ele>566</ele>
        <time>2016-09-15T08:55:31Z</time>
      </trkpt>
      <trkpt lat="45.95429" lon="4.4678">
        <ele>566</ele>
        <time>2016-09-15T08:55:32Z</time>
      </trkpt>
      <trkpt lat="45.95421" lon="4.46777">
        <ele>566</ele>
        <time>2016-09-15T08:55:38Z</time>
      </trkpt>
      <trkpt lat="45.9542" lon="4.46776">
        <ele>566</ele>
        <time>2016-09-15T08:55:39Z</time>
      </trkpt>
      <trkpt lat="45.95411" lon="4.46777">
        <ele>563</ele>
        <time>2016-09-15T08:55:45Z</time>
      </trkpt>
      <trkpt lat="45.95409" lon="4.46777">
        <ele>563</ele>
        <time>2016-09-15T08:55:46Z</time>
      </trkpt>
      <trkpt lat="45.95401" lon="4.46776">
        <ele>562</ele>
        <time>2016-09-15T08:55:54Z</time>
      </trkpt>
      <trkpt lat="45.95399" lon="4.46776">
        <ele>562</ele>
        <time>2016-09-15T08:55:55Z</time>
      </trkpt>
      <trkpt lat="45.95391" lon="4.46775">
        <ele>562</ele>
        <time>2016-09-15T08:56:02Z</time>
      </trkpt>
      <trkpt lat="45.95389" lon="4.46775">
        <ele>562</ele>
        <time>2016-09-15T08:56:03Z</time>
      </trkpt>
      <trkpt lat="45.9538" lon="4.46777">
        <ele>561</ele>
        <time>2016-09-15T08:56:09Z</time>
      </trkpt>
      <trkpt lat="45.95379" lon="4.46777">
        <ele>561</ele>
        <time>2016-09-15T08:56:10Z</time>
      </trkpt>
      <trkpt lat="45.95371" lon="4.46781">
        <ele>560</ele>
        <time>2016-09-15T08:56:16Z</time>
      </trkpt>
      <trkpt lat="45.9537" lon="4.46782">
        <ele>560</ele>
        <time>2016-09-15T08:56:17Z</time>
      </trkpt>
      <trkpt lat="45.95362" lon="4.46787">
        <ele>560</ele>
        <time>2016-09-15T08:56:23Z</time>
      </trkpt>
      <trkpt lat="45.95361" lon="4.46788">
        <ele>560</ele>
        <time>2016-09-15T08:56:24Z</time>
      </trkpt>
      <trkpt lat="45.95353" lon="4.4679">
        <ele>560</ele>
        <time>2016-09-15T08:56:30Z</time>
      </trkpt>
      <trkpt lat="45.95351" lon="4.46791">
        <ele>560</ele>
        <time>2016-09-15T08:56:31Z</time>
      </trkpt>
      <trkpt lat="45.95344" lon="4.46797">
        <ele>561</ele>
        <time>2016-09-15T08:56:37Z</time>
      </trkpt>
      <trkpt lat="45.95342" lon="4.46798">
        <ele>561</ele>
        <time>2016-09-15T08:56:38Z</time>
      </trkpt>
      <trkpt lat="45.95335" lon="4.46805">
        <ele>562</ele>
        <time>2016-09-15T08:56:44Z</time>
      </trkpt>
      <trkpt lat="45.95334" lon="4.46806">
        <ele>562</ele>
        <time>2016-09-15T08:56:45Z</time>
      </trkpt>
      <trkpt lat="45.95329" lon="4.46816">
        <ele>554</ele>
        <time>2016-09-15T08:57:03Z</time>
      </trkpt>
      <trkpt lat="45.95329" lon="4.46817">
        <ele>554</ele>
        <time>2016-09-15T08:57:04Z</time>
      </trkpt>
      <trkpt lat="45.95323" lon="4.46826">
        <ele>556</ele>
        <time>2016-09-15T08:57:41Z</time>
      </trkpt>
      <trkpt lat="45.95322" lon="4.46827">
        <ele>556</ele>
        <time>2016-09-15T08:57:42Z</time>
      </trkpt>
      <trkpt lat="45.95315" lon="4.46835">
        <ele>566</ele>
        <time>2016-09-15T08:57:52Z</time>
      </trkpt>
      <trkpt lat="45.95315" lon="4.46835">
        <ele>566</ele>
        <time>2016-09-15T08:57:53Z</time>
      </trkpt>
      <trkpt lat="45.95306" lon="4.46839">
        <ele>566</ele>
        <time>2016-09-15T08:58:06Z</time>
      </trkpt>
      <trkpt lat="45.95306" lon="4.46839">
        <ele>566</ele>
        <time>2016-09-15T08:58:07Z</time>
      </trkpt>
      <trkpt lat="45.95297" lon="4.46837">
        <ele>565</ele>
        <time>2016-09-15T08:58:33Z</time>
      </trkpt>
      <trkpt lat="45.95297" lon="4.46837">
        <ele>564</ele>
        <time>2016-09-15T08:58:34Z</time>
      </trkpt>
      <trkpt lat="45.95288" lon="4.46833">
        <ele>546</ele>
        <time>2016-09-15T08:58:44Z</time>
      </trkpt>
      <trkpt lat="45.95287" lon="4.46832">
        <ele>546</ele>
        <time>2016-09-15T08:58:45Z</time>
      </trkpt>
      <trkpt lat="45.95278" lon="4.46831">
        <ele>545</ele>
        <time>2016-09-15T08:58:52Z</time>
      </trkpt>
      <trkpt lat="45.95277" lon="4.4683">
        <ele>544</ele>
        <time>2016-09-15T08:58:53Z</time>
      </trkpt>
      <trkpt lat="45.95268" lon="4.46829">
        <ele>544</ele>
        <time>2016-09-15T08:59:00Z</time>
      </trkpt>
      <trkpt lat="45.95267" lon="4.46829">
        <ele>543</ele>
        <time>2016-09-15T08:59:01Z</time>
      </trkpt>
      <trkpt lat="45.95258" lon="4.46831">
        <ele>543</ele>
        <time>2016-09-15T08:59:08Z</time>
      </trkpt>
      <trkpt lat="45.95257" lon="4.46832">
        <ele>544</ele>
        <time>2016-09-15T08:59:09Z</time>
      </trkpt>
      <trkpt lat="45.95248" lon="4.46835">
        <ele>544</ele>
        <time>2016-09-15T08:59:15Z</time>
      </trkpt>
      <trkpt lat="45.95247" lon="4.46836">
        <ele>545</ele>
        <time>2016-09-15T08:59:16Z</time>
      </trkpt>
      <trkpt lat="45.95239" lon="4.46839">
        <ele>545</ele>
        <time>2016-09-15T08:59:21Z</time>
      </trkpt>
      <trkpt lat="45.95238" lon="4.4684">
        <ele>545</ele>
        <time>2016-09-15T08:59:22Z</time>
      </trkpt>
      <trkpt lat="45.9523" lon="4.46844">
        <ele>546</ele>
        <time>2016-09-15T08:59:28Z</time>
      </trkpt>
      <trkpt lat="45.95229" lon="4.46845">
        <ele>546</ele>
        <time>2016-09-15T08:59:29Z</time>
      </trkpt>
      <trkpt lat="45.95223" lon="4.46854">
        <ele>546</ele>
        <time>2016-09-15T08:59:36Z</time>
      </trkpt>
      <trkpt lat="45.95223" lon="4.46855">
        <ele>546</ele>
        <time>2016-09-15T08:59:37Z</time>
      </trkpt>
      <trkpt lat="45.95215" lon="4.46862">
        <ele>546</ele>
        <time>2016-09-15T08:59:45Z</time>
      </trkpt>
      <trkpt lat="45.95215" lon="4.46863">
        <ele>546</ele>
        <time>2016-09-15T08:59:46Z</time>
      </trkpt>
      <trkpt lat="45.95207" lon="4.46868">
        <ele>546</ele>
        <time>2016-09-15T08:59:54Z</time>
      </trkpt>
      <trkpt lat="45.95206" lon="4.46869">
        <ele>546</ele>
        <time>2016-09-15T08:59:55Z</time>
      </trkpt>
      <trkpt lat="45.95198" lon="4.46874">
        <ele>546</ele>
        <time>2016-09-15T09:00:02Z</time>
      </trkpt>
      <trkpt lat="45.95198" lon="4.46876">
        <ele>546</ele>
        <time>2016-09-15T09:00:03Z</time>
      </trkpt>
      <trkpt lat="45.95192" lon="4.46885">
        <ele>547</ele>
        <time>2016-09-15T09:00:11Z</time>
      </trkpt>
      <trkpt lat="45.95191" lon="4.46886">
        <ele>547</ele>
        <time>2016-09-15T09:00:12Z</time>
      </trkpt>
      <trkpt lat="45.95185" lon="4.46893">
        <ele>547</ele>
        <time>2016-09-15T09:00:21Z</time>
      </trkpt>
      <trkpt lat="45.95184" lon="4.46893">
        <ele>547</ele>
        <time>2016-09-15T09:00:22Z</time>
      </trkpt>
      <trkpt lat="45.95177" lon="4.46899">
        <ele>547</ele>
        <time>2016-09-15T09:00:30Z</time>
      </trkpt>
      <trkpt lat="45.95176" lon="4.469">
        <ele>547</ele>
        <time>2016-09-15T09:00:31Z</time>
      </trkpt>
      <trkpt lat="45.95168" lon="4.46903">
        <ele>547</ele>
        <time>2016-09-15T09:00:38Z</time>
      </trkpt>
      <trkpt lat="45.95167" lon="4.46903">
        <ele>538</ele>
        <time>2016-09-15T09:00:39Z</time>
      </trkpt>
      <trkpt lat="45.95159" lon="4.46907">
        <ele>538</ele>
        <time>2016-09-15T09:00:46Z</time>
      </trkpt>
      <trkpt lat="45.95157" lon="4.46908">
        <ele>538</ele>
        <time>2016-09-15T09:00:47Z</time>
      </trkpt>
      <trkpt lat="45.95149" lon="4.46911">
        <ele>535</ele>
        <time>2016-09-15T09:00:53Z</time>
      </trkpt>
      <trkpt lat="45.95148" lon="4.46911">
        <ele>535</ele>
        <time>2016-09-15T09:00:54Z</time>
      </trkpt>
      <trkpt lat="45.9514" lon="4.46913">
        <ele>532</ele>
        <time>2016-09-15T09:01:00Z</time>
      </trkpt>
      <trkpt lat="45.95139" lon="4.46914">
        <ele>531</ele>
        <time>2016-09-15T09:01:01Z</time>
      </trkpt>
      <trkpt lat="45.9513" lon="4.46919">
        <ele>544</ele>
        <time>2016-09-15T09:01:07Z</time>
      </trkpt>
      <trkpt lat="45.95129" lon="4.4692">
        <ele>544</ele>
        <time>2016-09-15T09:01:08Z</time>
      </trkpt>
      <trkpt lat="45.95122" lon="4.46926">
        <ele>543</ele>
        <time>2016-09-15T09:01:14Z</time>
      </trkpt>
      <trkpt lat="45.9512" lon="4.46926">
        <ele>543</ele>
        <time>2016-09-15T09:01:15Z</time>
      </trkpt>
      <trkpt lat="45.95112" lon="4.4693">
        <ele>541</ele>
        <time>2016-09-15T09:01:20Z</time>
      </trkpt>
      <trkpt lat="45.95111" lon="4.46931">
        <ele>541</ele>
        <time>2016-09-15T09:01:21Z</time>
      </trkpt>
      <trkpt lat="45.95103" lon="4.46937">
        <ele>540</ele>
        <time>2016-09-15T09:01:26Z</time>
      </trkpt>
      <trkpt lat="45.95102" lon="4.46938">
        <ele>540</ele>
        <time>2016-09-15T09:01:27Z</time>
      </trkpt>
      <trkpt lat="45.95095" lon="4.46943">
        <ele>540</ele>
        <time>2016-09-15T09:01:32Z</time>
      </trkpt>
      <trkpt lat="45.95093" lon="4.46945">
        <ele>540</ele>
        <time>2016-09-15T09:01:33Z</time>
      </trkpt>
      <trkpt lat="45.95086" lon="4.4695">
        <ele>541</ele>
        <time>2016-09-15T09:01:38Z</time>
      </trkpt>
      <trkpt lat="45.95085" lon="4.46952">
        <ele>541</ele>
        <time>2016-09-15T09:01:39Z</time>
      </trkpt>
      <trkpt lat="45.95078" lon="4.4696">
        <ele>522</ele>
        <time>2016-09-15T09:01:45Z</time>
      </trkpt>
      <trkpt lat="45.95076" lon="4.46961">
        <ele>522</ele>
        <time>2016-09-15T09:01:46Z</time>
      </trkpt>
      <trkpt lat="45.95069" lon="4.46968">
        <ele>523</ele>
        <time>2016-09-15T09:01:52Z</time>
      </trkpt>
      <trkpt lat="45.95068" lon="4.46969">
        <ele>523</ele>
        <time>2016-09-15T09:01:53Z</time>
      </trkpt>
      <trkpt lat="45.95062" lon="4.46977">
        <ele>523</ele>
        <time>2016-09-15T09:02:01Z</time>
      </trkpt>
      <trkpt lat="45.95061" lon="4.46979">
        <ele>523</ele>
        <time>2016-09-15T09:02:02Z</time>
      </trkpt>
      <trkpt lat="45.95055" lon="4.46988">
        <ele>524</ele>
        <time>2016-09-15T09:02:11Z</time>
      </trkpt>
      <trkpt lat="45.95055" lon="4.46989">
        <ele>523</ele>
        <time>2016-09-15T09:02:12Z</time>
      </trkpt>
      <trkpt lat="45.95048" lon="4.46998">
        <ele>522</ele>
        <time>2016-09-15T09:02:19Z</time>
      </trkpt>
      <trkpt lat="45.95047" lon="4.46999">
        <ele>521</ele>
        <time>2016-09-15T09:02:20Z</time>
      </trkpt>
      <trkpt lat="45.95041" lon="4.47007">
        <ele>529</ele>
        <time>2016-09-15T09:02:26Z</time>
      </trkpt>
      <trkpt lat="45.9504" lon="4.47008">
        <ele>529</ele>
        <time>2016-09-15T09:02:27Z</time>
      </trkpt>
      <trkpt lat="45.95034" lon="4.47016">
        <ele>528</ele>
        <time>2016-09-15T09:02:33Z</time>
      </trkpt>
      <trkpt lat="45.95033" lon="4.47017">
        <ele>527</ele>
        <time>2016-09-15T09:02:34Z</time>
      </trkpt>
      <trkpt lat="45.95026" lon="4.47023">
        <ele>526</ele>
        <time>2016-09-15T09:02:42Z</time>
      </trkpt>
      <trkpt lat="45.95025" lon="4.47025">
        <ele>526</ele>
        <time>2016-09-15T09:02:43Z</time>
      </trkpt>
      <trkpt lat="45.95023" lon="4.47037">
        <ele>527</ele>
        <time>2016-09-15T09:02:49Z</time>
      </trkpt>
      <trkpt lat="45.95023" lon="4.47039">
        <ele>527</ele>
        <time>2016-09-15T09:02:50Z</time>
      </trkpt>
      <trkpt lat="45.9502" lon="4.47051">
        <ele>527</ele>
        <time>2016-09-15T09:02:56Z</time>
      </trkpt>
      <trkpt lat="45.95019" lon="4.47053">
        <ele>527</ele>
        <time>2016-09-15T09:02:57Z</time>
      </trkpt>
      <trkpt lat="45.95018" lon="4.47065">
        <ele>527</ele>
        <time>2016-09-15T09:03:02Z</time>
      </trkpt>
      <trkpt lat="45.95018" lon="4.47067">
        <ele>527</ele>
        <time>2016-09-15T09:03:03Z</time>
      </trkpt>
      <trkpt lat="45.95016" lon="4.47079">
        <ele>525</ele>
        <time>2016-09-15T09:03:09Z</time>
      </trkpt>
      <trkpt lat="45.95016" lon="4.47081">
        <ele>525</ele>
        <time>2016-09-15T09:03:10Z</time>
      </trkpt>
      <trkpt lat="45.95017" lon="4.47092">
        <ele>527</ele>
        <time>2016-09-15T09:03:16Z</time>
      </trkpt>
      <trkpt lat="45.95018" lon="4.47094">
        <ele>528</ele>
        <time>2016-09-15T09:03:17Z</time>
      </trkpt>
      <trkpt lat="45.95022" lon="4.47104">
        <ele>529</ele>
        <time>2016-09-15T09:03:24Z</time>
      </trkpt>
      <trkpt lat="45.95022" lon="4.47106">
        <ele>530</ele>
        <time>2016-09-15T09:03:25Z</time>
      </trkpt>
      <trkpt lat="45.95027" lon="4.47116">
        <ele>531</ele>
        <time>2016-09-15T09:03:32Z</time>
      </trkpt>
      <trkpt lat="45.95027" lon="4.47118">
        <ele>531</ele>
        <time>2016-09-15T09:03:33Z</time>
      </trkpt>
      <trkpt lat="45.95031" lon="4.47129">
        <ele>531</ele>
        <time>2016-09-15T09:03:42Z</time>
      </trkpt>
      <trkpt lat="45.95031" lon="4.4713">
        <ele>531</ele>
        <time>2016-09-15T09:03:43Z</time>
      </trkpt>
      <trkpt lat="45.95037" lon="4.47138">
        <ele>532</ele>
        <time>2016-09-15T09:03:50Z</time>
      </trkpt>
      <trkpt lat="45.95038" lon="4.47139">
        <ele>532</ele>
        <time>2016-09-15T09:03:51Z</time>
      </trkpt>
      <trkpt lat="45.95043" lon="4.47148">
        <ele>533</ele>
        <time>2016-09-15T09:03:58Z</time>
      </trkpt>
      <trkpt lat="45.95043" lon="4.47149">
        <ele>534</ele>
        <time>2016-09-15T09:03:59Z</time>
      </trkpt>
      <trkpt lat="45.95048" lon="4.47159">
        <ele>535</ele>
        <time>2016-09-15T09:04:08Z</time>
      </trkpt>
      <trkpt lat="45.95049" lon="4.4716">
        <ele>535</ele>
        <time>2016-09-15T09:04:09Z</time>
      </trkpt>
      <trkpt lat="45.95054" lon="4.47171">
        <ele>534</ele>
        <time>2016-09-15T09:04:16Z</time>
      </trkpt>
      <trkpt lat="45.95054" lon="4.47173">
        <ele>534</ele>
        <time>2016-09-15T09:04:17Z</time>
      </trkpt>
      <trkpt lat="45.95058" lon="4.47182">
        <ele>535</ele>
        <time>2016-09-15T09:04:22Z</time>
      </trkpt>
      <trkpt lat="45.95059" lon="4.47184">
        <ele>535</ele>
        <time>2016-09-15T09:04:23Z</time>
      </trkpt>
      <trkpt lat="45.95063" lon="4.47194">
        <ele>534</ele>
        <time>2016-09-15T09:04:29Z</time>
      </trkpt>
      <trkpt lat="45.95064" lon="4.47195">
        <ele>534</ele>
        <time>2016-09-15T09:04:30Z</time>
      </trkpt>
      <trkpt lat="45.9507" lon="4.47203">
        <ele>535</ele>
        <time>2016-09-15T09:04:37Z</time>
      </trkpt>
      <trkpt lat="45.95071" lon="4.47204">
        <ele>535</ele>
        <time>2016-09-15T09:04:38Z</time>
      </trkpt>
      <trkpt lat="45.95077" lon="4.47212">
        <ele>535</ele>
        <time>2016-09-15T09:04:44Z</time>
      </trkpt>
      <trkpt lat="45.95079" lon="4.47213">
        <ele>535</ele>
        <time>2016-09-15T09:04:45Z</time>
      </trkpt>
      <trkpt lat="45.95083" lon="4.47223">
        <ele>535</ele>
        <time>2016-09-15T09:04:51Z</time>
      </trkpt>
      <trkpt lat="45.95083" lon="4.47225">
        <ele>535</ele>
        <time>2016-09-15T09:04:52Z</time>
      </trkpt>
      <trkpt lat="45.95087" lon="4.47237">
        <ele>550</ele>
        <time>2016-09-15T09:04:59Z</time>
      </trkpt>
      <trkpt lat="45.95087" lon="4.47238">
        <ele>549</ele>
        <time>2016-09-15T09:05:00Z</time>
      </trkpt>
      <trkpt lat="45.95091" lon="4.47249">
        <ele>546</ele>
        <time>2016-09-15T09:05:10Z</time>
      </trkpt>
      <trkpt lat="45.95092" lon="4.47251">
        <ele>544</ele>
        <time>2016-09-15T09:05:11Z</time>
      </trkpt>
      <trkpt lat="45.95097" lon="4.47259">
        <ele>548</ele>
        <time>2016-09-15T09:05:16Z</time>
      </trkpt>
      <trkpt lat="45.95098" lon="4.4726">
        <ele>549</ele>
        <time>2016-09-15T09:05:17Z</time>
      </trkpt>
      <trkpt lat="45.95102" lon="4.47271">
        <ele>552</ele>
        <time>2016-09-15T09:05:23Z</time>
      </trkpt>
      <trkpt lat="45.95103" lon="4.47273">
        <ele>552</ele>
        <time>2016-09-15T09:05:24Z</time>
      </trkpt>
      <trkpt lat="45.95105" lon="4.47284">
        <ele>553</ele>
        <time>2016-09-15T09:05:30Z</time>
      </trkpt>
      <trkpt lat="45.95105" lon="4.47286">
        <ele>554</ele>
        <time>2016-09-15T09:05:31Z</time>
      </trkpt>
      <trkpt lat="45.95109" lon="4.47296">
        <ele>554</ele>
        <time>2016-09-15T09:05:37Z</time>
      </trkpt>
      <trkpt lat="45.95109" lon="4.47298">
        <ele>554</ele>
        <time>2016-09-15T09:05:38Z</time>
      </trkpt>
      <trkpt lat="45.95111" lon="4.4731">
        <ele>554</ele>
        <time>2016-09-15T09:05:48Z</time>
      </trkpt>
      <trkpt lat="45.95111" lon="4.47311">
        <ele>554</ele>
        <time>2016-09-15T09:05:49Z</time>
      </trkpt>
      <trkpt lat="45.95107" lon="4.47322">
        <ele>553</ele>
        <time>2016-09-15T09:06:17Z</time>
      </trkpt>
      <trkpt lat="45.95106" lon="4.47322">
        <ele>553</ele>
        <time>2016-09-15T09:06:18Z</time>
      </trkpt>
      <trkpt lat="45.95099" lon="4.47325">
        <ele>551</ele>
        <time>2016-09-15T09:06:28Z</time>
      </trkpt>
      <trkpt lat="45.95098" lon="4.47325">
        <ele>551</ele>
        <time>2016-09-15T09:06:29Z</time>
      </trkpt>
      <trkpt lat="45.9509" lon="4.47326">
        <ele>549</ele>
        <time>2016-09-15T09:06:37Z</time>
      </trkpt>
      <trkpt lat="45.95089" lon="4.47327">
        <ele>549</ele>
        <time>2016-09-15T09:06:38Z</time>
      </trkpt>
      <trkpt lat="45.95081" lon="4.47334">
        <ele>546</ele>
        <time>2016-09-15T09:06:48Z</time>
      </trkpt>
      <trkpt lat="45.95081" lon="4.47334">
        <ele>546</ele>
        <time>2016-09-15T09:06:49Z</time>
      </trkpt>
      <trkpt lat="45.95073" lon="4.4734">
        <ele>547</ele>
        <time>2016-09-15T09:06:57Z</time>
      </trkpt>
      <trkpt lat="45.95072" lon="4.47341">
        <ele>547</ele>
        <time>2016-09-15T09:06:58Z</time>
      </trkpt>
      <trkpt lat="45.95065" lon="4.47348">
        <ele>547</ele>
        <time>2016-09-15T09:07:04Z</time>
      </trkpt>
      <trkpt lat="45.95064" lon="4.47349">
        <ele>547</ele>
        <time>2016-09-15T09:07:05Z</time>
      </trkpt>
      <trkpt lat="45.95056" lon="4.47354">
        <ele>547</ele>
        <time>2016-09-15T09:07:12Z</time>
      </trkpt>
      <trkpt lat="45.95055" lon="4.47354">
        <ele>547</ele>
        <time>2016-09-15T09:07:13Z</time>
      </trkpt>
      <trkpt lat="45.95048" lon="4.4736">
        <ele>547</ele>
        <time>2016-09-15T09:07:20Z</time>
      </trkpt>
      <trkpt lat="45.95047" lon="4.47361">
        <ele>547</ele>
        <time>2016-09-15T09:07:21Z</time>
      </trkpt>
      <trkpt lat="45.9504" lon="4.47368">
        <ele>547</ele>
        <time>2016-09-15T09:07:28Z</time>
      </trkpt>
      <trkpt lat="45.9504" lon="4.47369">
        <ele>547</ele>
        <time>2016-09-15T09:07:29Z</time>
      </trkpt>
      <trkpt lat="45.95034" lon="4.47378">
        <ele>548</ele>
        <time>2016-09-15T09:07:35Z</time>
      </trkpt>
      <trkpt lat="45.95033" lon="4.47378">
        <ele>548</ele>
        <time>2016-09-15T09:07:36Z</time>
      </trkpt>
      <trkpt lat="45.95025" lon="4.47382">
        <ele>548</ele>
        <time>2016-09-15T09:07:43Z</time>
      </trkpt>
      <trkpt lat="45.95024" lon="4.47383">
        <ele>548</ele>
        <time>2016-09-15T09:07:44Z</time>
      </trkpt>
      <trkpt lat="45.95016" lon="4.47387">
        <ele>548</ele>
        <time>2016-09-15T09:07:50Z</time>
      </trkpt>
      <trkpt lat="45.95015" lon="4.47388">
        <ele>548</ele>
        <time>2016-09-15T09:07:51Z</time>
      </trkpt>
      <trkpt lat="45.95007" lon="4.47391">
        <ele>549</ele>
        <time>2016-09-15T09:07:58Z</time>
      </trkpt>
      <trkpt lat="45.95006" lon="4.47391">
        <ele>549</ele>
        <time>2016-09-15T09:07:59Z</time>
      </trkpt>
      <trkpt lat="45.94998" lon="4.47395">
        <ele>544</ele>
        <time>2016-09-15T09:08:06Z</time>
      </trkpt>
      <trkpt lat="45.94997" lon="4.47395">
        <ele>544</ele>
        <time>2016-09-15T09:08:07Z</time>
      </trkpt>
      <trkpt lat="45.94989" lon="4.474">
        <ele>545</ele>
        <time>2016-09-15T09:08:15Z</time>
      </trkpt>
      <trkpt lat="45.94988" lon="4.474">
        <ele>545</ele>
        <time>2016-09-15T09:08:16Z</time>
      </trkpt>
      <trkpt lat="45.94979" lon="4.47404">
        <ele>544</ele>
        <time>2016-09-15T09:08:24Z</time>
      </trkpt>
      <trkpt lat="45.94978" lon="4.47404">
        <ele>544</ele>
        <time>2016-09-15T09:08:25Z</time>
      </trkpt>
      <trkpt lat="45.9497" lon="4.47408">
        <ele>543</ele>
        <time>2016-09-15T09:08:33Z</time>
      </trkpt>
      <trkpt lat="45.94968" lon="4.47408">
        <ele>543</ele>
        <time>2016-09-15T09:08:34Z</time>
      </trkpt>
      <trkpt lat="45.94961" lon="4.47412">
        <ele>543</ele>
        <time>2016-09-15T09:08:40Z</time>
      </trkpt>
      <trkpt lat="45.94959" lon="4.47412">
        <ele>543</ele>
        <time>2016-09-15T09:08:41Z</time>
      </trkpt>
      <trkpt lat="45.94951" lon="4.47416">
        <ele>543</ele>
        <time>2016-09-15T09:08:47Z</time>
      </trkpt>
      <trkpt lat="45.9495" lon="4.47417">
        <ele>555</ele>
        <time>2016-09-15T09:08:48Z</time>
      </trkpt>
      <trkpt lat="45.94943" lon="4.47421">
        <ele>554</ele>
        <time>2016-09-15T09:08:57Z</time>
      </trkpt>
      <trkpt lat="45.94941" lon="4.47421">
        <ele>554</ele>
        <time>2016-09-15T09:08:58Z</time>
      </trkpt>
      <trkpt lat="45.94934" lon="4.47424">
        <ele>553</ele>
        <time>2016-09-15T09:09:03Z</time>
      </trkpt>
      <trkpt lat="45.94932" lon="4.47424">
        <ele>553</ele>
        <time>2016-09-15T09:09:04Z</time>
      </trkpt>
      <trkpt lat="45.94924" lon="4.47428">
        <ele>552</ele>
        <time>2016-09-15T09:09:11Z</time>
      </trkpt>
      <trkpt lat="45.94923" lon="4.47428">
        <ele>552</ele>
        <time>2016-09-15T09:09:12Z</time>
      </trkpt>
      <trkpt lat="45.94915" lon="4.47431">
        <ele>547</ele>
        <time>2016-09-15T09:09:19Z</time>
      </trkpt>
      <trkpt lat="45.94914" lon="4.47431">
        <ele>547</ele>
        <time>2016-09-15T09:09:20Z</time>
      </trkpt>
      <trkpt lat="45.94905" lon="4.47434">
        <ele>546</ele>
        <time>2016-09-15T09:09:27Z</time>
      </trkpt>
      <trkpt lat="45.94904" lon="4.47434">
        <ele>546</ele>
        <time>2016-09-15T09:09:28Z</time>
      </trkpt>
      <trkpt lat="45.94895" lon="4.47436">
        <ele>546</ele>
        <time>2016-09-15T09:09:35Z</time>
      </trkpt>
      <trkpt lat="45.94894" lon="4.47437">
        <ele>546</ele>
        <time>2016-09-15T09:09:36Z</time>
      </trkpt>
      <trkpt lat="45.94887" lon="4.47439">
        <ele>546</ele>
        <time>2016-09-15T09:09:42Z</time>
      </trkpt>
      <trkpt lat="45.94885" lon="4.4744">
        <ele>545</ele>
        <time>2016-09-15T09:09:43Z</time>
      </trkpt>
      <trkpt lat="45.94878" lon="4.47444">
        <ele>545</ele>
        <time>2016-09-15T09:09:49Z</time>
      </trkpt>
      <trkpt lat="45.94877" lon="4.47446">
        <ele>545</ele>
        <time>2016-09-15T09:09:50Z</time>
      </trkpt>
      <trkpt lat="45.94874" lon="4.47456">
        <ele>545</ele>
        <time>2016-09-15T09:09:56Z</time>
      </trkpt>
      <trkpt lat="45.94873" lon="4.47458">
        <ele>545</ele>
        <time>2016-09-15T09:09:57Z</time>
      </trkpt>
      <trkpt lat="45.94872" lon="4.4747">
        <ele>545</ele>
        <time>2016-09-15T09:10:04Z</time>
      </trkpt>
      <trkpt lat="45.94872" lon="4.47472">
        <ele>545</ele>
        <time>2016-09-15T09:10:05Z</time>
      </trkpt>
      <trkpt lat="45.94872" lon="4.47484">
        <ele>546</ele>
        <time>2016-09-15T09:10:13Z</time>
      </trkpt>
      <trkpt lat="45.94871" lon="4.47486">
        <ele>546</ele>
        <time>2016-09-15T09:10:14Z</time>
      </trkpt>
      <trkpt lat="45.94869" lon="4.47498">
        <ele>545</ele>
        <time>2016-09-15T09:10:23Z</time>
      </trkpt>
      <trkpt lat="45.94868" lon="4.47499">
        <ele>545</ele>
        <time>2016-09-15T09:10:24Z</time>
      </trkpt>
      <trkpt lat="45.94866" lon="4.4751">
        <ele>549</ele>
        <time>2016-09-15T09:10:31Z</time>
      </trkpt>
      <trkpt lat="45.94865" lon="4.47511">
        <ele>549</ele>
        <time>2016-09-15T09:10:32Z</time>
      </trkpt>
      <trkpt lat="45.94862" lon="4.47521">
        <ele>549</ele>
        <time>2016-09-15T09:10:38Z</time>
      </trkpt>
      <trkpt lat="45.94863" lon="4.47524">
        <ele>550</ele>
        <time>2016-09-15T09:10:39Z</time>
      </trkpt>
      <trkpt lat="45.94863" lon="4.47537">
        <ele>551</ele>
        <time>2016-09-15T09:10:46Z</time>
      </trkpt>
      <trkpt lat="45.94863" lon="4.47539">
        <ele>551</ele>
        <time>2016-09-15T09:10:47Z</time>
      </trkpt>
      <trkpt lat="45.94863" lon="4.47551">
        <ele>551</ele>
        <time>2016-09-15T09:10:54Z</time>
      </trkpt>
      <trkpt lat="45.94864" lon="4.47553">
        <ele>552</ele>
        <time>2016-09-15T09:10:55Z</time>
      </trkpt>
      <trkpt lat="45.94865" lon="4.47564">
        <ele>552</ele>
        <time>2016-09-15T09:11:01Z</time>
      </trkpt>
      <trkpt lat="45.94865" lon="4.47566">
        <ele>552</ele>
        <time>2016-09-15T09:11:02Z</time>
      </trkpt>
      <trkpt lat="45.94862" lon="4.47578">
        <ele>552</ele>
        <time>2016-09-15T09:11:10Z</time>
      </trkpt>
      <trkpt lat="45.94861" lon="4.47579">
        <ele>551</ele>
        <time>2016-09-15T09:11:11Z</time>
      </trkpt>
      <trkpt lat="45.94856" lon="4.47589">
        <ele>557</ele>
        <time>2016-09-15T09:11:18Z</time>
      </trkpt>
      <trkpt lat="45.94855" lon="4.4759">
        <ele>557</ele>
        <time>2016-09-15T09:11:19Z</time>
      </trkpt>
      <trkpt lat="45.94847" lon="4.47595">
        <ele>555</ele>
        <time>2016-09-15T09:11:30Z</time>
      </trkpt>
      <trkpt lat="45.94846" lon="4.47595">
        <ele>555</ele>
        <time>2016-09-15T09:11:31Z</time>
      </trkpt>
      <trkpt lat="45.94838" lon="4.476">
        <ele>555</ele>
        <time>2016-09-15T09:11:39Z</time>
      </trkpt>
      <trkpt lat="45.94838" lon="4.47601">
        <ele>555</ele>
        <time>2016-09-15T09:11:40Z</time>
      </trkpt>
      <trkpt lat="45.9483" lon="4.47606">
        <ele>548</ele>
        <time>2016-09-15T09:11:48Z</time>
      </trkpt>
      <trkpt lat="45.9483" lon="4.47607">
        <ele>548</ele>
        <time>2016-09-15T09:11:49Z</time>
      </trkpt>
      <trkpt lat="45.94823" lon="4.47612">
        <ele>549</ele>
        <time>2016-09-15T09:11:57Z</time>
      </trkpt>
      <trkpt lat="45.94821" lon="4.47612">
        <ele>549</ele>
        <time>2016-09-15T09:11:58Z</time>
      </trkpt>
      <trkpt lat="45.94814" lon="4.47617">
        <ele>549</ele>
        <time>2016-09-15T09:12:05Z</time>
      </trkpt>
      <trkpt lat="45.94813" lon="4.47617">
        <ele>549</ele>
        <time>2016-09-15T09:12:06Z</time>
      </trkpt>
      <trkpt lat="45.94805" lon="4.47623">
        <ele>550</ele>
        <time>2016-09-15T09:12:16Z</time>
      </trkpt>
      <trkpt lat="45.94805" lon="4.47624">
        <ele>550</ele>
        <time>2016-09-15T09:12:17Z</time>
      </trkpt>
      <trkpt lat="45.948" lon="4.47633">
        <ele>550</ele>
        <time>2016-09-15T09:12:27Z</time>
      </trkpt>
      <trkpt lat="45.94799" lon="4.47635">
        <ele>551</ele>
        <time>2016-09-15T09:12:28Z</time>
      </trkpt>
      <trkpt lat="45.94795" lon="4.47645">
        <ele>551</ele>
        <time>2016-09-15T09:12:38Z</time>
      </trkpt>
      <trkpt lat="45.94794" lon="4.47646">
        <ele>551</ele>
        <time>2016-09-15T09:12:39Z</time>
      </trkpt>
      <trkpt lat="45.94787" lon="4.47652">
        <ele>551</ele>
        <time>2016-09-15T09:12:49Z</time>
      </trkpt>
      <trkpt lat="45.94786" lon="4.47652">
        <ele>551</ele>
        <time>2016-09-15T09:12:50Z</time>
      </trkpt>
      <trkpt lat="45.9478" lon="4.47661">
        <ele>552</ele>
        <time>2016-09-15T09:13:01Z</time>
      </trkpt>
      <trkpt lat="45.9478" lon="4.47662">
        <ele>552</ele>
        <time>2016-09-15T09:13:02Z</time>
      </trkpt>
      <trkpt lat="45.94773" lon="4.4767">
        <ele>564</ele>
        <time>2016-09-15T09:13:13Z</time>
      </trkpt>
      <trkpt lat="45.94772" lon="4.4767">
        <ele>564</ele>
        <time>2016-09-15T09:13:14Z</time>
      </trkpt>
      <trkpt lat="45.94764" lon="4.47675">
        <ele>562</ele>
        <time>2016-09-15T09:13:24Z</time>
      </trkpt>
      <trkpt lat="45.94764" lon="4.47676">
        <ele>562</ele>
        <time>2016-09-15T09:13:25Z</time>
      </trkpt>
      <trkpt lat="45.94756" lon="4.47683">
        <ele>563</ele>
        <time>2016-09-15T09:13:34Z</time>
      </trkpt>
      <trkpt lat="45.94755" lon="4.47684">
        <ele>563</ele>
        <time>2016-09-15T09:13:35Z</time>
      </trkpt>
      <trkpt lat="45.94748" lon="4.4769">
        <ele>560</ele>
        <time>2016-09-15T09:13:44Z</time>
      </trkpt>
      <trkpt lat="45.94746" lon="4.4769">
        <ele>560</ele>
        <time>2016-09-15T09:13:45Z</time>
      </trkpt>
      <trkpt lat="45.94739" lon="4.47698">
        <ele>561</ele>
        <time>2016-09-15T09:13:54Z</time>
      </trkpt>
      <trkpt lat="45.94739" lon="4.47698">
        <ele>562</ele>
        <time>2016-09-15T09:13:55Z</time>
      </trkpt>
      <trkpt lat="45.94732" lon="4.47706">
        <ele>563</ele>
        <time>2016-09-15T09:14:05Z</time>
      </trkpt>
      <trkpt lat="45.94731" lon="4.47706">
        <ele>563</ele>
        <time>2016-09-15T09:14:06Z</time>
      </trkpt>
      <trkpt lat="45.94725" lon="4.47715">
        <ele>564</ele>
        <time>2016-09-15T09:14:16Z</time>
      </trkpt>
      <trkpt lat="45.94724" lon="4.47716">
        <ele>564</ele>
        <time>2016-09-15T09:14:17Z</time>
      </trkpt>
      <trkpt lat="45.94718" lon="4.47724">
        <ele>565</ele>
        <time>2016-09-15T09:14:27Z</time>
      </trkpt>
      <trkpt lat="45.94717" lon="4.47725">
        <ele>565</ele>
        <time>2016-09-15T09:14:28Z</time>
      </trkpt>
      <trkpt lat="45.94712" lon="4.47735">
        <ele>565</ele>
        <time>2016-09-15T09:14:38Z</time>
      </trkpt>
      <trkpt lat="45.94711" lon="4.47736">
        <ele>565</ele>
        <time>2016-09-15T09:14:39Z</time>
      </trkpt>
      <trkpt lat="45.94706" lon="4.47745">
        <ele>565</ele>
        <time>2016-09-15T09:14:50Z</time>
      </trkpt>
      <trkpt lat="45.94705" lon="4.47746">
        <ele>565</ele>
        <time>2016-09-15T09:14:51Z</time>
      </trkpt>
      <trkpt lat="45.94699" lon="4.47755">
        <ele>573</ele>
        <time>2016-09-15T09:15:01Z</time>
      </trkpt>
      <trkpt lat="45.94699" lon="4.47755">
        <ele>573</ele>
        <time>2016-09-15T09:15:02Z</time>
      </trkpt>
      <trkpt lat="45.94692" lon="4.47762">
        <ele>572</ele>
        <time>2016-09-15T09:15:11Z</time>
      </trkpt>
      <trkpt lat="45.94691" lon="4.47763">
        <ele>572</ele>
        <time>2016-09-15T09:15:12Z</time>
      </trkpt>
      <trkpt lat="45.94688" lon="4.47774">
        <ele>573</ele>
        <time>2016-09-15T09:15:20Z</time>
      </trkpt>
      <trkpt lat="45.94687" lon="4.47775">
        <ele>573</ele>
        <time>2016-09-15T09:15:21Z</time>
      </trkpt>
      <trkpt lat="45.94681" lon="4.47783">
        <ele>573</ele>
        <time>2016-09-15T09:15:28Z</time>
      </trkpt>
      <trkpt lat="45.9468" lon="4.47784">
        <ele>573</ele>
        <time>2016-09-15T09:15:29Z</time>
      </trkpt>
      <trkpt lat="45.94677" lon="4.47796">
        <ele>573</ele>
        <time>2016-09-15T09:15:38Z</time>
      </trkpt>
      <trkpt lat="45.94677" lon="4.47797">
        <ele>573</ele>
        <time>2016-09-15T09:15:39Z</time>
      </trkpt>
      <trkpt lat="45.94675" lon="4.47809">
        <ele>573</ele>
        <time>2016-09-15T09:15:47Z</time>
      </trkpt>
      <trkpt lat="45.94675" lon="4.4781">
        <ele>573</ele>
        <time>2016-09-15T09:15:48Z</time>
      </trkpt>
      <trkpt lat="45.94679" lon="4.4782">
        <ele>573</ele>
        <time>2016-09-15T09:17:57Z</time>
      </trkpt>
      <trkpt lat="45.94679" lon="4.47822">
        <ele>573</ele>
        <time>2016-09-15T09:17:58Z</time>
      </trkpt>
      <trkpt lat="45.94684" lon="4.47832">
        <ele>574</ele>
        <time>2016-09-15T09:18:07Z</time>
      </trkpt>
      <trkpt lat="45.94685" lon="4.47833">
        <ele>574</ele>
        <time>2016-09-15T09:18:08Z</time>
      </trkpt>
      <trkpt lat="45.94691" lon="4.47841">
        <ele>574</ele>
        <time>2016-09-15T09:18:16Z</time>
      </trkpt>
      <trkpt lat="45.94692" lon="4.47842">
        <ele>574</ele>
        <time>2016-09-15T09:18:17Z</time>
      </trkpt>
      <trkpt lat="45.94697" lon="4.47851">
        <ele>574</ele>
        <time>2016-09-15T09:18:27Z</time>
      </trkpt>
      <trkpt lat="45.94698" lon="4.47852">
        <ele>574</ele>
        <time>2016-09-15T09:18:28Z</time>
      </trkpt>
      <trkpt lat="45.94702" lon="4.47862">
        <ele>574</ele>
        <time>2016-09-15T09:18:36Z</time>
      </trkpt>
      <trkpt lat="45.94703" lon="4.47864">
        <ele>574</ele>
        <time>2016-09-15T09:18:37Z</time>
      </trkpt>
      <trkpt lat="45.94707" lon="4.47874">
        <ele>574</ele>
        <time>2016-09-15T09:18:44Z</time>
      </trkpt>
      <trkpt lat="45.94708" lon="4.47876">
        <ele>574</ele>
        <time>2016-09-15T09:18:45Z</time>
      </trkpt>
      <trkpt lat="45.94715" lon="4.47882">
        <ele>574</ele>
        <time>2016-09-15T09:18:52Z</time>
      </trkpt>
      <trkpt lat="45.94716" lon="4.47882">
        <ele>574</ele>
        <time>2016-09-15T09:18:53Z</time>
      </trkpt>
      <trkpt lat="45.94722" lon="4.47892">
        <ele>574</ele>
        <time>2016-09-15T09:19:01Z</time>
      </trkpt>
      <trkpt lat="45.94723" lon="4.47893">
        <ele>574</ele>
        <time>2016-09-15T09:19:02Z</time>
      </trkpt>
      <trkpt lat="45.94728" lon="4.47901">
        <ele>575</ele>
        <time>2016-09-15T09:19:12Z</time>
      </trkpt>
      <trkpt lat="45.94729" lon="4.47902">
        <ele>575</ele>
        <time>2016-09-15T09:19:13Z</time>
      </trkpt>
      <trkpt lat="45.94736" lon="4.47908">
        <ele>576</ele>
        <time>2016-09-15T09:19:20Z</time>
      </trkpt>
      <trkpt lat="45.94738" lon="4.47909">
        <ele>576</ele>
        <time>2016-09-15T09:19:21Z</time>
      </trkpt>
      <trkpt lat="45.94741" lon="4.47921">
        <ele>571</ele>
        <time>2016-09-15T09:19:30Z</time>
      </trkpt>
      <trkpt lat="45.94741" lon="4.47922">
        <ele>571</ele>
        <time>2016-09-15T09:19:31Z</time>
      </trkpt>
      <trkpt lat="45.94746" lon="4.47932">
        <ele>569</ele>
        <time>2016-09-15T09:19:37Z</time>
      </trkpt>
      <trkpt lat="45.94747" lon="4.47934">
        <ele>568</ele>
        <time>2016-09-15T09:19:38Z</time>
      </trkpt>
      <trkpt lat="45.9475" lon="4.47945">
        <ele>577</ele>
        <time>2016-09-15T09:19:44Z</time>
      </trkpt>
      <trkpt lat="45.94751" lon="4.47947">
        <ele>577</ele>
        <time>2016-09-15T09:19:45Z</time>
      </trkpt>
      <trkpt lat="45.94755" lon="4.47957">
        <ele>576</ele>
        <time>2016-09-15T09:19:51Z</time>
      </trkpt>
      <trkpt lat="45.94757" lon="4.47959">
        <ele>575</ele>
        <time>2016-09-15T09:19:52Z</time>
      </trkpt>
      <trkpt lat="45.94761" lon="4.47968">
        <ele>574</ele>
        <time>2016-09-15T09:19:58Z</time>
      </trkpt>
      <trkpt lat="45.94762" lon="4.47969">
        <ele>574</ele>
        <time>2016-09-15T09:19:59Z</time>
      </trkpt>
      <trkpt lat="45.94768" lon="4.47978">
        <ele>572</ele>
        <time>2016-09-15T09:20:05Z</time>
      </trkpt>
      <trkpt lat="45.94768" lon="4.47979">
        <ele>572</ele>
        <time>2016-09-15T09:20:06Z</time>
      </trkpt>
      <trkpt lat="45.94771" lon="4.47991">
        <ele>570</ele>
        <time>2016-09-15T09:20:13Z</time>
      </trkpt>
      <trkpt lat="45.94771" lon="4.47992">
        <ele>570</ele>
        <time>2016-09-15T09:20:14Z</time>
      </trkpt>
      <trkpt lat="45.94777" lon="4.48001">
        <ele>560</ele>
        <time>2016-09-15T09:20:22Z</time>
      </trkpt>
      <trkpt lat="45.94778" lon="4.48002">
        <ele>560</ele>
        <time>2016-09-15T09:20:23Z</time>
      </trkpt>
      <trkpt lat="45.94779" lon="4.48013">
        <ele>560</ele>
        <time>2016-09-15T09:20:31Z</time>
      </trkpt>
      <trkpt lat="45.9478" lon="4.48014">
        <ele>560</ele>
        <time>2016-09-15T09:20:32Z</time>
      </trkpt>
      <trkpt lat="45.94783" lon="4.48025">
        <ele>560</ele>
        <time>2016-09-15T09:20:41Z</time>
      </trkpt>
      <trkpt lat="45.94784" lon="4.48027">
        <ele>560</ele>
        <time>2016-09-15T09:20:42Z</time>
      </trkpt>
      <trkpt lat="45.9479" lon="4.48036">
        <ele>560</ele>
        <time>2016-09-15T09:20:49Z</time>
      </trkpt>
      <trkpt lat="45.94791" lon="4.48038">
        <ele>560</ele>
        <time>2016-09-15T09:20:50Z</time>
      </trkpt>
      <trkpt lat="45.9479" lon="4.48049">
        <ele>559</ele>
        <time>2016-09-15T09:20:57Z</time>
      </trkpt>
      <trkpt lat="45.9479" lon="4.48051">
        <ele>558</ele>
        <time>2016-09-15T09:20:58Z</time>
      </trkpt>
      <trkpt lat="45.94793" lon="4.48063">
        <ele>558</ele>
        <time>2016-09-15T09:21:05Z</time>
      </trkpt>
      <trkpt lat="45.94793" lon="4.48065">
        <ele>558</ele>
        <time>2016-09-15T09:21:06Z</time>
      </trkpt>
      <trkpt lat="45.94797" lon="4.48076">
        <ele>557</ele>
        <time>2016-09-15T09:21:15Z</time>
      </trkpt>
      <trkpt lat="45.94797" lon="4.48078">
        <ele>557</ele>
        <time>2016-09-15T09:21:16Z</time>
      </trkpt>
      <trkpt lat="45.948" lon="4.48088">
        <ele>545</ele>
        <time>2016-09-15T09:21:24Z</time>
      </trkpt>
      <trkpt lat="45.94801" lon="4.4809">
        <ele>545</ele>
        <time>2016-09-15T09:21:25Z</time>
      </trkpt>
      <trkpt lat="45.94805" lon="4.481">
        <ele>545</ele>
        <time>2016-09-15T09:21:33Z</time>
      </trkpt>
      <trkpt lat="45.94806" lon="4.48101">
        <ele>545</ele>
        <time>2016-09-15T09:21:34Z</time>
      </trkpt>
      <trkpt lat="45.94811" lon="4.4811">
        <ele>544</ele>
        <time>2016-09-15T09:21:41Z</time>
      </trkpt>
      <trkpt lat="45.94812" lon="4.48111">
        <ele>544</ele>
        <time>2016-09-15T09:21:42Z</time>
      </trkpt>
      <trkpt lat="45.94818" lon="4.4812">
        <ele>543</ele>
        <time>2016-09-15T09:21:49Z</time>
      </trkpt>
      <trkpt lat="45.94819" lon="4.48121">
        <ele>543</ele>
        <time>2016-09-15T09:21:50Z</time>
      </trkpt>
      <trkpt lat="45.94825" lon="4.48129">
        <ele>542</ele>
        <time>2016-09-15T09:21:56Z</time>
      </trkpt>
      <trkpt lat="45.94825" lon="4.48131">
        <ele>542</ele>
        <time>2016-09-15T09:21:57Z</time>
      </trkpt>
      <trkpt lat="45.94831" lon="4.4814">
        <ele>541</ele>
        <time>2016-09-15T09:22:03Z</time>
      </trkpt>
      <trkpt lat="45.94832" lon="4.48142">
        <ele>541</ele>
        <time>2016-09-15T09:22:04Z</time>
      </trkpt>
      <trkpt lat="45.94837" lon="4.48151">
        <ele>552</ele>
        <time>2016-09-15T09:22:09Z</time>
      </trkpt>
      <trkpt lat="45.94838" lon="4.48153">
        <ele>552</ele>
        <time>2016-09-15T09:22:10Z</time>
      </trkpt>
      <trkpt lat="45.94844" lon="4.48161">
        <ele>550</ele>
        <time>2016-09-15T09:22:15Z</time>
      </trkpt>
      <trkpt lat="45.94845" lon="4.48163">
        <ele>550</ele>
        <time>2016-09-15T09:22:16Z</time>
      </trkpt>
      <trkpt lat="45.94851" lon="4.4817">
        <ele>542</ele>
        <time>2016-09-15T09:22:23Z</time>
      </trkpt>
      <trkpt lat="45.94852" lon="4.48171">
        <ele>542</ele>
        <time>2016-09-15T09:22:24Z</time>
      </trkpt>
      <trkpt lat="45.94859" lon="4.48178">
        <ele>542</ele>
        <time>2016-09-15T09:22:30Z</time>
      </trkpt>
      <trkpt lat="45.9486" lon="4.4818">
        <ele>542</ele>
        <time>2016-09-15T09:22:31Z</time>
      </trkpt>
      <trkpt lat="45.94865" lon="4.48188">
        <ele>541</ele>
        <time>2016-09-15T09:22:37Z</time>
      </trkpt>
      <trkpt lat="45.94866" lon="4.4819">
        <ele>541</ele>
        <time>2016-09-15T09:22:38Z</time>
      </trkpt>
      <trkpt lat="45.94874" lon="4.48195">
        <ele>541</ele>
        <time>2016-09-15T09:22:44Z</time>
      </trkpt>
      <trkpt lat="45.94876" lon="4.48195">
        <ele>542</ele>
        <time>2016-09-15T09:22:45Z</time>
      </trkpt>
      <trkpt lat="45.94883" lon="4.482">
        <ele>542</ele>
        <time>2016-09-15T09:22:50Z</time>
      </trkpt>
      <trkpt lat="45.94884" lon="4.48201">
        <ele>542</ele>
        <time>2016-09-15T09:22:51Z</time>
      </trkpt>
      <trkpt lat="45.94891" lon="4.48203">
        <ele>542</ele>
        <time>2016-09-15T09:22:56Z</time>
      </trkpt>
      <trkpt lat="45.94893" lon="4.48203">
        <ele>542</ele>
        <time>2016-09-15T09:22:57Z</time>
      </trkpt>
      <trkpt lat="45.94901" lon="4.48205">
        <ele>543</ele>
        <time>2016-09-15T09:23:03Z</time>
      </trkpt>
      <trkpt lat="45.94902" lon="4.48206">
        <ele>543</ele>
        <time>2016-09-15T09:23:04Z</time>
      </trkpt>
      <trkpt lat="45.94909" lon="4.48211">
        <ele>542</ele>
        <time>2016-09-15T09:23:13Z</time>
      </trkpt>
      <trkpt lat="45.9491" lon="4.48211">
        <ele>542</ele>
        <time>2016-09-15T09:23:14Z</time>
      </trkpt>
      <trkpt lat="45.94918" lon="4.48211">
        <ele>550</ele>
        <time>2016-09-15T09:23:19Z</time>
      </trkpt>
      <trkpt lat="45.9492" lon="4.48211">
        <ele>550</ele>
        <time>2016-09-15T09:23:20Z</time>
      </trkpt>
      <trkpt lat="45.94928" lon="4.4821">
        <ele>550</ele>
        <time>2016-09-15T09:23:25Z</time>
      </trkpt>
      <trkpt lat="45.94929" lon="4.48211">
        <ele>550</ele>
        <time>2016-09-15T09:23:26Z</time>
      </trkpt>
      <trkpt lat="45.94937" lon="4.48209">
        <ele>551</ele>
        <time>2016-09-15T09:23:34Z</time>
      </trkpt>
      <trkpt lat="45.94939" lon="4.48208">
        <ele>551</ele>
        <time>2016-09-15T09:23:35Z</time>
      </trkpt>
      <trkpt lat="45.94946" lon="4.48205">
        <ele>552</ele>
        <time>2016-09-15T09:23:40Z</time>
      </trkpt>
      <trkpt lat="45.94949" lon="4.48205">
        <ele>552</ele>
        <time>2016-09-15T09:23:41Z</time>
      </trkpt>
      <trkpt lat="45.94957" lon="4.48205">
        <ele>552</ele>
        <time>2016-09-15T09:23:48Z</time>
      </trkpt>
      <trkpt lat="45.94959" lon="4.48205">
        <ele>552</ele>
        <time>2016-09-15T09:23:49Z</time>
      </trkpt>
      <trkpt lat="45.94967" lon="4.48204">
        <ele>553</ele>
        <time>2016-09-15T09:23:57Z</time>
      </trkpt>
      <trkpt lat="45.94968" lon="4.48204">
        <ele>553</ele>
        <time>2016-09-15T09:23:58Z</time>
      </trkpt>
      <trkpt lat="45.94976" lon="4.4821">
        <ele>552</ele>
        <time>2016-09-15T09:24:06Z</time>
      </trkpt>
      <trkpt lat="45.94977" lon="4.4821">
        <ele>552</ele>
        <time>2016-09-15T09:24:07Z</time>
      </trkpt>
      <trkpt lat="45.94984" lon="4.48215">
        <ele>552</ele>
        <time>2016-09-15T09:24:13Z</time>
      </trkpt>
      <trkpt lat="45.94985" lon="4.48217">
        <ele>551</ele>
        <time>2016-09-15T09:24:14Z</time>
      </trkpt>
      <trkpt lat="45.94984" lon="4.48229">
        <ele>549</ele>
        <time>2016-09-15T09:24:32Z</time>
      </trkpt>
      <trkpt lat="45.94983" lon="4.48231">
        <ele>549</ele>
        <time>2016-09-15T09:24:33Z</time>
      </trkpt>
      <trkpt lat="45.94983" lon="4.48242">
        <ele>548</ele>
        <time>2016-09-15T09:24:40Z</time>
      </trkpt>
      <trkpt lat="45.94982" lon="4.48244">
        <ele>547</ele>
        <time>2016-09-15T09:24:41Z</time>
      </trkpt>
      <trkpt lat="45.94982" lon="4.48257">
        <ele>537</ele>
        <time>2016-09-15T09:24:48Z</time>
      </trkpt>
      <trkpt lat="45.94982" lon="4.48258">
        <ele>536</ele>
        <time>2016-09-15T09:24:49Z</time>
      </trkpt>
      <trkpt lat="45.94982" lon="4.48269">
        <ele>535</ele>
        <time>2016-09-15T09:24:54Z</time>
      </trkpt>
      <trkpt lat="45.94982" lon="4.48271">
        <ele>534</ele>
        <time>2016-09-15T09:24:55Z</time>
      </trkpt>
      <trkpt lat="45.94985" lon="4.48281">
        <ele>533</ele>
        <time>2016-09-15T09:24:59Z</time>
      </trkpt>
      <trkpt lat="45.94986" lon="4.48284">
        <ele>533</ele>
        <time>2016-09-15T09:25:00Z</time>
      </trkpt>
      <trkpt lat="45.94989" lon="4.48294">
        <ele>532</ele>
        <time>2016-09-15T09:25:04Z</time>
      </trkpt>
      <trkpt lat="45.9499" lon="4.48299">
        <ele>531</ele>
        <time>2016-09-15T09:25:05Z</time>
      </trkpt>
      <trkpt lat="45.94993" lon="4.4831">
        <ele>530</ele>
        <time>2016-09-15T09:25:10Z</time>
      </trkpt>
      <trkpt lat="45.94994" lon="4.48313">
        <ele>530</ele>
        <time>2016-09-15T09:25:11Z</time>
      </trkpt>
      <trkpt lat="45.95" lon="4.48322">
        <ele>536</ele>
        <time>2016-09-15T09:25:16Z</time>
      </trkpt>
      <trkpt lat="45.95001" lon="4.48324">
        <ele>535</ele>
        <time>2016-09-15T09:25:17Z</time>
      </trkpt>
      <trkpt lat="45.95005" lon="4.48332">
        <ele>533</ele>
        <time>2016-09-15T09:25:21Z</time>
      </trkpt>
      <trkpt lat="45.95007" lon="4.48334">
        <ele>530</ele>
        <time>2016-09-15T09:25:22Z</time>
      </trkpt>
      <trkpt lat="45.95013" lon="4.48343">
        <ele>529</ele>
        <time>2016-09-15T09:25:29Z</time>
      </trkpt>
      <trkpt lat="45.95013" lon="4.48344">
        <ele>529</ele>
        <time>2016-09-15T09:25:30Z</time>
      </trkpt>
      <trkpt lat="45.9502" lon="4.48352">
        <ele>529</ele>
        <time>2016-09-15T09:25:38Z</time>
      </trkpt>
      <trkpt lat="45.95021" lon="4.48353">
        <ele>529</ele>
        <time>2016-09-15T09:25:39Z</time>
      </trkpt>
      <trkpt lat="45.95027" lon="4.48361">
        <ele>528</ele>
        <time>2016-09-15T09:25:45Z</time>
      </trkpt>
      <trkpt lat="45.95028" lon="4.48362">
        <ele>528</ele>
        <time>2016-09-15T09:25:46Z</time>
      </trkpt>
      <trkpt lat="45.95034" lon="4.48371">
        <ele>528</ele>
        <time>2016-09-15T09:25:52Z</time>
      </trkpt>
      <trkpt lat="45.95036" lon="4.48372">
        <ele>527</ele>
        <time>2016-09-15T09:25:53Z</time>
      </trkpt>
      <trkpt lat="45.95042" lon="4.4838">
        <ele>527</ele>
        <time>2016-09-15T09:25:58Z</time>
      </trkpt>
      <trkpt lat="45.95044" lon="4.48382">
        <ele>527</ele>
        <time>2016-09-15T09:25:59Z</time>
      </trkpt>
      <trkpt lat="45.95051" lon="4.48388">
        <ele>526</ele>
        <time>2016-09-15T09:26:04Z</time>
      </trkpt>
      <trkpt lat="45.95052" lon="4.4839">
        <ele>526</ele>
        <time>2016-09-15T09:26:05Z</time>
      </trkpt>
      <trkpt lat="45.9506" lon="4.48395">
        <ele>526</ele>
        <time>2016-09-15T09:26:10Z</time>
      </trkpt>
      <trkpt lat="45.95062" lon="4.48395">
        <ele>526</ele>
        <time>2016-09-15T09:26:11Z</time>
      </trkpt>
      <trkpt lat="45.95069" lon="4.48398">
        <ele>525</ele>
        <time>2016-09-15T09:26:16Z</time>
      </trkpt>
      <trkpt lat="45.95071" lon="4.48398">
        <ele>525</ele>
        <time>2016-09-15T09:26:17Z</time>
      </trkpt>
      <trkpt lat="45.95079" lon="4.484">
        <ele>525</ele>
        <time>2016-09-15T09:26:22Z</time>
      </trkpt>
      <trkpt lat="45.95081" lon="4.484">
        <ele>525</ele>
        <time>2016-09-15T09:26:23Z</time>
      </trkpt>
      <trkpt lat="45.95089" lon="4.48398">
        <ele>532</ele>
        <time>2016-09-15T09:26:28Z</time>
      </trkpt>
      <trkpt lat="45.95091" lon="4.48398">
        <ele>532</ele>
        <time>2016-09-15T09:26:29Z</time>
      </trkpt>
      <trkpt lat="45.951" lon="4.48398">
        <ele>534</ele>
        <time>2016-09-15T09:26:47Z</time>
      </trkpt>
      <trkpt lat="45.951" lon="4.48397">
        <ele>534</ele>
        <time>2016-09-15T09:26:48Z</time>
      </trkpt>
      <trkpt lat="45.95109" lon="4.484">
        <ele>535</ele>
        <time>2016-09-15T09:27:38Z</time>
      </trkpt>
      <trkpt lat="45.95109" lon="4.48401">
        <ele>535</ele>
        <time>2016-09-15T09:27:39Z</time>
      </trkpt>
      <trkpt lat="45.95117" lon="4.48398">
        <ele>537</ele>
        <time>2016-09-15T09:29:03Z</time>
      </trkpt>
      <trkpt lat="45.95118" lon="4.48397">
        <ele>537</ele>
        <time>2016-09-15T09:29:04Z</time>
      </trkpt>
      <trkpt lat="45.95125" lon="4.48392">
        <ele>538</ele>
        <time>2016-09-15T09:29:21Z</time>
      </trkpt>
      <trkpt lat="45.95126" lon="4.48392">
        <ele>538</ele>
        <time>2016-09-15T09:29:22Z</time>
      </trkpt>
      <trkpt lat="45.95134" lon="4.48397">
        <ele>539</ele>
        <time>2016-09-15T09:29:28Z</time>
      </trkpt>
      <trkpt lat="45.95135" lon="4.48398">
        <ele>539</ele>
        <time>2016-09-15T09:29:29Z</time>
      </trkpt>
      <trkpt lat="45.95141" lon="4.48406">
        <ele>538</ele>
        <time>2016-09-15T09:29:35Z</time>
      </trkpt>
      <trkpt lat="45.95142" lon="4.48407">
        <ele>538</ele>
        <time>2016-09-15T09:29:36Z</time>
      </trkpt>
      <trkpt lat="45.95149" lon="4.48413">
        <ele>538</ele>
        <time>2016-09-15T09:29:43Z</time>
      </trkpt>
      <trkpt lat="45.95151" lon="4.48414">
        <ele>538</ele>
        <time>2016-09-15T09:29:44Z</time>
      </trkpt>
      <trkpt lat="45.95158" lon="4.4842">
        <ele>529</ele>
        <time>2016-09-15T09:29:51Z</time>
      </trkpt>
      <trkpt lat="45.95159" lon="4.48421">
        <ele>530</ele>
        <time>2016-09-15T09:29:52Z</time>
      </trkpt>
      <trkpt lat="45.95165" lon="4.48428">
        <ele>528</ele>
        <time>2016-09-15T09:29:59Z</time>
      </trkpt>
      <trkpt lat="45.95166" lon="4.48428">
        <ele>528</ele>
        <time>2016-09-15T09:30:00Z</time>
      </trkpt>
      <trkpt lat="45.95174" lon="4.48432">
        <ele>532</ele>
        <time>2016-09-15T09:30:07Z</time>
      </trkpt>
      <trkpt lat="45.95175" lon="4.48433">
        <ele>532</ele>
        <time>2016-09-15T09:30:08Z</time>
      </trkpt>
      <trkpt lat="45.95182" lon="4.48437">
        <ele>530</ele>
        <time>2016-09-15T09:30:15Z</time>
      </trkpt>
      <trkpt lat="45.95183" lon="4.48438">
        <ele>530</ele>
        <time>2016-09-15T09:30:16Z</time>
      </trkpt>
      <trkpt lat="45.95191" lon="4.48441">
        <ele>530</ele>
        <time>2016-09-15T09:30:24Z</time>
      </trkpt>
      <trkpt lat="45.95193" lon="4.48441">
        <ele>530</ele>
        <time>2016-09-15T09:30:25Z</time>
      </trkpt>
      <trkpt lat="45.952" lon="4.48446">
        <ele>529</ele>
        <time>2016-09-15T09:30:31Z</time>
      </trkpt>
      <trkpt lat="45.95201" lon="4.48447">
        <ele>529</ele>
        <time>2016-09-15T09:30:32Z</time>
      </trkpt>
      <trkpt lat="45.95209" lon="4.48447">
        <ele>530</ele>
        <time>2016-09-15T09:30:39Z</time>
      </trkpt>
      <trkpt lat="45.9521" lon="4.48447">
        <ele>530</ele>
        <time>2016-09-15T09:30:40Z</time>
      </trkpt>
      <trkpt lat="45.95218" lon="4.4845">
        <ele>530</ele>
        <time>2016-09-15T09:30:47Z</time>
      </trkpt>
      <trkpt lat="45.95219" lon="4.4845">
        <ele>530</ele>
        <time>2016-09-15T09:30:48Z</time>
      </trkpt>
      <trkpt lat="45.95227" lon="4.48451">
        <ele>530</ele>
        <time>2016-09-15T09:30:53Z</time>
      </trkpt>
      <trkpt lat="45.95229" lon="4.48452">
        <ele>530</ele>
        <time>2016-09-15T09:30:54Z</time>
      </trkpt>
      <trkpt lat="45.95236" lon="4.48452">
        <ele>530</ele>
        <time>2016-09-15T09:30:58Z</time>
      </trkpt>
      <trkpt lat="45.95239" lon="4.48453">
        <ele>530</ele>
        <time>2016-09-15T09:30:59Z</time>
      </trkpt>
      <trkpt lat="45.95247" lon="4.48449">
        <ele>532</ele>
        <time>2016-09-15T09:31:06Z</time>
      </trkpt>
      <trkpt lat="45.95247" lon="4.48448">
        <ele>532</ele>
        <time>2016-09-15T09:31:07Z</time>
      </trkpt>
      <trkpt lat="45.95253" lon="4.48439">
        <ele>541</ele>
        <time>2016-09-15T09:31:14Z</time>
      </trkpt>
      <trkpt lat="45.95254" lon="4.48438">
        <ele>541</ele>
        <time>2016-09-15T09:31:15Z</time>
      </trkpt>
      <trkpt lat="45.95259" lon="4.4843">
        <ele>542</ele>
        <time>2016-09-15T09:31:20Z</time>
      </trkpt>
      <trkpt lat="45.95261" lon="4.48427">
        <ele>542</ele>
        <time>2016-09-15T09:31:21Z</time>
      </trkpt>
      <trkpt lat="45.95267" lon="4.48419">
        <ele>543</ele>
        <time>2016-09-15T09:31:27Z</time>
      </trkpt>
      <trkpt lat="45.95268" lon="4.48418">
        <ele>543</ele>
        <time>2016-09-15T09:31:28Z</time>
      </trkpt>
      <trkpt lat="45.95276" lon="4.48411">
        <ele>554</ele>
        <time>2016-09-15T09:31:40Z</time>
      </trkpt>
      <trkpt lat="45.95276" lon="4.48411">
        <ele>555</ele>
        <time>2016-09-15T09:31:41Z</time>
      </trkpt>
      <trkpt lat="45.95283" lon="4.48419">
        <ele>544</ele>
        <time>2016-09-15T09:31:48Z</time>
      </trkpt>
      <trkpt lat="45.95284" lon="4.48421">
        <ele>544</ele>
        <time>2016-09-15T09:31:49Z</time>
      </trkpt>
      <trkpt lat="45.95288" lon="4.4843">
        <ele>544</ele>
        <time>2016-09-15T09:31:55Z</time>
      </trkpt>
      <trkpt lat="45.95288" lon="4.48432">
        <ele>544</ele>
        <time>2016-09-15T09:31:56Z</time>
      </trkpt>
      <trkpt lat="45.95294" lon="4.4844">
        <ele>543</ele>
        <time>2016-09-15T09:32:01Z</time>
      </trkpt>
      <trkpt lat="45.95295" lon="4.48441">
        <ele>543</ele>
        <time>2016-09-15T09:32:02Z</time>
      </trkpt>
      <trkpt lat="45.95301" lon="4.4845">
        <ele>543</ele>
        <time>2016-09-15T09:32:09Z</time>
      </trkpt>
      <trkpt lat="45.95302" lon="4.48451">
        <ele>543</ele>
        <time>2016-09-15T09:32:10Z</time>
      </trkpt>
      <trkpt lat="45.95306" lon="4.48461">
        <ele>542</ele>
        <time>2016-09-15T09:32:18Z</time>
      </trkpt>
      <trkpt lat="45.95306" lon="4.48463">
        <ele>542</ele>
        <time>2016-09-15T09:32:19Z</time>
      </trkpt>
      <trkpt lat="45.95309" lon="4.48475">
        <ele>541</ele>
        <time>2016-09-15T09:32:27Z</time>
      </trkpt>
      <trkpt lat="45.95309" lon="4.48476">
        <ele>540</ele>
        <time>2016-09-15T09:32:28Z</time>
      </trkpt>
      <trkpt lat="45.95315" lon="4.48485">
        <ele>540</ele>
        <time>2016-09-15T09:32:35Z</time>
      </trkpt>
      <trkpt lat="45.95316" lon="4.48486">
        <ele>540</ele>
        <time>2016-09-15T09:32:36Z</time>
      </trkpt>
      <trkpt lat="45.95322" lon="4.48494">
        <ele>540</ele>
        <time>2016-09-15T09:32:43Z</time>
      </trkpt>
      <trkpt lat="45.95323" lon="4.48495">
        <ele>540</ele>
        <time>2016-09-15T09:32:44Z</time>
      </trkpt>
      <trkpt lat="45.95329" lon="4.48503">
        <ele>536</ele>
        <time>2016-09-15T09:32:49Z</time>
      </trkpt>
      <trkpt lat="45.95331" lon="4.48505">
        <ele>536</ele>
        <time>2016-09-15T09:32:50Z</time>
      </trkpt>
      <trkpt lat="45.95337" lon="4.48512">
        <ele>540</ele>
        <time>2016-09-15T09:32:55Z</time>
      </trkpt>
      <trkpt lat="45.95338" lon="4.48513">
        <ele>540</ele>
        <time>2016-09-15T09:32:56Z</time>
      </trkpt>
      <trkpt lat="45.95345" lon="4.48517">
        <ele>540</ele>
        <time>2016-09-15T09:33:03Z</time>
      </trkpt>
      <trkpt lat="45.95346" lon="4.48518">
        <ele>540</ele>
        <time>2016-09-15T09:33:04Z</time>
      </trkpt>
      <trkpt lat="45.95354" lon="4.48521">
        <ele>541</ele>
        <time>2016-09-15T09:33:09Z</time>
      </trkpt>
      <trkpt lat="45.95355" lon="4.48522">
        <ele>541</ele>
        <time>2016-09-15T09:33:10Z</time>
      </trkpt>
      <trkpt lat="45.95363" lon="4.48527">
        <ele>541</ele>
        <time>2016-09-15T09:33:17Z</time>
      </trkpt>
      <trkpt lat="45.95364" lon="4.48528">
        <ele>541</ele>
        <time>2016-09-15T09:33:18Z</time>
      </trkpt>
      <trkpt lat="45.9537" lon="4.48534">
        <ele>541</ele>
        <time>2016-09-15T09:33:25Z</time>
      </trkpt>
      <trkpt lat="45.95372" lon="4.48535">
        <ele>541</ele>
        <time>2016-09-15T09:33:26Z</time>
      </trkpt>
      <trkpt lat="45.95378" lon="4.48541">
        <ele>541</ele>
        <time>2016-09-15T09:33:31Z</time>
      </trkpt>
      <trkpt lat="45.95379" lon="4.48542">
        <ele>541</ele>
        <time>2016-09-15T09:33:32Z</time>
      </trkpt>
      <trkpt lat="45.95388" lon="4.48545">
        <ele>542</ele>
        <time>2016-09-15T09:33:38Z</time>
      </trkpt>
      <trkpt lat="45.95389" lon="4.48546">
        <ele>542</ele>
        <time>2016-09-15T09:33:39Z</time>
      </trkpt>
      <trkpt lat="45.95397" lon="4.48549">
        <ele>542</ele>
        <time>2016-09-15T09:33:45Z</time>
      </trkpt>
      <trkpt lat="45.95398" lon="4.48549">
        <ele>542</ele>
        <time>2016-09-15T09:33:46Z</time>
      </trkpt>
      <trkpt lat="45.95406" lon="4.48554">
        <ele>542</ele>
        <time>2016-09-15T09:33:52Z</time>
      </trkpt>
      <trkpt lat="45.95408" lon="4.48554">
        <ele>542</ele>
        <time>2016-09-15T09:33:53Z</time>
      </trkpt>
      <trkpt lat="45.95415" lon="4.48555">
        <ele>542</ele>
        <time>2016-09-15T09:33:58Z</time>
      </trkpt>
      <trkpt lat="45.95416" lon="4.48555">
        <ele>542</ele>
        <time>2016-09-15T09:33:59Z</time>
      </trkpt>
      <trkpt lat="45.95424" lon="4.48555">
        <ele>549</ele>
        <time>2016-09-15T09:34:04Z</time>
      </trkpt>
      <trkpt lat="45.95426" lon="4.48555">
        <ele>550</ele>
        <time>2016-09-15T09:34:05Z</time>
      </trkpt>
      <trkpt lat="45.95434" lon="4.48553">
        <ele>550</ele>
        <time>2016-09-15T09:34:12Z</time>
      </trkpt>
      <trkpt lat="45.95435" lon="4.48553">
        <ele>550</ele>
        <time>2016-09-15T09:34:13Z</time>
      </trkpt>
      <trkpt lat="45.95443" lon="4.48554">
        <ele>551</ele>
        <time>2016-09-15T09:34:20Z</time>
      </trkpt>
      <trkpt lat="45.95444" lon="4.48554">
        <ele>551</ele>
        <time>2016-09-15T09:34:21Z</time>
      </trkpt>
      <trkpt lat="45.95452" lon="4.48556">
        <ele>551</ele>
        <time>2016-09-15T09:34:27Z</time>
      </trkpt>
      <trkpt lat="45.95454" lon="4.48559">
        <ele>551</ele>
        <time>2016-09-15T09:34:28Z</time>
      </trkpt>
      <trkpt lat="45.95462" lon="4.48564">
        <ele>551</ele>
        <time>2016-09-15T09:34:35Z</time>
      </trkpt>
      <trkpt lat="45.95463" lon="4.48565">
        <ele>552</ele>
        <time>2016-09-15T09:34:36Z</time>
      </trkpt>
      <trkpt lat="45.95469" lon="4.48572">
        <ele>552</ele>
        <time>2016-09-15T09:35:22Z</time>
      </trkpt>
      <trkpt lat="45.9547" lon="4.48574">
        <ele>552</ele>
        <time>2016-09-15T09:35:23Z</time>
      </trkpt>
      <trkpt lat="45.9547" lon="4.48587">
        <ele>548</ele>
        <time>2016-09-15T09:36:36Z</time>
      </trkpt>
      <trkpt lat="45.95471" lon="4.48587">
        <ele>548</ele>
        <time>2016-09-15T09:36:37Z</time>
      </trkpt>
      <trkpt lat="45.95464" lon="4.48594">
        <ele>548</ele>
        <time>2016-09-15T09:37:56Z</time>
      </trkpt>
      <trkpt lat="45.95463" lon="4.48595">
        <ele>547</ele>
        <time>2016-09-15T09:37:57Z</time>
      </trkpt>
      <trkpt lat="45.95454" lon="4.48599">
        <ele>547</ele>
        <time>2016-09-15T09:38:17Z</time>
      </trkpt>
      <trkpt lat="45.95454" lon="4.48599">
        <ele>547</ele>
        <time>2016-09-15T09:38:18Z</time>
      </trkpt>
      <trkpt lat="45.95446" lon="4.48602">
        <ele>546</ele>
        <time>2016-09-15T09:39:03Z</time>
      </trkpt>
      <trkpt lat="45.95445" lon="4.48603">
        <ele>546</ele>
        <time>2016-09-15T09:39:04Z</time>
      </trkpt>
      <trkpt lat="45.95437" lon="4.48606">
        <ele>545</ele>
        <time>2016-09-15T09:39:19Z</time>
      </trkpt>
      <trkpt lat="45.95436" lon="4.48606">
        <ele>545</ele>
        <time>2016-09-15T09:39:20Z</time>
      </trkpt>
      <trkpt lat="45.95427" lon="4.48606">
        <ele>544</ele>
        <time>2016-09-15T09:39:26Z</time>
      </trkpt>
      <trkpt lat="45.95426" lon="4.48606">
        <ele>544</ele>
        <time>2016-09-15T09:39:27Z</time>
      </trkpt>
      <trkpt lat="45.95418" lon="4.48606">
        <ele>544</ele>
        <time>2016-09-15T09:39:32Z</time>
      </trkpt>
      <trkpt lat="45.95416" lon="4.48606">
        <ele>539</ele>
        <time>2016-09-15T09:39:33Z</time>
      </trkpt>
      <trkpt lat="45.95409" lon="4.48603">
        <ele>539</ele>
        <time>2016-09-15T09:39:40Z</time>
      </trkpt>
      <trkpt lat="45.95407" lon="4.48602">
        <ele>539</ele>
        <time>2016-09-15T09:39:41Z</time>
      </trkpt>
      <trkpt lat="45.95399" lon="4.486">
        <ele>539</ele>
        <time>2016-09-15T09:39:47Z</time>
      </trkpt>
      <trkpt lat="45.95397" lon="4.486">
        <ele>539</ele>
        <time>2016-09-15T09:39:48Z</time>
      </trkpt>
      <trkpt lat="45.95388" lon="4.48596">
        <ele>538</ele>
        <time>2016-09-15T09:39:54Z</time>
      </trkpt>
      <trkpt lat="45.95387" lon="4.48596">
        <ele>538</ele>
        <time>2016-09-15T09:39:55Z</time>
      </trkpt>
      <trkpt lat="45.95379" lon="4.48592">
        <ele>537</ele>
        <time>2016-09-15T09:40:04Z</time>
      </trkpt>
      <trkpt lat="45.95378" lon="4.48592">
        <ele>537</ele>
        <time>2016-09-15T09:40:05Z</time>
      </trkpt>
      <trkpt lat="45.9537" lon="4.48588">
        <ele>536</ele>
        <time>2016-09-15T09:40:13Z</time>
      </trkpt>
      <trkpt lat="45.95369" lon="4.48587">
        <ele>536</ele>
        <time>2016-09-15T09:40:14Z</time>
      </trkpt>
      <trkpt lat="45.9536" lon="4.48584">
        <ele>535</ele>
        <time>2016-09-15T09:40:22Z</time>
      </trkpt>
      <trkpt lat="45.95359" lon="4.48584">
        <ele>535</ele>
        <time>2016-09-15T09:40:23Z</time>
      </trkpt>
      <trkpt lat="45.95352" lon="4.48577">
        <ele>534</ele>
        <time>2016-09-15T09:40:35Z</time>
      </trkpt>
      <trkpt lat="45.95351" lon="4.48577">
        <ele>534</ele>
        <time>2016-09-15T09:40:36Z</time>
      </trkpt>
      <trkpt lat="45.95343" lon="4.48572">
        <ele>533</ele>
        <time>2016-09-15T09:40:46Z</time>
      </trkpt>
      <trkpt lat="45.95342" lon="4.48572">
        <ele>533</ele>
        <time>2016-09-15T09:40:47Z</time>
      </trkpt>
      <trkpt lat="45.95334" lon="4.48567">
        <ele>534</ele>
        <time>2016-09-15T09:40:56Z</time>
      </trkpt>
      <trkpt lat="45.95333" lon="4.48566">
        <ele>527</ele>
        <time>2016-09-15T09:40:57Z</time>
      </trkpt>
      <trkpt lat="45.95325" lon="4.48565">
        <ele>527</ele>
        <time>2016-09-15T09:41:03Z</time>
      </trkpt>
      <trkpt lat="45.95324" lon="4.48565">
        <ele>527</ele>
        <time>2016-09-15T09:41:04Z</time>
      </trkpt>
      <trkpt lat="45.95316" lon="4.48562">
        <ele>527</ele>
        <time>2016-09-15T09:41:10Z</time>
      </trkpt>
      <trkpt lat="45.95315" lon="4.48562">
        <ele>527</ele>
        <time>2016-09-15T09:41:11Z</time>
      </trkpt>
      <trkpt lat="45.95307" lon="4.48559">
        <ele>526</ele>
        <time>2016-09-15T09:41:18Z</time>
      </trkpt>
      <trkpt lat="45.95305" lon="4.48558">
        <ele>526</ele>
        <time>2016-09-15T09:41:19Z</time>
      </trkpt>
      <trkpt lat="45.95297" lon="4.48556">
        <ele>526</ele>
        <time>2016-09-15T09:41:26Z</time>
      </trkpt>
      <trkpt lat="45.95295" lon="4.48556">
        <ele>526</ele>
        <time>2016-09-15T09:41:27Z</time>
      </trkpt>
      <trkpt lat="45.95287" lon="4.48552">
        <ele>525</ele>
        <time>2016-09-15T09:41:41Z</time>
      </trkpt>
      <trkpt lat="45.95286" lon="4.48551">
        <ele>525</ele>
        <time>2016-09-15T09:41:42Z</time>
      </trkpt>
      <trkpt lat="45.95278" lon="4.48549">
        <ele>525</ele>
        <time>2016-09-15T09:41:47Z</time>
      </trkpt>
      <trkpt lat="45.95276" lon="4.48549">
        <ele>525</ele>
        <time>2016-09-15T09:41:48Z</time>
      </trkpt>
      <trkpt lat="45.95267" lon="4.48547">
        <ele>524</ele>
        <time>2016-09-15T09:41:53Z</time>
      </trkpt>
      <trkpt lat="45.95266" lon="4.48546">
        <ele>524</ele>
        <time>2016-09-15T09:41:54Z</time>
      </trkpt>
      <trkpt lat="45.95258" lon="4.48546">
        <ele>524</ele>
        <time>2016-09-15T09:41:59Z</time>
      </trkpt>
      <trkpt lat="45.95256" lon="4.48545">
        <ele>524</ele>
        <time>2016-09-15T09:42:00Z</time>
      </trkpt>
      <trkpt lat="45.95249" lon="4.48543">
        <ele>516</ele>
        <time>2016-09-15T09:42:04Z</time>
      </trkpt>
      <trkpt lat="45.95247" lon="4.48543">
        <ele>516</ele>
        <time>2016-09-15T09:42:05Z</time>
      </trkpt>
      <trkpt lat="45.95238" lon="4.48543">
        <ele>516</ele>
        <time>2016-09-15T09:42:10Z</time>
      </trkpt>
      <trkpt lat="45.95237" lon="4.48544">
        <ele>516</ele>
        <time>2016-09-15T09:42:11Z</time>
      </trkpt>
      <trkpt lat="45.95229" lon="4.48543">
        <ele>516</ele>
        <time>2016-09-15T09:42:16Z</time>
      </trkpt>
      <trkpt lat="45.95227" lon="4.48543">
        <ele>516</ele>
        <time>2016-09-15T09:42:17Z</time>
      </trkpt>
      <trkpt lat="45.95219" lon="4.48544">
        <ele>515</ele>
        <time>2016-09-15T09:42:21Z</time>
      </trkpt>
      <trkpt lat="45.95217" lon="4.48543">
        <ele>515</ele>
        <time>2016-09-15T09:42:22Z</time>
      </trkpt>
      <trkpt lat="45.9521" lon="4.48542">
        <ele>515</ele>
        <time>2016-09-15T09:42:27Z</time>
      </trkpt>
      <trkpt lat="45.95208" lon="4.48542">
        <ele>515</ele>
        <time>2016-09-15T09:42:28Z</time>
      </trkpt>
      <trkpt lat="45.952" lon="4.48542">
        <ele>514</ele>
        <time>2016-09-15T09:42:34Z</time>
      </trkpt>
      <trkpt lat="45.95199" lon="4.48542">
        <ele>514</ele>
        <time>2016-09-15T09:42:35Z</time>
      </trkpt>
      <trkpt lat="45.95191" lon="4.48538">
        <ele>514</ele>
        <time>2016-09-15T09:42:43Z</time>
      </trkpt>
      <trkpt lat="45.9519" lon="4.48537">
        <ele>514</ele>
        <time>2016-09-15T09:42:44Z</time>
      </trkpt>
      <trkpt lat="45.95182" lon="4.48534">
        <ele>513</ele>
        <time>2016-09-15T09:42:50Z</time>
      </trkpt>
      <trkpt lat="45.9518" lon="4.48533">
        <ele>513</ele>
        <time>2016-09-15T09:42:51Z</time>
      </trkpt>
      <trkpt lat="45.95172" lon="4.48532">
        <ele>513</ele>
        <time>2016-09-15T09:42:56Z</time>
      </trkpt>
      <trkpt lat="45.9517" lon="4.48532">
        <ele>513</ele>
        <time>2016-09-15T09:42:57Z</time>
      </trkpt>
      <trkpt lat="45.95162" lon="4.48533">
        <ele>505</ele>
        <time>2016-09-15T09:43:02Z</time>
      </trkpt>
      <trkpt lat="45.95161" lon="4.48533">
        <ele>505</ele>
        <time>2016-09-15T09:43:03Z</time>
      </trkpt>
      <trkpt lat="45.95152" lon="4.48532">
        <ele>504</ele>
        <time>2016-09-15T09:43:08Z</time>
      </trkpt>
      <trkpt lat="45.95151" lon="4.48532">
        <ele>504</ele>
        <time>2016-09-15T09:43:09Z</time>
      </trkpt>
      <trkpt lat="45.95142" lon="4.48533">
        <ele>503</ele>
        <time>2016-09-15T09:43:58Z</time>
      </trkpt>
      <trkpt lat="45.95142" lon="4.48533">
        <ele>503</ele>
        <time>2016-09-15T09:43:59Z</time>
      </trkpt>
      <trkpt lat="45.95133" lon="4.48536">
        <ele>502</ele>
        <time>2016-09-15T09:44:58Z</time>
      </trkpt>
      <trkpt lat="45.95132" lon="4.48536">
        <ele>502</ele>
        <time>2016-09-15T09:44:59Z</time>
      </trkpt>
      <trkpt lat="45.95124" lon="4.48538">
        <ele>501</ele>
        <time>2016-09-15T09:45:06Z</time>
      </trkpt>
      <trkpt lat="45.95123" lon="4.48538">
        <ele>501</ele>
        <time>2016-09-15T09:45:07Z</time>
      </trkpt>
      <trkpt lat="45.95115" lon="4.48538">
        <ele>500</ele>
        <time>2016-09-15T09:45:13Z</time>
      </trkpt>
      <trkpt lat="45.95113" lon="4.48538">
        <ele>500</ele>
        <time>2016-09-15T09:45:14Z</time>
      </trkpt>
      <trkpt lat="45.95104" lon="4.4854">
        <ele>499</ele>
        <time>2016-09-15T09:45:20Z</time>
      </trkpt>
      <trkpt lat="45.95103" lon="4.4854">
        <ele>499</ele>
        <time>2016-09-15T09:45:21Z</time>
      </trkpt>
      <trkpt lat="45.95094" lon="4.48542">
        <ele>498</ele>
        <time>2016-09-15T09:45:27Z</time>
      </trkpt>
      <trkpt lat="45.95093" lon="4.48542">
        <ele>498</ele>
        <time>2016-09-15T09:45:28Z</time>
      </trkpt>
      <trkpt lat="45.95085" lon="4.48545">
        <ele>498</ele>
        <time>2016-09-15T09:45:35Z</time>
      </trkpt>
      <trkpt lat="45.95084" lon="4.48545">
        <ele>498</ele>
        <time>2016-09-15T09:45:36Z</time>
      </trkpt>
      <trkpt lat="45.95076" lon="4.48544">
        <ele>492</ele>
        <time>2016-09-15T09:45:43Z</time>
      </trkpt>
      <trkpt lat="45.95074" lon="4.48544">
        <ele>491</ele>
        <time>2016-09-15T09:45:44Z</time>
      </trkpt>
      <trkpt lat="45.95066" lon="4.48542">
        <ele>491</ele>
        <time>2016-09-15T09:45:50Z</time>
      </trkpt>
      <trkpt lat="45.95065" lon="4.48541">
        <ele>491</ele>
        <time>2016-09-15T09:45:51Z</time>
      </trkpt>
      <trkpt lat="45.95056" lon="4.48538">
        <ele>491</ele>
        <time>2016-09-15T09:45:56Z</time>
      </trkpt>
      <trkpt lat="45.95055" lon="4.48537">
        <ele>491</ele>
        <time>2016-09-15T09:45:57Z</time>
      </trkpt>
      <trkpt lat="45.95047" lon="4.48535">
        <ele>491</ele>
        <time>2016-09-15T09:46:02Z</time>
      </trkpt>
      <trkpt lat="45.95046" lon="4.48535">
        <ele>491</ele>
        <time>2016-09-15T09:46:03Z</time>
      </trkpt>
      <trkpt lat="45.95037" lon="4.48534">
        <ele>490</ele>
        <time>2016-09-15T09:46:09Z</time>
      </trkpt>
      <trkpt lat="45.95036" lon="4.48534">
        <ele>490</ele>
        <time>2016-09-15T09:46:10Z</time>
      </trkpt>
      <trkpt lat="45.95028" lon="4.4853">
        <ele>490</ele>
        <time>2016-09-15T09:46:17Z</time>
      </trkpt>
      <trkpt lat="45.95027" lon="4.48529">
        <ele>490</ele>
        <time>2016-09-15T09:46:18Z</time>
      </trkpt>
      <trkpt lat="45.95019" lon="4.48525">
        <ele>489</ele>
        <time>2016-09-15T09:46:24Z</time>
      </trkpt>
      <trkpt lat="45.95017" lon="4.48524">
        <ele>489</ele>
        <time>2016-09-15T09:46:25Z</time>
      </trkpt>
      <trkpt lat="45.9501" lon="4.48518">
        <ele>488</ele>
        <time>2016-09-15T09:46:31Z</time>
      </trkpt>
      <trkpt lat="45.95008" lon="4.48518">
        <ele>488</ele>
        <time>2016-09-15T09:46:32Z</time>
      </trkpt>
      <trkpt lat="45.95001" lon="4.48513">
        <ele>487</ele>
        <time>2016-09-15T09:46:38Z</time>
      </trkpt>
      <trkpt lat="45.94999" lon="4.48512">
        <ele>485</ele>
        <time>2016-09-15T09:46:39Z</time>
      </trkpt>
      <trkpt lat="45.94991" lon="4.48507">
        <ele>485</ele>
        <time>2016-09-15T09:46:46Z</time>
      </trkpt>
      <trkpt lat="45.94991" lon="4.48507">
        <ele>485</ele>
        <time>2016-09-15T09:46:47Z</time>
      </trkpt>
      <trkpt lat="45.94983" lon="4.48504">
        <ele>485</ele>
        <time>2016-09-15T09:46:54Z</time>
      </trkpt>
      <trkpt lat="45.94981" lon="4.48504">
        <ele>485</ele>
        <time>2016-09-15T09:46:55Z</time>
      </trkpt>
      <trkpt lat="45.94974" lon="4.48505">
        <ele>484</ele>
        <time>2016-09-15T09:47:02Z</time>
      </trkpt>
      <trkpt lat="45.94972" lon="4.48505">
        <ele>484</ele>
        <time>2016-09-15T09:47:03Z</time>
      </trkpt>
      <trkpt lat="45.94964" lon="4.48502">
        <ele>483</ele>
        <time>2016-09-15T09:47:10Z</time>
      </trkpt>
      <trkpt lat="45.94963" lon="4.48501">
        <ele>483</ele>
        <time>2016-09-15T09:47:11Z</time>
      </trkpt>
      <trkpt lat="45.94955" lon="4.48494">
        <ele>485</ele>
        <time>2016-09-15T09:47:17Z</time>
      </trkpt>
      <trkpt lat="45.94954" lon="4.48494">
        <ele>485</ele>
        <time>2016-09-15T09:47:18Z</time>
      </trkpt>
      <trkpt lat="45.94946" lon="4.4849">
        <ele>484</ele>
        <time>2016-09-15T09:47:23Z</time>
      </trkpt>
      <trkpt lat="45.94944" lon="4.48489">
        <ele>484</ele>
        <time>2016-09-15T09:47:24Z</time>
      </trkpt>
      <trkpt lat="45.94937" lon="4.48486">
        <ele>483</ele>
        <time>2016-09-15T09:47:29Z</time>
      </trkpt>
      <trkpt lat="45.94936" lon="4.48485">
        <ele>483</ele>
        <time>2016-09-15T09:47:30Z</time>
      </trkpt>
      <trkpt lat="45.94928" lon="4.48481">
        <ele>482</ele>
        <time>2016-09-15T09:47:36Z</time>
      </trkpt>
      <trkpt lat="45.94927" lon="4.48481">
        <ele>482</ele>
        <time>2016-09-15T09:47:37Z</time>
      </trkpt>
      <trkpt lat="45.94919" lon="4.48476">
        <ele>483</ele>
        <time>2016-09-15T09:47:44Z</time>
      </trkpt>
      <trkpt lat="45.94918" lon="4.48475">
        <ele>483</ele>
        <time>2016-09-15T09:47:45Z</time>
      </trkpt>
      <trkpt lat="45.9491" lon="4.4847">
        <ele>476</ele>
        <time>2016-09-15T09:47:51Z</time>
      </trkpt>
      <trkpt lat="45.94909" lon="4.48468">
        <ele>476</ele>
        <time>2016-09-15T09:47:52Z</time>
      </trkpt>
      <trkpt lat="45.94902" lon="4.48461">
        <ele>476</ele>
        <time>2016-09-15T09:47:59Z</time>
      </trkpt>
      <trkpt lat="45.94901" lon="4.48459">
        <ele>476</ele>
        <time>2016-09-15T09:48:00Z</time>
      </trkpt>
      <trkpt lat="45.94894" lon="4.48453">
        <ele>477</ele>
        <time>2016-09-15T09:48:06Z</time>
      </trkpt>
      <trkpt lat="45.94893" lon="4.48452">
        <ele>477</ele>
        <time>2016-09-15T09:48:07Z</time>
      </trkpt>
      <trkpt lat="45.94887" lon="4.48445">
        <ele>477</ele>
        <time>2016-09-15T09:48:14Z</time>
      </trkpt>
      <trkpt lat="45.94886" lon="4.48444">
        <ele>477</ele>
        <time>2016-09-15T09:48:15Z</time>
      </trkpt>
      <trkpt lat="45.94879" lon="4.48436">
        <ele>476</ele>
        <time>2016-09-15T09:48:22Z</time>
      </trkpt>
      <trkpt lat="45.94878" lon="4.48436">
        <ele>476</ele>
        <time>2016-09-15T09:48:23Z</time>
      </trkpt>
      <trkpt lat="45.9487" lon="4.48428">
        <ele>475</ele>
        <time>2016-09-15T09:48:31Z</time>
      </trkpt>
      <trkpt lat="45.9487" lon="4.48427">
        <ele>475</ele>
        <time>2016-09-15T09:48:32Z</time>
      </trkpt>
      <trkpt lat="45.94863" lon="4.4842">
        <ele>473</ele>
        <time>2016-09-15T09:48:40Z</time>
      </trkpt>
      <trkpt lat="45.94862" lon="4.48419">
        <ele>473</ele>
        <time>2016-09-15T09:48:41Z</time>
      </trkpt>
      <trkpt lat="45.94857" lon="4.48409">
        <ele>480</ele>
        <time>2016-09-15T09:48:48Z</time>
      </trkpt>
      <trkpt lat="45.94856" lon="4.48408">
        <ele>480</ele>
        <time>2016-09-15T09:48:49Z</time>
      </trkpt>
      <trkpt lat="45.9485" lon="4.484">
        <ele>480</ele>
        <time>2016-09-15T09:48:56Z</time>
      </trkpt>
      <trkpt lat="45.94848" lon="4.484">
        <ele>480</ele>
        <time>2016-09-15T09:48:57Z</time>
      </trkpt>
      <trkpt lat="45.94844" lon="4.4839">
        <ele>482</ele>
        <time>2016-09-15T09:49:29Z</time>
      </trkpt>
      <trkpt lat="45.94844" lon="4.48388">
        <ele>483</ele>
        <time>2016-09-15T09:49:30Z</time>
      </trkpt>
      <trkpt lat="45.94839" lon="4.48378">
        <ele>485</ele>
        <time>2016-09-15T09:49:37Z</time>
      </trkpt>
      <trkpt lat="45.94838" lon="4.48376">
        <ele>485</ele>
        <time>2016-09-15T09:49:38Z</time>
      </trkpt>
      <trkpt lat="45.94831" lon="4.48368">
        <ele>474</ele>
        <time>2016-09-15T09:49:45Z</time>
      </trkpt>
      <trkpt lat="45.9483" lon="4.48367">
        <ele>475</ele>
        <time>2016-09-15T09:49:46Z</time>
      </trkpt>
      <trkpt lat="45.94824" lon="4.48359">
        <ele>476</ele>
        <time>2016-09-15T09:49:53Z</time>
      </trkpt>
      <trkpt lat="45.94823" lon="4.48358">
        <ele>476</ele>
        <time>2016-09-15T09:49:54Z</time>
      </trkpt>
      <trkpt lat="45.94818" lon="4.48348">
        <ele>478</ele>
        <time>2016-09-15T09:50:01Z</time>
      </trkpt>
      <trkpt lat="45.94817" lon="4.48347">
        <ele>478</ele>
        <time>2016-09-15T09:50:02Z</time>
      </trkpt>
      <trkpt lat="45.94809" lon="4.4834">
        <ele>477</ele>
        <time>2016-09-15T09:50:09Z</time>
      </trkpt>
      <trkpt lat="45.94809" lon="4.48339">
        <ele>476</ele>
        <time>2016-09-15T09:50:10Z</time>
      </trkpt>
      <trkpt lat="45.94803" lon="4.48331">
        <ele>486</ele>
        <time>2016-09-15T09:50:16Z</time>
      </trkpt>
      <trkpt lat="45.94802" lon="4.4833">
        <ele>485</ele>
        <time>2016-09-15T09:50:17Z</time>
      </trkpt>
      <trkpt lat="45.94794" lon="4.48324">
        <ele>483</ele>
        <time>2016-09-15T09:50:24Z</time>
      </trkpt>
      <trkpt lat="45.94793" lon="4.48323">
        <ele>483</ele>
        <time>2016-09-15T09:50:25Z</time>
      </trkpt>
      <trkpt lat="45.94786" lon="4.48316">
        <ele>482</ele>
        <time>2016-09-15T09:50:32Z</time>
      </trkpt>
      <trkpt lat="45.94784" lon="4.48316">
        <ele>481</ele>
        <time>2016-09-15T09:50:33Z</time>
      </trkpt>
      <trkpt lat="45.94777" lon="4.48309">
        <ele>480</ele>
        <time>2016-09-15T09:50:39Z</time>
      </trkpt>
      <trkpt lat="45.94776" lon="4.48308">
        <ele>480</ele>
        <time>2016-09-15T09:50:40Z</time>
      </trkpt>
      <trkpt lat="45.94769" lon="4.48301">
        <ele>480</ele>
        <time>2016-09-15T09:50:46Z</time>
      </trkpt>
      <trkpt lat="45.94768" lon="4.483">
        <ele>480</ele>
        <time>2016-09-15T09:50:47Z</time>
      </trkpt>
      <trkpt lat="45.9476" lon="4.48296">
        <ele>480</ele>
        <time>2016-09-15T09:50:53Z</time>
      </trkpt>
      <trkpt lat="45.94759" lon="4.48295">
        <ele>480</ele>
        <time>2016-09-15T09:50:54Z</time>
      </trkpt>
      <trkpt lat="45.9475" lon="4.48293">
        <ele>480</ele>
        <time>2016-09-15T09:51:01Z</time>
      </trkpt>
      <trkpt lat="45.94749" lon="4.48293">
        <ele>462</ele>
        <time>2016-09-15T09:51:02Z</time>
      </trkpt>
      <trkpt lat="45.94741" lon="4.48292">
        <ele>462</ele>
        <time>2016-09-15T09:51:10Z</time>
      </trkpt>
      <trkpt lat="45.9474" lon="4.48292">
        <ele>462</ele>
        <time>2016-09-15T09:51:11Z</time>
      </trkpt>
      <trkpt lat="45.94733" lon="4.48286">
        <ele>463</ele>
        <time>2016-09-15T09:51:17Z</time>
      </trkpt>
      <trkpt lat="45.94731" lon="4.48285">
        <ele>463</ele>
        <time>2016-09-15T09:51:18Z</time>
      </trkpt>
      <trkpt lat="45.94724" lon="4.48281">
        <ele>463</ele>
        <time>2016-09-15T09:51:25Z</time>
      </trkpt>
      <trkpt lat="45.94723" lon="4.4828">
        <ele>463</ele>
        <time>2016-09-15T09:51:26Z</time>
      </trkpt>
      <trkpt lat="45.94715" lon="4.48275">
        <ele>462</ele>
        <time>2016-09-15T09:51:33Z</time>
      </trkpt>
      <trkpt lat="45.94713" lon="4.48274">
        <ele>462</ele>
        <time>2016-09-15T09:51:34Z</time>
      </trkpt>
      <trkpt lat="45.94706" lon="4.4827">
        <ele>460</ele>
        <time>2016-09-15T09:51:40Z</time>
      </trkpt>
      <trkpt lat="45.94704" lon="4.48269">
        <ele>460</ele>
        <time>2016-09-15T09:51:41Z</time>
      </trkpt>
      <trkpt lat="45.94697" lon="4.48264">
        <ele>459</ele>
        <time>2016-09-15T09:51:46Z</time>
      </trkpt>
      <trkpt lat="45.94696" lon="4.48263">
        <ele>458</ele>
        <time>2016-09-15T09:51:47Z</time>
      </trkpt>
      <trkpt lat="45.94691" lon="4.48253">
        <ele>457</ele>
        <time>2016-09-15T09:51:52Z</time>
      </trkpt>
      <trkpt lat="45.9469" lon="4.4825">
        <ele>457</ele>
        <time>2016-09-15T09:51:53Z</time>
      </trkpt>
      <trkpt lat="45.94684" lon="4.48242">
        <ele>466</ele>
        <time>2016-09-15T09:51:58Z</time>
      </trkpt>
      <trkpt lat="45.94682" lon="4.48241">
        <ele>466</ele>
        <time>2016-09-15T09:51:59Z</time>
      </trkpt>
      <trkpt lat="45.94677" lon="4.48234">
        <ele>466</ele>
        <time>2016-09-15T09:52:04Z</time>
      </trkpt>
      <trkpt lat="45.94675" lon="4.48232">
        <ele>467</ele>
        <time>2016-09-15T09:52:05Z</time>
      </trkpt>
      <trkpt lat="45.94668" lon="4.48225">
        <ele>470</ele>
        <time>2016-09-15T09:52:11Z</time>
      </trkpt>
      <trkpt lat="45.94667" lon="4.48224">
        <ele>470</ele>
        <time>2016-09-15T09:52:12Z</time>
      </trkpt>
      <trkpt lat="45.9466" lon="4.48218">
        <ele>457</ele>
        <time>2016-09-15T09:52:18Z</time>
      </trkpt>
      <trkpt lat="45.94659" lon="4.48217">
        <ele>457</ele>
        <time>2016-09-15T09:52:19Z</time>
      </trkpt>
      <trkpt lat="45.94652" lon="4.4821">
        <ele>458</ele>
        <time>2016-09-15T09:52:27Z</time>
      </trkpt>
      <trkpt lat="45.94651" lon="4.4821">
        <ele>458</ele>
        <time>2016-09-15T09:52:28Z</time>
      </trkpt>
      <trkpt lat="45.94643" lon="4.4821">
        <ele>458</ele>
        <time>2016-09-15T09:52:37Z</time>
      </trkpt>
      <trkpt lat="45.94641" lon="4.4821">
        <ele>458</ele>
        <time>2016-09-15T09:52:38Z</time>
      </trkpt>
      <trkpt lat="45.94632" lon="4.4821">
        <ele>457</ele>
        <time>2016-09-15T09:52:46Z</time>
      </trkpt>
      <trkpt lat="45.94631" lon="4.4821">
        <ele>457</ele>
        <time>2016-09-15T09:52:47Z</time>
      </trkpt>
      <trkpt lat="45.94622" lon="4.48213">
        <ele>455</ele>
        <time>2016-09-15T09:54:14Z</time>
      </trkpt>
      <trkpt lat="45.94621" lon="4.48212">
        <ele>455</ele>
        <time>2016-09-15T09:54:15Z</time>
      </trkpt>
      <trkpt lat="45.94614" lon="4.48207">
        <ele>455</ele>
        <time>2016-09-15T09:54:21Z</time>
      </trkpt>
      <trkpt lat="45.94613" lon="4.48206">
        <ele>455</ele>
        <time>2016-09-15T09:54:22Z</time>
      </trkpt>
      <trkpt lat="45.94605" lon="4.48202">
        <ele>455</ele>
        <time>2016-09-15T09:54:28Z</time>
      </trkpt>
      <trkpt lat="45.94604" lon="4.48202">
        <ele>455</ele>
        <time>2016-09-15T09:54:29Z</time>
      </trkpt>
      <trkpt lat="45.94597" lon="4.48196">
        <ele>455</ele>
        <time>2016-09-15T09:54:35Z</time>
      </trkpt>
      <trkpt lat="45.94596" lon="4.48196">
        <ele>455</ele>
        <time>2016-09-15T09:54:36Z</time>
      </trkpt>
      <trkpt lat="45.94588" lon="4.48191">
        <ele>455</ele>
        <time>2016-09-15T09:54:43Z</time>
      </trkpt>
      <trkpt lat="45.94587" lon="4.4819">
        <ele>455</ele>
        <time>2016-09-15T09:54:44Z</time>
      </trkpt>
      <trkpt lat="45.9458" lon="4.48184">
        <ele>449</ele>
        <time>2016-09-15T09:54:50Z</time>
      </trkpt>
      <trkpt lat="45.94579" lon="4.48184">
        <ele>449</ele>
        <time>2016-09-15T09:54:51Z</time>
      </trkpt>
      <trkpt lat="45.9457" lon="4.48183">
        <ele>448</ele>
        <time>2016-09-15T09:54:59Z</time>
      </trkpt>
      <trkpt lat="45.94568" lon="4.48183">
        <ele>448</ele>
        <time>2016-09-15T09:55:00Z</time>
      </trkpt>
      <trkpt lat="45.9456" lon="4.48182">
        <ele>447</ele>
        <time>2016-09-15T09:55:07Z</time>
      </trkpt>
      <trkpt lat="45.94559" lon="4.48183">
        <ele>447</ele>
        <time>2016-09-15T09:55:08Z</time>
      </trkpt>
      <trkpt lat="45.94551" lon="4.48177">
        <ele>446</ele>
        <time>2016-09-15T09:55:14Z</time>
      </trkpt>
      <trkpt lat="45.9455" lon="4.48176">
        <ele>446</ele>
        <time>2016-09-15T09:55:15Z</time>
      </trkpt>
      <trkpt lat="45.94542" lon="4.48173">
        <ele>445</ele>
        <time>2016-09-15T09:55:21Z</time>
      </trkpt>
      <trkpt lat="45.94541" lon="4.48173">
        <ele>445</ele>
        <time>2016-09-15T09:55:22Z</time>
      </trkpt>
      <trkpt lat="45.94534" lon="4.48167">
        <ele>444</ele>
        <time>2016-09-15T09:55:27Z</time>
      </trkpt>
      <trkpt lat="45.94533" lon="4.48166">
        <ele>455</ele>
        <time>2016-09-15T09:55:28Z</time>
      </trkpt>
      <trkpt lat="45.94524" lon="4.48163">
        <ele>453</ele>
        <time>2016-09-15T09:55:35Z</time>
      </trkpt>
      <trkpt lat="45.94522" lon="4.48163">
        <ele>452</ele>
        <time>2016-09-15T09:55:36Z</time>
      </trkpt>
      <trkpt lat="45.94514" lon="4.48165">
        <ele>448</ele>
        <time>2016-09-15T09:55:42Z</time>
      </trkpt>
      <trkpt lat="45.94512" lon="4.48165">
        <ele>448</ele>
        <time>2016-09-15T09:55:43Z</time>
      </trkpt>
      <trkpt lat="45.94504" lon="4.48163">
        <ele>443</ele>
        <time>2016-09-15T09:55:50Z</time>
      </trkpt>
      <trkpt lat="45.94502" lon="4.48162">
        <ele>443</ele>
        <time>2016-09-15T09:55:51Z</time>
      </trkpt>
      <trkpt lat="45.94493" lon="4.48162">
        <ele>441</ele>
        <time>2016-09-15T09:55:58Z</time>
      </trkpt>
      <trkpt lat="45.94492" lon="4.48162">
        <ele>441</ele>
        <time>2016-09-15T09:55:59Z</time>
      </trkpt>
      <trkpt lat="45.94485" lon="4.48158">
        <ele>443</ele>
        <time>2016-09-15T09:56:05Z</time>
      </trkpt>
      <trkpt lat="45.94484" lon="4.48157">
        <ele>443</ele>
        <time>2016-09-15T09:56:06Z</time>
      </trkpt>
      <trkpt lat="45.94476" lon="4.48154">
        <ele>444</ele>
        <time>2016-09-15T09:56:12Z</time>
      </trkpt>
      <trkpt lat="45.94475" lon="4.48153">
        <ele>444</ele>
        <time>2016-09-15T09:56:13Z</time>
      </trkpt>
      <trkpt lat="45.94469" lon="4.48144">
        <ele>445</ele>
        <time>2016-09-15T09:56:28Z</time>
      </trkpt>
      <trkpt lat="45.94469" lon="4.48143">
        <ele>445</ele>
        <time>2016-09-15T09:56:29Z</time>
      </trkpt>
      <trkpt lat="45.9446" lon="4.48145">
        <ele>444</ele>
        <time>2016-09-15T09:56:50Z</time>
      </trkpt>
      <trkpt lat="45.9446" lon="4.48145">
        <ele>444</ele>
        <time>2016-09-15T09:56:51Z</time>
      </trkpt>
      <trkpt lat="45.94452" lon="4.48152">
        <ele>443</ele>
        <time>2016-09-15T09:57:42Z</time>
      </trkpt>
      <trkpt lat="45.94452" lon="4.48153">
        <ele>443</ele>
        <time>2016-09-15T09:57:43Z</time>
      </trkpt>
      <trkpt lat="45.94444" lon="4.48159">
        <ele>441</ele>
        <time>2016-09-15T09:57:57Z</time>
      </trkpt>
      <trkpt lat="45.94443" lon="4.4816">
        <ele>441</ele>
        <time>2016-09-15T09:57:58Z</time>
      </trkpt>
      <trkpt lat="45.94434" lon="4.48158">
        <ele>439</ele>
        <time>2016-09-15T09:58:12Z</time>
      </trkpt>
      <trkpt lat="45.94434" lon="4.48157">
        <ele>439</ele>
        <time>2016-09-15T09:58:13Z</time>
      </trkpt>
      <trkpt lat="45.94426" lon="4.48156">
        <ele>438</ele>
        <time>2016-09-15T09:58:26Z</time>
      </trkpt>
      <trkpt lat="45.94424" lon="4.48155">
        <ele>437</ele>
        <time>2016-09-15T09:58:27Z</time>
      </trkpt>
      <trkpt lat="45.94415" lon="4.48156">
        <ele>433</ele>
        <time>2016-09-15T09:58:34Z</time>
      </trkpt>
      <trkpt lat="45.94414" lon="4.48156">
        <ele>433</ele>
        <time>2016-09-15T09:58:35Z</time>
      </trkpt>
      <trkpt lat="45.94406" lon="4.48158">
        <ele>433</ele>
        <time>2016-09-15T09:58:43Z</time>
      </trkpt>
      <trkpt lat="45.94405" lon="4.48158">
        <ele>433</ele>
        <time>2016-09-15T09:58:44Z</time>
      </trkpt>
      <trkpt lat="45.94397" lon="4.4816">
        <ele>434</ele>
        <time>2016-09-15T09:58:53Z</time>
      </trkpt>
      <trkpt lat="45.94396" lon="4.4816">
        <ele>434</ele>
        <time>2016-09-15T09:58:54Z</time>
      </trkpt>
      <trkpt lat="45.94388" lon="4.48164">
        <ele>434</ele>
        <time>2016-09-15T09:59:04Z</time>
      </trkpt>
      <trkpt lat="45.94387" lon="4.48164">
        <ele>434</ele>
        <time>2016-09-15T09:59:05Z</time>
      </trkpt>
      <trkpt lat="45.94379" lon="4.48169">
        <ele>441</ele>
        <time>2016-09-15T09:59:16Z</time>
      </trkpt>
      <trkpt lat="45.94378" lon="4.4817">
        <ele>442</ele>
        <time>2016-09-15T09:59:17Z</time>
      </trkpt>
      <trkpt lat="45.9437" lon="4.48173">
        <ele>442</ele>
        <time>2016-09-15T09:59:29Z</time>
      </trkpt>
      <trkpt lat="45.94369" lon="4.48173">
        <ele>442</ele>
        <time>2016-09-15T09:59:30Z</time>
      </trkpt>
      <trkpt lat="45.9436" lon="4.48177">
        <ele>442</ele>
        <time>2016-09-15T09:59:42Z</time>
      </trkpt>
      <trkpt lat="45.94359" lon="4.48177">
        <ele>442</ele>
        <time>2016-09-15T09:59:43Z</time>
      </trkpt>
      <trkpt lat="45.94352" lon="4.48183">
        <ele>443</ele>
        <time>2016-09-15T09:59:55Z</time>
      </trkpt>
      <trkpt lat="45.94351" lon="4.48184">
        <ele>443</ele>
        <time>2016-09-15T09:59:56Z</time>
      </trkpt>
      <trkpt lat="45.94344" lon="4.4819">
        <ele>443</ele>
        <time>2016-09-15T10:00:06Z</time>
      </trkpt>
      <trkpt lat="45.94343" lon="4.48191">
        <ele>444</ele>
        <time>2016-09-15T10:00:07Z</time>
      </trkpt>
      <trkpt lat="45.94336" lon="4.48197">
        <ele>445</ele>
        <time>2016-09-15T10:00:17Z</time>
      </trkpt>
      <trkpt lat="45.94336" lon="4.48198">
        <ele>445</ele>
        <time>2016-09-15T10:00:18Z</time>
      </trkpt>
      <trkpt lat="45.94329" lon="4.48205">
        <ele>452</ele>
        <time>2016-09-15T10:00:31Z</time>
      </trkpt>
      <trkpt lat="45.94328" lon="4.48206">
        <ele>453</ele>
        <time>2016-09-15T10:00:32Z</time>
      </trkpt>
      <trkpt lat="45.94321" lon="4.48212">
        <ele>454</ele>
        <time>2016-09-15T10:00:45Z</time>
      </trkpt>
      <trkpt lat="45.9432" lon="4.48212">
        <ele>454</ele>
        <time>2016-09-15T10:00:46Z</time>
      </trkpt>
      <trkpt lat="45.94313" lon="4.48217">
        <ele>456</ele>
        <time>2016-09-15T10:00:57Z</time>
      </trkpt>
      <trkpt lat="45.94312" lon="4.48218">
        <ele>456</ele>
        <time>2016-09-15T10:00:58Z</time>
      </trkpt>
      <trkpt lat="45.94304" lon="4.48222">
        <ele>457</ele>
        <time>2016-09-15T10:01:09Z</time>
      </trkpt>
      <trkpt lat="45.94303" lon="4.48222">
        <ele>457</ele>
        <time>2016-09-15T10:01:10Z</time>
      </trkpt>
      <trkpt lat="45.94295" lon="4.48217">
        <ele>456</ele>
        <time>2016-09-15T10:01:24Z</time>
      </trkpt>
      <trkpt lat="45.94295" lon="4.48217">
        <ele>456</ele>
        <time>2016-09-15T10:01:25Z</time>
      </trkpt>
      <trkpt lat="45.94289" lon="4.48207">
        <ele>455</ele>
        <time>2016-09-15T10:01:37Z</time>
      </trkpt>
      <trkpt lat="45.94288" lon="4.48207">
        <ele>455</ele>
        <time>2016-09-15T10:01:38Z</time>
      </trkpt>
      <trkpt lat="45.94281" lon="4.48199">
        <ele>454</ele>
        <time>2016-09-15T10:01:53Z</time>
      </trkpt>
      <trkpt lat="45.94281" lon="4.48198">
        <ele>454</ele>
        <time>2016-09-15T10:01:54Z</time>
      </trkpt>
      <trkpt lat="45.94273" lon="4.48193">
        <ele>454</ele>
        <time>2016-09-15T10:02:14Z</time>
      </trkpt>
      <trkpt lat="45.94272" lon="4.48193">
        <ele>454</ele>
        <time>2016-09-15T10:02:15Z</time>
      </trkpt>
      <trkpt lat="45.94264" lon="4.48191">
        <ele>453</ele>
        <time>2016-09-15T10:02:22Z</time>
      </trkpt>
      <trkpt lat="45.94263" lon="4.48191">
        <ele>453</ele>
        <time>2016-09-15T10:02:23Z</time>
      </trkpt>
      <trkpt lat="45.94254" lon="4.4819">
        <ele>453</ele>
        <time>2016-09-15T10:02:29Z</time>
      </trkpt>
      <trkpt lat="45.94253" lon="4.4819">
        <ele>453</ele>
        <time>2016-09-15T10:02:30Z</time>
      </trkpt>
      <trkpt lat="45.94245" lon="4.4819">
        <ele>458</ele>
        <time>2016-09-15T10:02:35Z</time>
      </trkpt>
      <trkpt lat="45.94243" lon="4.48191">
        <ele>458</ele>
        <time>2016-09-15T10:02:36Z</time>
      </trkpt>
      <trkpt lat="45.94234" lon="4.48191">
        <ele>459</ele>
        <time>2016-09-15T10:02:41Z</time>
      </trkpt>
      <trkpt lat="45.94232" lon="4.48191">
        <ele>460</ele>
        <time>2016-09-15T10:02:42Z</time>
      </trkpt>
      <trkpt lat="45.94224" lon="4.48193">
        <ele>461</ele>
        <time>2016-09-15T10:02:49Z</time>
      </trkpt>
      <trkpt lat="45.94223" lon="4.48193">
        <ele>461</ele>
        <time>2016-09-15T10:02:50Z</time>
      </trkpt>
      <trkpt lat="45.94215" lon="4.48196">
        <ele>462</ele>
        <time>2016-09-15T10:03:01Z</time>
      </trkpt>
      <trkpt lat="45.94214" lon="4.48196">
        <ele>462</ele>
        <time>2016-09-15T10:03:02Z</time>
      </trkpt>
      <trkpt lat="45.94206" lon="4.48197">
        <ele>463</ele>
        <time>2016-09-15T10:03:10Z</time>
      </trkpt>
      <trkpt lat="45.94205" lon="4.48197">
        <ele>463</ele>
        <time>2016-09-15T10:03:11Z</time>
      </trkpt>
      <trkpt lat="45.94197" lon="4.48199">
        <ele>463</ele>
        <time>2016-09-15T10:03:21Z</time>
      </trkpt>
      <trkpt lat="45.94196" lon="4.48199">
        <ele>463</ele>
        <time>2016-09-15T10:03:22Z</time>
      </trkpt>
      <trkpt lat="45.94187" lon="4.48201">
        <ele>464</ele>
        <time>2016-09-15T10:03:33Z</time>
      </trkpt>
      <trkpt lat="45.94187" lon="4.48202">
        <ele>464</ele>
        <time>2016-09-15T10:03:34Z</time>
      </trkpt>
      <trkpt lat="45.94178" lon="4.48202">
        <ele>464</ele>
        <time>2016-09-15T10:03:46Z</time>
      </trkpt>
      <trkpt lat="45.94177" lon="4.48202">
        <ele>464</ele>
        <time>2016-09-15T10:03:47Z</time>
      </trkpt>
      <trkpt lat="45.94169" lon="4.48206">
        <ele>465</ele>
        <time>2016-09-15T10:03:57Z</time>
      </trkpt>
      <trkpt lat="45.94168" lon="4.48206">
        <ele>465</ele>
        <time>2016-09-15T10:03:58Z</time>
      </trkpt>
      <trkpt lat="45.9416" lon="4.48209">
        <ele>470</ele>
        <time>2016-09-15T10:04:08Z</time>
      </trkpt>
      <trkpt lat="45.94159" lon="4.48209">
        <ele>470</ele>
        <time>2016-09-15T10:04:09Z</time>
      </trkpt>
      <trkpt lat="45.94152" lon="4.48215">
        <ele>471</ele>
        <time>2016-09-15T10:04:24Z</time>
      </trkpt>
      <trkpt lat="45.94151" lon="4.48217">
        <ele>472</ele>
        <time>2016-09-15T10:04:25Z</time>
      </trkpt>
      <trkpt lat="45.94143" lon="4.48222">
        <ele>472</ele>
        <time>2016-09-15T10:04:41Z</time>
      </trkpt>
      <trkpt lat="45.94143" lon="4.48223">
        <ele>473</ele>
        <time>2016-09-15T10:04:42Z</time>
      </trkpt>
      <trkpt lat="45.94137" lon="4.48231">
        <ele>474</ele>
        <time>2016-09-15T10:04:53Z</time>
      </trkpt>
      <trkpt lat="45.94136" lon="4.48232">
        <ele>474</ele>
        <time>2016-09-15T10:04:54Z</time>
      </trkpt>
      <trkpt lat="45.94128" lon="4.48236">
        <ele>474</ele>
        <time>2016-09-15T10:05:04Z</time>
      </trkpt>
      <trkpt lat="45.94127" lon="4.48236">
        <ele>474</ele>
        <time>2016-09-15T10:05:05Z</time>
      </trkpt>
      <trkpt lat="45.94119" lon="4.48238">
        <ele>475</ele>
        <time>2016-09-15T10:05:16Z</time>
      </trkpt>
      <trkpt lat="45.94118" lon="4.48238">
        <ele>475</ele>
        <time>2016-09-15T10:05:17Z</time>
      </trkpt>
      <trkpt lat="45.9411" lon="4.4824">
        <ele>476</ele>
        <time>2016-09-15T10:05:26Z</time>
      </trkpt>
      <trkpt lat="45.94109" lon="4.48241">
        <ele>476</ele>
        <time>2016-09-15T10:05:27Z</time>
      </trkpt>
      <trkpt lat="45.94101" lon="4.48244">
        <ele>478</ele>
        <time>2016-09-15T10:05:36Z</time>
      </trkpt>
      <trkpt lat="45.941" lon="4.48245">
        <ele>478</ele>
        <time>2016-09-15T10:05:37Z</time>
      </trkpt>
      <trkpt lat="45.94092" lon="4.48249">
        <ele>480</ele>
        <time>2016-09-15T10:05:46Z</time>
      </trkpt>
      <trkpt lat="45.94091" lon="4.48249">
        <ele>481</ele>
        <time>2016-09-15T10:05:47Z</time>
      </trkpt>
      <trkpt lat="45.94083" lon="4.48255">
        <ele>485</ele>
        <time>2016-09-15T10:05:56Z</time>
      </trkpt>
      <trkpt lat="45.94083" lon="4.48255">
        <ele>485</ele>
        <time>2016-09-15T10:05:57Z</time>
      </trkpt>
      <trkpt lat="45.94074" lon="4.48258">
        <ele>486</ele>
        <time>2016-09-15T10:06:42Z</time>
      </trkpt>
      <trkpt lat="45.94073" lon="4.48259">
        <ele>486</ele>
        <time>2016-09-15T10:06:43Z</time>
      </trkpt>
      <trkpt lat="45.94066" lon="4.48266">
        <ele>487</ele>
        <time>2016-09-15T10:06:51Z</time>
      </trkpt>
      <trkpt lat="45.94065" lon="4.48267">
        <ele>487</ele>
        <time>2016-09-15T10:06:52Z</time>
      </trkpt>
      <trkpt lat="45.94059" lon="4.48275">
        <ele>488</ele>
        <time>2016-09-15T10:07:02Z</time>
      </trkpt>
      <trkpt lat="45.94058" lon="4.48276">
        <ele>488</ele>
        <time>2016-09-15T10:07:03Z</time>
      </trkpt>
      <trkpt lat="45.94051" lon="4.4828">
        <ele>488</ele>
        <time>2016-09-15T10:07:13Z</time>
      </trkpt>
      <trkpt lat="45.9405" lon="4.48281">
        <ele>488</ele>
        <time>2016-09-15T10:07:14Z</time>
      </trkpt>
      <trkpt lat="45.94044" lon="4.48291">
        <ele>489</ele>
        <time>2016-09-15T10:07:23Z</time>
      </trkpt>
      <trkpt lat="45.94043" lon="4.48292">
        <ele>489</ele>
        <time>2016-09-15T10:07:24Z</time>
      </trkpt>
      <trkpt lat="45.94037" lon="4.483">
        <ele>489</ele>
        <time>2016-09-15T10:07:33Z</time>
      </trkpt>
      <trkpt lat="45.94036" lon="4.483">
        <ele>489</ele>
        <time>2016-09-15T10:07:34Z</time>
      </trkpt>
      <trkpt lat="45.9403" lon="4.48308">
        <ele>490</ele>
        <time>2016-09-15T10:07:42Z</time>
      </trkpt>
      <trkpt lat="45.94029" lon="4.48309">
        <ele>490</ele>
        <time>2016-09-15T10:07:43Z</time>
      </trkpt>
      <trkpt lat="45.94025" lon="4.48319">
        <ele>491</ele>
        <time>2016-09-15T10:07:51Z</time>
      </trkpt>
      <trkpt lat="45.94024" lon="4.48321">
        <ele>491</ele>
        <time>2016-09-15T10:07:52Z</time>
      </trkpt>
      <trkpt lat="45.9402" lon="4.48331">
        <ele>491</ele>
        <time>2016-09-15T10:08:01Z</time>
      </trkpt>
      <trkpt lat="45.94019" lon="4.48332">
        <ele>491</ele>
        <time>2016-09-15T10:08:02Z</time>
      </trkpt>
      <trkpt lat="45.94016" lon="4.48342">
        <ele>501</ele>
        <time>2016-09-15T10:08:12Z</time>
      </trkpt>
      <trkpt lat="45.94016" lon="4.48344">
        <ele>501</ele>
        <time>2016-09-15T10:08:13Z</time>
      </trkpt>
      <trkpt lat="45.94022" lon="4.48352">
        <ele>503</ele>
        <time>2016-09-15T10:08:30Z</time>
      </trkpt>
      <trkpt lat="45.94023" lon="4.48351">
        <ele>503</ele>
        <time>2016-09-15T10:08:31Z</time>
      </trkpt>
      <trkpt lat="45.94031" lon="4.48348">
        <ele>504</ele>
        <time>2016-09-15T10:08:43Z</time>
      </trkpt>
      <trkpt lat="45.94032" lon="4.48348">
        <ele>504</ele>
        <time>2016-09-15T10:08:44Z</time>
      </trkpt>
      <trkpt lat="45.94039" lon="4.48348">
        <ele>505</ele>
        <time>2016-09-15T10:08:52Z</time>
      </trkpt>
      <trkpt lat="45.94041" lon="4.48348">
        <ele>505</ele>
        <time>2016-09-15T10:08:53Z</time>
      </trkpt>
      <trkpt lat="45.94049" lon="4.48347">
        <ele>506</ele>
        <time>2016-09-15T10:09:01Z</time>
      </trkpt>
      <trkpt lat="45.9405" lon="4.48347">
        <ele>506</ele>
        <time>2016-09-15T10:09:02Z</time>
      </trkpt>
      <trkpt lat="45.94058" lon="4.48346">
        <ele>506</ele>
        <time>2016-09-15T10:09:10Z</time>
      </trkpt>
      <trkpt lat="45.94059" lon="4.48345">
        <ele>506</ele>
        <time>2016-09-15T10:09:11Z</time>
      </trkpt>
      <trkpt lat="45.94067" lon="4.48343">
        <ele>505</ele>
        <time>2016-09-15T10:09:21Z</time>
      </trkpt>
      <trkpt lat="45.94068" lon="4.48343">
        <ele>505</ele>
        <time>2016-09-15T10:09:22Z</time>
      </trkpt>
      <trkpt lat="45.94077" lon="4.48344">
        <ele>505</ele>
        <time>2016-09-15T10:09:30Z</time>
      </trkpt>
      <trkpt lat="45.94078" lon="4.48344">
        <ele>505</ele>
        <time>2016-09-15T10:09:31Z</time>
      </trkpt>
      <trkpt lat="45.94086" lon="4.48345">
        <ele>507</ele>
        <time>2016-09-15T10:09:44Z</time>
      </trkpt>
      <trkpt lat="45.94087" lon="4.48345">
        <ele>507</ele>
        <time>2016-09-15T10:09:45Z</time>
      </trkpt>
      <trkpt lat="45.94096" lon="4.48347">
        <ele>508</ele>
        <time>2016-09-15T10:09:53Z</time>
      </trkpt>
      <trkpt lat="45.94097" lon="4.48347">
        <ele>509</ele>
        <time>2016-09-15T10:09:54Z</time>
      </trkpt>
      <trkpt lat="45.94105" lon="4.4835">
        <ele>510</ele>
        <time>2016-09-15T10:10:02Z</time>
      </trkpt>
      <trkpt lat="45.94106" lon="4.48351">
        <ele>510</ele>
        <time>2016-09-15T10:10:03Z</time>
      </trkpt>
      <trkpt lat="45.94114" lon="4.48354">
        <ele>511</ele>
        <time>2016-09-15T10:10:13Z</time>
      </trkpt>
      <trkpt lat="45.94115" lon="4.48353">
        <ele>511</ele>
        <time>2016-09-15T10:10:14Z</time>
      </trkpt>
      <trkpt lat="45.94123" lon="4.48358">
        <ele>511</ele>
        <time>2016-09-15T10:10:27Z</time>
      </trkpt>
      <trkpt lat="45.94124" lon="4.48358">
        <ele>511</ele>
        <time>2016-09-15T10:10:28Z</time>
      </trkpt>
      <trkpt lat="45.94131" lon="4.48365">
        <ele>512</ele>
        <time>2016-09-15T10:10:37Z</time>
      </trkpt>
      <trkpt lat="45.94132" lon="4.48366">
        <ele>512</ele>
        <time>2016-09-15T10:10:38Z</time>
      </trkpt>
      <trkpt lat="45.94139" lon="4.48373">
        <ele>513</ele>
        <time>2016-09-15T10:10:46Z</time>
      </trkpt>
      <trkpt lat="45.94139" lon="4.48374">
        <ele>513</ele>
        <time>2016-09-15T10:10:47Z</time>
      </trkpt>
      <trkpt lat="45.94138" lon="4.48387">
        <ele>515</ele>
        <time>2016-09-15T10:11:00Z</time>
      </trkpt>
      <trkpt lat="45.94137" lon="4.48387">
        <ele>515</ele>
        <time>2016-09-15T10:11:01Z</time>
      </trkpt>
      <trkpt lat="45.94129" lon="4.48393">
        <ele>516</ele>
        <time>2016-09-15T10:11:16Z</time>
      </trkpt>
      <trkpt lat="45.94129" lon="4.48393">
        <ele>516</ele>
        <time>2016-09-15T10:11:17Z</time>
      </trkpt>
      <trkpt lat="45.94124" lon="4.48403">
        <ele>517</ele>
        <time>2016-09-15T10:11:29Z</time>
      </trkpt>
      <trkpt lat="45.94123" lon="4.48404">
        <ele>517</ele>
        <time>2016-09-15T10:11:30Z</time>
      </trkpt>
      <trkpt lat="45.94115" lon="4.48409">
        <ele>518</ele>
        <time>2016-09-15T10:11:43Z</time>
      </trkpt>
      <trkpt lat="45.94115" lon="4.48409">
        <ele>518</ele>
        <time>2016-09-15T10:11:44Z</time>
      </trkpt>
      <trkpt lat="45.94106" lon="4.48414">
        <ele>519</ele>
        <time>2016-09-15T10:11:58Z</time>
      </trkpt>
      <trkpt lat="45.94106" lon="4.48415">
        <ele>519</ele>
        <time>2016-09-15T10:11:59Z</time>
      </trkpt>
      <trkpt lat="45.94099" lon="4.48422">
        <ele>530</ele>
        <time>2016-09-15T10:12:10Z</time>
      </trkpt>
      <trkpt lat="45.94099" lon="4.48423">
        <ele>530</ele>
        <time>2016-09-15T10:12:11Z</time>
      </trkpt>
      <trkpt lat="45.94094" lon="4.48434">
        <ele>531</ele>
        <time>2016-09-15T10:12:22Z</time>
      </trkpt>
      <trkpt lat="45.94093" lon="4.48435">
        <ele>532</ele>
        <time>2016-09-15T10:12:23Z</time>
      </trkpt>
      <trkpt lat="45.94088" lon="4.48445">
        <ele>534</ele>
        <time>2016-09-15T10:12:34Z</time>
      </trkpt>
      <trkpt lat="45.94088" lon="4.48446">
        <ele>534</ele>
        <time>2016-09-15T10:12:35Z</time>
      </trkpt>
      <trkpt lat="45.94082" lon="4.48455">
        <ele>530</ele>
        <time>2016-09-15T10:12:47Z</time>
      </trkpt>
      <trkpt lat="45.94081" lon="4.48456">
        <ele>530</ele>
        <time>2016-09-15T10:12:48Z</time>
      </trkpt>
      <trkpt lat="45.94076" lon="4.48466">
        <ele>532</ele>
        <time>2016-09-15T10:13:01Z</time>
      </trkpt>
      <trkpt lat="45.94075" lon="4.48467">
        <ele>532</ele>
        <time>2016-09-15T10:13:02Z</time>
      </trkpt>
      <trkpt lat="45.94071" lon="4.48478">
        <ele>534</ele>
        <time>2016-09-15T10:13:12Z</time>
      </trkpt>
      <trkpt lat="45.9407" lon="4.48479">
        <ele>534</ele>
        <time>2016-09-15T10:13:13Z</time>
      </trkpt>
      <trkpt lat="45.94066" lon="4.4849">
        <ele>536</ele>
        <time>2016-09-15T10:13:23Z</time>
      </trkpt>
      <trkpt lat="45.94066" lon="4.48491">
        <ele>536</ele>
        <time>2016-09-15T10:13:24Z</time>
      </trkpt>
      <trkpt lat="45.9406" lon="4.48499">
        <ele>535</ele>
        <time>2016-09-15T10:13:32Z</time>
      </trkpt>
      <trkpt lat="45.9406" lon="4.48501">
        <ele>545</ele>
        <time>2016-09-15T10:13:33Z</time>
      </trkpt>
      <trkpt lat="45.94056" lon="4.48512">
        <ele>545</ele>
        <time>2016-09-15T10:13:41Z</time>
      </trkpt>
      <trkpt lat="45.94056" lon="4.48512">
        <ele>545</ele>
        <time>2016-09-15T10:13:42Z</time>
      </trkpt>
      <trkpt lat="45.94051" lon="4.48522">
        <ele>545</ele>
        <time>2016-09-15T10:13:52Z</time>
      </trkpt>
      <trkpt lat="45.94051" lon="4.48523">
        <ele>545</ele>
        <time>2016-09-15T10:13:53Z</time>
      </trkpt>
      <trkpt lat="45.94046" lon="4.48534">
        <ele>546</ele>
        <time>2016-09-15T10:14:03Z</time>
      </trkpt>
      <trkpt lat="45.94046" lon="4.48534">
        <ele>546</ele>
        <time>2016-09-15T10:14:04Z</time>
      </trkpt>
      <trkpt lat="45.94041" lon="4.48545">
        <ele>546</ele>
        <time>2016-09-15T10:14:15Z</time>
      </trkpt>
      <trkpt lat="45.94041" lon="4.48546">
        <ele>547</ele>
        <time>2016-09-15T10:14:16Z</time>
      </trkpt>
      <trkpt lat="45.94038" lon="4.48557">
        <ele>547</ele>
        <time>2016-09-15T10:14:25Z</time>
      </trkpt>
      <trkpt lat="45.94037" lon="4.48558">
        <ele>547</ele>
        <time>2016-09-15T10:14:26Z</time>
      </trkpt>
      <trkpt lat="45.94033" lon="4.48569">
        <ele>548</ele>
        <time>2016-09-15T10:14:34Z</time>
      </trkpt>
      <trkpt lat="45.94033" lon="4.48571">
        <ele>548</ele>
        <time>2016-09-15T10:14:35Z</time>
      </trkpt>
      <trkpt lat="45.94027" lon="4.48581">
        <ele>548</ele>
        <time>2016-09-15T10:14:43Z</time>
      </trkpt>
      <trkpt lat="45.94027" lon="4.48582">
        <ele>548</ele>
        <time>2016-09-15T10:14:44Z</time>
      </trkpt>
      <trkpt lat="45.94021" lon="4.48591">
        <ele>556</ele>
        <time>2016-09-15T10:14:52Z</time>
      </trkpt>
      <trkpt lat="45.94021" lon="4.48592">
        <ele>557</ele>
        <time>2016-09-15T10:14:53Z</time>
      </trkpt>
      <trkpt lat="45.94018" lon="4.48603">
        <ele>558</ele>
        <time>2016-09-15T10:15:01Z</time>
      </trkpt>
      <trkpt lat="45.94018" lon="4.48605">
        <ele>558</ele>
        <time>2016-09-15T10:15:02Z</time>
      </trkpt>
      <trkpt lat="45.94013" lon="4.48615">
        <ele>559</ele>
        <time>2016-09-15T10:15:10Z</time>
      </trkpt>
      <trkpt lat="45.94013" lon="4.48617">
        <ele>559</ele>
        <time>2016-09-15T10:15:11Z</time>
      </trkpt>
      <trkpt lat="45.94009" lon="4.48627">
        <ele>561</ele>
        <time>2016-09-15T10:15:19Z</time>
      </trkpt>
      <trkpt lat="45.94009" lon="4.48628">
        <ele>561</ele>
        <time>2016-09-15T10:15:20Z</time>
      </trkpt>
      <trkpt lat="45.94005" lon="4.48639">
        <ele>562</ele>
        <time>2016-09-15T10:15:30Z</time>
      </trkpt>
      <trkpt lat="45.94004" lon="4.4864">
        <ele>562</ele>
        <time>2016-09-15T10:15:31Z</time>
      </trkpt>
      <trkpt lat="45.94" lon="4.48651">
        <ele>557</ele>
        <time>2016-09-15T10:15:41Z</time>
      </trkpt>
      <trkpt lat="45.93999" lon="4.48652">
        <ele>557</ele>
        <time>2016-09-15T10:15:42Z</time>
      </trkpt>
      <trkpt lat="45.93993" lon="4.48661">
        <ele>559</ele>
        <time>2016-09-15T10:15:52Z</time>
      </trkpt>
      <trkpt lat="45.93993" lon="4.48662">
        <ele>559</ele>
        <time>2016-09-15T10:15:53Z</time>
      </trkpt>
      <trkpt lat="45.93989" lon="4.48674">
        <ele>563</ele>
        <time>2016-09-15T10:16:04Z</time>
      </trkpt>
      <trkpt lat="45.93989" lon="4.48675">
        <ele>563</ele>
        <time>2016-09-15T10:16:05Z</time>
      </trkpt>
      <trkpt lat="45.93981" lon="4.48681">
        <ele>564</ele>
        <time>2016-09-15T10:16:16Z</time>
      </trkpt>
      <trkpt lat="45.93981" lon="4.48682">
        <ele>564</ele>
        <time>2016-09-15T10:16:17Z</time>
      </trkpt>
      <trkpt lat="45.93976" lon="4.48692">
        <ele>565</ele>
        <time>2016-09-15T10:16:29Z</time>
      </trkpt>
      <trkpt lat="45.93975" lon="4.48693">
        <ele>565</ele>
        <time>2016-09-15T10:16:30Z</time>
      </trkpt>
      <trkpt lat="45.93973" lon="4.48706">
        <ele>566</ele>
        <time>2016-09-15T10:16:39Z</time>
      </trkpt>
      <trkpt lat="45.93973" lon="4.48707">
        <ele>566</ele>
        <time>2016-09-15T10:16:40Z</time>
      </trkpt>
      <trkpt lat="45.9397" lon="4.48718">
        <ele>567</ele>
        <time>2016-09-15T10:16:50Z</time>
      </trkpt>
      <trkpt lat="45.9397" lon="4.48719">
        <ele>567</ele>
        <time>2016-09-15T10:16:51Z</time>
      </trkpt>
      <trkpt lat="45.93967" lon="4.48731">
        <ele>568</ele>
        <time>2016-09-15T10:17:00Z</time>
      </trkpt>
      <trkpt lat="45.93967" lon="4.48731">
        <ele>568</ele>
        <time>2016-09-15T10:17:01Z</time>
      </trkpt>
      <trkpt lat="45.93962" lon="4.48742">
        <ele>568</ele>
        <time>2016-09-15T10:17:13Z</time>
      </trkpt>
      <trkpt lat="45.93961" lon="4.48743">
        <ele>568</ele>
        <time>2016-09-15T10:17:14Z</time>
      </trkpt>
      <trkpt lat="45.93958" lon="4.48754">
        <ele>572</ele>
        <time>2016-09-15T10:17:25Z</time>
      </trkpt>
      <trkpt lat="45.93958" lon="4.48755">
        <ele>572</ele>
        <time>2016-09-15T10:17:26Z</time>
      </trkpt>
      <trkpt lat="45.93957" lon="4.48768">
        <ele>572</ele>
        <time>2016-09-15T10:17:35Z</time>
      </trkpt>
      <trkpt lat="45.93957" lon="4.48769">
        <ele>572</ele>
        <time>2016-09-15T10:17:36Z</time>
      </trkpt>
      <trkpt lat="45.93958" lon="4.48781">
        <ele>572</ele>
        <time>2016-09-15T10:17:46Z</time>
      </trkpt>
      <trkpt lat="45.93958" lon="4.48782">
        <ele>572</ele>
        <time>2016-09-15T10:17:47Z</time>
      </trkpt>
      <trkpt lat="45.93962" lon="4.48793">
        <ele>572</ele>
        <time>2016-09-15T10:17:56Z</time>
      </trkpt>
      <trkpt lat="45.93963" lon="4.48794">
        <ele>572</ele>
        <time>2016-09-15T10:17:57Z</time>
      </trkpt>
      <trkpt lat="45.93971" lon="4.488">
        <ele>573</ele>
        <time>2016-09-15T10:18:06Z</time>
      </trkpt>
      <trkpt lat="45.93971" lon="4.48801">
        <ele>573</ele>
        <time>2016-09-15T10:18:07Z</time>
      </trkpt>
      <trkpt lat="45.93979" lon="4.48805">
        <ele>574</ele>
        <time>2016-09-15T10:18:17Z</time>
      </trkpt>
      <trkpt lat="45.9398" lon="4.48805">
        <ele>574</ele>
        <time>2016-09-15T10:18:18Z</time>
      </trkpt>
      <trkpt lat="45.93988" lon="4.48809">
        <ele>575</ele>
        <time>2016-09-15T10:54:33Z</time>
      </trkpt>
      <trkpt lat="45.93989" lon="4.48809">
        <ele>575</ele>
        <time>2016-09-15T10:54:34Z</time>
      </trkpt>
      <trkpt lat="45.93997" lon="4.48812">
        <ele>576</ele>
        <time>2016-09-15T10:54:45Z</time>
      </trkpt>
      <trkpt lat="45.93998" lon="4.48813">
        <ele>576</ele>
        <time>2016-09-15T10:54:46Z</time>
      </trkpt>
      <trkpt lat="45.94006" lon="4.48818">
        <ele>585</ele>
        <time>2016-09-15T10:54:58Z</time>
      </trkpt>
      <trkpt lat="45.94007" lon="4.48818">
        <ele>585</ele>
        <time>2016-09-15T10:54:59Z</time>
      </trkpt>
      <trkpt lat="45.94014" lon="4.48826">
        <ele>585</ele>
        <time>2016-09-15T10:55:17Z</time>
      </trkpt>
      <trkpt lat="45.94015" lon="4.48827">
        <ele>585</ele>
        <time>2016-09-15T10:55:18Z</time>
      </trkpt>
      <trkpt lat="45.94022" lon="4.48833">
        <ele>587</ele>
        <time>2016-09-15T10:55:26Z</time>
      </trkpt>
      <trkpt lat="45.94023" lon="4.48834">
        <ele>587</ele>
        <time>2016-09-15T10:55:27Z</time>
      </trkpt>
      <trkpt lat="45.94029" lon="4.48843">
        <ele>588</ele>
        <time>2016-09-15T10:55:39Z</time>
      </trkpt>
      <trkpt lat="45.9403" lon="4.48843">
        <ele>588</ele>
        <time>2016-09-15T10:55:40Z</time>
      </trkpt>
      <trkpt lat="45.94036" lon="4.4885">
        <ele>590</ele>
        <time>2016-09-15T10:55:56Z</time>
      </trkpt>
      <trkpt lat="45.94037" lon="4.48851">
        <ele>590</ele>
        <time>2016-09-15T10:55:57Z</time>
      </trkpt>
      <trkpt lat="45.94043" lon="4.4886">
        <ele>591</ele>
        <time>2016-09-15T10:56:04Z</time>
      </trkpt>
      <trkpt lat="45.94044" lon="4.4886">
        <ele>591</ele>
        <time>2016-09-15T10:56:05Z</time>
      </trkpt>
      <trkpt lat="45.94049" lon="4.48869">
        <ele>591</ele>
        <time>2016-09-15T10:56:13Z</time>
      </trkpt>
      <trkpt lat="45.9405" lon="4.48871">
        <ele>591</ele>
        <time>2016-09-15T10:56:14Z</time>
      </trkpt>
      <trkpt lat="45.94054" lon="4.48881">
        <ele>592</ele>
        <time>2016-09-15T10:56:21Z</time>
      </trkpt>
      <trkpt lat="45.94055" lon="4.48882">
        <ele>592</ele>
        <time>2016-09-15T10:56:22Z</time>
      </trkpt>
      <trkpt lat="45.94062" lon="4.4889">
        <ele>593</ele>
        <time>2016-09-15T10:56:30Z</time>
      </trkpt>
      <trkpt lat="45.94063" lon="4.48892">
        <ele>593</ele>
        <time>2016-09-15T10:56:31Z</time>
      </trkpt>
      <trkpt lat="45.94069" lon="4.48901">
        <ele>595</ele>
        <time>2016-09-15T10:56:39Z</time>
      </trkpt>
      <trkpt lat="45.9407" lon="4.48902">
        <ele>596</ele>
        <time>2016-09-15T10:56:40Z</time>
      </trkpt>
      <trkpt lat="45.94076" lon="4.48909">
        <ele>598</ele>
        <time>2016-09-15T10:56:47Z</time>
      </trkpt>
      <trkpt lat="45.94078" lon="4.4891">
        <ele>599</ele>
        <time>2016-09-15T10:56:48Z</time>
      </trkpt>
      <trkpt lat="45.94084" lon="4.48918">
        <ele>604</ele>
        <time>2016-09-15T10:56:59Z</time>
      </trkpt>
      <trkpt lat="45.94085" lon="4.48919">
        <ele>604</ele>
        <time>2016-09-15T10:57:00Z</time>
      </trkpt>
      <trkpt lat="45.94091" lon="4.48926">
        <ele>607</ele>
        <time>2016-09-15T10:57:07Z</time>
      </trkpt>
      <trkpt lat="45.94092" lon="4.48927">
        <ele>607</ele>
        <time>2016-09-15T10:57:08Z</time>
      </trkpt>
      <trkpt lat="45.94099" lon="4.48934">
        <ele>610</ele>
        <time>2016-09-15T10:57:18Z</time>
      </trkpt>
      <trkpt lat="45.941" lon="4.48936">
        <ele>610</ele>
        <time>2016-09-15T10:57:19Z</time>
      </trkpt>
      <trkpt lat="45.94105" lon="4.48945">
        <ele>611</ele>
        <time>2016-09-15T10:57:26Z</time>
      </trkpt>
      <trkpt lat="45.94106" lon="4.48946">
        <ele>611</ele>
        <time>2016-09-15T10:57:27Z</time>
      </trkpt>
      <trkpt lat="45.94112" lon="4.48953">
        <ele>612</ele>
        <time>2016-09-15T10:57:36Z</time>
      </trkpt>
      <trkpt lat="45.94112" lon="4.48954">
        <ele>612</ele>
        <time>2016-09-15T10:57:37Z</time>
      </trkpt>
      <trkpt lat="45.94117" lon="4.48964">
        <ele>613</ele>
        <time>2016-09-15T10:57:46Z</time>
      </trkpt>
      <trkpt lat="45.94118" lon="4.48965">
        <ele>613</ele>
        <time>2016-09-15T10:57:47Z</time>
      </trkpt>
      <trkpt lat="45.9412" lon="4.48976">
        <ele>613</ele>
        <time>2016-09-15T10:57:56Z</time>
      </trkpt>
      <trkpt lat="45.9412" lon="4.48977">
        <ele>613</ele>
        <time>2016-09-15T10:57:57Z</time>
      </trkpt>
      <trkpt lat="45.94123" lon="4.48989">
        <ele>613</ele>
        <time>2016-09-15T10:58:11Z</time>
      </trkpt>
      <trkpt lat="45.94122" lon="4.4899">
        <ele>613</ele>
        <time>2016-09-15T10:58:12Z</time>
      </trkpt>
      <trkpt lat="45.94122" lon="4.49002">
        <ele>612</ele>
        <time>2016-09-15T10:58:23Z</time>
      </trkpt>
      <trkpt lat="45.94122" lon="4.49004">
        <ele>612</ele>
        <time>2016-09-15T10:58:24Z</time>
      </trkpt>
      <trkpt lat="45.94121" lon="4.49015">
        <ele>611</ele>
        <time>2016-09-15T10:58:32Z</time>
      </trkpt>
      <trkpt lat="45.94122" lon="4.49018">
        <ele>612</ele>
        <time>2016-09-15T10:58:33Z</time>
      </trkpt>
      <trkpt lat="45.94122" lon="4.4903">
        <ele>612</ele>
        <time>2016-09-15T10:58:39Z</time>
      </trkpt>
      <trkpt lat="45.94122" lon="4.49031">
        <ele>612</ele>
        <time>2016-09-15T10:58:40Z</time>
      </trkpt>
      <trkpt lat="45.94124" lon="4.49041">
        <ele>612</ele>
        <time>2016-09-15T10:58:45Z</time>
      </trkpt>
      <trkpt lat="45.94124" lon="4.49044">
        <ele>613</ele>
        <time>2016-09-15T10:58:46Z</time>
      </trkpt>
      <trkpt lat="45.94123" lon="4.49056">
        <ele>612</ele>
        <time>2016-09-15T10:58:52Z</time>
      </trkpt>
      <trkpt lat="45.94122" lon="4.49059">
        <ele>612</ele>
        <time>2016-09-15T10:58:53Z</time>
      </trkpt>
      <trkpt lat="45.9412" lon="4.49071">
        <ele>612</ele>
        <time>2016-09-15T10:58:59Z</time>
      </trkpt>
      <trkpt lat="45.9412" lon="4.49072">
        <ele>612</ele>
        <time>2016-09-15T10:59:00Z</time>
      </trkpt>
      <trkpt lat="45.94116" lon="4.49081">
        <ele>611</ele>
        <time>2016-09-15T10:59:05Z</time>
      </trkpt>
      <trkpt lat="45.94114" lon="4.49083">
        <ele>610</ele>
        <time>2016-09-15T10:59:06Z</time>
      </trkpt>
      <trkpt lat="45.94109" lon="4.49093">
        <ele>613</ele>
        <time>2016-09-15T10:59:11Z</time>
      </trkpt>
      <trkpt lat="45.94109" lon="4.49095">
        <ele>613</ele>
        <time>2016-09-15T10:59:12Z</time>
      </trkpt>
      <trkpt lat="45.94104" lon="4.49104">
        <ele>613</ele>
        <time>2016-09-15T10:59:17Z</time>
      </trkpt>
      <trkpt lat="45.94103" lon="4.49106">
        <ele>613</ele>
        <time>2016-09-15T10:59:18Z</time>
      </trkpt>
      <trkpt lat="45.94099" lon="4.49116">
        <ele>614</ele>
        <time>2016-09-15T10:59:23Z</time>
      </trkpt>
      <trkpt lat="45.94098" lon="4.49118">
        <ele>614</ele>
        <time>2016-09-15T10:59:24Z</time>
      </trkpt>
      <trkpt lat="45.94094" lon="4.49128">
        <ele>615</ele>
        <time>2016-09-15T10:59:30Z</time>
      </trkpt>
      <trkpt lat="45.94093" lon="4.49129">
        <ele>615</ele>
        <time>2016-09-15T10:59:31Z</time>
      </trkpt>
      <trkpt lat="45.94085" lon="4.49135">
        <ele>614</ele>
        <time>2016-09-15T10:59:37Z</time>
      </trkpt>
      <trkpt lat="45.94084" lon="4.49136">
        <ele>614</ele>
        <time>2016-09-15T10:59:38Z</time>
      </trkpt>
      <trkpt lat="45.94077" lon="4.49143">
        <ele>599</ele>
        <time>2016-09-15T10:59:45Z</time>
      </trkpt>
      <trkpt lat="45.94075" lon="4.49143">
        <ele>599</ele>
        <time>2016-09-15T10:59:46Z</time>
      </trkpt>
      <trkpt lat="45.94068" lon="4.4915">
        <ele>599</ele>
        <time>2016-09-15T10:59:52Z</time>
      </trkpt>
      <trkpt lat="45.94067" lon="4.49152">
        <ele>599</ele>
        <time>2016-09-15T10:59:53Z</time>
      </trkpt>
      <trkpt lat="45.94062" lon="4.49161">
        <ele>599</ele>
        <time>2016-09-15T10:59:59Z</time>
      </trkpt>
      <trkpt lat="45.94061" lon="4.49161">
        <ele>599</ele>
        <time>2016-09-15T11:00:00Z</time>
      </trkpt>
      <trkpt lat="45.94057" lon="4.49172">
        <ele>605</ele>
        <time>2016-09-15T11:00:06Z</time>
      </trkpt>
      <trkpt lat="45.94057" lon="4.49174">
        <ele>605</ele>
        <time>2016-09-15T11:00:07Z</time>
      </trkpt>
      <trkpt lat="45.94051" lon="4.49184">
        <ele>604</ele>
        <time>2016-09-15T11:00:14Z</time>
      </trkpt>
      <trkpt lat="45.94051" lon="4.49186">
        <ele>604</ele>
        <time>2016-09-15T11:00:15Z</time>
      </trkpt>
      <trkpt lat="45.94051" lon="4.49198">
        <ele>605</ele>
        <time>2016-09-15T11:00:20Z</time>
      </trkpt>
      <trkpt lat="45.94051" lon="4.492">
        <ele>605</ele>
        <time>2016-09-15T11:00:21Z</time>
      </trkpt>
      <trkpt lat="45.9405" lon="4.49212">
        <ele>606</ele>
        <time>2016-09-15T11:00:31Z</time>
      </trkpt>
      <trkpt lat="45.94049" lon="4.49213">
        <ele>606</ele>
        <time>2016-09-15T11:00:32Z</time>
      </trkpt>
      <trkpt lat="45.94046" lon="4.49225">
        <ele>606</ele>
        <time>2016-09-15T11:00:39Z</time>
      </trkpt>
      <trkpt lat="45.94045" lon="4.49226">
        <ele>606</ele>
        <time>2016-09-15T11:00:40Z</time>
      </trkpt>
      <trkpt lat="45.94043" lon="4.49238">
        <ele>607</ele>
        <time>2016-09-15T11:00:52Z</time>
      </trkpt>
      <trkpt lat="45.94043" lon="4.4924">
        <ele>607</ele>
        <time>2016-09-15T11:00:53Z</time>
      </trkpt>
      <trkpt lat="45.94039" lon="4.49251">
        <ele>615</ele>
        <time>2016-09-15T11:01:00Z</time>
      </trkpt>
      <trkpt lat="45.94038" lon="4.49253">
        <ele>615</ele>
        <time>2016-09-15T11:01:01Z</time>
      </trkpt>
      <trkpt lat="45.94032" lon="4.49262">
        <ele>614</ele>
        <time>2016-09-15T11:01:10Z</time>
      </trkpt>
      <trkpt lat="45.94031" lon="4.49263">
        <ele>614</ele>
        <time>2016-09-15T11:01:11Z</time>
      </trkpt>
      <trkpt lat="45.94026" lon="4.49273">
        <ele>614</ele>
        <time>2016-09-15T11:01:20Z</time>
      </trkpt>
      <trkpt lat="45.94026" lon="4.49275">
        <ele>614</ele>
        <time>2016-09-15T11:01:21Z</time>
      </trkpt>
      <trkpt lat="45.94023" lon="4.49285">
        <ele>615</ele>
        <time>2016-09-15T11:01:28Z</time>
      </trkpt>
      <trkpt lat="45.94022" lon="4.49287">
        <ele>615</ele>
        <time>2016-09-15T11:01:29Z</time>
      </trkpt>
      <trkpt lat="45.94019" lon="4.49298">
        <ele>616</ele>
        <time>2016-09-15T11:01:35Z</time>
      </trkpt>
      <trkpt lat="45.94019" lon="4.49299">
        <ele>616</ele>
        <time>2016-09-15T11:01:36Z</time>
      </trkpt>
      <trkpt lat="45.94011" lon="4.49307">
        <ele>616</ele>
        <time>2016-09-15T11:01:44Z</time>
      </trkpt>
      <trkpt lat="45.94011" lon="4.49308">
        <ele>616</ele>
        <time>2016-09-15T11:01:45Z</time>
      </trkpt>
      <trkpt lat="45.94005" lon="4.49317">
        <ele>616</ele>
        <time>2016-09-15T11:01:53Z</time>
      </trkpt>
      <trkpt lat="45.94004" lon="4.49318">
        <ele>616</ele>
        <time>2016-09-15T11:01:54Z</time>
      </trkpt>
      <trkpt lat="45.93999" lon="4.49327">
        <ele>612</ele>
        <time>2016-09-15T11:02:01Z</time>
      </trkpt>
      <trkpt lat="45.93998" lon="4.49328">
        <ele>612</ele>
        <time>2016-09-15T11:02:02Z</time>
      </trkpt>
      <trkpt lat="45.93992" lon="4.49334">
        <ele>615</ele>
        <time>2016-09-15T11:02:09Z</time>
      </trkpt>
      <trkpt lat="45.93991" lon="4.49335">
        <ele>615</ele>
        <time>2016-09-15T11:02:10Z</time>
      </trkpt>
      <trkpt lat="45.93984" lon="4.49343">
        <ele>614</ele>
        <time>2016-09-15T11:02:18Z</time>
      </trkpt>
      <trkpt lat="45.93984" lon="4.49345">
        <ele>614</ele>
        <time>2016-09-15T11:02:19Z</time>
      </trkpt>
      <trkpt lat="45.93978" lon="4.49353">
        <ele>614</ele>
        <time>2016-09-15T11:02:26Z</time>
      </trkpt>
      <trkpt lat="45.93977" lon="4.49354">
        <ele>614</ele>
        <time>2016-09-15T11:02:27Z</time>
      </trkpt>
      <trkpt lat="45.93971" lon="4.49363">
        <ele>614</ele>
        <time>2016-09-15T11:02:34Z</time>
      </trkpt>
      <trkpt lat="45.9397" lon="4.49365">
        <ele>614</ele>
        <time>2016-09-15T11:02:35Z</time>
      </trkpt>
      <trkpt lat="45.93965" lon="4.49375">
        <ele>614</ele>
        <time>2016-09-15T11:02:42Z</time>
      </trkpt>
      <trkpt lat="45.93964" lon="4.49377">
        <ele>614</ele>
        <time>2016-09-15T11:02:43Z</time>
      </trkpt>
      <trkpt lat="45.9396" lon="4.49386">
        <ele>614</ele>
        <time>2016-09-15T11:02:49Z</time>
      </trkpt>
      <trkpt lat="45.93959" lon="4.49388">
        <ele>615</ele>
        <time>2016-09-15T11:02:50Z</time>
      </trkpt>
      <trkpt lat="45.93953" lon="4.49395">
        <ele>615</ele>
        <time>2016-09-15T11:02:56Z</time>
      </trkpt>
      <trkpt lat="45.93952" lon="4.49396">
        <ele>614</ele>
        <time>2016-09-15T11:02:57Z</time>
      </trkpt>
      <trkpt lat="45.93945" lon="4.49403">
        <ele>614</ele>
        <time>2016-09-15T11:03:03Z</time>
      </trkpt>
      <trkpt lat="45.93944" lon="4.49405">
        <ele>614</ele>
        <time>2016-09-15T11:03:04Z</time>
      </trkpt>
      <trkpt lat="45.93938" lon="4.49412">
        <ele>614</ele>
        <time>2016-09-15T11:03:10Z</time>
      </trkpt>
      <trkpt lat="45.93938" lon="4.49414">
        <ele>614</ele>
        <time>2016-09-15T11:03:11Z</time>
      </trkpt>
      <trkpt lat="45.93933" lon="4.49423">
        <ele>619</ele>
        <time>2016-09-15T11:03:18Z</time>
      </trkpt>
      <trkpt lat="45.93932" lon="4.49425">
        <ele>619</ele>
        <time>2016-09-15T11:03:19Z</time>
      </trkpt>
      <trkpt lat="45.9393" lon="4.49437">
        <ele>620</ele>
        <time>2016-09-15T11:03:27Z</time>
      </trkpt>
      <trkpt lat="45.9393" lon="4.49439">
        <ele>620</ele>
        <time>2016-09-15T11:03:28Z</time>
      </trkpt>
      <trkpt lat="45.93925" lon="4.4945">
        <ele>621</ele>
        <time>2016-09-15T11:03:35Z</time>
      </trkpt>
      <trkpt lat="45.93924" lon="4.49451">
        <ele>621</ele>
        <time>2016-09-15T11:03:36Z</time>
      </trkpt>
      <trkpt lat="45.93917" lon="4.49458">
        <ele>621</ele>
        <time>2016-09-15T11:03:42Z</time>
      </trkpt>
      <trkpt lat="45.93917" lon="4.49459">
        <ele>614</ele>
        <time>2016-09-15T11:03:43Z</time>
      </trkpt>
      <trkpt lat="45.93911" lon="4.49467">
        <ele>614</ele>
        <time>2016-09-15T11:03:49Z</time>
      </trkpt>
      <trkpt lat="45.9391" lon="4.49468">
        <ele>614</ele>
        <time>2016-09-15T11:03:50Z</time>
      </trkpt>
      <trkpt lat="45.93904" lon="4.49477">
        <ele>615</ele>
        <time>2016-09-15T11:03:56Z</time>
      </trkpt>
      <trkpt lat="45.93903" lon="4.49478">
        <ele>615</ele>
        <time>2016-09-15T11:03:57Z</time>
      </trkpt>
      <trkpt lat="45.93897" lon="4.49485">
        <ele>615</ele>
        <time>2016-09-15T11:04:03Z</time>
      </trkpt>
      <trkpt lat="45.93896" lon="4.49487">
        <ele>615</ele>
        <time>2016-09-15T11:04:04Z</time>
      </trkpt>
      <trkpt lat="45.9389" lon="4.49495">
        <ele>615</ele>
        <time>2016-09-15T11:04:10Z</time>
      </trkpt>
      <trkpt lat="45.93889" lon="4.49496">
        <ele>614</ele>
        <time>2016-09-15T11:04:11Z</time>
      </trkpt>
      <trkpt lat="45.93883" lon="4.49506">
        <ele>617</ele>
        <time>2016-09-15T11:04:18Z</time>
      </trkpt>
      <trkpt lat="45.93883" lon="4.49507">
        <ele>617</ele>
        <time>2016-09-15T11:04:19Z</time>
      </trkpt>
      <trkpt lat="45.93879" lon="4.49518">
        <ele>617</ele>
        <time>2016-09-15T11:04:26Z</time>
      </trkpt>
      <trkpt lat="45.93879" lon="4.4952">
        <ele>617</ele>
        <time>2016-09-15T11:04:27Z</time>
      </trkpt>
      <trkpt lat="45.93875" lon="4.49531">
        <ele>617</ele>
        <time>2016-09-15T11:04:34Z</time>
      </trkpt>
      <trkpt lat="45.93874" lon="4.49532">
        <ele>616</ele>
        <time>2016-09-15T11:04:35Z</time>
      </trkpt>
      <trkpt lat="45.93869" lon="4.49543">
        <ele>616</ele>
        <time>2016-09-15T11:04:42Z</time>
      </trkpt>
      <trkpt lat="45.93868" lon="4.49544">
        <ele>616</ele>
        <time>2016-09-15T11:04:43Z</time>
      </trkpt>
      <trkpt lat="45.93863" lon="4.49553">
        <ele>616</ele>
        <time>2016-09-15T11:04:50Z</time>
      </trkpt>
      <trkpt lat="45.93862" lon="4.49554">
        <ele>616</ele>
        <time>2016-09-15T11:04:51Z</time>
      </trkpt>
      <trkpt lat="45.93855" lon="4.49562">
        <ele>616</ele>
        <time>2016-09-15T11:04:58Z</time>
      </trkpt>
      <trkpt lat="45.93854" lon="4.49563">
        <ele>616</ele>
        <time>2016-09-15T11:04:59Z</time>
      </trkpt>
      <trkpt lat="45.93846" lon="4.49568">
        <ele>615</ele>
        <time>2016-09-15T11:05:06Z</time>
      </trkpt>
      <trkpt lat="45.93845" lon="4.49569">
        <ele>615</ele>
        <time>2016-09-15T11:05:07Z</time>
      </trkpt>
      <trkpt lat="45.93839" lon="4.49578">
        <ele>614</ele>
        <time>2016-09-15T11:05:13Z</time>
      </trkpt>
      <trkpt lat="45.93838" lon="4.49579">
        <ele>614</ele>
        <time>2016-09-15T11:05:14Z</time>
      </trkpt>
      <trkpt lat="45.93833" lon="4.49588">
        <ele>612</ele>
        <time>2016-09-15T11:05:20Z</time>
      </trkpt>
      <trkpt lat="45.93832" lon="4.4959">
        <ele>612</ele>
        <time>2016-09-15T11:05:21Z</time>
      </trkpt>
      <trkpt lat="45.93827" lon="4.49599">
        <ele>610</ele>
        <time>2016-09-15T11:05:28Z</time>
      </trkpt>
      <trkpt lat="45.93826" lon="4.49601">
        <ele>610</ele>
        <time>2016-09-15T11:05:29Z</time>
      </trkpt>
      <trkpt lat="45.9382" lon="4.4961">
        <ele>609</ele>
        <time>2016-09-15T11:05:35Z</time>
      </trkpt>
      <trkpt lat="45.93819" lon="4.49611">
        <ele>609</ele>
        <time>2016-09-15T11:05:36Z</time>
      </trkpt>
      <trkpt lat="45.93814" lon="4.49621">
        <ele>609</ele>
        <time>2016-09-15T11:05:45Z</time>
      </trkpt>
      <trkpt lat="45.93813" lon="4.49622">
        <ele>609</ele>
        <time>2016-09-15T11:05:46Z</time>
      </trkpt>
      <trkpt lat="45.93806" lon="4.49628">
        <ele>609</ele>
        <time>2016-09-15T11:05:54Z</time>
      </trkpt>
      <trkpt lat="45.93805" lon="4.49629">
        <ele>609</ele>
        <time>2016-09-15T11:05:55Z</time>
      </trkpt>
      <trkpt lat="45.938" lon="4.49639">
        <ele>608</ele>
        <time>2016-09-15T11:06:04Z</time>
      </trkpt>
      <trkpt lat="45.938" lon="4.49641">
        <ele>608</ele>
        <time>2016-09-15T11:06:05Z</time>
      </trkpt>
      <trkpt lat="45.93795" lon="4.49651">
        <ele>608</ele>
        <time>2016-09-15T11:07:00Z</time>
      </trkpt>
      <trkpt lat="45.93795" lon="4.49652">
        <ele>608</ele>
        <time>2016-09-15T11:07:01Z</time>
      </trkpt>
      <trkpt lat="45.93791" lon="4.49663">
        <ele>608</ele>
        <time>2016-09-15T11:07:09Z</time>
      </trkpt>
      <trkpt lat="45.9379" lon="4.49664">
        <ele>608</ele>
        <time>2016-09-15T11:07:10Z</time>
      </trkpt>
      <trkpt lat="45.93787" lon="4.49675">
        <ele>608</ele>
        <time>2016-09-15T11:07:17Z</time>
      </trkpt>
      <trkpt lat="45.93787" lon="4.49677">
        <ele>608</ele>
        <time>2016-09-15T11:07:18Z</time>
      </trkpt>
      <trkpt lat="45.93783" lon="4.49687">
        <ele>608</ele>
        <time>2016-09-15T11:07:30Z</time>
      </trkpt>
      <trkpt lat="45.93782" lon="4.49688">
        <ele>608</ele>
        <time>2016-09-15T11:07:31Z</time>
      </trkpt>
      <trkpt lat="45.93777" lon="4.49698">
        <ele>607</ele>
        <time>2016-09-15T11:07:43Z</time>
      </trkpt>
      <trkpt lat="45.93777" lon="4.49699">
        <ele>607</ele>
        <time>2016-09-15T11:07:44Z</time>
      </trkpt>
      <trkpt lat="45.93774" lon="4.49711">
        <ele>607</ele>
        <time>2016-09-15T11:07:53Z</time>
      </trkpt>
      <trkpt lat="45.93774" lon="4.49712">
        <ele>607</ele>
        <time>2016-09-15T11:07:54Z</time>
      </trkpt>
      <trkpt lat="45.93772" lon="4.49725">
        <ele>607</ele>
        <time>2016-09-15T11:08:03Z</time>
      </trkpt>
      <trkpt lat="45.93772" lon="4.49727">
        <ele>607</ele>
        <time>2016-09-15T11:08:04Z</time>
      </trkpt>
      <trkpt lat="45.93769" lon="4.49738">
        <ele>607</ele>
        <time>2016-09-15T11:08:12Z</time>
      </trkpt>
      <trkpt lat="45.93769" lon="4.4974">
        <ele>607</ele>
        <time>2016-09-15T11:08:13Z</time>
      </trkpt>
      <trkpt lat="45.93767" lon="4.49752">
        <ele>604</ele>
        <time>2016-09-15T11:08:20Z</time>
      </trkpt>
      <trkpt lat="45.93766" lon="4.49753">
        <ele>604</ele>
        <time>2016-09-15T11:08:21Z</time>
      </trkpt>
      <trkpt lat="45.93763" lon="4.49763">
        <ele>603</ele>
        <time>2016-09-15T11:08:27Z</time>
      </trkpt>
      <trkpt lat="45.93762" lon="4.49765">
        <ele>603</ele>
        <time>2016-09-15T11:08:28Z</time>
      </trkpt>
      <trkpt lat="45.93758" lon="4.49776">
        <ele>602</ele>
        <time>2016-09-15T11:08:35Z</time>
      </trkpt>
      <trkpt lat="45.93757" lon="4.49777">
        <ele>601</ele>
        <time>2016-09-15T11:08:36Z</time>
      </trkpt>
      <trkpt lat="45.93752" lon="4.49786">
        <ele>600</ele>
        <time>2016-09-15T11:09:02Z</time>
      </trkpt>
      <trkpt lat="45.93751" lon="4.49788">
        <ele>600</ele>
        <time>2016-09-15T11:09:03Z</time>
      </trkpt>
      <trkpt lat="45.93748" lon="4.49798">
        <ele>603</ele>
        <time>2016-09-15T11:09:09Z</time>
      </trkpt>
      <trkpt lat="45.93747" lon="4.498">
        <ele>603</ele>
        <time>2016-09-15T11:09:10Z</time>
      </trkpt>
      <trkpt lat="45.93741" lon="4.49809">
        <ele>602</ele>
        <time>2016-09-15T11:09:16Z</time>
      </trkpt>
      <trkpt lat="45.9374" lon="4.49811">
        <ele>602</ele>
        <time>2016-09-15T11:09:17Z</time>
      </trkpt>
      <trkpt lat="45.93735" lon="4.4982">
        <ele>601</ele>
        <time>2016-09-15T11:09:23Z</time>
      </trkpt>
      <trkpt lat="45.93734" lon="4.49822">
        <ele>601</ele>
        <time>2016-09-15T11:09:24Z</time>
      </trkpt>
      <trkpt lat="45.93728" lon="4.4983">
        <ele>601</ele>
        <time>2016-09-15T11:09:30Z</time>
      </trkpt>
      <trkpt lat="45.93727" lon="4.49831">
        <ele>602</ele>
        <time>2016-09-15T11:09:31Z</time>
      </trkpt>
      <trkpt lat="45.9372" lon="4.4984">
        <ele>599</ele>
        <time>2016-09-15T11:09:38Z</time>
      </trkpt>
      <trkpt lat="45.93719" lon="4.49841">
        <ele>599</ele>
        <time>2016-09-15T11:09:39Z</time>
      </trkpt>
      <trkpt lat="45.93716" lon="4.49852">
        <ele>599</ele>
        <time>2016-09-15T11:09:46Z</time>
      </trkpt>
      <trkpt lat="45.93715" lon="4.49854">
        <ele>599</ele>
        <time>2016-09-15T11:09:47Z</time>
      </trkpt>
      <trkpt lat="45.93712" lon="4.49864">
        <ele>598</ele>
        <time>2016-09-15T11:09:54Z</time>
      </trkpt>
      <trkpt lat="45.93711" lon="4.49866">
        <ele>598</ele>
        <time>2016-09-15T11:09:55Z</time>
      </trkpt>
      <trkpt lat="45.93708" lon="4.49877">
        <ele>598</ele>
        <time>2016-09-15T11:10:03Z</time>
      </trkpt>
      <trkpt lat="45.93707" lon="4.49879">
        <ele>598</ele>
        <time>2016-09-15T11:10:04Z</time>
      </trkpt>
      <trkpt lat="45.93704" lon="4.49889">
        <ele>598</ele>
        <time>2016-09-15T11:10:11Z</time>
      </trkpt>
      <trkpt lat="45.93704" lon="4.49891">
        <ele>598</ele>
        <time>2016-09-15T11:10:12Z</time>
      </trkpt>
      <trkpt lat="45.937" lon="4.49902">
        <ele>598</ele>
        <time>2016-09-15T11:10:20Z</time>
      </trkpt>
      <trkpt lat="45.93699" lon="4.49904">
        <ele>598</ele>
        <time>2016-09-15T11:10:21Z</time>
      </trkpt>
      <trkpt lat="45.93696" lon="4.49915">
        <ele>598</ele>
        <time>2016-09-15T11:10:28Z</time>
      </trkpt>
      <trkpt lat="45.93695" lon="4.49917">
        <ele>598</ele>
        <time>2016-09-15T11:10:29Z</time>
      </trkpt>
      <trkpt lat="45.93692" lon="4.49928">
        <ele>592</ele>
        <time>2016-09-15T11:10:36Z</time>
      </trkpt>
      <trkpt lat="45.93692" lon="4.4993">
        <ele>592</ele>
        <time>2016-09-15T11:10:37Z</time>
      </trkpt>
      <trkpt lat="45.93687" lon="4.49939">
        <ele>591</ele>
        <time>2016-09-15T11:10:44Z</time>
      </trkpt>
      <trkpt lat="45.93687" lon="4.49941">
        <ele>591</ele>
        <time>2016-09-15T11:10:45Z</time>
      </trkpt>
      <trkpt lat="45.93681" lon="4.4995">
        <ele>591</ele>
        <time>2016-09-15T11:10:52Z</time>
      </trkpt>
      <trkpt lat="45.9368" lon="4.49952">
        <ele>591</ele>
        <time>2016-09-15T11:10:53Z</time>
      </trkpt>
      <trkpt lat="45.93676" lon="4.49963">
        <ele>590</ele>
        <time>2016-09-15T11:11:00Z</time>
      </trkpt>
      <trkpt lat="45.93676" lon="4.49965">
        <ele>590</ele>
        <time>2016-09-15T11:11:01Z</time>
      </trkpt>
      <trkpt lat="45.93672" lon="4.49976">
        <ele>589</ele>
        <time>2016-09-15T11:11:08Z</time>
      </trkpt>
      <trkpt lat="45.93671" lon="4.49977">
        <ele>589</ele>
        <time>2016-09-15T11:11:09Z</time>
      </trkpt>
      <trkpt lat="45.93666" lon="4.49986">
        <ele>594</ele>
        <time>2016-09-15T11:11:15Z</time>
      </trkpt>
      <trkpt lat="45.93665" lon="4.49987">
        <ele>594</ele>
        <time>2016-09-15T11:11:16Z</time>
      </trkpt>
      <trkpt lat="45.93659" lon="4.49996">
        <ele>593</ele>
        <time>2016-09-15T11:11:23Z</time>
      </trkpt>
      <trkpt lat="45.93657" lon="4.49996">
        <ele>593</ele>
        <time>2016-09-15T11:11:24Z</time>
      </trkpt>
      <trkpt lat="45.93653" lon="4.50007">
        <ele>588</ele>
        <time>2016-09-15T11:11:31Z</time>
      </trkpt>
      <trkpt lat="45.93653" lon="4.50008">
        <ele>588</ele>
        <time>2016-09-15T11:11:32Z</time>
      </trkpt>
      <trkpt lat="45.93649" lon="4.5002">
        <ele>587</ele>
        <time>2016-09-15T11:11:40Z</time>
      </trkpt>
      <trkpt lat="45.93649" lon="4.50021">
        <ele>587</ele>
        <time>2016-09-15T11:11:41Z</time>
      </trkpt>
      <trkpt lat="45.93644" lon="4.50031">
        <ele>587</ele>
        <time>2016-09-15T11:11:49Z</time>
      </trkpt>
      <trkpt lat="45.93643" lon="4.50033">
        <ele>587</ele>
        <time>2016-09-15T11:11:50Z</time>
      </trkpt>
      <trkpt lat="45.93636" lon="4.50041">
        <ele>586</ele>
        <time>2016-09-15T11:11:57Z</time>
      </trkpt>
      <trkpt lat="45.93635" lon="4.50042">
        <ele>586</ele>
        <time>2016-09-15T11:11:58Z</time>
      </trkpt>
      <trkpt lat="45.93628" lon="4.50051">
        <ele>586</ele>
        <time>2016-09-15T11:12:05Z</time>
      </trkpt>
      <trkpt lat="45.93627" lon="4.50052">
        <ele>586</ele>
        <time>2016-09-15T11:12:06Z</time>
      </trkpt>
      <trkpt lat="45.93622" lon="4.50061">
        <ele>586</ele>
        <time>2016-09-15T11:12:12Z</time>
      </trkpt>
      <trkpt lat="45.93622" lon="4.50062">
        <ele>586</ele>
        <time>2016-09-15T11:12:13Z</time>
      </trkpt>
      <trkpt lat="45.93617" lon="4.50071">
        <ele>586</ele>
        <time>2016-09-15T11:12:20Z</time>
      </trkpt>
      <trkpt lat="45.93616" lon="4.50073">
        <ele>586</ele>
        <time>2016-09-15T11:12:21Z</time>
      </trkpt>
      <trkpt lat="45.93613" lon="4.50083">
        <ele>575</ele>
        <time>2016-09-15T11:12:27Z</time>
      </trkpt>
      <trkpt lat="45.93613" lon="4.50085">
        <ele>575</ele>
        <time>2016-09-15T11:12:28Z</time>
      </trkpt>
      <trkpt lat="45.93609" lon="4.50095">
        <ele>575</ele>
        <time>2016-09-15T11:12:34Z</time>
      </trkpt>
      <trkpt lat="45.93608" lon="4.50096">
        <ele>575</ele>
        <time>2016-09-15T11:12:35Z</time>
      </trkpt>
      <trkpt lat="45.93602" lon="4.50105">
        <ele>575</ele>
        <time>2016-09-15T11:12:43Z</time>
      </trkpt>
      <trkpt lat="45.93601" lon="4.50107">
        <ele>574</ele>
        <time>2016-09-15T11:12:44Z</time>
      </trkpt>
      <trkpt lat="45.93594" lon="4.50115">
        <ele>573</ele>
        <time>2016-09-15T11:12:51Z</time>
      </trkpt>
      <trkpt lat="45.93593" lon="4.50116">
        <ele>573</ele>
        <time>2016-09-15T11:12:52Z</time>
      </trkpt>
      <trkpt lat="45.93588" lon="4.50126">
        <ele>572</ele>
        <time>2016-09-15T11:12:59Z</time>
      </trkpt>
      <trkpt lat="45.93587" lon="4.50127">
        <ele>572</ele>
        <time>2016-09-15T11:13:00Z</time>
      </trkpt>
      <trkpt lat="45.93581" lon="4.50137">
        <ele>581</ele>
        <time>2016-09-15T11:13:07Z</time>
      </trkpt>
      <trkpt lat="45.9358" lon="4.50138">
        <ele>581</ele>
        <time>2016-09-15T11:13:08Z</time>
      </trkpt>
      <trkpt lat="45.93572" lon="4.50145">
        <ele>580</ele>
        <time>2016-09-15T11:13:14Z</time>
      </trkpt>
      <trkpt lat="45.93571" lon="4.50146">
        <ele>579</ele>
        <time>2016-09-15T11:13:15Z</time>
      </trkpt>
      <trkpt lat="45.93566" lon="4.50156">
        <ele>578</ele>
        <time>2016-09-15T11:13:22Z</time>
      </trkpt>
      <trkpt lat="45.93566" lon="4.50157">
        <ele>578</ele>
        <time>2016-09-15T11:13:23Z</time>
      </trkpt>
      <trkpt lat="45.93559" lon="4.50165">
        <ele>579</ele>
        <time>2016-09-15T11:13:31Z</time>
      </trkpt>
      <trkpt lat="45.93558" lon="4.50166">
        <ele>579</ele>
        <time>2016-09-15T11:13:32Z</time>
      </trkpt>
      <trkpt lat="45.93551" lon="4.50174">
        <ele>569</ele>
        <time>2016-09-15T11:13:40Z</time>
      </trkpt>
      <trkpt lat="45.9355" lon="4.50175">
        <ele>569</ele>
        <time>2016-09-15T11:13:41Z</time>
      </trkpt>
      <trkpt lat="45.93545" lon="4.50183">
        <ele>569</ele>
        <time>2016-09-15T11:13:48Z</time>
      </trkpt>
      <trkpt lat="45.93544" lon="4.50184">
        <ele>569</ele>
        <time>2016-09-15T11:13:49Z</time>
      </trkpt>
      <trkpt lat="45.9354" lon="4.50195">
        <ele>568</ele>
        <time>2016-09-15T11:13:56Z</time>
      </trkpt>
      <trkpt lat="45.93539" lon="4.50196">
        <ele>568</ele>
        <time>2016-09-15T11:13:57Z</time>
      </trkpt>
      <trkpt lat="45.93534" lon="4.50206">
        <ele>568</ele>
        <time>2016-09-15T11:14:05Z</time>
      </trkpt>
      <trkpt lat="45.93534" lon="4.50208">
        <ele>568</ele>
        <time>2016-09-15T11:14:06Z</time>
      </trkpt>
      <trkpt lat="45.93528" lon="4.50217">
        <ele>567</ele>
        <time>2016-09-15T11:14:13Z</time>
      </trkpt>
      <trkpt lat="45.93527" lon="4.50218">
        <ele>567</ele>
        <time>2016-09-15T11:14:14Z</time>
      </trkpt>
      <trkpt lat="45.93522" lon="4.50226">
        <ele>567</ele>
        <time>2016-09-15T11:14:20Z</time>
      </trkpt>
      <trkpt lat="45.93521" lon="4.50227">
        <ele>567</ele>
        <time>2016-09-15T11:14:21Z</time>
      </trkpt>
      <trkpt lat="45.93514" lon="4.50234">
        <ele>567</ele>
        <time>2016-09-15T11:14:28Z</time>
      </trkpt>
      <trkpt lat="45.93514" lon="4.50235">
        <ele>567</ele>
        <time>2016-09-15T11:14:29Z</time>
      </trkpt>
      <trkpt lat="45.93508" lon="4.50245">
        <ele>567</ele>
        <time>2016-09-15T11:14:36Z</time>
      </trkpt>
      <trkpt lat="45.93507" lon="4.50246">
        <ele>567</ele>
        <time>2016-09-15T11:14:37Z</time>
      </trkpt>
      <trkpt lat="45.93504" lon="4.50256">
        <ele>563</ele>
        <time>2016-09-15T11:14:43Z</time>
      </trkpt>
      <trkpt lat="45.93503" lon="4.50258">
        <ele>562</ele>
        <time>2016-09-15T11:14:44Z</time>
      </trkpt>
      <trkpt lat="45.93501" lon="4.50269">
        <ele>557</ele>
        <time>2016-09-15T11:14:51Z</time>
      </trkpt>
      <trkpt lat="45.935" lon="4.5027">
        <ele>557</ele>
        <time>2016-09-15T11:14:52Z</time>
      </trkpt>
      <trkpt lat="45.93494" lon="4.50279">
        <ele>563</ele>
        <time>2016-09-15T11:15:00Z</time>
      </trkpt>
      <trkpt lat="45.93493" lon="4.5028">
        <ele>563</ele>
        <time>2016-09-15T11:15:01Z</time>
      </trkpt>
      <trkpt lat="45.93488" lon="4.50289">
        <ele>562</ele>
        <time>2016-09-15T11:15:09Z</time>
      </trkpt>
      <trkpt lat="45.93487" lon="4.50291">
        <ele>562</ele>
        <time>2016-09-15T11:15:10Z</time>
      </trkpt>
      <trkpt lat="45.93482" lon="4.50301">
        <ele>560</ele>
        <time>2016-09-15T11:15:19Z</time>
      </trkpt>
      <trkpt lat="45.93482" lon="4.50303">
        <ele>560</ele>
        <time>2016-09-15T11:15:20Z</time>
      </trkpt>
      <trkpt lat="45.93478" lon="4.50314">
        <ele>559</ele>
        <time>2016-09-15T11:15:29Z</time>
      </trkpt>
      <trkpt lat="45.93478" lon="4.50315">
        <ele>558</ele>
        <time>2016-09-15T11:15:30Z</time>
      </trkpt>
      <trkpt lat="45.93474" lon="4.50326">
        <ele>558</ele>
        <time>2016-09-15T11:15:39Z</time>
      </trkpt>
      <trkpt lat="45.93473" lon="4.50328">
        <ele>558</ele>
        <time>2016-09-15T11:15:40Z</time>
      </trkpt>
      <trkpt lat="45.93471" lon="4.5034">
        <ele>549</ele>
        <time>2016-09-15T11:15:48Z</time>
      </trkpt>
      <trkpt lat="45.93471" lon="4.50342">
        <ele>549</ele>
        <time>2016-09-15T11:15:49Z</time>
      </trkpt>
      <trkpt lat="45.93466" lon="4.50352">
        <ele>548</ele>
        <time>2016-09-15T11:15:57Z</time>
      </trkpt>
      <trkpt lat="45.93465" lon="4.50353">
        <ele>548</ele>
        <time>2016-09-15T11:15:58Z</time>
      </trkpt>
      <trkpt lat="45.9346" lon="4.50363">
        <ele>548</ele>
        <time>2016-09-15T11:16:05Z</time>
      </trkpt>
      <trkpt lat="45.93459" lon="4.50365">
        <ele>548</ele>
        <time>2016-09-15T11:16:06Z</time>
      </trkpt>
      <trkpt lat="45.93454" lon="4.50375">
        <ele>548</ele>
        <time>2016-09-15T11:16:14Z</time>
      </trkpt>
      <trkpt lat="45.93453" lon="4.50376">
        <ele>547</ele>
        <time>2016-09-15T11:16:15Z</time>
      </trkpt>
      <trkpt lat="45.93449" lon="4.50387">
        <ele>547</ele>
        <time>2016-09-15T11:16:23Z</time>
      </trkpt>
      <trkpt lat="45.93449" lon="4.50389">
        <ele>547</ele>
        <time>2016-09-15T11:16:24Z</time>
      </trkpt>
      <trkpt lat="45.93444" lon="4.50398">
        <ele>547</ele>
        <time>2016-09-15T11:16:31Z</time>
      </trkpt>
      <trkpt lat="45.93443" lon="4.504">
        <ele>547</ele>
        <time>2016-09-15T11:16:32Z</time>
      </trkpt>
      <trkpt lat="45.93441" lon="4.50411">
        <ele>546</ele>
        <time>2016-09-15T11:16:40Z</time>
      </trkpt>
      <trkpt lat="45.93441" lon="4.50412">
        <ele>546</ele>
        <time>2016-09-15T11:16:41Z</time>
      </trkpt>
      <trkpt lat="45.93439" lon="4.50424">
        <ele>541</ele>
        <time>2016-09-15T11:16:48Z</time>
      </trkpt>
      <trkpt lat="45.93438" lon="4.50426">
        <ele>541</ele>
        <time>2016-09-15T11:16:49Z</time>
      </trkpt>
      <trkpt lat="45.93434" lon="4.50436">
        <ele>541</ele>
        <time>2016-09-15T11:16:56Z</time>
      </trkpt>
      <trkpt lat="45.93433" lon="4.50437">
        <ele>541</ele>
        <time>2016-09-15T11:16:57Z</time>
      </trkpt>
      <trkpt lat="45.93431" lon="4.50449">
        <ele>540</ele>
        <time>2016-09-15T11:17:05Z</time>
      </trkpt>
      <trkpt lat="45.9343" lon="4.5045">
        <ele>540</ele>
        <time>2016-09-15T11:17:06Z</time>
      </trkpt>
      <trkpt lat="45.93428" lon="4.50462">
        <ele>540</ele>
        <time>2016-09-15T11:17:15Z</time>
      </trkpt>
      <trkpt lat="45.93427" lon="4.50463">
        <ele>540</ele>
        <time>2016-09-15T11:17:16Z</time>
      </trkpt>
      <trkpt lat="45.93423" lon="4.50473">
        <ele>540</ele>
        <time>2016-09-15T11:17:24Z</time>
      </trkpt>
      <trkpt lat="45.93422" lon="4.50475">
        <ele>540</ele>
        <time>2016-09-15T11:17:25Z</time>
      </trkpt>
      <trkpt lat="45.9342" lon="4.50486">
        <ele>541</ele>
        <time>2016-09-15T11:17:32Z</time>
      </trkpt>
      <trkpt lat="45.93419" lon="4.50488">
        <ele>541</ele>
        <time>2016-09-15T11:17:33Z</time>
      </trkpt>
      <trkpt lat="45.93416" lon="4.50499">
        <ele>543</ele>
        <time>2016-09-15T11:17:39Z</time>
      </trkpt>
      <trkpt lat="45.93415" lon="4.505">
        <ele>543</ele>
        <time>2016-09-15T11:17:40Z</time>
      </trkpt>
      <trkpt lat="45.93412" lon="4.50512">
        <ele>542</ele>
        <time>2016-09-15T11:18:56Z</time>
      </trkpt>
      <trkpt lat="45.93412" lon="4.50512">
        <ele>542</ele>
        <time>2016-09-15T11:18:57Z</time>
      </trkpt>
      <trkpt lat="45.93408" lon="4.50524">
        <ele>541</ele>
        <time>2016-09-15T11:19:09Z</time>
      </trkpt>
      <trkpt lat="45.93408" lon="4.50525">
        <ele>541</ele>
        <time>2016-09-15T11:19:10Z</time>
      </trkpt>
      <trkpt lat="45.93405" lon="4.50537">
        <ele>541</ele>
        <time>2016-09-15T11:19:19Z</time>
      </trkpt>
      <trkpt lat="45.93405" lon="4.50539">
        <ele>541</ele>
        <time>2016-09-15T11:19:20Z</time>
      </trkpt>
      <trkpt lat="45.934" lon="4.50548">
        <ele>540</ele>
        <time>2016-09-15T11:19:27Z</time>
      </trkpt>
      <trkpt lat="45.93399" lon="4.5055">
        <ele>540</ele>
        <time>2016-09-15T11:19:28Z</time>
      </trkpt>
      <trkpt lat="45.93394" lon="4.50558">
        <ele>540</ele>
        <time>2016-09-15T11:19:34Z</time>
      </trkpt>
      <trkpt lat="45.93393" lon="4.5056">
        <ele>540</ele>
        <time>2016-09-15T11:19:35Z</time>
      </trkpt>
      <trkpt lat="45.9339" lon="4.50572">
        <ele>540</ele>
        <time>2016-09-15T11:19:41Z</time>
      </trkpt>
      <trkpt lat="45.9339" lon="4.50574">
        <ele>540</ele>
        <time>2016-09-15T11:19:42Z</time>
      </trkpt>
      <trkpt lat="45.93388" lon="4.50585">
        <ele>538</ele>
        <time>2016-09-15T11:19:48Z</time>
      </trkpt>
      <trkpt lat="45.93387" lon="4.50587">
        <ele>538</ele>
        <time>2016-09-15T11:19:49Z</time>
      </trkpt>
      <trkpt lat="45.93386" lon="4.50598">
        <ele>537</ele>
        <time>2016-09-15T11:19:56Z</time>
      </trkpt>
      <trkpt lat="45.93386" lon="4.506">
        <ele>537</ele>
        <time>2016-09-15T11:19:57Z</time>
      </trkpt>
      <trkpt lat="45.93384" lon="4.50612">
        <ele>537</ele>
        <time>2016-09-15T11:20:04Z</time>
      </trkpt>
      <trkpt lat="45.93383" lon="4.50614">
        <ele>537</ele>
        <time>2016-09-15T11:20:05Z</time>
      </trkpt>
      <trkpt lat="45.9338" lon="4.50624">
        <ele>536</ele>
        <time>2016-09-15T11:20:11Z</time>
      </trkpt>
      <trkpt lat="45.93379" lon="4.50626">
        <ele>536</ele>
        <time>2016-09-15T11:20:12Z</time>
      </trkpt>
      <trkpt lat="45.93375" lon="4.50637">
        <ele>536</ele>
        <time>2016-09-15T11:20:19Z</time>
      </trkpt>
      <trkpt lat="45.93375" lon="4.50638">
        <ele>536</ele>
        <time>2016-09-15T11:20:20Z</time>
      </trkpt>
      <trkpt lat="45.93371" lon="4.50648">
        <ele>536</ele>
        <time>2016-09-15T11:20:27Z</time>
      </trkpt>
      <trkpt lat="45.9337" lon="4.5065">
        <ele>536</ele>
        <time>2016-09-15T11:20:28Z</time>
      </trkpt>
      <trkpt lat="45.93366" lon="4.5066">
        <ele>536</ele>
        <time>2016-09-15T11:20:35Z</time>
      </trkpt>
      <trkpt lat="45.93365" lon="4.50662">
        <ele>536</ele>
        <time>2016-09-15T11:20:36Z</time>
      </trkpt>
      <trkpt lat="45.93358" lon="4.5067">
        <ele>533</ele>
        <time>2016-09-15T11:20:42Z</time>
      </trkpt>
      <trkpt lat="45.93357" lon="4.50672">
        <ele>533</ele>
        <time>2016-09-15T11:20:43Z</time>
      </trkpt>
      <trkpt lat="45.93354" lon="4.50681">
        <ele>533</ele>
        <time>2016-09-15T11:20:48Z</time>
      </trkpt>
      <trkpt lat="45.93353" lon="4.50684">
        <ele>533</ele>
        <time>2016-09-15T11:20:49Z</time>
      </trkpt>
      <trkpt lat="45.93349" lon="4.50695">
        <ele>533</ele>
        <time>2016-09-15T11:20:55Z</time>
      </trkpt>
      <trkpt lat="45.93349" lon="4.50697">
        <ele>533</ele>
        <time>2016-09-15T11:20:56Z</time>
      </trkpt>
      <trkpt lat="45.93345" lon="4.50708">
        <ele>532</ele>
        <time>2016-09-15T11:21:02Z</time>
      </trkpt>
      <trkpt lat="45.93344" lon="4.5071">
        <ele>532</ele>
        <time>2016-09-15T11:21:03Z</time>
      </trkpt>
      <trkpt lat="45.9334" lon="4.5072">
        <ele>532</ele>
        <time>2016-09-15T11:21:09Z</time>
      </trkpt>
      <trkpt lat="45.93339" lon="4.50722">
        <ele>532</ele>
        <time>2016-09-15T11:21:10Z</time>
      </trkpt>
      <trkpt lat="45.93334" lon="4.50731">
        <ele>532</ele>
        <time>2016-09-15T11:21:17Z</time>
      </trkpt>
      <trkpt lat="45.93333" lon="4.50733">
        <ele>533</ele>
        <time>2016-09-15T11:21:18Z</time>
      </trkpt>
      <trkpt lat="45.93327" lon="4.50741">
        <ele>533</ele>
        <time>2016-09-15T11:21:24Z</time>
      </trkpt>
      <trkpt lat="45.93327" lon="4.50743">
        <ele>533</ele>
        <time>2016-09-15T11:21:25Z</time>
      </trkpt>
      <trkpt lat="45.93322" lon="4.50752">
        <ele>532</ele>
        <time>2016-09-15T11:21:31Z</time>
      </trkpt>
      <trkpt lat="45.93321" lon="4.50753">
        <ele>532</ele>
        <time>2016-09-15T11:21:32Z</time>
      </trkpt>
      <trkpt lat="45.93316" lon="4.50762">
        <ele>532</ele>
        <time>2016-09-15T11:21:38Z</time>
      </trkpt>
      <trkpt lat="45.93315" lon="4.50763">
        <ele>532</ele>
        <time>2016-09-15T11:21:39Z</time>
      </trkpt>
      <trkpt lat="45.93311" lon="4.50773">
        <ele>531</ele>
        <time>2016-09-15T11:21:45Z</time>
      </trkpt>
      <trkpt lat="45.93311" lon="4.50775">
        <ele>531</ele>
        <time>2016-09-15T11:21:46Z</time>
      </trkpt>
      <trkpt lat="45.93307" lon="4.50786">
        <ele>531</ele>
        <time>2016-09-15T11:21:53Z</time>
      </trkpt>
      <trkpt lat="45.93307" lon="4.50788">
        <ele>531</ele>
        <time>2016-09-15T11:21:54Z</time>
      </trkpt>
      <trkpt lat="45.933" lon="4.5078">
        <ele>531</ele>
        <time>2016-09-15T11:22:02Z</time>
      </trkpt>
      <trkpt lat="45.93299" lon="4.50779">
        <ele>531</ele>
        <time>2016-09-15T11:22:03Z</time>
      </trkpt>
      <trkpt lat="45.93303" lon="4.5079">
        <ele>531</ele>
        <time>2016-09-15T11:23:10Z</time>
      </trkpt>
      <trkpt lat="45.93303" lon="4.50792">
        <ele>531</ele>
        <time>2016-09-15T11:23:11Z</time>
      </trkpt>
      <trkpt lat="45.933" lon="4.50801">
        <ele>531</ele>
        <time>2016-09-15T11:23:17Z</time>
      </trkpt>
      <trkpt lat="45.93299" lon="4.50803">
        <ele>531</ele>
        <time>2016-09-15T11:23:18Z</time>
      </trkpt>
      <trkpt lat="45.93295" lon="4.50814">
        <ele>530</ele>
        <time>2016-09-15T11:23:24Z</time>
      </trkpt>
      <trkpt lat="45.93295" lon="4.50816">
        <ele>530</ele>
        <time>2016-09-15T11:23:25Z</time>
      </trkpt>
      <trkpt lat="45.9329" lon="4.50825">
        <ele>530</ele>
        <time>2016-09-15T11:23:31Z</time>
      </trkpt>
      <trkpt lat="45.93289" lon="4.50826">
        <ele>530</ele>
        <time>2016-09-15T11:23:32Z</time>
      </trkpt>
      <trkpt lat="45.93286" lon="4.50837">
        <ele>526</ele>
        <time>2016-09-15T11:23:38Z</time>
      </trkpt>
      <trkpt lat="45.93285" lon="4.50839">
        <ele>526</ele>
        <time>2016-09-15T11:23:39Z</time>
      </trkpt>
      <trkpt lat="45.93284" lon="4.5085">
        <ele>525</ele>
        <time>2016-09-15T11:23:45Z</time>
      </trkpt>
      <trkpt lat="45.93283" lon="4.50852">
        <ele>525</ele>
        <time>2016-09-15T11:23:46Z</time>
      </trkpt>
      <trkpt lat="45.93279" lon="4.50863">
        <ele>525</ele>
        <time>2016-09-15T11:23:53Z</time>
      </trkpt>
      <trkpt lat="45.93278" lon="4.50864">
        <ele>525</ele>
        <time>2016-09-15T11:23:54Z</time>
      </trkpt>
      <trkpt lat="45.93272" lon="4.50874">
        <ele>524</ele>
        <time>2016-09-15T11:24:00Z</time>
      </trkpt>
      <trkpt lat="45.93271" lon="4.50875">
        <ele>524</ele>
        <time>2016-09-15T11:24:01Z</time>
      </trkpt>
      <trkpt lat="45.93268" lon="4.50887">
        <ele>523</ele>
        <time>2016-09-15T11:24:07Z</time>
      </trkpt>
      <trkpt lat="45.93267" lon="4.50889">
        <ele>523</ele>
        <time>2016-09-15T11:24:08Z</time>
      </trkpt>
      <trkpt lat="45.93265" lon="4.509">
        <ele>523</ele>
        <time>2016-09-15T11:24:14Z</time>
      </trkpt>
      <trkpt lat="45.93265" lon="4.50902">
        <ele>523</ele>
        <time>2016-09-15T11:24:15Z</time>
      </trkpt>
      <trkpt lat="45.93262" lon="4.50914">
        <ele>522</ele>
        <time>2016-09-15T11:24:21Z</time>
      </trkpt>
      <trkpt lat="45.93261" lon="4.50916">
        <ele>522</ele>
        <time>2016-09-15T11:24:22Z</time>
      </trkpt>
      <trkpt lat="45.93258" lon="4.50927">
        <ele>517</ele>
        <time>2016-09-15T11:24:28Z</time>
      </trkpt>
      <trkpt lat="45.93257" lon="4.50928">
        <ele>516</ele>
        <time>2016-09-15T11:24:29Z</time>
      </trkpt>
      <trkpt lat="45.93252" lon="4.50938">
        <ele>514</ele>
        <time>2016-09-15T11:24:36Z</time>
      </trkpt>
      <trkpt lat="45.93251" lon="4.5094">
        <ele>514</ele>
        <time>2016-09-15T11:24:37Z</time>
      </trkpt>
      <trkpt lat="45.93248" lon="4.5095">
        <ele>515</ele>
        <time>2016-09-15T11:24:43Z</time>
      </trkpt>
      <trkpt lat="45.93248" lon="4.50952">
        <ele>514</ele>
        <time>2016-09-15T11:24:44Z</time>
      </trkpt>
      <trkpt lat="45.93245" lon="4.50963">
        <ele>513</ele>
        <time>2016-09-15T11:24:51Z</time>
      </trkpt>
      <trkpt lat="45.93245" lon="4.50965">
        <ele>513</ele>
        <time>2016-09-15T11:24:52Z</time>
      </trkpt>
      <trkpt lat="45.9324" lon="4.50974">
        <ele>511</ele>
        <time>2016-09-15T11:24:58Z</time>
      </trkpt>
      <trkpt lat="45.93239" lon="4.50976">
        <ele>511</ele>
        <time>2016-09-15T11:24:59Z</time>
      </trkpt>
      <trkpt lat="45.93231" lon="4.50982">
        <ele>511</ele>
        <time>2016-09-15T11:25:05Z</time>
      </trkpt>
      <trkpt lat="45.9323" lon="4.50984">
        <ele>511</ele>
        <time>2016-09-15T11:25:06Z</time>
      </trkpt>
      <trkpt lat="45.93225" lon="4.50992">
        <ele>510</ele>
        <time>2016-09-15T11:25:12Z</time>
      </trkpt>
      <trkpt lat="45.93224" lon="4.50994">
        <ele>510</ele>
        <time>2016-09-15T11:25:13Z</time>
      </trkpt>
      <trkpt lat="45.9322" lon="4.51003">
        <ele>502</ele>
        <time>2016-09-15T11:25:19Z</time>
      </trkpt>
      <trkpt lat="45.9322" lon="4.51005">
        <ele>502</ele>
        <time>2016-09-15T11:25:20Z</time>
      </trkpt>
      <trkpt lat="45.93215" lon="4.51016">
        <ele>501</ele>
        <time>2016-09-15T11:25:27Z</time>
      </trkpt>
      <trkpt lat="45.93214" lon="4.51017">
        <ele>501</ele>
        <time>2016-09-15T11:25:28Z</time>
      </trkpt>
      <trkpt lat="45.93209" lon="4.51026">
        <ele>501</ele>
        <time>2016-09-15T11:25:35Z</time>
      </trkpt>
      <trkpt lat="45.93208" lon="4.51027">
        <ele>501</ele>
        <time>2016-09-15T11:25:36Z</time>
      </trkpt>
      <trkpt lat="45.93203" lon="4.51035">
        <ele>500</ele>
        <time>2016-09-15T11:25:42Z</time>
      </trkpt>
      <trkpt lat="45.93202" lon="4.51037">
        <ele>500</ele>
        <time>2016-09-15T11:25:43Z</time>
      </trkpt>
      <trkpt lat="45.93196" lon="4.51045">
        <ele>499</ele>
        <time>2016-09-15T11:25:49Z</time>
      </trkpt>
      <trkpt lat="45.93196" lon="4.51047">
        <ele>499</ele>
        <time>2016-09-15T11:25:50Z</time>
      </trkpt>
      <trkpt lat="45.9319" lon="4.51055">
        <ele>498</ele>
        <time>2016-09-15T11:25:56Z</time>
      </trkpt>
      <trkpt lat="45.9319" lon="4.51057">
        <ele>498</ele>
        <time>2016-09-15T11:25:57Z</time>
      </trkpt>
      <trkpt lat="45.93185" lon="4.51068">
        <ele>497</ele>
        <time>2016-09-15T11:26:04Z</time>
      </trkpt>
      <trkpt lat="45.93185" lon="4.5107">
        <ele>497</ele>
        <time>2016-09-15T11:26:05Z</time>
      </trkpt>
      <trkpt lat="45.93181" lon="4.51081">
        <ele>496</ele>
        <time>2016-09-15T11:26:12Z</time>
      </trkpt>
      <trkpt lat="45.9318" lon="4.51083">
        <ele>496</ele>
        <time>2016-09-15T11:26:13Z</time>
      </trkpt>
      <trkpt lat="45.93178" lon="4.51095">
        <ele>491</ele>
        <time>2016-09-15T11:26:20Z</time>
      </trkpt>
      <trkpt lat="45.93179" lon="4.51097">
        <ele>491</ele>
        <time>2016-09-15T11:26:21Z</time>
      </trkpt>
      <trkpt lat="45.93179" lon="4.51108">
        <ele>490</ele>
        <time>2016-09-15T11:26:27Z</time>
      </trkpt>
      <trkpt lat="45.93179" lon="4.5111">
        <ele>490</ele>
        <time>2016-09-15T11:26:28Z</time>
      </trkpt>
      <trkpt lat="45.93181" lon="4.51121">
        <ele>489</ele>
        <time>2016-09-15T11:26:33Z</time>
      </trkpt>
      <trkpt lat="45.93182" lon="4.51123">
        <ele>489</ele>
        <time>2016-09-15T11:26:34Z</time>
      </trkpt>
      <trkpt lat="45.93182" lon="4.51135">
        <ele>489</ele>
        <time>2016-09-15T11:26:40Z</time>
      </trkpt>
      <trkpt lat="45.93182" lon="4.51137">
        <ele>488</ele>
        <time>2016-09-15T11:26:41Z</time>
      </trkpt>
      <trkpt lat="45.93178" lon="4.51147">
        <ele>488</ele>
        <time>2016-09-15T11:26:47Z</time>
      </trkpt>
      <trkpt lat="45.93177" lon="4.51148">
        <ele>488</ele>
        <time>2016-09-15T11:26:48Z</time>
      </trkpt>
      <trkpt lat="45.93171" lon="4.51158">
        <ele>487</ele>
        <time>2016-09-15T11:26:55Z</time>
      </trkpt>
      <trkpt lat="45.9317" lon="4.51159">
        <ele>487</ele>
        <time>2016-09-15T11:26:56Z</time>
      </trkpt>
      <trkpt lat="45.93166" lon="4.51169">
        <ele>486</ele>
        <time>2016-09-15T11:27:02Z</time>
      </trkpt>
      <trkpt lat="45.93165" lon="4.51171">
        <ele>486</ele>
        <time>2016-09-15T11:27:03Z</time>
      </trkpt>
      <trkpt lat="45.93159" lon="4.51178">
        <ele>483</ele>
        <time>2016-09-15T11:27:09Z</time>
      </trkpt>
      <trkpt lat="45.93158" lon="4.51179">
        <ele>483</ele>
        <time>2016-09-15T11:27:10Z</time>
      </trkpt>
      <trkpt lat="45.93151" lon="4.51186">
        <ele>481</ele>
        <time>2016-09-15T11:27:16Z</time>
      </trkpt>
      <trkpt lat="45.93149" lon="4.51187">
        <ele>481</ele>
        <time>2016-09-15T11:27:17Z</time>
      </trkpt>
      <trkpt lat="45.93144" lon="4.51196">
        <ele>480</ele>
        <time>2016-09-15T11:27:23Z</time>
      </trkpt>
      <trkpt lat="45.93143" lon="4.51198">
        <ele>480</ele>
        <time>2016-09-15T11:27:24Z</time>
      </trkpt>
      <trkpt lat="45.9314" lon="4.51208">
        <ele>479</ele>
        <time>2016-09-15T11:27:30Z</time>
      </trkpt>
      <trkpt lat="45.93139" lon="4.5121">
        <ele>479</ele>
        <time>2016-09-15T11:27:31Z</time>
      </trkpt>
      <trkpt lat="45.93135" lon="4.51221">
        <ele>478</ele>
        <time>2016-09-15T11:27:38Z</time>
      </trkpt>
      <trkpt lat="45.93134" lon="4.51223">
        <ele>478</ele>
        <time>2016-09-15T11:27:39Z</time>
      </trkpt>
      <trkpt lat="45.93129" lon="4.51232">
        <ele>478</ele>
        <time>2016-09-15T11:27:45Z</time>
      </trkpt>
      <trkpt lat="45.93129" lon="4.51233">
        <ele>478</ele>
        <time>2016-09-15T11:27:46Z</time>
      </trkpt>
      <trkpt lat="45.93124" lon="4.51244">
        <ele>477</ele>
        <time>2016-09-15T11:27:53Z</time>
      </trkpt>
      <trkpt lat="45.93123" lon="4.51245">
        <ele>477</ele>
        <time>2016-09-15T11:27:54Z</time>
      </trkpt>
      <trkpt lat="45.9312" lon="4.51257">
        <ele>473</ele>
        <time>2016-09-15T11:28:00Z</time>
      </trkpt>
      <trkpt lat="45.93119" lon="4.51258">
        <ele>473</ele>
        <time>2016-09-15T11:28:01Z</time>
      </trkpt>
      <trkpt lat="45.93116" lon="4.51268">
        <ele>472</ele>
        <time>2016-09-15T11:28:07Z</time>
      </trkpt>
      <trkpt lat="45.93115" lon="4.5127">
        <ele>472</ele>
        <time>2016-09-15T11:28:08Z</time>
      </trkpt>
      <trkpt lat="45.93121" lon="4.51278">
        <ele>472</ele>
        <time>2016-09-15T11:28:14Z</time>
      </trkpt>
      <trkpt lat="45.93122" lon="4.51278">
        <ele>472</ele>
        <time>2016-09-15T11:28:15Z</time>
      </trkpt>
      <trkpt lat="45.9313" lon="4.5128">
        <ele>472</ele>
        <time>2016-09-15T11:28:20Z</time>
      </trkpt>
      <trkpt lat="45.93131" lon="4.51281">
        <ele>472</ele>
        <time>2016-09-15T11:28:21Z</time>
      </trkpt>
      <trkpt lat="45.9314" lon="4.51283">
        <ele>472</ele>
        <time>2016-09-15T11:28:27Z</time>
      </trkpt>
      <trkpt lat="45.93141" lon="4.51283">
        <ele>472</ele>
        <time>2016-09-15T11:28:28Z</time>
      </trkpt>
      <trkpt lat="45.9315" lon="4.51284">
        <ele>472</ele>
        <time>2016-09-15T11:28:34Z</time>
      </trkpt>
      <trkpt lat="45.93151" lon="4.51283">
        <ele>472</ele>
        <time>2016-09-15T11:28:35Z</time>
      </trkpt>
      <trkpt lat="45.93158" lon="4.51279">
        <ele>473</ele>
        <time>2016-09-15T11:28:51Z</time>
      </trkpt>
      <trkpt lat="45.9316" lon="4.51279">
        <ele>473</ele>
        <time>2016-09-15T11:28:52Z</time>
      </trkpt>
      <trkpt lat="45.93168" lon="4.51278">
        <ele>473</ele>
        <time>2016-09-15T11:28:58Z</time>
      </trkpt>
      <trkpt lat="45.93169" lon="4.51278">
        <ele>473</ele>
        <time>2016-09-15T11:28:59Z</time>
      </trkpt>
      <trkpt lat="45.93177" lon="4.51276">
        <ele>473</ele>
        <time>2016-09-15T11:29:05Z</time>
      </trkpt>
      <trkpt lat="45.93179" lon="4.51276">
        <ele>473</ele>
        <time>2016-09-15T11:29:06Z</time>
      </trkpt>
      <trkpt lat="45.93186" lon="4.51275">
        <ele>473</ele>
        <time>2016-09-15T11:29:12Z</time>
      </trkpt>
      <trkpt lat="45.93188" lon="4.51275">
        <ele>472</ele>
        <time>2016-09-15T11:29:13Z</time>
      </trkpt>
      <trkpt lat="45.93196" lon="4.51275">
        <ele>472</ele>
        <time>2016-09-15T11:29:19Z</time>
      </trkpt>
      <trkpt lat="45.93197" lon="4.51275">
        <ele>472</ele>
        <time>2016-09-15T11:29:20Z</time>
      </trkpt>
      <trkpt lat="45.93206" lon="4.51276">
        <ele>472</ele>
        <time>2016-09-15T11:29:26Z</time>
      </trkpt>
      <trkpt lat="45.93207" lon="4.51277">
        <ele>472</ele>
        <time>2016-09-15T11:29:27Z</time>
      </trkpt>
      <trkpt lat="45.93216" lon="4.51275">
        <ele>472</ele>
        <time>2016-09-15T11:29:33Z</time>
      </trkpt>
      <trkpt lat="45.93217" lon="4.51274">
        <ele>472</ele>
        <time>2016-09-15T11:29:34Z</time>
      </trkpt>
      <trkpt lat="45.93226" lon="4.51273">
        <ele>472</ele>
        <time>2016-09-15T11:29:40Z</time>
      </trkpt>
      <trkpt lat="45.93227" lon="4.51273">
        <ele>472</ele>
        <time>2016-09-15T11:29:41Z</time>
      </trkpt>
      <trkpt lat="45.93235" lon="4.51268">
        <ele>472</ele>
        <time>2016-09-15T11:29:48Z</time>
      </trkpt>
      <trkpt lat="45.93236" lon="4.51267">
        <ele>472</ele>
        <time>2016-09-15T11:29:49Z</time>
      </trkpt>
      <trkpt lat="45.93244" lon="4.51261">
        <ele>472</ele>
        <time>2016-09-15T11:29:56Z</time>
      </trkpt>
      <trkpt lat="45.93245" lon="4.5126">
        <ele>472</ele>
        <time>2016-09-15T11:29:57Z</time>
      </trkpt>
      <trkpt lat="45.93252" lon="4.51254">
        <ele>471</ele>
        <time>2016-09-15T11:30:03Z</time>
      </trkpt>
      <trkpt lat="45.93254" lon="4.51253">
        <ele>471</ele>
        <time>2016-09-15T11:30:04Z</time>
      </trkpt>
      <trkpt lat="45.93261" lon="4.51246">
        <ele>472</ele>
        <time>2016-09-15T11:30:10Z</time>
      </trkpt>
      <trkpt lat="45.93262" lon="4.51245">
        <ele>471</ele>
        <time>2016-09-15T11:30:11Z</time>
      </trkpt>
      <trkpt lat="45.93268" lon="4.51236">
        <ele>471</ele>
        <time>2016-09-15T11:30:17Z</time>
      </trkpt>
      <trkpt lat="45.93269" lon="4.51235">
        <ele>471</ele>
        <time>2016-09-15T11:30:18Z</time>
      </trkpt>
      <trkpt lat="45.93274" lon="4.51227">
        <ele>470</ele>
        <time>2016-09-15T11:30:24Z</time>
      </trkpt>
      <trkpt lat="45.93275" lon="4.51226">
        <ele>470</ele>
        <time>2016-09-15T11:30:25Z</time>
      </trkpt>
      <trkpt lat="45.93282" lon="4.5122">
        <ele>470</ele>
        <time>2016-09-15T11:30:31Z</time>
      </trkpt>
      <trkpt lat="45.93283" lon="4.5122">
        <ele>470</ele>
        <time>2016-09-15T11:30:32Z</time>
      </trkpt>
      <trkpt lat="45.9329" lon="4.51211">
        <ele>469</ele>
        <time>2016-09-15T11:30:39Z</time>
      </trkpt>
      <trkpt lat="45.9329" lon="4.51209">
        <ele>469</ele>
        <time>2016-09-15T11:30:40Z</time>
      </trkpt>
      <trkpt lat="45.93295" lon="4.51199">
        <ele>469</ele>
        <time>2016-09-15T11:30:47Z</time>
      </trkpt>
      <trkpt lat="45.93295" lon="4.51197">
        <ele>469</ele>
        <time>2016-09-15T11:30:48Z</time>
      </trkpt>
      <trkpt lat="45.93299" lon="4.51187">
        <ele>469</ele>
        <time>2016-09-15T11:30:54Z</time>
      </trkpt>
      <trkpt lat="45.93299" lon="4.51185">
        <ele>469</ele>
        <time>2016-09-15T11:30:55Z</time>
      </trkpt>
      <trkpt lat="45.93302" lon="4.51173">
        <ele>469</ele>
        <time>2016-09-15T11:31:02Z</time>
      </trkpt>
      <trkpt lat="45.93302" lon="4.51171">
        <ele>469</ele>
        <time>2016-09-15T11:31:03Z</time>
      </trkpt>
      <trkpt lat="45.93305" lon="4.51159">
        <ele>474</ele>
        <time>2016-09-15T11:31:11Z</time>
      </trkpt>
      <trkpt lat="45.93305" lon="4.51158">
        <ele>474</ele>
        <time>2016-09-15T11:31:12Z</time>
      </trkpt>
      <trkpt lat="45.93309" lon="4.51148">
        <ele>475</ele>
        <time>2016-09-15T11:31:20Z</time>
      </trkpt>
      <trkpt lat="45.9331" lon="4.51147">
        <ele>475</ele>
        <time>2016-09-15T11:31:21Z</time>
      </trkpt>
      <trkpt lat="45.93315" lon="4.51139">
        <ele>475</ele>
        <time>2016-09-15T11:31:30Z</time>
      </trkpt>
      <trkpt lat="45.93317" lon="4.51138">
        <ele>475</ele>
        <time>2016-09-15T11:31:31Z</time>
      </trkpt>
      <trkpt lat="45.93323" lon="4.51132">
        <ele>475</ele>
        <time>2016-09-15T11:31:37Z</time>
      </trkpt>
      <trkpt lat="45.93324" lon="4.51131">
        <ele>475</ele>
        <time>2016-09-15T11:31:38Z</time>
      </trkpt>
      <trkpt lat="45.93332" lon="4.51126">
        <ele>475</ele>
        <time>2016-09-15T11:31:44Z</time>
      </trkpt>
      <trkpt lat="45.93333" lon="4.51125">
        <ele>475</ele>
        <time>2016-09-15T11:31:45Z</time>
      </trkpt>
      <trkpt lat="45.93341" lon="4.51122">
        <ele>469</ele>
        <time>2016-09-15T11:31:52Z</time>
      </trkpt>
      <trkpt lat="45.93342" lon="4.51122">
        <ele>469</ele>
        <time>2016-09-15T11:31:53Z</time>
      </trkpt>
      <trkpt lat="45.9335" lon="4.51126">
        <ele>469</ele>
        <time>2016-09-15T11:32:00Z</time>
      </trkpt>
      <trkpt lat="45.93352" lon="4.51126">
        <ele>469</ele>
        <time>2016-09-15T11:32:01Z</time>
      </trkpt>
      <trkpt lat="45.93359" lon="4.51132">
        <ele>468</ele>
        <time>2016-09-15T11:32:07Z</time>
      </trkpt>
      <trkpt lat="45.9336" lon="4.51133">
        <ele>468</ele>
        <time>2016-09-15T11:32:08Z</time>
      </trkpt>
      <trkpt lat="45.93368" lon="4.51138">
        <ele>468</ele>
        <time>2016-09-15T11:32:14Z</time>
      </trkpt>
      <trkpt lat="45.9337" lon="4.51139">
        <ele>468</ele>
        <time>2016-09-15T11:32:15Z</time>
      </trkpt>
      <trkpt lat="45.93378" lon="4.51141">
        <ele>468</ele>
        <time>2016-09-15T11:32:21Z</time>
      </trkpt>
      <trkpt lat="45.93379" lon="4.51141">
        <ele>468</ele>
        <time>2016-09-15T11:32:22Z</time>
      </trkpt>
      <trkpt lat="45.93387" lon="4.51142">
        <ele>467</ele>
        <time>2016-09-15T11:32:28Z</time>
      </trkpt>
      <trkpt lat="45.93388" lon="4.51142">
        <ele>467</ele>
        <time>2016-09-15T11:32:29Z</time>
      </trkpt>
      <trkpt lat="45.93396" lon="4.51142">
        <ele>467</ele>
        <time>2016-09-15T11:32:35Z</time>
      </trkpt>
      <trkpt lat="45.93398" lon="4.51142">
        <ele>467</ele>
        <time>2016-09-15T11:32:36Z</time>
      </trkpt>
      <trkpt lat="45.93406" lon="4.51141">
        <ele>467</ele>
        <time>2016-09-15T11:32:42Z</time>
      </trkpt>
      <trkpt lat="45.93407" lon="4.51141">
        <ele>467</ele>
        <time>2016-09-15T11:32:43Z</time>
      </trkpt>
      <trkpt lat="45.93414" lon="4.51136">
        <ele>467</ele>
        <time>2016-09-15T11:32:48Z</time>
      </trkpt>
      <trkpt lat="45.93416" lon="4.51135">
        <ele>467</ele>
        <time>2016-09-15T11:32:49Z</time>
      </trkpt>
      <trkpt lat="45.93424" lon="4.51129">
        <ele>465</ele>
        <time>2016-09-15T11:32:55Z</time>
      </trkpt>
      <trkpt lat="45.93425" lon="4.51128">
        <ele>465</ele>
        <time>2016-09-15T11:32:56Z</time>
      </trkpt>
      <trkpt lat="45.93431" lon="4.51121">
        <ele>466</ele>
        <time>2016-09-15T11:33:02Z</time>
      </trkpt>
      <trkpt lat="45.93431" lon="4.51119">
        <ele>466</ele>
        <time>2016-09-15T11:33:03Z</time>
      </trkpt>
      <trkpt lat="45.93438" lon="4.51111">
        <ele>466</ele>
        <time>2016-09-15T11:33:14Z</time>
      </trkpt>
      <trkpt lat="45.93439" lon="4.51111">
        <ele>466</ele>
        <time>2016-09-15T11:33:15Z</time>
      </trkpt>
      <trkpt lat="45.93447" lon="4.51108">
        <ele>466</ele>
        <time>2016-09-15T11:33:22Z</time>
      </trkpt>
      <trkpt lat="45.93448" lon="4.51107">
        <ele>466</ele>
        <time>2016-09-15T11:33:23Z</time>
      </trkpt>
      <trkpt lat="45.93457" lon="4.51107">
        <ele>465</ele>
        <time>2016-09-15T11:33:29Z</time>
      </trkpt>
      <trkpt lat="45.93459" lon="4.51107">
        <ele>465</ele>
        <time>2016-09-15T11:33:30Z</time>
      </trkpt>
      <trkpt lat="45.93467" lon="4.51106">
        <ele>465</ele>
        <time>2016-09-15T11:33:36Z</time>
      </trkpt>
      <trkpt lat="45.93468" lon="4.51107">
        <ele>465</ele>
        <time>2016-09-15T11:33:37Z</time>
      </trkpt>
      <trkpt lat="45.93476" lon="4.51112">
        <ele>465</ele>
        <time>2016-09-15T11:33:43Z</time>
      </trkpt>
      <trkpt lat="45.93477" lon="4.51113">
        <ele>465</ele>
        <time>2016-09-15T11:33:44Z</time>
      </trkpt>
      <trkpt lat="45.93485" lon="4.51118">
        <ele>464</ele>
        <time>2016-09-15T11:33:50Z</time>
      </trkpt>
      <trkpt lat="45.93486" lon="4.51118">
        <ele>464</ele>
        <time>2016-09-15T11:33:51Z</time>
      </trkpt>
      <trkpt lat="45.93494" lon="4.51122">
        <ele>464</ele>
        <time>2016-09-15T11:33:57Z</time>
      </trkpt>
      <trkpt lat="45.93496" lon="4.51124">
        <ele>464</ele>
        <time>2016-09-15T11:33:58Z</time>
      </trkpt>
      <trkpt lat="45.93504" lon="4.51127">
        <ele>462</ele>
        <time>2016-09-15T11:34:03Z</time>
      </trkpt>
      <trkpt lat="45.93505" lon="4.51128">
        <ele>462</ele>
        <time>2016-09-15T11:34:04Z</time>
      </trkpt>
      <trkpt lat="45.93513" lon="4.51128">
        <ele>461</ele>
        <time>2016-09-15T11:34:09Z</time>
      </trkpt>
      <trkpt lat="45.93515" lon="4.51128">
        <ele>461</ele>
        <time>2016-09-15T11:34:10Z</time>
      </trkpt>
      <trkpt lat="45.93523" lon="4.51127">
        <ele>462</ele>
        <time>2016-09-15T11:34:16Z</time>
      </trkpt>
      <trkpt lat="45.93524" lon="4.51126">
        <ele>462</ele>
        <time>2016-09-15T11:34:17Z</time>
      </trkpt>
      <trkpt lat="45.93532" lon="4.51122">
        <ele>462</ele>
        <time>2016-09-15T11:34:37Z</time>
      </trkpt>
      <trkpt lat="45.93533" lon="4.51122">
        <ele>462</ele>
        <time>2016-09-15T11:34:38Z</time>
      </trkpt>
      <trkpt lat="45.93541" lon="4.51116">
        <ele>462</ele>
        <time>2016-09-15T11:34:47Z</time>
      </trkpt>
      <trkpt lat="45.93542" lon="4.51115">
        <ele>462</ele>
        <time>2016-09-15T11:34:48Z</time>
      </trkpt>
      <trkpt lat="45.93548" lon="4.51108">
        <ele>462</ele>
        <time>2016-09-15T11:34:55Z</time>
      </trkpt>
      <trkpt lat="45.93549" lon="4.51107">
        <ele>462</ele>
        <time>2016-09-15T11:34:56Z</time>
      </trkpt>
      <trkpt lat="45.93556" lon="4.511">
        <ele>461</ele>
        <time>2016-09-15T11:35:02Z</time>
      </trkpt>
      <trkpt lat="45.93557" lon="4.51099">
        <ele>461</ele>
        <time>2016-09-15T11:35:03Z</time>
      </trkpt>
      <trkpt lat="45.93565" lon="4.51095">
        <ele>461</ele>
        <time>2016-09-15T11:35:10Z</time>
      </trkpt>
      <trkpt lat="45.93566" lon="4.51095">
        <ele>461</ele>
        <time>2016-09-15T11:35:11Z</time>
      </trkpt>
      <trkpt lat="45.93575" lon="4.51096">
        <ele>461</ele>
        <time>2016-09-15T11:35:18Z</time>
      </trkpt>
      <trkpt lat="45.93577" lon="4.51096">
        <ele>461</ele>
        <time>2016-09-15T11:35:19Z</time>
      </trkpt>
      <trkpt lat="45.93585" lon="4.51099">
        <ele>464</ele>
        <time>2016-09-15T11:35:25Z</time>
      </trkpt>
      <trkpt lat="45.93586" lon="4.511">
        <ele>464</ele>
        <time>2016-09-15T11:35:26Z</time>
      </trkpt>
      <trkpt lat="45.93594" lon="4.51103">
        <ele>465</ele>
        <time>2016-09-15T11:35:32Z</time>
      </trkpt>
      <trkpt lat="45.93595" lon="4.51103">
        <ele>465</ele>
        <time>2016-09-15T11:35:33Z</time>
      </trkpt>
      <trkpt lat="45.93603" lon="4.51107">
        <ele>466</ele>
        <time>2016-09-15T11:35:42Z</time>
      </trkpt>
      <trkpt lat="45.93604" lon="4.51108">
        <ele>467</ele>
        <time>2016-09-15T11:35:43Z</time>
      </trkpt>
      <trkpt lat="45.93611" lon="4.51115">
        <ele>468</ele>
        <time>2016-09-15T11:35:52Z</time>
      </trkpt>
      <trkpt lat="45.93611" lon="4.51117">
        <ele>468</ele>
        <time>2016-09-15T11:35:53Z</time>
      </trkpt>
      <trkpt lat="45.93612" lon="4.51129">
        <ele>468</ele>
        <time>2016-09-15T11:36:03Z</time>
      </trkpt>
      <trkpt lat="45.93611" lon="4.5113">
        <ele>468</ele>
        <time>2016-09-15T11:36:04Z</time>
      </trkpt>
      <trkpt lat="45.93611" lon="4.51142">
        <ele>468</ele>
        <time>2016-09-15T11:36:13Z</time>
      </trkpt>
      <trkpt lat="45.93611" lon="4.51144">
        <ele>468</ele>
        <time>2016-09-15T11:36:14Z</time>
      </trkpt>
      <trkpt lat="45.93611" lon="4.51157">
        <ele>468</ele>
        <time>2016-09-15T11:36:22Z</time>
      </trkpt>
      <trkpt lat="45.93611" lon="4.51159">
        <ele>468</ele>
        <time>2016-09-15T11:36:23Z</time>
      </trkpt>
      <trkpt lat="45.9361" lon="4.51171">
        <ele>469</ele>
        <time>2016-09-15T11:36:32Z</time>
      </trkpt>
      <trkpt lat="45.9361" lon="4.51173">
        <ele>469</ele>
        <time>2016-09-15T11:36:33Z</time>
      </trkpt>
      <trkpt lat="45.9361" lon="4.51184">
        <ele>470</ele>
        <time>2016-09-15T11:36:40Z</time>
      </trkpt>
      <trkpt lat="45.9361" lon="4.51186">
        <ele>470</ele>
        <time>2016-09-15T11:36:41Z</time>
      </trkpt>
      <trkpt lat="45.93608" lon="4.51197">
        <ele>470</ele>
        <time>2016-09-15T11:36:49Z</time>
      </trkpt>
      <trkpt lat="45.93608" lon="4.51198">
        <ele>470</ele>
        <time>2016-09-15T11:36:50Z</time>
      </trkpt>
      <trkpt lat="45.93608" lon="4.5121">
        <ele>470</ele>
        <time>2016-09-15T11:36:57Z</time>
      </trkpt>
      <trkpt lat="45.93608" lon="4.51212">
        <ele>470</ele>
        <time>2016-09-15T11:36:58Z</time>
      </trkpt>
      <trkpt lat="45.93608" lon="4.51224">
        <ele>470</ele>
        <time>2016-09-15T11:37:05Z</time>
      </trkpt>
      <trkpt lat="45.93609" lon="4.51226">
        <ele>470</ele>
        <time>2016-09-15T11:37:06Z</time>
      </trkpt>
      <trkpt lat="45.93609" lon="4.51238">
        <ele>470</ele>
        <time>2016-09-15T11:37:13Z</time>
      </trkpt>
      <trkpt lat="45.93609" lon="4.5124">
        <ele>470</ele>
        <time>2016-09-15T11:37:14Z</time>
      </trkpt>
      <trkpt lat="45.9361" lon="4.51253">
        <ele>471</ele>
        <time>2016-09-15T11:37:21Z</time>
      </trkpt>
      <trkpt lat="45.93609" lon="4.51255">
        <ele>471</ele>
        <time>2016-09-15T11:37:22Z</time>
      </trkpt>
      <trkpt lat="45.93611" lon="4.51267">
        <ele>472</ele>
        <time>2016-09-15T11:37:30Z</time>
      </trkpt>
      <trkpt lat="45.93611" lon="4.51269">
        <ele>472</ele>
        <time>2016-09-15T11:37:31Z</time>
      </trkpt>
      <trkpt lat="45.93612" lon="4.51281">
        <ele>473</ele>
        <time>2016-09-15T11:37:38Z</time>
      </trkpt>
      <trkpt lat="45.93612" lon="4.51283">
        <ele>473</ele>
        <time>2016-09-15T11:37:39Z</time>
      </trkpt>
      <trkpt lat="45.93612" lon="4.51295">
        <ele>473</ele>
        <time>2016-09-15T11:37:46Z</time>
      </trkpt>
      <trkpt lat="45.93612" lon="4.51296">
        <ele>473</ele>
        <time>2016-09-15T11:37:47Z</time>
      </trkpt>
      <trkpt lat="45.93614" lon="4.51308">
        <ele>473</ele>
        <time>2016-09-15T11:37:54Z</time>
      </trkpt>
      <trkpt lat="45.93614" lon="4.5131">
        <ele>473</ele>
        <time>2016-09-15T11:37:55Z</time>
      </trkpt>
      <trkpt lat="45.93614" lon="4.51323">
        <ele>473</ele>
        <time>2016-09-15T11:38:03Z</time>
      </trkpt>
      <trkpt lat="45.93614" lon="4.51324">
        <ele>473</ele>
        <time>2016-09-15T11:38:04Z</time>
      </trkpt>
      <trkpt lat="45.93615" lon="4.51336">
        <ele>474</ele>
        <time>2016-09-15T11:38:11Z</time>
      </trkpt>
      <trkpt lat="45.93615" lon="4.51337">
        <ele>475</ele>
        <time>2016-09-15T11:38:12Z</time>
      </trkpt>
      <trkpt lat="45.93616" lon="4.51349">
        <ele>475</ele>
        <time>2016-09-15T11:38:20Z</time>
      </trkpt>
      <trkpt lat="45.93617" lon="4.51351">
        <ele>475</ele>
        <time>2016-09-15T11:38:21Z</time>
      </trkpt>
      <trkpt lat="45.93617" lon="4.51363">
        <ele>476</ele>
        <time>2016-09-15T11:38:29Z</time>
      </trkpt>
      <trkpt lat="45.93617" lon="4.51364">
        <ele>476</ele>
        <time>2016-09-15T11:38:30Z</time>
      </trkpt>
      <trkpt lat="45.93618" lon="4.51377">
        <ele>476</ele>
        <time>2016-09-15T11:38:38Z</time>
      </trkpt>
      <trkpt lat="45.93618" lon="4.51379">
        <ele>476</ele>
        <time>2016-09-15T11:38:39Z</time>
      </trkpt>
      <trkpt lat="45.93618" lon="4.51391">
        <ele>476</ele>
        <time>2016-09-15T11:38:46Z</time>
      </trkpt>
      <trkpt lat="45.93618" lon="4.51393">
        <ele>476</ele>
        <time>2016-09-15T11:38:47Z</time>
      </trkpt>
      <trkpt lat="45.93618" lon="4.51404">
        <ele>476</ele>
        <time>2016-09-15T11:38:53Z</time>
      </trkpt>
      <trkpt lat="45.93618" lon="4.51406">
        <ele>476</ele>
        <time>2016-09-15T11:38:54Z</time>
      </trkpt>
      <trkpt lat="45.93617" lon="4.51418">
        <ele>477</ele>
        <time>2016-09-15T11:39:00Z</time>
      </trkpt>
      <trkpt lat="45.93617" lon="4.51419">
        <ele>477</ele>
        <time>2016-09-15T11:39:01Z</time>
      </trkpt>
      <trkpt lat="45.93618" lon="4.51431">
        <ele>478</ele>
        <time>2016-09-15T11:39:08Z</time>
      </trkpt>
      <trkpt lat="45.93618" lon="4.51433">
        <ele>478</ele>
        <time>2016-09-15T11:39:09Z</time>
      </trkpt>
      <trkpt lat="45.9362" lon="4.51445">
        <ele>478</ele>
        <time>2016-09-15T11:39:16Z</time>
      </trkpt>
      <trkpt lat="45.9362" lon="4.51447">
        <ele>478</ele>
        <time>2016-09-15T11:39:17Z</time>
      </trkpt>
      <trkpt lat="45.93619" lon="4.51459">
        <ele>478</ele>
        <time>2016-09-15T11:39:23Z</time>
      </trkpt>
      <trkpt lat="45.93619" lon="4.5146">
        <ele>478</ele>
        <time>2016-09-15T11:39:24Z</time>
      </trkpt>
      <trkpt lat="45.93618" lon="4.51471">
        <ele>478</ele>
        <time>2016-09-15T11:39:31Z</time>
      </trkpt>
      <trkpt lat="45.93618" lon="4.51473">
        <ele>478</ele>
        <time>2016-09-15T11:39:32Z</time>
      </trkpt>
      <trkpt lat="45.93617" lon="4.51485">
        <ele>478</ele>
        <time>2016-09-15T11:39:38Z</time>
      </trkpt>
      <trkpt lat="45.93618" lon="4.51487">
        <ele>478</ele>
        <time>2016-09-15T11:39:39Z</time>
      </trkpt>
      <trkpt lat="45.9362" lon="4.51499">
        <ele>478</ele>
        <time>2016-09-15T11:39:46Z</time>
      </trkpt>
      <trkpt lat="45.9362" lon="4.51501">
        <ele>477</ele>
        <time>2016-09-15T11:39:47Z</time>
      </trkpt>
      <trkpt lat="45.93623" lon="4.51512">
        <ele>477</ele>
        <time>2016-09-15T11:39:54Z</time>
      </trkpt>
      <trkpt lat="45.93623" lon="4.51514">
        <ele>477</ele>
        <time>2016-09-15T11:39:55Z</time>
      </trkpt>
      <trkpt lat="45.93625" lon="4.51526">
        <ele>477</ele>
        <time>2016-09-15T11:40:02Z</time>
      </trkpt>
      <trkpt lat="45.93626" lon="4.51528">
        <ele>477</ele>
        <time>2016-09-15T11:40:03Z</time>
      </trkpt>
      <trkpt lat="45.93629" lon="4.51538">
        <ele>477</ele>
        <time>2016-09-15T11:40:09Z</time>
      </trkpt>
      <trkpt lat="45.9363" lon="4.5154">
        <ele>477</ele>
        <time>2016-09-15T11:40:10Z</time>
      </trkpt>
      <trkpt lat="45.93634" lon="4.51551">
        <ele>477</ele>
        <time>2016-09-15T11:40:17Z</time>
      </trkpt>
      <trkpt lat="45.93634" lon="4.51553">
        <ele>477</ele>
        <time>2016-09-15T11:40:18Z</time>
      </trkpt>
      <trkpt lat="45.93637" lon="4.51564">
        <ele>477</ele>
        <time>2016-09-15T11:40:25Z</time>
      </trkpt>
      <trkpt lat="45.93638" lon="4.51565">
        <ele>477</ele>
        <time>2016-09-15T11:40:26Z</time>
      </trkpt>
      <trkpt lat="45.93644" lon="4.51573">
        <ele>478</ele>
        <time>2016-09-15T11:40:33Z</time>
      </trkpt>
      <trkpt lat="45.93645" lon="4.51574">
        <ele>478</ele>
        <time>2016-09-15T11:40:34Z</time>
      </trkpt>
      <trkpt lat="45.93652" lon="4.51579">
        <ele>479</ele>
        <time>2016-09-15T11:40:41Z</time>
      </trkpt>
      <trkpt lat="45.93653" lon="4.5158">
        <ele>480</ele>
        <time>2016-09-15T11:40:42Z</time>
      </trkpt>
      <trkpt lat="45.9366" lon="4.51586">
        <ele>480</ele>
        <time>2016-09-15T11:40:49Z</time>
      </trkpt>
      <trkpt lat="45.93661" lon="4.51587">
        <ele>480</ele>
        <time>2016-09-15T11:40:50Z</time>
      </trkpt>
      <trkpt lat="45.93668" lon="4.51594">
        <ele>481</ele>
        <time>2016-09-15T11:40:57Z</time>
      </trkpt>
      <trkpt lat="45.93669" lon="4.51595">
        <ele>481</ele>
        <time>2016-09-15T11:40:58Z</time>
      </trkpt>
      <trkpt lat="45.93677" lon="4.51601">
        <ele>481</ele>
        <time>2016-09-15T11:41:05Z</time>
      </trkpt>
      <trkpt lat="45.93678" lon="4.51601">
        <ele>481</ele>
        <time>2016-09-15T11:41:06Z</time>
      </trkpt>
      <trkpt lat="45.93685" lon="4.51606">
        <ele>481</ele>
        <time>2016-09-15T11:41:12Z</time>
      </trkpt>
      <trkpt lat="45.93686" lon="4.51607">
        <ele>481</ele>
        <time>2016-09-15T11:41:13Z</time>
      </trkpt>
      <trkpt lat="45.93694" lon="4.51612">
        <ele>481</ele>
        <time>2016-09-15T11:41:20Z</time>
      </trkpt>
      <trkpt lat="45.93695" lon="4.51612">
        <ele>481</ele>
        <time>2016-09-15T11:41:21Z</time>
      </trkpt>
      <trkpt lat="45.93701" lon="4.51603">
        <ele>481</ele>
        <time>2016-09-15T11:48:37Z</time>
      </trkpt>
      <trkpt lat="45.93701" lon="4.51602">
        <ele>481</ele>
        <time>2016-09-15T11:48:38Z</time>
      </trkpt>
      <trkpt lat="45.93703" lon="4.5159">
        <ele>481</ele>
        <time>2016-09-15T11:48:45Z</time>
      </trkpt>
      <trkpt lat="45.93704" lon="4.51588">
        <ele>481</ele>
        <time>2016-09-15T11:48:46Z</time>
      </trkpt>
      <trkpt lat="45.93702" lon="4.51577">
        <ele>487</ele>
        <time>2016-09-15T11:48:53Z</time>
      </trkpt>
      <trkpt lat="45.93702" lon="4.51575">
        <ele>487</ele>
        <time>2016-09-15T11:48:54Z</time>
      </trkpt>
      <trkpt lat="45.93702" lon="4.51563">
        <ele>487</ele>
        <time>2016-09-15T11:49:01Z</time>
      </trkpt>
      <trkpt lat="45.93702" lon="4.51561">
        <ele>487</ele>
        <time>2016-09-15T11:49:02Z</time>
      </trkpt>
      <trkpt lat="45.937" lon="4.5155">
        <ele>488</ele>
        <time>2016-09-15T11:49:10Z</time>
      </trkpt>
      <trkpt lat="45.93701" lon="4.51548">
        <ele>488</ele>
        <time>2016-09-15T11:49:11Z</time>
      </trkpt>
      <trkpt lat="45.937" lon="4.51537">
        <ele>489</ele>
        <time>2016-09-15T11:49:19Z</time>
      </trkpt>
      <trkpt lat="45.937" lon="4.51535">
        <ele>489</ele>
        <time>2016-09-15T11:49:20Z</time>
      </trkpt>
      <trkpt lat="45.93701" lon="4.51524">
        <ele>489</ele>
        <time>2016-09-15T11:49:28Z</time>
      </trkpt>
      <trkpt lat="45.93701" lon="4.51522">
        <ele>489</ele>
        <time>2016-09-15T11:49:29Z</time>
      </trkpt>
      <trkpt lat="45.93699" lon="4.51511">
        <ele>490</ele>
        <time>2016-09-15T11:49:37Z</time>
      </trkpt>
      <trkpt lat="45.93699" lon="4.51509">
        <ele>490</ele>
        <time>2016-09-15T11:49:38Z</time>
      </trkpt>
      <trkpt lat="45.93702" lon="4.51498">
        <ele>495</ele>
        <time>2016-09-15T11:49:45Z</time>
      </trkpt>
      <trkpt lat="45.93702" lon="4.51496">
        <ele>495</ele>
        <time>2016-09-15T11:49:46Z</time>
      </trkpt>
      <trkpt lat="45.93705" lon="4.51484">
        <ele>495</ele>
        <time>2016-09-15T11:49:53Z</time>
      </trkpt>
      <trkpt lat="45.93705" lon="4.51483">
        <ele>495</ele>
        <time>2016-09-15T11:49:54Z</time>
      </trkpt>
      <trkpt lat="45.93706" lon="4.5147">
        <ele>496</ele>
        <time>2016-09-15T11:50:01Z</time>
      </trkpt>
      <trkpt lat="45.93707" lon="4.51469">
        <ele>496</ele>
        <time>2016-09-15T11:50:02Z</time>
      </trkpt>
      <trkpt lat="45.9371" lon="4.51458">
        <ele>496</ele>
        <time>2016-09-15T11:50:09Z</time>
      </trkpt>
      <trkpt lat="45.9371" lon="4.51456">
        <ele>496</ele>
        <time>2016-09-15T11:50:10Z</time>
      </trkpt>
      <trkpt lat="45.93713" lon="4.51444">
        <ele>497</ele>
        <time>2016-09-15T11:50:17Z</time>
      </trkpt>
      <trkpt lat="45.93713" lon="4.51442">
        <ele>497</ele>
        <time>2016-09-15T11:50:18Z</time>
      </trkpt>
      <trkpt lat="45.93716" lon="4.51431">
        <ele>498</ele>
        <time>2016-09-15T11:50:25Z</time>
      </trkpt>
      <trkpt lat="45.93717" lon="4.5143">
        <ele>498</ele>
        <time>2016-09-15T11:50:26Z</time>
      </trkpt>
      <trkpt lat="45.93721" lon="4.5142">
        <ele>499</ele>
        <time>2016-09-15T11:50:33Z</time>
      </trkpt>
      <trkpt lat="45.93722" lon="4.51418">
        <ele>499</ele>
        <time>2016-09-15T11:50:34Z</time>
      </trkpt>
      <trkpt lat="45.93724" lon="4.51406">
        <ele>500</ele>
        <time>2016-09-15T11:50:42Z</time>
      </trkpt>
      <trkpt lat="45.93724" lon="4.51405">
        <ele>500</ele>
        <time>2016-09-15T11:50:43Z</time>
      </trkpt>
      <trkpt lat="45.93726" lon="4.51394">
        <ele>499</ele>
        <time>2016-09-15T11:50:51Z</time>
      </trkpt>
      <trkpt lat="45.93726" lon="4.51392">
        <ele>499</ele>
        <time>2016-09-15T11:50:52Z</time>
      </trkpt>
      <trkpt lat="45.93729" lon="4.51382">
        <ele>499</ele>
        <time>2016-09-15T11:50:59Z</time>
      </trkpt>
      <trkpt lat="45.9373" lon="4.5138">
        <ele>499</ele>
        <time>2016-09-15T11:51:00Z</time>
      </trkpt>
      <trkpt lat="45.93732" lon="4.51368">
        <ele>499</ele>
        <time>2016-09-15T11:51:07Z</time>
      </trkpt>
      <trkpt lat="45.93733" lon="4.51366">
        <ele>499</ele>
        <time>2016-09-15T11:51:08Z</time>
      </trkpt>
      <trkpt lat="45.93736" lon="4.51356">
        <ele>500</ele>
        <time>2016-09-15T11:51:14Z</time>
      </trkpt>
      <trkpt lat="45.93736" lon="4.51354">
        <ele>500</ele>
        <time>2016-09-15T11:51:15Z</time>
      </trkpt>
      <trkpt lat="45.9374" lon="4.51343">
        <ele>502</ele>
        <time>2016-09-15T11:51:22Z</time>
      </trkpt>
      <trkpt lat="45.9374" lon="4.51342">
        <ele>502</ele>
        <time>2016-09-15T11:51:23Z</time>
      </trkpt>
      <trkpt lat="45.93744" lon="4.5133">
        <ele>503</ele>
        <time>2016-09-15T11:51:30Z</time>
      </trkpt>
      <trkpt lat="45.93744" lon="4.51329">
        <ele>503</ele>
        <time>2016-09-15T11:51:31Z</time>
      </trkpt>
      <trkpt lat="45.93747" lon="4.51317">
        <ele>500</ele>
        <time>2016-09-15T11:51:38Z</time>
      </trkpt>
      <trkpt lat="45.93748" lon="4.51315">
        <ele>500</ele>
        <time>2016-09-15T11:51:39Z</time>
      </trkpt>
      <trkpt lat="45.93752" lon="4.51304">
        <ele>510</ele>
        <time>2016-09-15T11:51:46Z</time>
      </trkpt>
      <trkpt lat="45.93753" lon="4.51303">
        <ele>510</ele>
        <time>2016-09-15T11:51:47Z</time>
      </trkpt>
      <trkpt lat="45.93759" lon="4.51294">
        <ele>510</ele>
        <time>2016-09-15T11:51:54Z</time>
      </trkpt>
      <trkpt lat="45.9376" lon="4.51293">
        <ele>510</ele>
        <time>2016-09-15T11:51:55Z</time>
      </trkpt>
      <trkpt lat="45.93764" lon="4.51283">
        <ele>510</ele>
        <time>2016-09-15T11:52:01Z</time>
      </trkpt>
      <trkpt lat="45.93764" lon="4.51281">
        <ele>510</ele>
        <time>2016-09-15T11:52:02Z</time>
      </trkpt>
      <trkpt lat="45.93768" lon="4.5127">
        <ele>510</ele>
        <time>2016-09-15T11:52:10Z</time>
      </trkpt>
      <trkpt lat="45.93768" lon="4.51269">
        <ele>510</ele>
        <time>2016-09-15T11:52:11Z</time>
      </trkpt>
      <trkpt lat="45.93773" lon="4.51259">
        <ele>510</ele>
        <time>2016-09-15T11:52:18Z</time>
      </trkpt>
      <trkpt lat="45.93774" lon="4.51257">
        <ele>510</ele>
        <time>2016-09-15T11:52:19Z</time>
      </trkpt>
      <trkpt lat="45.93781" lon="4.51249">
        <ele>507</ele>
        <time>2016-09-15T11:52:26Z</time>
      </trkpt>
      <trkpt lat="45.93781" lon="4.51248">
        <ele>508</ele>
        <time>2016-09-15T11:52:27Z</time>
      </trkpt>
      <trkpt lat="45.93787" lon="4.5124">
        <ele>508</ele>
        <time>2016-09-15T11:52:33Z</time>
      </trkpt>
      <trkpt lat="45.93787" lon="4.51239">
        <ele>508</ele>
        <time>2016-09-15T11:52:34Z</time>
      </trkpt>
      <trkpt lat="45.93793" lon="4.51231">
        <ele>509</ele>
        <time>2016-09-15T11:52:40Z</time>
      </trkpt>
      <trkpt lat="45.93794" lon="4.5123">
        <ele>509</ele>
        <time>2016-09-15T11:52:41Z</time>
      </trkpt>
      <trkpt lat="45.93801" lon="4.51223">
        <ele>509</ele>
        <time>2016-09-15T11:52:47Z</time>
      </trkpt>
      <trkpt lat="45.93802" lon="4.51222">
        <ele>509</ele>
        <time>2016-09-15T11:52:48Z</time>
      </trkpt>
      <trkpt lat="45.93808" lon="4.51214">
        <ele>509</ele>
        <time>2016-09-15T11:52:55Z</time>
      </trkpt>
      <trkpt lat="45.93809" lon="4.51212">
        <ele>509</ele>
        <time>2016-09-15T11:52:56Z</time>
      </trkpt>
      <trkpt lat="45.93815" lon="4.51204">
        <ele>510</ele>
        <time>2016-09-15T11:53:03Z</time>
      </trkpt>
      <trkpt lat="45.93816" lon="4.51203">
        <ele>510</ele>
        <time>2016-09-15T11:53:04Z</time>
      </trkpt>
      <trkpt lat="45.93822" lon="4.51194">
        <ele>510</ele>
        <time>2016-09-15T11:53:11Z</time>
      </trkpt>
      <trkpt lat="45.93822" lon="4.51192">
        <ele>510</ele>
        <time>2016-09-15T11:53:12Z</time>
      </trkpt>
      <trkpt lat="45.9383" lon="4.51186">
        <ele>510</ele>
        <time>2016-09-15T11:53:19Z</time>
      </trkpt>
      <trkpt lat="45.93831" lon="4.51185">
        <ele>510</ele>
        <time>2016-09-15T11:53:20Z</time>
      </trkpt>
      <trkpt lat="45.93838" lon="4.5118">
        <ele>515</ele>
        <time>2016-09-15T11:53:27Z</time>
      </trkpt>
      <trkpt lat="45.93839" lon="4.51179">
        <ele>515</ele>
        <time>2016-09-15T11:53:28Z</time>
      </trkpt>
      <trkpt lat="45.93845" lon="4.51171">
        <ele>515</ele>
        <time>2016-09-15T11:53:35Z</time>
      </trkpt>
      <trkpt lat="45.93846" lon="4.5117">
        <ele>515</ele>
        <time>2016-09-15T11:53:36Z</time>
      </trkpt>
      <trkpt lat="45.93853" lon="4.51166">
        <ele>516</ele>
        <time>2016-09-15T11:53:43Z</time>
      </trkpt>
      <trkpt lat="45.93854" lon="4.51166">
        <ele>516</ele>
        <time>2016-09-15T11:53:44Z</time>
      </trkpt>
      <trkpt lat="45.93862" lon="4.51162">
        <ele>517</ele>
        <time>2016-09-15T11:53:51Z</time>
      </trkpt>
      <trkpt lat="45.93863" lon="4.51161">
        <ele>517</ele>
        <time>2016-09-15T11:53:52Z</time>
      </trkpt>
      <trkpt lat="45.9387" lon="4.51155">
        <ele>518</ele>
        <time>2016-09-15T11:54:00Z</time>
      </trkpt>
      <trkpt lat="45.93871" lon="4.51154">
        <ele>518</ele>
        <time>2016-09-15T11:54:01Z</time>
      </trkpt>
      <trkpt lat="45.93879" lon="4.51151">
        <ele>519</ele>
        <time>2016-09-15T11:54:09Z</time>
      </trkpt>
      <trkpt lat="45.9388" lon="4.51151">
        <ele>519</ele>
        <time>2016-09-15T11:54:10Z</time>
      </trkpt>
      <trkpt lat="45.93888" lon="4.51145">
        <ele>520</ele>
        <time>2016-09-15T11:54:18Z</time>
      </trkpt>
      <trkpt lat="45.93889" lon="4.51144">
        <ele>520</ele>
        <time>2016-09-15T11:54:19Z</time>
      </trkpt>
      <trkpt lat="45.93897" lon="4.51141">
        <ele>521</ele>
        <time>2016-09-15T11:54:27Z</time>
      </trkpt>
      <trkpt lat="45.93898" lon="4.51141">
        <ele>521</ele>
        <time>2016-09-15T11:54:28Z</time>
      </trkpt>
      <trkpt lat="45.93906" lon="4.51136">
        <ele>521</ele>
        <time>2016-09-15T11:54:37Z</time>
      </trkpt>
      <trkpt lat="45.93907" lon="4.51135">
        <ele>522</ele>
        <time>2016-09-15T11:54:38Z</time>
      </trkpt>
      <trkpt lat="45.93915" lon="4.51132">
        <ele>522</ele>
        <time>2016-09-15T11:54:45Z</time>
      </trkpt>
      <trkpt lat="45.93916" lon="4.51131">
        <ele>522</ele>
        <time>2016-09-15T11:54:46Z</time>
      </trkpt>
      <trkpt lat="45.93923" lon="4.51125">
        <ele>527</ele>
        <time>2016-09-15T11:54:54Z</time>
      </trkpt>
      <trkpt lat="45.93924" lon="4.51125">
        <ele>528</ele>
        <time>2016-09-15T11:54:55Z</time>
      </trkpt>
      <trkpt lat="45.93932" lon="4.51121">
        <ele>528</ele>
        <time>2016-09-15T11:55:04Z</time>
      </trkpt>
      <trkpt lat="45.93933" lon="4.51121">
        <ele>528</ele>
        <time>2016-09-15T11:55:05Z</time>
      </trkpt>
      <trkpt lat="45.93942" lon="4.51116">
        <ele>528</ele>
        <time>2016-09-15T11:55:15Z</time>
      </trkpt>
      <trkpt lat="45.93942" lon="4.51116">
        <ele>528</ele>
        <time>2016-09-15T11:55:16Z</time>
      </trkpt>
      <trkpt lat="45.93945" lon="4.51103">
        <ele>528</ele>
        <time>2016-09-15T11:55:27Z</time>
      </trkpt>
      <trkpt lat="45.93945" lon="4.51102">
        <ele>528</ele>
        <time>2016-09-15T11:55:28Z</time>
      </trkpt>
      <trkpt lat="45.9395" lon="4.51092">
        <ele>529</ele>
        <time>2016-09-15T11:55:37Z</time>
      </trkpt>
      <trkpt lat="45.9395" lon="4.51091">
        <ele>529</ele>
        <time>2016-09-15T11:55:38Z</time>
      </trkpt>
      <trkpt lat="45.93955" lon="4.51081">
        <ele>535</ele>
        <time>2016-09-15T11:55:48Z</time>
      </trkpt>
      <trkpt lat="45.93955" lon="4.5108">
        <ele>535</ele>
        <time>2016-09-15T11:55:49Z</time>
      </trkpt>
      <trkpt lat="45.9396" lon="4.51069">
        <ele>536</ele>
        <time>2016-09-15T11:56:01Z</time>
      </trkpt>
      <trkpt lat="45.9396" lon="4.51068">
        <ele>536</ele>
        <time>2016-09-15T11:56:02Z</time>
      </trkpt>
      <trkpt lat="45.93963" lon="4.51057">
        <ele>536</ele>
        <time>2016-09-15T11:56:15Z</time>
      </trkpt>
      <trkpt lat="45.93963" lon="4.51056">
        <ele>536</ele>
        <time>2016-09-15T11:56:16Z</time>
      </trkpt>
      <trkpt lat="45.93967" lon="4.51045">
        <ele>537</ele>
        <time>2016-09-15T11:56:32Z</time>
      </trkpt>
      <trkpt lat="45.93967" lon="4.51044">
        <ele>537</ele>
        <time>2016-09-15T11:56:33Z</time>
      </trkpt>
      <trkpt lat="45.93974" lon="4.51035">
        <ele>538</ele>
        <time>2016-09-15T11:56:43Z</time>
      </trkpt>
      <trkpt lat="45.93974" lon="4.51034">
        <ele>538</ele>
        <time>2016-09-15T11:56:44Z</time>
      </trkpt>
      <trkpt lat="45.9398" lon="4.51025">
        <ele>539</ele>
        <time>2016-09-15T11:56:57Z</time>
      </trkpt>
      <trkpt lat="45.9398" lon="4.51024">
        <ele>539</ele>
        <time>2016-09-15T11:56:58Z</time>
      </trkpt>
      <trkpt lat="45.93983" lon="4.51013">
        <ele>541</ele>
        <time>2016-09-15T11:57:07Z</time>
      </trkpt>
      <trkpt lat="45.93983" lon="4.51012">
        <ele>541</ele>
        <time>2016-09-15T11:57:08Z</time>
      </trkpt>
      <trkpt lat="45.93987" lon="4.51001">
        <ele>542</ele>
        <time>2016-09-15T11:57:18Z</time>
      </trkpt>
      <trkpt lat="45.93987" lon="4.51">
        <ele>546</ele>
        <time>2016-09-15T11:57:19Z</time>
      </trkpt>
      <trkpt lat="45.9399" lon="4.50988">
        <ele>547</ele>
        <time>2016-09-15T11:57:30Z</time>
      </trkpt>
      <trkpt lat="45.9399" lon="4.50987">
        <ele>547</ele>
        <time>2016-09-15T11:57:31Z</time>
      </trkpt>
      <trkpt lat="45.93992" lon="4.50975">
        <ele>548</ele>
        <time>2016-09-15T11:57:45Z</time>
      </trkpt>
      <trkpt lat="45.93992" lon="4.50974">
        <ele>548</ele>
        <time>2016-09-15T11:57:46Z</time>
      </trkpt>
      <trkpt lat="45.93995" lon="4.50963">
        <ele>550</ele>
        <time>2016-09-15T11:57:56Z</time>
      </trkpt>
      <trkpt lat="45.93996" lon="4.50962">
        <ele>550</ele>
        <time>2016-09-15T11:57:57Z</time>
      </trkpt>
      <trkpt lat="45.93997" lon="4.5095">
        <ele>551</ele>
        <time>2016-09-15T11:58:08Z</time>
      </trkpt>
      <trkpt lat="45.93997" lon="4.50949">
        <ele>551</ele>
        <time>2016-09-15T11:58:09Z</time>
      </trkpt>
      <trkpt lat="45.93999" lon="4.50937">
        <ele>554</ele>
        <time>2016-09-15T11:58:21Z</time>
      </trkpt>
      <trkpt lat="45.94" lon="4.50936">
        <ele>554</ele>
        <time>2016-09-15T11:58:22Z</time>
      </trkpt>
      <trkpt lat="45.94002" lon="4.50923">
        <ele>555</ele>
        <time>2016-09-15T11:58:34Z</time>
      </trkpt>
      <trkpt lat="45.94002" lon="4.50922">
        <ele>556</ele>
        <time>2016-09-15T11:58:35Z</time>
      </trkpt>
      <trkpt lat="45.94006" lon="4.50911">
        <ele>559</ele>
        <time>2016-09-15T11:58:45Z</time>
      </trkpt>
      <trkpt lat="45.94006" lon="4.5091">
        <ele>559</ele>
        <time>2016-09-15T11:58:46Z</time>
      </trkpt>
      <trkpt lat="45.94008" lon="4.50898">
        <ele>558</ele>
        <time>2016-09-15T11:58:57Z</time>
      </trkpt>
      <trkpt lat="45.94009" lon="4.50897">
        <ele>558</ele>
        <time>2016-09-15T11:58:58Z</time>
      </trkpt>
      <trkpt lat="45.94011" lon="4.50885">
        <ele>558</ele>
        <time>2016-09-15T11:59:08Z</time>
      </trkpt>
      <trkpt lat="45.94012" lon="4.50884">
        <ele>558</ele>
        <time>2016-09-15T11:59:09Z</time>
      </trkpt>
      <trkpt lat="45.94014" lon="4.50873">
        <ele>559</ele>
        <time>2016-09-15T11:59:20Z</time>
      </trkpt>
      <trkpt lat="45.94014" lon="4.50872">
        <ele>559</ele>
        <time>2016-09-15T11:59:21Z</time>
      </trkpt>
      <trkpt lat="45.94016" lon="4.5086">
        <ele>561</ele>
        <time>2016-09-15T11:59:32Z</time>
      </trkpt>
      <trkpt lat="45.94017" lon="4.50858">
        <ele>561</ele>
        <time>2016-09-15T11:59:33Z</time>
      </trkpt>
      <trkpt lat="45.94019" lon="4.50847">
        <ele>562</ele>
        <time>2016-09-15T11:59:46Z</time>
      </trkpt>
      <trkpt lat="45.94019" lon="4.50846">
        <ele>562</ele>
        <time>2016-09-15T11:59:47Z</time>
      </trkpt>
      <trkpt lat="45.94022" lon="4.50834">
        <ele>563</ele>
        <time>2016-09-15T11:59:58Z</time>
      </trkpt>
      <trkpt lat="45.94022" lon="4.50833">
        <ele>570</ele>
        <time>2016-09-15T11:59:59Z</time>
      </trkpt>
      <trkpt lat="45.94024" lon="4.50821">
        <ele>570</ele>
        <time>2016-09-15T12:00:09Z</time>
      </trkpt>
      <trkpt lat="45.94024" lon="4.5082">
        <ele>570</ele>
        <time>2016-09-15T12:00:10Z</time>
      </trkpt>
      <trkpt lat="45.94027" lon="4.50808">
        <ele>570</ele>
        <time>2016-09-15T12:00:22Z</time>
      </trkpt>
      <trkpt lat="45.94027" lon="4.50807">
        <ele>570</ele>
        <time>2016-09-15T12:00:23Z</time>
      </trkpt>
      <trkpt lat="45.94028" lon="4.50794">
        <ele>571</ele>
        <time>2016-09-15T12:00:33Z</time>
      </trkpt>
      <trkpt lat="45.94028" lon="4.50793">
        <ele>571</ele>
        <time>2016-09-15T12:00:34Z</time>
      </trkpt>
      <trkpt lat="45.94031" lon="4.50781">
        <ele>572</ele>
        <time>2016-09-15T12:00:48Z</time>
      </trkpt>
      <trkpt lat="45.94031" lon="4.5078">
        <ele>572</ele>
        <time>2016-09-15T12:00:49Z</time>
      </trkpt>
      <trkpt lat="45.94035" lon="4.50769">
        <ele>573</ele>
        <time>2016-09-15T12:01:03Z</time>
      </trkpt>
      <trkpt lat="45.94035" lon="4.50768">
        <ele>573</ele>
        <time>2016-09-15T12:01:04Z</time>
      </trkpt>
      <trkpt lat="45.94037" lon="4.50756">
        <ele>574</ele>
        <time>2016-09-15T12:01:16Z</time>
      </trkpt>
      <trkpt lat="45.94037" lon="4.50755">
        <ele>574</ele>
        <time>2016-09-15T12:01:17Z</time>
      </trkpt>
      <trkpt lat="45.94041" lon="4.50744">
        <ele>582</ele>
        <time>2016-09-15T12:01:27Z</time>
      </trkpt>
      <trkpt lat="45.94041" lon="4.50743">
        <ele>582</ele>
        <time>2016-09-15T12:01:28Z</time>
      </trkpt>
      <trkpt lat="45.94044" lon="4.5073">
        <ele>583</ele>
        <time>2016-09-15T12:01:39Z</time>
      </trkpt>
      <trkpt lat="45.94044" lon="4.50729">
        <ele>583</ele>
        <time>2016-09-15T12:01:40Z</time>
      </trkpt>
      <trkpt lat="45.94045" lon="4.50716">
        <ele>584</ele>
        <time>2016-09-15T12:01:51Z</time>
      </trkpt>
      <trkpt lat="45.94046" lon="4.50715">
        <ele>584</ele>
        <time>2016-09-15T12:01:52Z</time>
      </trkpt>
      <trkpt lat="45.94046" lon="4.50703">
        <ele>585</ele>
        <time>2016-09-15T12:02:04Z</time>
      </trkpt>
      <trkpt lat="45.94046" lon="4.50702">
        <ele>585</ele>
        <time>2016-09-15T12:02:05Z</time>
      </trkpt>
      <trkpt lat="45.94049" lon="4.5069">
        <ele>586</ele>
        <time>2016-09-15T12:02:15Z</time>
      </trkpt>
      <trkpt lat="45.94049" lon="4.50689">
        <ele>586</ele>
        <time>2016-09-15T12:02:16Z</time>
      </trkpt>
      <trkpt lat="45.94051" lon="4.50677">
        <ele>587</ele>
        <time>2016-09-15T12:02:30Z</time>
      </trkpt>
      <trkpt lat="45.94051" lon="4.50676">
        <ele>587</ele>
        <time>2016-09-15T12:02:31Z</time>
      </trkpt>
      <trkpt lat="45.94053" lon="4.50663">
        <ele>592</ele>
        <time>2016-09-15T12:02:42Z</time>
      </trkpt>
      <trkpt lat="45.94054" lon="4.50662">
        <ele>592</ele>
        <time>2016-09-15T12:02:43Z</time>
      </trkpt>
      <trkpt lat="45.94056" lon="4.5065">
        <ele>592</ele>
        <time>2016-09-15T12:02:54Z</time>
      </trkpt>
      <trkpt lat="45.94056" lon="4.50649">
        <ele>592</ele>
        <time>2016-09-15T12:02:55Z</time>
      </trkpt>
      <trkpt lat="45.94061" lon="4.50639">
        <ele>592</ele>
        <time>2016-09-15T12:03:04Z</time>
      </trkpt>
      <trkpt lat="45.94061" lon="4.50638">
        <ele>592</ele>
        <time>2016-09-15T12:03:05Z</time>
      </trkpt>
      <trkpt lat="45.94063" lon="4.50626">
        <ele>593</ele>
        <time>2016-09-15T12:03:14Z</time>
      </trkpt>
      <trkpt lat="45.94064" lon="4.50625">
        <ele>593</ele>
        <time>2016-09-15T12:03:15Z</time>
      </trkpt>
      <trkpt lat="45.9407" lon="4.50618">
        <ele>593</ele>
        <time>2016-09-15T12:03:22Z</time>
      </trkpt>
      <trkpt lat="45.94071" lon="4.50617">
        <ele>594</ele>
        <time>2016-09-15T12:03:23Z</time>
      </trkpt>
      <trkpt lat="45.94076" lon="4.50608">
        <ele>595</ele>
        <time>2016-09-15T12:03:30Z</time>
      </trkpt>
      <trkpt lat="45.94077" lon="4.50606">
        <ele>595</ele>
        <time>2016-09-15T12:03:31Z</time>
      </trkpt>
      <trkpt lat="45.94082" lon="4.50597">
        <ele>596</ele>
        <time>2016-09-15T12:03:38Z</time>
      </trkpt>
      <trkpt lat="45.94083" lon="4.50596">
        <ele>597</ele>
        <time>2016-09-15T12:03:39Z</time>
      </trkpt>
      <trkpt lat="45.94088" lon="4.50586">
        <ele>598</ele>
        <time>2016-09-15T12:03:46Z</time>
      </trkpt>
      <trkpt lat="45.94088" lon="4.50585">
        <ele>598</ele>
        <time>2016-09-15T12:03:47Z</time>
      </trkpt>
      <trkpt lat="45.94092" lon="4.50575">
        <ele>599</ele>
        <time>2016-09-15T12:03:54Z</time>
      </trkpt>
      <trkpt lat="45.94093" lon="4.50573">
        <ele>599</ele>
        <time>2016-09-15T12:03:55Z</time>
      </trkpt>
      <trkpt lat="45.94097" lon="4.50562">
        <ele>599</ele>
        <time>2016-09-15T12:04:04Z</time>
      </trkpt>
      <trkpt lat="45.94097" lon="4.50561">
        <ele>599</ele>
        <time>2016-09-15T12:04:05Z</time>
      </trkpt>
      <trkpt lat="45.94101" lon="4.5055">
        <ele>599</ele>
        <time>2016-09-15T12:04:13Z</time>
      </trkpt>
      <trkpt lat="45.94101" lon="4.50549">
        <ele>599</ele>
        <time>2016-09-15T12:04:14Z</time>
      </trkpt>
      <trkpt lat="45.94107" lon="4.5054">
        <ele>599</ele>
        <time>2016-09-15T12:04:25Z</time>
      </trkpt>
      <trkpt lat="45.94108" lon="4.50538">
        <ele>599</ele>
        <time>2016-09-15T12:04:26Z</time>
      </trkpt>
      <trkpt lat="45.94112" lon="4.50528">
        <ele>600</ele>
        <time>2016-09-15T12:04:33Z</time>
      </trkpt>
      <trkpt lat="45.94113" lon="4.50526">
        <ele>600</ele>
        <time>2016-09-15T12:04:34Z</time>
      </trkpt>
      <trkpt lat="45.94116" lon="4.50515">
        <ele>600</ele>
        <time>2016-09-15T12:04:41Z</time>
      </trkpt>
      <trkpt lat="45.94117" lon="4.50514">
        <ele>600</ele>
        <time>2016-09-15T12:04:42Z</time>
      </trkpt>
      <trkpt lat="45.9412" lon="4.50502">
        <ele>600</ele>
        <time>2016-09-15T12:04:50Z</time>
      </trkpt>
      <trkpt lat="45.9412" lon="4.50501">
        <ele>600</ele>
        <time>2016-09-15T12:04:51Z</time>
      </trkpt>
      <trkpt lat="45.94126" lon="4.50491">
        <ele>605</ele>
        <time>2016-09-15T12:05:00Z</time>
      </trkpt>
      <trkpt lat="45.94126" lon="4.50489">
        <ele>605</ele>
        <time>2016-09-15T12:05:01Z</time>
      </trkpt>
      <trkpt lat="45.94133" lon="4.50481">
        <ele>605</ele>
        <time>2016-09-15T12:05:09Z</time>
      </trkpt>
      <trkpt lat="45.94134" lon="4.50479">
        <ele>605</ele>
        <time>2016-09-15T12:05:10Z</time>
      </trkpt>
      <trkpt lat="45.94138" lon="4.50468">
        <ele>606</ele>
        <time>2016-09-15T12:05:17Z</time>
      </trkpt>
      <trkpt lat="45.94139" lon="4.50467">
        <ele>606</ele>
        <time>2016-09-15T12:05:18Z</time>
      </trkpt>
      <trkpt lat="45.94141" lon="4.50456">
        <ele>606</ele>
        <time>2016-09-15T12:05:27Z</time>
      </trkpt>
      <trkpt lat="45.94142" lon="4.50454">
        <ele>606</ele>
        <time>2016-09-15T12:05:28Z</time>
      </trkpt>
      <trkpt lat="45.94146" lon="4.50444">
        <ele>607</ele>
        <time>2016-09-15T12:05:35Z</time>
      </trkpt>
      <trkpt lat="45.94147" lon="4.50442">
        <ele>607</ele>
        <time>2016-09-15T12:05:36Z</time>
      </trkpt>
      <trkpt lat="45.94151" lon="4.50432">
        <ele>608</ele>
        <time>2016-09-15T12:05:42Z</time>
      </trkpt>
      <trkpt lat="45.94152" lon="4.50431">
        <ele>608</ele>
        <time>2016-09-15T12:05:43Z</time>
      </trkpt>
      <trkpt lat="45.94155" lon="4.5042">
        <ele>609</ele>
        <time>2016-09-15T12:05:50Z</time>
      </trkpt>
      <trkpt lat="45.94156" lon="4.50418">
        <ele>609</ele>
        <time>2016-09-15T12:05:51Z</time>
      </trkpt>
      <trkpt lat="45.94159" lon="4.50407">
        <ele>611</ele>
        <time>2016-09-15T12:05:58Z</time>
      </trkpt>
      <trkpt lat="45.94159" lon="4.50405">
        <ele>611</ele>
        <time>2016-09-15T12:05:59Z</time>
      </trkpt>
      <trkpt lat="45.9416" lon="4.50394">
        <ele>611</ele>
        <time>2016-09-15T12:06:06Z</time>
      </trkpt>
      <trkpt lat="45.9416" lon="4.50393">
        <ele>611</ele>
        <time>2016-09-15T12:06:07Z</time>
      </trkpt>
      <trkpt lat="45.94163" lon="4.50381">
        <ele>612</ele>
        <time>2016-09-15T12:06:15Z</time>
      </trkpt>
      <trkpt lat="45.94164" lon="4.5038">
        <ele>612</ele>
        <time>2016-09-15T12:06:16Z</time>
      </trkpt>
      <trkpt lat="45.9417" lon="4.5037">
        <ele>606</ele>
        <time>2016-09-15T12:06:23Z</time>
      </trkpt>
      <trkpt lat="45.94171" lon="4.50368">
        <ele>606</ele>
        <time>2016-09-15T12:06:24Z</time>
      </trkpt>
      <trkpt lat="45.94175" lon="4.50358">
        <ele>607</ele>
        <time>2016-09-15T12:06:30Z</time>
      </trkpt>
      <trkpt lat="45.94176" lon="4.50357">
        <ele>607</ele>
        <time>2016-09-15T12:06:31Z</time>
      </trkpt>
      <trkpt lat="45.94179" lon="4.50345">
        <ele>609</ele>
        <time>2016-09-15T12:06:37Z</time>
      </trkpt>
      <trkpt lat="45.94179" lon="4.50343">
        <ele>609</ele>
        <time>2016-09-15T12:06:38Z</time>
      </trkpt>
      <trkpt lat="45.94181" lon="4.50331">
        <ele>612</ele>
        <time>2016-09-15T12:06:44Z</time>
      </trkpt>
      <trkpt lat="45.94181" lon="4.50329">
        <ele>612</ele>
        <time>2016-09-15T12:06:45Z</time>
      </trkpt>
      <trkpt lat="45.94184" lon="4.50318">
        <ele>611</ele>
        <time>2016-09-15T12:06:51Z</time>
      </trkpt>
      <trkpt lat="45.94185" lon="4.50316">
        <ele>611</ele>
        <time>2016-09-15T12:06:52Z</time>
      </trkpt>
      <trkpt lat="45.94189" lon="4.50306">
        <ele>610</ele>
        <time>2016-09-15T12:06:58Z</time>
      </trkpt>
      <trkpt lat="45.94189" lon="4.50304">
        <ele>610</ele>
        <time>2016-09-15T12:06:59Z</time>
      </trkpt>
      <trkpt lat="45.94192" lon="4.50293">
        <ele>609</ele>
        <time>2016-09-15T12:07:06Z</time>
      </trkpt>
      <trkpt lat="45.94192" lon="4.50291">
        <ele>609</ele>
        <time>2016-09-15T12:07:07Z</time>
      </trkpt>
      <trkpt lat="45.94196" lon="4.50281">
        <ele>609</ele>
        <time>2016-09-15T12:07:13Z</time>
      </trkpt>
      <trkpt lat="45.94197" lon="4.50279">
        <ele>609</ele>
        <time>2016-09-15T12:07:14Z</time>
      </trkpt>
      <trkpt lat="45.94199" lon="4.50268">
        <ele>610</ele>
        <time>2016-09-15T12:07:20Z</time>
      </trkpt>
      <trkpt lat="45.94199" lon="4.50266">
        <ele>610</ele>
        <time>2016-09-15T12:07:21Z</time>
      </trkpt>
      <trkpt lat="45.94202" lon="4.50255">
        <ele>610</ele>
        <time>2016-09-15T12:07:27Z</time>
      </trkpt>
      <trkpt lat="45.94203" lon="4.50253">
        <ele>609</ele>
        <time>2016-09-15T12:07:28Z</time>
      </trkpt>
      <trkpt lat="45.94202" lon="4.5024">
        <ele>612</ele>
        <time>2016-09-15T12:07:35Z</time>
      </trkpt>
      <trkpt lat="45.94202" lon="4.50239">
        <ele>612</ele>
        <time>2016-09-15T12:07:36Z</time>
      </trkpt>
      <trkpt lat="45.94201" lon="4.50226">
        <ele>612</ele>
        <time>2016-09-15T12:07:45Z</time>
      </trkpt>
      <trkpt lat="45.94201" lon="4.50225">
        <ele>612</ele>
        <time>2016-09-15T12:07:46Z</time>
      </trkpt>
      <trkpt lat="45.94203" lon="4.50213">
        <ele>612</ele>
        <time>2016-09-15T12:07:53Z</time>
      </trkpt>
      <trkpt lat="45.94203" lon="4.50211">
        <ele>612</ele>
        <time>2016-09-15T12:07:54Z</time>
      </trkpt>
      <trkpt lat="45.94203" lon="4.50199">
        <ele>612</ele>
        <time>2016-09-15T12:08:02Z</time>
      </trkpt>
      <trkpt lat="45.94203" lon="4.50197">
        <ele>612</ele>
        <time>2016-09-15T12:08:03Z</time>
      </trkpt>
      <trkpt lat="45.94202" lon="4.50186">
        <ele>613</ele>
        <time>2016-09-15T12:08:11Z</time>
      </trkpt>
      <trkpt lat="45.94202" lon="4.50184">
        <ele>613</ele>
        <time>2016-09-15T12:08:12Z</time>
      </trkpt>
      <trkpt lat="45.94201" lon="4.50172">
        <ele>613</ele>
        <time>2016-09-15T12:08:19Z</time>
      </trkpt>
      <trkpt lat="45.94201" lon="4.5017">
        <ele>613</ele>
        <time>2016-09-15T12:08:20Z</time>
      </trkpt>
      <trkpt lat="45.94202" lon="4.50158">
        <ele>615</ele>
        <time>2016-09-15T12:08:27Z</time>
      </trkpt>
      <trkpt lat="45.94203" lon="4.50156">
        <ele>615</ele>
        <time>2016-09-15T12:08:28Z</time>
      </trkpt>
      <trkpt lat="45.94205" lon="4.50145">
        <ele>615</ele>
        <time>2016-09-15T12:08:34Z</time>
      </trkpt>
      <trkpt lat="45.94206" lon="4.50143">
        <ele>615</ele>
        <time>2016-09-15T12:08:35Z</time>
      </trkpt>
      <trkpt lat="45.9421" lon="4.50132">
        <ele>615</ele>
        <time>2016-09-15T12:08:42Z</time>
      </trkpt>
      <trkpt lat="45.9421" lon="4.50129">
        <ele>615</ele>
        <time>2016-09-15T12:08:43Z</time>
      </trkpt>
      <trkpt lat="45.9421" lon="4.50118">
        <ele>615</ele>
        <time>2016-09-15T12:08:49Z</time>
      </trkpt>
      <trkpt lat="45.9421" lon="4.50116">
        <ele>615</ele>
        <time>2016-09-15T12:08:50Z</time>
      </trkpt>
      <trkpt lat="45.9421" lon="4.50104">
        <ele>615</ele>
        <time>2016-09-15T12:08:58Z</time>
      </trkpt>
      <trkpt lat="45.9421" lon="4.50102">
        <ele>615</ele>
        <time>2016-09-15T12:08:59Z</time>
      </trkpt>
      <trkpt lat="45.94212" lon="4.5009">
        <ele>615</ele>
        <time>2016-09-15T12:09:07Z</time>
      </trkpt>
      <trkpt lat="45.94212" lon="4.50088">
        <ele>615</ele>
        <time>2016-09-15T12:09:08Z</time>
      </trkpt>
      <trkpt lat="45.94212" lon="4.50077">
        <ele>617</ele>
        <time>2016-09-15T12:09:15Z</time>
      </trkpt>
      <trkpt lat="45.94212" lon="4.50075">
        <ele>617</ele>
        <time>2016-09-15T12:09:16Z</time>
      </trkpt>
      <trkpt lat="45.94213" lon="4.50064">
        <ele>617</ele>
        <time>2016-09-15T12:09:22Z</time>
      </trkpt>
      <trkpt lat="45.94213" lon="4.50062">
        <ele>617</ele>
        <time>2016-09-15T12:09:23Z</time>
      </trkpt>
      <trkpt lat="45.94214" lon="4.5005">
        <ele>617</ele>
        <time>2016-09-15T12:09:32Z</time>
      </trkpt>
      <trkpt lat="45.94214" lon="4.50048">
        <ele>617</ele>
        <time>2016-09-15T12:09:33Z</time>
      </trkpt>
      <trkpt lat="45.94218" lon="4.50039">
        <ele>617</ele>
        <time>2016-09-15T12:09:38Z</time>
      </trkpt>
      <trkpt lat="45.94218" lon="4.50037">
        <ele>617</ele>
        <time>2016-09-15T12:09:39Z</time>
      </trkpt>
      <trkpt lat="45.94221" lon="4.50025">
        <ele>618</ele>
        <time>2016-09-15T12:09:45Z</time>
      </trkpt>
      <trkpt lat="45.94222" lon="4.50024">
        <ele>618</ele>
        <time>2016-09-15T12:09:46Z</time>
      </trkpt>
      <trkpt lat="45.94223" lon="4.50011">
        <ele>618</ele>
        <time>2016-09-15T12:09:54Z</time>
      </trkpt>
      <trkpt lat="45.94224" lon="4.5001">
        <ele>618</ele>
        <time>2016-09-15T12:09:55Z</time>
      </trkpt>
      <trkpt lat="45.94227" lon="4.49998">
        <ele>618</ele>
        <time>2016-09-15T12:10:04Z</time>
      </trkpt>
      <trkpt lat="45.94227" lon="4.49996">
        <ele>618</ele>
        <time>2016-09-15T12:10:05Z</time>
      </trkpt>
      <trkpt lat="45.94227" lon="4.49983">
        <ele>618</ele>
        <time>2016-09-15T12:10:12Z</time>
      </trkpt>
      <trkpt lat="45.94227" lon="4.49982">
        <ele>618</ele>
        <time>2016-09-15T12:10:13Z</time>
      </trkpt>
      <trkpt lat="45.9423" lon="4.49971">
        <ele>618</ele>
        <time>2016-09-15T12:10:19Z</time>
      </trkpt>
      <trkpt lat="45.9423" lon="4.49969">
        <ele>618</ele>
        <time>2016-09-15T12:10:20Z</time>
      </trkpt>
      <trkpt lat="45.9423" lon="4.49957">
        <ele>618</ele>
        <time>2016-09-15T12:10:27Z</time>
      </trkpt>
      <trkpt lat="45.9423" lon="4.49955">
        <ele>618</ele>
        <time>2016-09-15T12:10:28Z</time>
      </trkpt>
      <trkpt lat="45.94228" lon="4.49943">
        <ele>617</ele>
        <time>2016-09-15T12:10:35Z</time>
      </trkpt>
      <trkpt lat="45.94229" lon="4.49941">
        <ele>617</ele>
        <time>2016-09-15T12:10:36Z</time>
      </trkpt>
      <trkpt lat="45.9423" lon="4.49928">
        <ele>618</ele>
        <time>2016-09-15T12:10:42Z</time>
      </trkpt>
      <trkpt lat="45.9423" lon="4.49926">
        <ele>618</ele>
        <time>2016-09-15T12:10:43Z</time>
      </trkpt>
      <trkpt lat="45.94232" lon="4.49914">
        <ele>617</ele>
        <time>2016-09-15T12:10:49Z</time>
      </trkpt>
      <trkpt lat="45.94232" lon="4.49912">
        <ele>617</ele>
        <time>2016-09-15T12:10:50Z</time>
      </trkpt>
      <trkpt lat="45.94234" lon="4.499">
        <ele>617</ele>
        <time>2016-09-15T12:10:58Z</time>
      </trkpt>
      <trkpt lat="45.94234" lon="4.49899">
        <ele>617</ele>
        <time>2016-09-15T12:10:59Z</time>
      </trkpt>
      <trkpt lat="45.94239" lon="4.49889">
        <ele>617</ele>
        <time>2016-09-15T12:11:06Z</time>
      </trkpt>
      <trkpt lat="45.9424" lon="4.49887">
        <ele>617</ele>
        <time>2016-09-15T12:11:07Z</time>
      </trkpt>
      <trkpt lat="45.94244" lon="4.49878">
        <ele>617</ele>
        <time>2016-09-15T12:11:13Z</time>
      </trkpt>
      <trkpt lat="45.94245" lon="4.49876">
        <ele>617</ele>
        <time>2016-09-15T12:11:14Z</time>
      </trkpt>
      <trkpt lat="45.9425" lon="4.49866">
        <ele>617</ele>
        <time>2016-09-15T12:11:21Z</time>
      </trkpt>
      <trkpt lat="45.94251" lon="4.49865">
        <ele>618</ele>
        <time>2016-09-15T12:11:22Z</time>
      </trkpt>
      <trkpt lat="45.94255" lon="4.49854">
        <ele>618</ele>
        <time>2016-09-15T12:11:32Z</time>
      </trkpt>
      <trkpt lat="45.94255" lon="4.49853">
        <ele>618</ele>
        <time>2016-09-15T12:11:33Z</time>
      </trkpt>
      <trkpt lat="45.94257" lon="4.49841">
        <ele>620</ele>
        <time>2016-09-15T12:11:41Z</time>
      </trkpt>
      <trkpt lat="45.94257" lon="4.49839">
        <ele>620</ele>
        <time>2016-09-15T12:11:42Z</time>
      </trkpt>
      <trkpt lat="45.9426" lon="4.49829">
        <ele>622</ele>
        <time>2016-09-15T12:11:47Z</time>
      </trkpt>
      <trkpt lat="45.94261" lon="4.49827">
        <ele>622</ele>
        <time>2016-09-15T12:11:48Z</time>
      </trkpt>
      <trkpt lat="45.94263" lon="4.49814">
        <ele>622</ele>
        <time>2016-09-15T12:11:54Z</time>
      </trkpt>
      <trkpt lat="45.94264" lon="4.49812">
        <ele>622</ele>
        <time>2016-09-15T12:11:55Z</time>
      </trkpt>
      <trkpt lat="45.94265" lon="4.498">
        <ele>622</ele>
        <time>2016-09-15T12:12:02Z</time>
      </trkpt>
      <trkpt lat="45.94266" lon="4.49798">
        <ele>622</ele>
        <time>2016-09-15T12:12:03Z</time>
      </trkpt>
      <trkpt lat="45.94269" lon="4.49787">
        <ele>622</ele>
        <time>2016-09-15T12:12:10Z</time>
      </trkpt>
      <trkpt lat="45.9427" lon="4.49785">
        <ele>622</ele>
        <time>2016-09-15T12:12:11Z</time>
      </trkpt>
      <trkpt lat="45.94273" lon="4.49776">
        <ele>623</ele>
        <time>2016-09-15T12:12:17Z</time>
      </trkpt>
      <trkpt lat="45.94274" lon="4.49774">
        <ele>623</ele>
        <time>2016-09-15T12:12:18Z</time>
      </trkpt>
      <trkpt lat="45.94279" lon="4.49764">
        <ele>623</ele>
        <time>2016-09-15T12:12:24Z</time>
      </trkpt>
      <trkpt lat="45.94279" lon="4.49762">
        <ele>623</ele>
        <time>2016-09-15T12:12:25Z</time>
      </trkpt>
      <trkpt lat="45.94286" lon="4.49757">
        <ele>623</ele>
        <time>2016-09-15T12:12:32Z</time>
      </trkpt>
      <trkpt lat="45.94287" lon="4.49756">
        <ele>623</ele>
        <time>2016-09-15T12:12:33Z</time>
      </trkpt>
      <trkpt lat="45.94292" lon="4.49745">
        <ele>628</ele>
        <time>2016-09-15T12:12:39Z</time>
      </trkpt>
      <trkpt lat="45.94293" lon="4.49744">
        <ele>628</ele>
        <time>2016-09-15T12:12:40Z</time>
      </trkpt>
      <trkpt lat="45.94297" lon="4.49734">
        <ele>629</ele>
        <time>2016-09-15T12:12:46Z</time>
      </trkpt>
      <trkpt lat="45.94298" lon="4.49733">
        <ele>629</ele>
        <time>2016-09-15T12:12:47Z</time>
      </trkpt>
      <trkpt lat="45.94305" lon="4.49725">
        <ele>630</ele>
        <time>2016-09-15T12:12:54Z</time>
      </trkpt>
      <trkpt lat="45.94306" lon="4.49724">
        <ele>630</ele>
        <time>2016-09-15T12:12:55Z</time>
      </trkpt>
      <trkpt lat="45.9431" lon="4.49714">
        <ele>631</ele>
        <time>2016-09-15T12:13:04Z</time>
      </trkpt>
      <trkpt lat="45.94311" lon="4.49713">
        <ele>631</ele>
        <time>2016-09-15T12:13:05Z</time>
      </trkpt>
      <trkpt lat="45.94319" lon="4.4971">
        <ele>631</ele>
        <time>2016-09-15T12:13:17Z</time>
      </trkpt>
      <trkpt lat="45.9432" lon="4.49709">
        <ele>631</ele>
        <time>2016-09-15T12:13:18Z</time>
      </trkpt>
      <trkpt lat="45.94327" lon="4.49702">
        <ele>632</ele>
        <time>2016-09-15T12:13:27Z</time>
      </trkpt>
      <trkpt lat="45.94328" lon="4.49701">
        <ele>632</ele>
        <time>2016-09-15T12:13:28Z</time>
      </trkpt>
      <trkpt lat="45.94335" lon="4.49694">
        <ele>634</ele>
        <time>2016-09-15T12:13:43Z</time>
      </trkpt>
      <trkpt lat="45.94336" lon="4.49694">
        <ele>634</ele>
        <time>2016-09-15T12:13:44Z</time>
      </trkpt>
      <trkpt lat="45.94343" lon="4.49688">
        <ele>635</ele>
        <time>2016-09-15T12:13:53Z</time>
      </trkpt>
      <trkpt lat="45.94344" lon="4.49686">
        <ele>635</ele>
        <time>2016-09-15T12:13:54Z</time>
      </trkpt>
      <trkpt lat="45.94349" lon="4.49676">
        <ele>636</ele>
        <time>2016-09-15T12:14:02Z</time>
      </trkpt>
      <trkpt lat="45.9435" lon="4.49675">
        <ele>636</ele>
        <time>2016-09-15T12:14:03Z</time>
      </trkpt>
      <trkpt lat="45.94354" lon="4.49665">
        <ele>645</ele>
        <time>2016-09-15T12:14:11Z</time>
      </trkpt>
      <trkpt lat="45.94355" lon="4.49665">
        <ele>645</ele>
        <time>2016-09-15T12:14:12Z</time>
      </trkpt>
      <trkpt lat="45.9436" lon="4.49655">
        <ele>646</ele>
        <time>2016-09-15T12:14:22Z</time>
      </trkpt>
      <trkpt lat="45.9436" lon="4.49654">
        <ele>646</ele>
        <time>2016-09-15T12:14:23Z</time>
      </trkpt>
      <trkpt lat="45.94367" lon="4.49647">
        <ele>647</ele>
        <time>2016-09-15T12:14:34Z</time>
      </trkpt>
      <trkpt lat="45.94368" lon="4.49646">
        <ele>647</ele>
        <time>2016-09-15T12:14:35Z</time>
      </trkpt>
      <trkpt lat="45.94376" lon="4.4964">
        <ele>648</ele>
        <time>2016-09-15T12:14:44Z</time>
      </trkpt>
      <trkpt lat="45.94377" lon="4.49641">
        <ele>648</ele>
        <time>2016-09-15T12:14:45Z</time>
      </trkpt>
      <trkpt lat="45.94384" lon="4.49638">
        <ele>648</ele>
        <time>2016-09-15T12:14:53Z</time>
      </trkpt>
      <trkpt lat="45.94386" lon="4.49637">
        <ele>648</ele>
        <time>2016-09-15T12:14:54Z</time>
      </trkpt>
      <trkpt lat="45.94394" lon="4.49635">
        <ele>648</ele>
        <time>2016-09-15T12:15:02Z</time>
      </trkpt>
      <trkpt lat="45.94395" lon="4.49634">
        <ele>648</ele>
        <time>2016-09-15T12:15:03Z</time>
      </trkpt>
      <trkpt lat="45.94404" lon="4.49633">
        <ele>648</ele>
        <time>2016-09-15T12:15:14Z</time>
      </trkpt>
      <trkpt lat="45.94405" lon="4.49633">
        <ele>648</ele>
        <time>2016-09-15T12:15:15Z</time>
      </trkpt>
      <trkpt lat="45.94412" lon="4.49627">
        <ele>650</ele>
        <time>2016-09-15T12:15:23Z</time>
      </trkpt>
      <trkpt lat="45.94413" lon="4.49626">
        <ele>650</ele>
        <time>2016-09-15T12:15:24Z</time>
      </trkpt>
      <trkpt lat="45.94421" lon="4.49626">
        <ele>650</ele>
        <time>2016-09-15T12:15:33Z</time>
      </trkpt>
      <trkpt lat="45.94422" lon="4.49626">
        <ele>650</ele>
        <time>2016-09-15T12:15:34Z</time>
      </trkpt>
      <trkpt lat="45.94431" lon="4.49625">
        <ele>650</ele>
        <time>2016-09-15T12:15:43Z</time>
      </trkpt>
      <trkpt lat="45.94431" lon="4.49624">
        <ele>650</ele>
        <time>2016-09-15T12:15:44Z</time>
      </trkpt>
      <trkpt lat="45.94438" lon="4.49617">
        <ele>651</ele>
        <time>2016-09-15T12:15:53Z</time>
      </trkpt>
      <trkpt lat="45.94439" lon="4.49616">
        <ele>651</ele>
        <time>2016-09-15T12:15:54Z</time>
      </trkpt>
      <trkpt lat="45.94445" lon="4.4961">
        <ele>651</ele>
        <time>2016-09-15T12:16:00Z</time>
      </trkpt>
      <trkpt lat="45.94447" lon="4.4961">
        <ele>651</ele>
        <time>2016-09-15T12:16:01Z</time>
      </trkpt>
      <trkpt lat="45.94456" lon="4.49607">
        <ele>651</ele>
        <time>2016-09-15T12:16:08Z</time>
      </trkpt>
      <trkpt lat="45.94457" lon="4.49607">
        <ele>651</ele>
        <time>2016-09-15T12:16:09Z</time>
      </trkpt>
      <trkpt lat="45.94465" lon="4.49604">
        <ele>652</ele>
        <time>2016-09-15T12:16:16Z</time>
      </trkpt>
      <trkpt lat="45.94467" lon="4.49604">
        <ele>652</ele>
        <time>2016-09-15T12:16:17Z</time>
      </trkpt>
      <trkpt lat="45.94475" lon="4.49601">
        <ele>652</ele>
        <time>2016-09-15T12:16:25Z</time>
      </trkpt>
      <trkpt lat="45.94476" lon="4.49601">
        <ele>652</ele>
        <time>2016-09-15T12:16:26Z</time>
      </trkpt>
      <trkpt lat="45.94485" lon="4.496">
        <ele>653</ele>
        <time>2016-09-15T12:16:34Z</time>
      </trkpt>
      <trkpt lat="45.94485" lon="4.496">
        <ele>653</ele>
        <time>2016-09-15T12:16:35Z</time>
      </trkpt>
      <trkpt lat="45.94494" lon="4.49597">
        <ele>654</ele>
        <time>2016-09-15T12:16:43Z</time>
      </trkpt>
      <trkpt lat="45.94495" lon="4.49597">
        <ele>654</ele>
        <time>2016-09-15T12:16:44Z</time>
      </trkpt>
      <trkpt lat="45.94504" lon="4.49595">
        <ele>652</ele>
        <time>2016-09-15T12:16:51Z</time>
      </trkpt>
      <trkpt lat="45.94505" lon="4.49595">
        <ele>652</ele>
        <time>2016-09-15T12:16:52Z</time>
      </trkpt>
      <trkpt lat="45.94513" lon="4.49591">
        <ele>651</ele>
        <time>2016-09-15T12:16:58Z</time>
      </trkpt>
      <trkpt lat="45.94514" lon="4.4959">
        <ele>651</ele>
        <time>2016-09-15T12:16:59Z</time>
      </trkpt>
      <trkpt lat="45.9452" lon="4.49583">
        <ele>660</ele>
        <time>2016-09-15T12:17:06Z</time>
      </trkpt>
      <trkpt lat="45.94521" lon="4.49582">
        <ele>660</ele>
        <time>2016-09-15T12:17:07Z</time>
      </trkpt>
      <trkpt lat="45.94529" lon="4.49577">
        <ele>660</ele>
        <time>2016-09-15T12:17:15Z</time>
      </trkpt>
      <trkpt lat="45.9453" lon="4.49576">
        <ele>660</ele>
        <time>2016-09-15T12:17:16Z</time>
      </trkpt>
      <trkpt lat="45.94537" lon="4.49571">
        <ele>660</ele>
        <time>2016-09-15T12:17:22Z</time>
      </trkpt>
      <trkpt lat="45.94539" lon="4.4957">
        <ele>660</ele>
        <time>2016-09-15T12:17:23Z</time>
      </trkpt>
      <trkpt lat="45.94546" lon="4.49563">
        <ele>660</ele>
        <time>2016-09-15T12:17:30Z</time>
      </trkpt>
      <trkpt lat="45.94546" lon="4.49562">
        <ele>660</ele>
        <time>2016-09-15T12:17:31Z</time>
      </trkpt>
      <trkpt lat="45.94553" lon="4.49555">
        <ele>660</ele>
        <time>2016-09-15T12:17:39Z</time>
      </trkpt>
      <trkpt lat="45.94555" lon="4.49555">
        <ele>660</ele>
        <time>2016-09-15T12:17:40Z</time>
      </trkpt>
      <trkpt lat="45.94563" lon="4.4955">
        <ele>660</ele>
        <time>2016-09-15T12:17:49Z</time>
      </trkpt>
      <trkpt lat="45.94563" lon="4.4955">
        <ele>660</ele>
        <time>2016-09-15T12:17:50Z</time>
      </trkpt>
      <trkpt lat="45.94572" lon="4.49547">
        <ele>660</ele>
        <time>2016-09-15T12:18:01Z</time>
      </trkpt>
      <trkpt lat="45.94572" lon="4.49547">
        <ele>660</ele>
        <time>2016-09-15T12:18:02Z</time>
      </trkpt>
      <trkpt lat="45.94579" lon="4.49555">
        <ele>658</ele>
        <time>2016-09-15T12:18:13Z</time>
      </trkpt>
      <trkpt lat="45.94579" lon="4.49556">
        <ele>658</ele>
        <time>2016-09-15T12:18:14Z</time>
      </trkpt>
      <trkpt lat="45.94585" lon="4.49565">
        <ele>651</ele>
        <time>2016-09-15T12:18:21Z</time>
      </trkpt>
      <trkpt lat="45.94586" lon="4.49566">
        <ele>651</ele>
        <time>2016-09-15T12:18:22Z</time>
      </trkpt>
      <trkpt lat="45.94594" lon="4.49568">
        <ele>651</ele>
        <time>2016-09-15T12:18:29Z</time>
      </trkpt>
      <trkpt lat="45.94596" lon="4.49567">
        <ele>651</ele>
        <time>2016-09-15T12:18:30Z</time>
      </trkpt>
      <trkpt lat="45.94605" lon="4.49569">
        <ele>651</ele>
        <time>2016-09-15T12:18:35Z</time>
      </trkpt>
      <trkpt lat="45.94606" lon="4.49569">
        <ele>651</ele>
        <time>2016-09-15T12:18:36Z</time>
      </trkpt>
      <trkpt lat="45.94615" lon="4.49569">
        <ele>651</ele>
        <time>2016-09-15T12:18:41Z</time>
      </trkpt>
      <trkpt lat="45.94617" lon="4.49568">
        <ele>651</ele>
        <time>2016-09-15T12:18:42Z</time>
      </trkpt>
      <trkpt lat="45.94625" lon="4.49566">
        <ele>651</ele>
        <time>2016-09-15T12:18:49Z</time>
      </trkpt>
      <trkpt lat="45.94627" lon="4.49566">
        <ele>651</ele>
        <time>2016-09-15T12:18:50Z</time>
      </trkpt>
      <trkpt lat="45.94635" lon="4.49565">
        <ele>650</ele>
        <time>2016-09-15T12:18:57Z</time>
      </trkpt>
      <trkpt lat="45.94636" lon="4.49565">
        <ele>650</ele>
        <time>2016-09-15T12:18:58Z</time>
      </trkpt>
      <trkpt lat="45.94645" lon="4.49565">
        <ele>649</ele>
        <time>2016-09-15T12:19:05Z</time>
      </trkpt>
      <trkpt lat="45.94646" lon="4.49565">
        <ele>648</ele>
        <time>2016-09-15T12:19:06Z</time>
      </trkpt>
      <trkpt lat="45.94654" lon="4.49564">
        <ele>648</ele>
        <time>2016-09-15T12:19:12Z</time>
      </trkpt>
      <trkpt lat="45.94656" lon="4.49563">
        <ele>648</ele>
        <time>2016-09-15T12:19:13Z</time>
      </trkpt>
      <trkpt lat="45.94663" lon="4.4956">
        <ele>648</ele>
        <time>2016-09-15T12:19:19Z</time>
      </trkpt>
      <trkpt lat="45.94665" lon="4.4956">
        <ele>648</ele>
        <time>2016-09-15T12:19:20Z</time>
      </trkpt>
      <trkpt lat="45.94672" lon="4.49556">
        <ele>640</ele>
        <time>2016-09-15T12:19:28Z</time>
      </trkpt>
      <trkpt lat="45.94673" lon="4.49555">
        <ele>640</ele>
        <time>2016-09-15T12:19:29Z</time>
      </trkpt>
      <trkpt lat="45.94681" lon="4.49549">
        <ele>641</ele>
        <time>2016-09-15T12:19:36Z</time>
      </trkpt>
      <trkpt lat="45.94682" lon="4.49548">
        <ele>641</ele>
        <time>2016-09-15T12:19:37Z</time>
      </trkpt>
      <trkpt lat="45.94689" lon="4.49542">
        <ele>641</ele>
        <time>2016-09-15T12:19:45Z</time>
      </trkpt>
      <trkpt lat="45.9469" lon="4.49542">
        <ele>641</ele>
        <time>2016-09-15T12:19:46Z</time>
      </trkpt>
      <trkpt lat="45.94698" lon="4.49539">
        <ele>640</ele>
        <time>2016-09-15T12:19:54Z</time>
      </trkpt>
      <trkpt lat="45.94699" lon="4.49538">
        <ele>640</ele>
        <time>2016-09-15T12:19:55Z</time>
      </trkpt>
      <trkpt lat="45.94707" lon="4.49536">
        <ele>640</ele>
        <time>2016-09-15T12:20:02Z</time>
      </trkpt>
      <trkpt lat="45.94708" lon="4.49535">
        <ele>640</ele>
        <time>2016-09-15T12:20:03Z</time>
      </trkpt>
      <trkpt lat="45.94716" lon="4.4953">
        <ele>639</ele>
        <time>2016-09-15T12:20:10Z</time>
      </trkpt>
      <trkpt lat="45.94718" lon="4.49529">
        <ele>639</ele>
        <time>2016-09-15T12:20:11Z</time>
      </trkpt>
      <trkpt lat="45.94725" lon="4.49523">
        <ele>639</ele>
        <time>2016-09-15T12:20:17Z</time>
      </trkpt>
      <trkpt lat="45.94726" lon="4.49523">
        <ele>639</ele>
        <time>2016-09-15T12:20:18Z</time>
      </trkpt>
      <trkpt lat="45.94733" lon="4.49516">
        <ele>639</ele>
        <time>2016-09-15T12:20:24Z</time>
      </trkpt>
      <trkpt lat="45.94734" lon="4.49515">
        <ele>639</ele>
        <time>2016-09-15T12:20:25Z</time>
      </trkpt>
      <trkpt lat="45.94741" lon="4.4951">
        <ele>639</ele>
        <time>2016-09-15T12:20:33Z</time>
      </trkpt>
      <trkpt lat="45.94742" lon="4.49509">
        <ele>639</ele>
        <time>2016-09-15T12:20:34Z</time>
      </trkpt>
      <trkpt lat="45.94749" lon="4.495">
        <ele>640</ele>
        <time>2016-09-15T12:20:41Z</time>
      </trkpt>
      <trkpt lat="45.9475" lon="4.49499">
        <ele>641</ele>
        <time>2016-09-15T12:20:42Z</time>
      </trkpt>
      <trkpt lat="45.94755" lon="4.49489">
        <ele>638</ele>
        <time>2016-09-15T12:20:48Z</time>
      </trkpt>
      <trkpt lat="45.94755" lon="4.49487">
        <ele>638</ele>
        <time>2016-09-15T12:20:49Z</time>
      </trkpt>
      <trkpt lat="45.94763" lon="4.49481">
        <ele>637</ele>
        <time>2016-09-15T12:20:58Z</time>
      </trkpt>
      <trkpt lat="45.94763" lon="4.4948">
        <ele>637</ele>
        <time>2016-09-15T12:20:59Z</time>
      </trkpt>
      <trkpt lat="45.9477" lon="4.49475">
        <ele>636</ele>
        <time>2016-09-15T12:21:08Z</time>
      </trkpt>
      <trkpt lat="45.94771" lon="4.49474">
        <ele>636</ele>
        <time>2016-09-15T12:21:09Z</time>
      </trkpt>
      <trkpt lat="45.94779" lon="4.49469">
        <ele>635</ele>
        <time>2016-09-15T12:21:18Z</time>
      </trkpt>
      <trkpt lat="45.9478" lon="4.49469">
        <ele>635</ele>
        <time>2016-09-15T12:21:19Z</time>
      </trkpt>
      <trkpt lat="45.94788" lon="4.49465">
        <ele>634</ele>
        <time>2016-09-15T12:21:26Z</time>
      </trkpt>
      <trkpt lat="45.94789" lon="4.49465">
        <ele>634</ele>
        <time>2016-09-15T12:21:27Z</time>
      </trkpt>
      <trkpt lat="45.94797" lon="4.49463">
        <ele>633</ele>
        <time>2016-09-15T12:21:34Z</time>
      </trkpt>
      <trkpt lat="45.94798" lon="4.49462">
        <ele>633</ele>
        <time>2016-09-15T12:21:35Z</time>
      </trkpt>
      <trkpt lat="45.94806" lon="4.49457">
        <ele>632</ele>
        <time>2016-09-15T12:21:42Z</time>
      </trkpt>
      <trkpt lat="45.94807" lon="4.49456">
        <ele>632</ele>
        <time>2016-09-15T12:21:43Z</time>
      </trkpt>
      <trkpt lat="45.94815" lon="4.49451">
        <ele>631</ele>
        <time>2016-09-15T12:21:50Z</time>
      </trkpt>
      <trkpt lat="45.94817" lon="4.4945">
        <ele>631</ele>
        <time>2016-09-15T12:21:51Z</time>
      </trkpt>
      <trkpt lat="45.94824" lon="4.49447">
        <ele>630</ele>
        <time>2016-09-15T12:21:57Z</time>
      </trkpt>
      <trkpt lat="45.94825" lon="4.49446">
        <ele>630</ele>
        <time>2016-09-15T12:21:58Z</time>
      </trkpt>
      <trkpt lat="45.94833" lon="4.49443">
        <ele>629</ele>
        <time>2016-09-15T12:22:12Z</time>
      </trkpt>
      <trkpt lat="45.94834" lon="4.49443">
        <ele>619</ele>
        <time>2016-09-15T12:22:13Z</time>
      </trkpt>
      <trkpt lat="45.94842" lon="4.49442">
        <ele>619</ele>
        <time>2016-09-15T12:22:19Z</time>
      </trkpt>
      <trkpt lat="45.94843" lon="4.49442">
        <ele>619</ele>
        <time>2016-09-15T12:22:20Z</time>
      </trkpt>
      <trkpt lat="45.94852" lon="4.49439">
        <ele>618</ele>
        <time>2016-09-15T12:22:27Z</time>
      </trkpt>
      <trkpt lat="45.94853" lon="4.49439">
        <ele>618</ele>
        <time>2016-09-15T12:22:28Z</time>
      </trkpt>
      <trkpt lat="45.94861" lon="4.49438">
        <ele>617</ele>
        <time>2016-09-15T12:22:34Z</time>
      </trkpt>
      <trkpt lat="45.94863" lon="4.49438">
        <ele>617</ele>
        <time>2016-09-15T12:22:35Z</time>
      </trkpt>
      <trkpt lat="45.94871" lon="4.49435">
        <ele>616</ele>
        <time>2016-09-15T12:22:42Z</time>
      </trkpt>
      <trkpt lat="45.94872" lon="4.49435">
        <ele>616</ele>
        <time>2016-09-15T12:22:43Z</time>
      </trkpt>
      <trkpt lat="45.9488" lon="4.49436">
        <ele>615</ele>
        <time>2016-09-15T12:22:49Z</time>
      </trkpt>
      <trkpt lat="45.94881" lon="4.49435">
        <ele>615</ele>
        <time>2016-09-15T12:22:50Z</time>
      </trkpt>
      <trkpt lat="45.9489" lon="4.49434">
        <ele>615</ele>
        <time>2016-09-15T12:22:57Z</time>
      </trkpt>
      <trkpt lat="45.94891" lon="4.49434">
        <ele>614</ele>
        <time>2016-09-15T12:22:58Z</time>
      </trkpt>
      <trkpt lat="45.949" lon="4.49432">
        <ele>614</ele>
        <time>2016-09-15T12:23:05Z</time>
      </trkpt>
      <trkpt lat="45.94901" lon="4.49432">
        <ele>614</ele>
        <time>2016-09-15T12:23:06Z</time>
      </trkpt>
      <trkpt lat="45.94909" lon="4.49428">
        <ele>613</ele>
        <time>2016-09-15T12:23:13Z</time>
      </trkpt>
      <trkpt lat="45.9491" lon="4.49427">
        <ele>613</ele>
        <time>2016-09-15T12:23:14Z</time>
      </trkpt>
      <trkpt lat="45.94919" lon="4.49424">
        <ele>611</ele>
        <time>2016-09-15T12:23:21Z</time>
      </trkpt>
      <trkpt lat="45.9492" lon="4.49423">
        <ele>611</ele>
        <time>2016-09-15T12:23:22Z</time>
      </trkpt>
      <trkpt lat="45.94928" lon="4.49423">
        <ele>611</ele>
        <time>2016-09-15T12:23:30Z</time>
      </trkpt>
      <trkpt lat="45.94929" lon="4.49423">
        <ele>611</ele>
        <time>2016-09-15T12:23:31Z</time>
      </trkpt>
      <trkpt lat="45.94929" lon="4.49435">
        <ele>611</ele>
        <time>2016-09-15T12:26:43Z</time>
      </trkpt>
      <trkpt lat="45.94929" lon="4.49437">
        <ele>611</ele>
        <time>2016-09-15T12:26:44Z</time>
      </trkpt>
      <trkpt lat="45.94926" lon="4.49449">
        <ele>611</ele>
        <time>2016-09-15T12:26:51Z</time>
      </trkpt>
      <trkpt lat="45.94925" lon="4.4945">
        <ele>611</ele>
        <time>2016-09-15T12:26:52Z</time>
      </trkpt>
      <trkpt lat="45.94923" lon="4.49461">
        <ele>610</ele>
        <time>2016-09-15T12:26:59Z</time>
      </trkpt>
      <trkpt lat="45.94923" lon="4.49463">
        <ele>610</ele>
        <time>2016-09-15T12:27:00Z</time>
      </trkpt>
      <trkpt lat="45.94922" lon="4.49474">
        <ele>610</ele>
        <time>2016-09-15T12:27:07Z</time>
      </trkpt>
      <trkpt lat="45.94922" lon="4.49476">
        <ele>609</ele>
        <time>2016-09-15T12:27:08Z</time>
      </trkpt>
      <trkpt lat="45.94921" lon="4.49488">
        <ele>609</ele>
        <time>2016-09-15T12:27:15Z</time>
      </trkpt>
      <trkpt lat="45.94921" lon="4.4949">
        <ele>608</ele>
        <time>2016-09-15T12:27:16Z</time>
      </trkpt>
      <trkpt lat="45.94921" lon="4.49502">
        <ele>607</ele>
        <time>2016-09-15T12:27:23Z</time>
      </trkpt>
      <trkpt lat="45.9492" lon="4.49503">
        <ele>607</ele>
        <time>2016-09-15T12:27:24Z</time>
      </trkpt>
      <trkpt lat="45.94916" lon="4.49514">
        <ele>607</ele>
        <time>2016-09-15T12:27:31Z</time>
      </trkpt>
      <trkpt lat="45.94915" lon="4.49515">
        <ele>607</ele>
        <time>2016-09-15T12:27:32Z</time>
      </trkpt>
      <trkpt lat="45.9491" lon="4.49525">
        <ele>607</ele>
        <time>2016-09-15T12:27:39Z</time>
      </trkpt>
      <trkpt lat="45.9491" lon="4.49527">
        <ele>607</ele>
        <time>2016-09-15T12:27:40Z</time>
      </trkpt>
      <trkpt lat="45.94906" lon="4.49537">
        <ele>606</ele>
        <time>2016-09-15T12:27:47Z</time>
      </trkpt>
      <trkpt lat="45.94905" lon="4.49538">
        <ele>606</ele>
        <time>2016-09-15T12:27:48Z</time>
      </trkpt>
      <trkpt lat="45.94902" lon="4.49548">
        <ele>606</ele>
        <time>2016-09-15T12:27:55Z</time>
      </trkpt>
      <trkpt lat="45.94901" lon="4.4955">
        <ele>606</ele>
        <time>2016-09-15T12:27:56Z</time>
      </trkpt>
      <trkpt lat="45.94896" lon="4.4956">
        <ele>605</ele>
        <time>2016-09-15T12:28:04Z</time>
      </trkpt>
      <trkpt lat="45.94895" lon="4.49562">
        <ele>605</ele>
        <time>2016-09-15T12:28:05Z</time>
      </trkpt>
      <trkpt lat="45.94891" lon="4.49572">
        <ele>605</ele>
        <time>2016-09-15T12:28:12Z</time>
      </trkpt>
      <trkpt lat="45.9489" lon="4.49573">
        <ele>605</ele>
        <time>2016-09-15T12:28:13Z</time>
      </trkpt>
      <trkpt lat="45.94886" lon="4.49583">
        <ele>605</ele>
        <time>2016-09-15T12:28:20Z</time>
      </trkpt>
      <trkpt lat="45.94885" lon="4.49584">
        <ele>598</ele>
        <time>2016-09-15T12:28:21Z</time>
      </trkpt>
      <trkpt lat="45.94881" lon="4.49595">
        <ele>597</ele>
        <time>2016-09-15T12:28:28Z</time>
      </trkpt>
      <trkpt lat="45.94881" lon="4.49596">
        <ele>597</ele>
        <time>2016-09-15T12:28:29Z</time>
      </trkpt>
      <trkpt lat="45.94875" lon="4.49605">
        <ele>597</ele>
        <time>2016-09-15T12:28:37Z</time>
      </trkpt>
      <trkpt lat="45.94874" lon="4.49606">
        <ele>597</ele>
        <time>2016-09-15T12:28:38Z</time>
      </trkpt>
      <trkpt lat="45.94869" lon="4.49616">
        <ele>596</ele>
        <time>2016-09-15T12:28:47Z</time>
      </trkpt>
      <trkpt lat="45.94869" lon="4.49617">
        <ele>596</ele>
        <time>2016-09-15T12:28:48Z</time>
      </trkpt>
      <trkpt lat="45.94865" lon="4.49629">
        <ele>595</ele>
        <time>2016-09-15T12:28:58Z</time>
      </trkpt>
      <trkpt lat="45.94865" lon="4.4963">
        <ele>595</ele>
        <time>2016-09-15T12:28:59Z</time>
      </trkpt>
      <trkpt lat="45.94859" lon="4.49638">
        <ele>594</ele>
        <time>2016-09-15T12:29:13Z</time>
      </trkpt>
      <trkpt lat="45.94859" lon="4.49639">
        <ele>594</ele>
        <time>2016-09-15T12:29:14Z</time>
      </trkpt>
      <trkpt lat="45.94857" lon="4.49652">
        <ele>593</ele>
        <time>2016-09-15T12:29:23Z</time>
      </trkpt>
      <trkpt lat="45.94857" lon="4.49653">
        <ele>593</ele>
        <time>2016-09-15T12:29:24Z</time>
      </trkpt>
      <trkpt lat="45.94853" lon="4.49664">
        <ele>592</ele>
        <time>2016-09-15T12:29:33Z</time>
      </trkpt>
      <trkpt lat="45.94853" lon="4.49665">
        <ele>592</ele>
        <time>2016-09-15T12:29:34Z</time>
      </trkpt>
      <trkpt lat="45.94852" lon="4.49678">
        <ele>582</ele>
        <time>2016-09-15T12:29:44Z</time>
      </trkpt>
      <trkpt lat="45.94853" lon="4.49679">
        <ele>582</ele>
        <time>2016-09-15T12:29:45Z</time>
      </trkpt>
      <trkpt lat="45.94854" lon="4.49691">
        <ele>580</ele>
        <time>2016-09-15T12:29:54Z</time>
      </trkpt>
      <trkpt lat="45.94854" lon="4.49693">
        <ele>580</ele>
        <time>2016-09-15T12:29:55Z</time>
      </trkpt>
      <trkpt lat="45.94857" lon="4.49704">
        <ele>578</ele>
        <time>2016-09-15T12:30:04Z</time>
      </trkpt>
      <trkpt lat="45.94857" lon="4.49706">
        <ele>578</ele>
        <time>2016-09-15T12:30:05Z</time>
      </trkpt>
      <trkpt lat="45.9486" lon="4.49718">
        <ele>576</ele>
        <time>2016-09-15T12:30:15Z</time>
      </trkpt>
      <trkpt lat="45.94861" lon="4.49719">
        <ele>576</ele>
        <time>2016-09-15T12:30:16Z</time>
      </trkpt>
      <trkpt lat="45.94867" lon="4.49727">
        <ele>575</ele>
        <time>2016-09-15T12:30:28Z</time>
      </trkpt>
      <trkpt lat="45.94868" lon="4.49728">
        <ele>575</ele>
        <time>2016-09-15T12:30:29Z</time>
      </trkpt>
      <trkpt lat="45.94876" lon="4.49732">
        <ele>575</ele>
        <time>2016-09-15T12:30:41Z</time>
      </trkpt>
      <trkpt lat="45.94877" lon="4.49732">
        <ele>575</ele>
        <time>2016-09-15T12:30:42Z</time>
      </trkpt>
      <trkpt lat="45.94882" lon="4.49742">
        <ele>574</ele>
        <time>2016-09-15T12:30:54Z</time>
      </trkpt>
      <trkpt lat="45.94883" lon="4.49744">
        <ele>574</ele>
        <time>2016-09-15T12:30:55Z</time>
      </trkpt>
      <trkpt lat="45.94884" lon="4.49755">
        <ele>561</ele>
        <time>2016-09-15T12:31:03Z</time>
      </trkpt>
      <trkpt lat="45.94885" lon="4.49756">
        <ele>561</ele>
        <time>2016-09-15T12:31:04Z</time>
      </trkpt>
      <trkpt lat="45.94885" lon="4.49768">
        <ele>560</ele>
        <time>2016-09-15T12:31:13Z</time>
      </trkpt>
      <trkpt lat="45.94885" lon="4.4977">
        <ele>559</ele>
        <time>2016-09-15T12:31:14Z</time>
      </trkpt>
      <trkpt lat="45.94886" lon="4.49782">
        <ele>558</ele>
        <time>2016-09-15T12:31:23Z</time>
      </trkpt>
      <trkpt lat="45.94886" lon="4.49784">
        <ele>558</ele>
        <time>2016-09-15T12:31:24Z</time>
      </trkpt>
      <trkpt lat="45.94884" lon="4.49795">
        <ele>557</ele>
        <time>2016-09-15T12:31:32Z</time>
      </trkpt>
      <trkpt lat="45.94884" lon="4.49796">
        <ele>556</ele>
        <time>2016-09-15T12:31:33Z</time>
      </trkpt>
      <trkpt lat="45.94884" lon="4.49808">
        <ele>555</ele>
        <time>2016-09-15T12:31:40Z</time>
      </trkpt>
      <trkpt lat="45.94884" lon="4.4981">
        <ele>555</ele>
        <time>2016-09-15T12:31:41Z</time>
      </trkpt>
      <trkpt lat="45.94883" lon="4.49821">
        <ele>554</ele>
        <time>2016-09-15T12:31:47Z</time>
      </trkpt>
      <trkpt lat="45.94883" lon="4.49823">
        <ele>554</ele>
        <time>2016-09-15T12:31:48Z</time>
      </trkpt>
      <trkpt lat="45.94884" lon="4.49834">
        <ele>545</ele>
        <time>2016-09-15T12:31:54Z</time>
      </trkpt>
      <trkpt lat="45.94884" lon="4.49836">
        <ele>545</ele>
        <time>2016-09-15T12:31:55Z</time>
      </trkpt>
      <trkpt lat="45.94885" lon="4.49847">
        <ele>544</ele>
        <time>2016-09-15T12:32:01Z</time>
      </trkpt>
      <trkpt lat="45.94885" lon="4.49849">
        <ele>544</ele>
        <time>2016-09-15T12:32:02Z</time>
      </trkpt>
      <trkpt lat="45.94885" lon="4.49862">
        <ele>544</ele>
        <time>2016-09-15T12:32:10Z</time>
      </trkpt>
      <trkpt lat="45.94885" lon="4.49863">
        <ele>544</ele>
        <time>2016-09-15T12:32:11Z</time>
      </trkpt>
      <trkpt lat="45.94884" lon="4.49876">
        <ele>543</ele>
        <time>2016-09-15T12:32:19Z</time>
      </trkpt>
      <trkpt lat="45.94884" lon="4.49878">
        <ele>543</ele>
        <time>2016-09-15T12:32:20Z</time>
      </trkpt>
      <trkpt lat="45.94884" lon="4.49889">
        <ele>542</ele>
        <time>2016-09-15T12:32:27Z</time>
      </trkpt>
      <trkpt lat="45.94884" lon="4.49891">
        <ele>542</ele>
        <time>2016-09-15T12:32:28Z</time>
      </trkpt>
      <trkpt lat="45.94883" lon="4.49902">
        <ele>542</ele>
        <time>2016-09-15T12:32:35Z</time>
      </trkpt>
      <trkpt lat="45.94883" lon="4.49904">
        <ele>541</ele>
        <time>2016-09-15T12:32:36Z</time>
      </trkpt>
      <trkpt lat="45.94881" lon="4.49915">
        <ele>541</ele>
        <time>2016-09-15T12:32:42Z</time>
      </trkpt>
      <trkpt lat="45.94881" lon="4.49917">
        <ele>535</ele>
        <time>2016-09-15T12:32:43Z</time>
      </trkpt>
      <trkpt lat="45.94882" lon="4.4993">
        <ele>534</ele>
        <time>2016-09-15T12:32:50Z</time>
      </trkpt>
      <trkpt lat="45.94881" lon="4.49932">
        <ele>534</ele>
        <time>2016-09-15T12:32:51Z</time>
      </trkpt>
      <trkpt lat="45.94881" lon="4.49943">
        <ele>533</ele>
        <time>2016-09-15T12:32:58Z</time>
      </trkpt>
      <trkpt lat="45.9488" lon="4.49945">
        <ele>533</ele>
        <time>2016-09-15T12:32:59Z</time>
      </trkpt>
      <trkpt lat="45.94877" lon="4.49955">
        <ele>533</ele>
        <time>2016-09-15T12:33:06Z</time>
      </trkpt>
      <trkpt lat="45.94876" lon="4.49956">
        <ele>532</ele>
        <time>2016-09-15T12:33:07Z</time>
      </trkpt>
      <trkpt lat="45.94876" lon="4.49968">
        <ele>532</ele>
        <time>2016-09-15T12:33:14Z</time>
      </trkpt>
      <trkpt lat="45.94876" lon="4.4997">
        <ele>532</ele>
        <time>2016-09-15T12:33:15Z</time>
      </trkpt>
      <trkpt lat="45.94877" lon="4.49981">
        <ele>531</ele>
        <time>2016-09-15T12:33:22Z</time>
      </trkpt>
      <trkpt lat="45.94878" lon="4.49982">
        <ele>531</ele>
        <time>2016-09-15T12:33:23Z</time>
      </trkpt>
      <trkpt lat="45.94878" lon="4.49995">
        <ele>530</ele>
        <time>2016-09-15T12:33:29Z</time>
      </trkpt>
      <trkpt lat="45.94878" lon="4.49997">
        <ele>530</ele>
        <time>2016-09-15T12:33:30Z</time>
      </trkpt>
      <trkpt lat="45.94879" lon="4.50008">
        <ele>525</ele>
        <time>2016-09-15T12:33:36Z</time>
      </trkpt>
      <trkpt lat="45.94879" lon="4.5001">
        <ele>525</ele>
        <time>2016-09-15T12:33:37Z</time>
      </trkpt>
      <trkpt lat="45.94879" lon="4.50023">
        <ele>525</ele>
        <time>2016-09-15T12:33:44Z</time>
      </trkpt>
      <trkpt lat="45.94878" lon="4.50024">
        <ele>525</ele>
        <time>2016-09-15T12:33:45Z</time>
      </trkpt>
      <trkpt lat="45.94879" lon="4.50037">
        <ele>524</ele>
        <time>2016-09-15T12:33:53Z</time>
      </trkpt>
      <trkpt lat="45.94879" lon="4.50039">
        <ele>524</ele>
        <time>2016-09-15T12:33:54Z</time>
      </trkpt>
      <trkpt lat="45.9488" lon="4.5005">
        <ele>524</ele>
        <time>2016-09-15T12:34:00Z</time>
      </trkpt>
      <trkpt lat="45.9488" lon="4.50052">
        <ele>524</ele>
        <time>2016-09-15T12:34:01Z</time>
      </trkpt>
      <trkpt lat="45.9488" lon="4.50064">
        <ele>523</ele>
        <time>2016-09-15T12:34:08Z</time>
      </trkpt>
      <trkpt lat="45.9488" lon="4.50066">
        <ele>523</ele>
        <time>2016-09-15T12:34:09Z</time>
      </trkpt>
      <trkpt lat="45.94878" lon="4.50077">
        <ele>523</ele>
        <time>2016-09-15T12:34:16Z</time>
      </trkpt>
      <trkpt lat="45.94877" lon="4.50079">
        <ele>523</ele>
        <time>2016-09-15T12:34:17Z</time>
      </trkpt>
      <trkpt lat="45.94875" lon="4.5009">
        <ele>519</ele>
        <time>2016-09-15T12:34:24Z</time>
      </trkpt>
      <trkpt lat="45.94875" lon="4.50092">
        <ele>519</ele>
        <time>2016-09-15T12:34:25Z</time>
      </trkpt>
      <trkpt lat="45.94876" lon="4.50105">
        <ele>518</ele>
        <time>2016-09-15T12:34:32Z</time>
      </trkpt>
      <trkpt lat="45.94877" lon="4.50106">
        <ele>518</ele>
        <time>2016-09-15T12:34:33Z</time>
      </trkpt>
      <trkpt lat="45.94881" lon="4.50117">
        <ele>518</ele>
        <time>2016-09-15T12:34:42Z</time>
      </trkpt>
      <trkpt lat="45.94882" lon="4.50118">
        <ele>518</ele>
        <time>2016-09-15T12:34:43Z</time>
      </trkpt>
      <trkpt lat="45.94885" lon="4.50129">
        <ele>517</ele>
        <time>2016-09-15T12:35:32Z</time>
      </trkpt>
      <trkpt lat="45.94884" lon="4.5013">
        <ele>517</ele>
        <time>2016-09-15T12:35:33Z</time>
      </trkpt>
      <trkpt lat="45.94881" lon="4.50141">
        <ele>517</ele>
        <time>2016-09-15T12:35:40Z</time>
      </trkpt>
      <trkpt lat="45.94881" lon="4.50142">
        <ele>517</ele>
        <time>2016-09-15T12:35:41Z</time>
      </trkpt>
      <trkpt lat="45.94877" lon="4.50153">
        <ele>516</ele>
        <time>2016-09-15T12:35:48Z</time>
      </trkpt>
      <trkpt lat="45.94876" lon="4.50155">
        <ele>516</ele>
        <time>2016-09-15T12:35:49Z</time>
      </trkpt>
      <trkpt lat="45.94877" lon="4.50166">
        <ele>516</ele>
        <time>2016-09-15T12:35:57Z</time>
      </trkpt>
      <trkpt lat="45.94877" lon="4.50168">
        <ele>512</ele>
        <time>2016-09-15T12:35:58Z</time>
      </trkpt>
      <trkpt lat="45.94874" lon="4.5018">
        <ele>511</ele>
        <time>2016-09-15T12:36:28Z</time>
      </trkpt>
      <trkpt lat="45.94874" lon="4.50181">
        <ele>511</ele>
        <time>2016-09-15T12:36:29Z</time>
      </trkpt>
      <trkpt lat="45.9487" lon="4.50192">
        <ele>511</ele>
        <time>2016-09-15T12:36:48Z</time>
      </trkpt>
      <trkpt lat="45.9487" lon="4.50194">
        <ele>511</ele>
        <time>2016-09-15T12:36:49Z</time>
      </trkpt>
      <trkpt lat="45.9487" lon="4.50206">
        <ele>511</ele>
        <time>2016-09-15T12:36:56Z</time>
      </trkpt>
      <trkpt lat="45.94869" lon="4.50207">
        <ele>511</ele>
        <time>2016-09-15T12:36:57Z</time>
      </trkpt>
      <trkpt lat="45.94868" lon="4.50219">
        <ele>510</ele>
        <time>2016-09-15T12:37:05Z</time>
      </trkpt>
      <trkpt lat="45.94868" lon="4.50221">
        <ele>510</ele>
        <time>2016-09-15T12:37:06Z</time>
      </trkpt>
      <trkpt lat="45.94869" lon="4.50232">
        <ele>510</ele>
        <time>2016-09-15T12:37:13Z</time>
      </trkpt>
      <trkpt lat="45.94869" lon="4.50234">
        <ele>510</ele>
        <time>2016-09-15T12:37:14Z</time>
      </trkpt>
      <trkpt lat="45.94867" lon="4.50245">
        <ele>510</ele>
        <time>2016-09-15T12:37:22Z</time>
      </trkpt>
      <trkpt lat="45.94867" lon="4.50246">
        <ele>510</ele>
        <time>2016-09-15T12:37:23Z</time>
      </trkpt>
      <trkpt lat="45.94864" lon="4.50257">
        <ele>505</ele>
        <time>2016-09-15T12:37:30Z</time>
      </trkpt>
      <trkpt lat="45.94864" lon="4.50259">
        <ele>504</ele>
        <time>2016-09-15T12:37:31Z</time>
      </trkpt>
      <trkpt lat="45.9486" lon="4.50269">
        <ele>504</ele>
        <time>2016-09-15T12:37:38Z</time>
      </trkpt>
      <trkpt lat="45.94859" lon="4.5027">
        <ele>504</ele>
        <time>2016-09-15T12:37:39Z</time>
      </trkpt>
      <trkpt lat="45.94859" lon="4.50283">
        <ele>503</ele>
        <time>2016-09-15T12:37:47Z</time>
      </trkpt>
      <trkpt lat="45.94858" lon="4.50284">
        <ele>503</ele>
        <time>2016-09-15T12:37:48Z</time>
      </trkpt>
      <trkpt lat="45.94862" lon="4.50295">
        <ele>502</ele>
        <time>2016-09-15T12:38:38Z</time>
      </trkpt>
      <trkpt lat="45.94862" lon="4.50297">
        <ele>502</ele>
        <time>2016-09-15T12:38:39Z</time>
      </trkpt>
      <trkpt lat="45.94863" lon="4.50309">
        <ele>501</ele>
        <time>2016-09-15T12:38:48Z</time>
      </trkpt>
      <trkpt lat="45.94863" lon="4.50311">
        <ele>501</ele>
        <time>2016-09-15T12:38:49Z</time>
      </trkpt>
      <trkpt lat="45.94862" lon="4.50323">
        <ele>501</ele>
        <time>2016-09-15T12:38:58Z</time>
      </trkpt>
      <trkpt lat="45.94862" lon="4.50325">
        <ele>501</ele>
        <time>2016-09-15T12:38:59Z</time>
      </trkpt>
      <trkpt lat="45.94859" lon="4.50336">
        <ele>494</ele>
        <time>2016-09-15T12:39:07Z</time>
      </trkpt>
      <trkpt lat="45.94859" lon="4.50337">
        <ele>494</ele>
        <time>2016-09-15T12:39:08Z</time>
      </trkpt>
      <trkpt lat="45.94859" lon="4.5035">
        <ele>493</ele>
        <time>2016-09-15T12:39:17Z</time>
      </trkpt>
      <trkpt lat="45.94859" lon="4.50351">
        <ele>493</ele>
        <time>2016-09-15T12:39:18Z</time>
      </trkpt>
      <trkpt lat="45.94859" lon="4.50363">
        <ele>492</ele>
        <time>2016-09-15T12:39:26Z</time>
      </trkpt>
      <trkpt lat="45.9486" lon="4.50364">
        <ele>492</ele>
        <time>2016-09-15T12:39:27Z</time>
      </trkpt>
      <trkpt lat="45.9486" lon="4.50377">
        <ele>491</ele>
        <time>2016-09-15T12:39:36Z</time>
      </trkpt>
      <trkpt lat="45.9486" lon="4.50378">
        <ele>491</ele>
        <time>2016-09-15T12:39:37Z</time>
      </trkpt>
      <trkpt lat="45.94862" lon="4.5039">
        <ele>490</ele>
        <time>2016-09-15T12:39:47Z</time>
      </trkpt>
      <trkpt lat="45.94862" lon="4.50392">
        <ele>490</ele>
        <time>2016-09-15T12:39:48Z</time>
      </trkpt>
      <trkpt lat="45.9486" lon="4.50403">
        <ele>489</ele>
        <time>2016-09-15T12:39:57Z</time>
      </trkpt>
      <trkpt lat="45.9486" lon="4.50405">
        <ele>489</ele>
        <time>2016-09-15T12:39:58Z</time>
      </trkpt>
      <trkpt lat="45.94856" lon="4.50416">
        <ele>489</ele>
        <time>2016-09-15T12:40:07Z</time>
      </trkpt>
      <trkpt lat="45.94855" lon="4.50417">
        <ele>482</ele>
        <time>2016-09-15T12:40:08Z</time>
      </trkpt>
      <trkpt lat="45.94852" lon="4.50428">
        <ele>482</ele>
        <time>2016-09-15T12:40:17Z</time>
      </trkpt>
      <trkpt lat="45.94852" lon="4.5043">
        <ele>482</ele>
        <time>2016-09-15T12:40:18Z</time>
      </trkpt>
      <trkpt lat="45.94853" lon="4.50442">
        <ele>481</ele>
        <time>2016-09-15T12:40:26Z</time>
      </trkpt>
      <trkpt lat="45.94853" lon="4.50444">
        <ele>481</ele>
        <time>2016-09-15T12:40:27Z</time>
      </trkpt>
      <trkpt lat="45.94856" lon="4.50455">
        <ele>480</ele>
        <time>2016-09-15T12:40:34Z</time>
      </trkpt>
      <trkpt lat="45.94857" lon="4.50456">
        <ele>479</ele>
        <time>2016-09-15T12:40:35Z</time>
      </trkpt>
      <trkpt lat="45.94862" lon="4.50467">
        <ele>479</ele>
        <time>2016-09-15T12:40:42Z</time>
      </trkpt>
      <trkpt lat="45.94863" lon="4.50468">
        <ele>479</ele>
        <time>2016-09-15T12:40:43Z</time>
      </trkpt>
      <trkpt lat="45.94869" lon="4.50475">
        <ele>478</ele>
        <time>2016-09-15T12:40:50Z</time>
      </trkpt>
      <trkpt lat="45.9487" lon="4.50476">
        <ele>478</ele>
        <time>2016-09-15T12:40:51Z</time>
      </trkpt>
      <trkpt lat="45.94874" lon="4.50488">
        <ele>477</ele>
        <time>2016-09-15T12:41:03Z</time>
      </trkpt>
      <trkpt lat="45.94874" lon="4.50489">
        <ele>477</ele>
        <time>2016-09-15T12:41:04Z</time>
      </trkpt>
      <trkpt lat="45.9487" lon="4.50499">
        <ele>477</ele>
        <time>2016-09-15T12:41:17Z</time>
      </trkpt>
      <trkpt lat="45.9487" lon="4.505">
        <ele>470</ele>
        <time>2016-09-15T12:41:18Z</time>
      </trkpt>
      <trkpt lat="45.94867" lon="4.50511">
        <ele>469</ele>
        <time>2016-09-15T12:41:28Z</time>
      </trkpt>
      <trkpt lat="45.94867" lon="4.50513">
        <ele>469</ele>
        <time>2016-09-15T12:41:29Z</time>
      </trkpt>
      <trkpt lat="45.94867" lon="4.50524">
        <ele>469</ele>
        <time>2016-09-15T12:41:38Z</time>
      </trkpt>
      <trkpt lat="45.94868" lon="4.50526">
        <ele>469</ele>
        <time>2016-09-15T12:41:39Z</time>
      </trkpt>
      <trkpt lat="45.94866" lon="4.50538">
        <ele>468</ele>
        <time>2016-09-15T12:41:48Z</time>
      </trkpt>
      <trkpt lat="45.94866" lon="4.50539">
        <ele>468</ele>
        <time>2016-09-15T12:41:49Z</time>
      </trkpt>
      <trkpt lat="45.94862" lon="4.50551">
        <ele>467</ele>
        <time>2016-09-15T12:41:58Z</time>
      </trkpt>
      <trkpt lat="45.94862" lon="4.50552">
        <ele>467</ele>
        <time>2016-09-15T12:41:59Z</time>
      </trkpt>
      <trkpt lat="45.94857" lon="4.50562">
        <ele>466</ele>
        <time>2016-09-15T12:42:07Z</time>
      </trkpt>
      <trkpt lat="45.94856" lon="4.50563">
        <ele>466</ele>
        <time>2016-09-15T12:42:08Z</time>
      </trkpt>
      <trkpt lat="45.94851" lon="4.50572">
        <ele>465</ele>
        <time>2016-09-15T12:42:15Z</time>
      </trkpt>
      <trkpt lat="45.9485" lon="4.50573">
        <ele>464</ele>
        <time>2016-09-15T12:42:16Z</time>
      </trkpt>
      <trkpt lat="45.94847" lon="4.50584">
        <ele>459</ele>
        <time>2016-09-15T12:42:23Z</time>
      </trkpt>
      <trkpt lat="45.94847" lon="4.50586">
        <ele>459</ele>
        <time>2016-09-15T12:42:24Z</time>
      </trkpt>
      <trkpt lat="45.9485" lon="4.50598">
        <ele>458</ele>
        <time>2016-09-15T12:42:32Z</time>
      </trkpt>
      <trkpt lat="45.94851" lon="4.50599">
        <ele>458</ele>
        <time>2016-09-15T12:42:33Z</time>
      </trkpt>
      <trkpt lat="45.94853" lon="4.50611">
        <ele>457</ele>
        <time>2016-09-15T12:42:41Z</time>
      </trkpt>
      <trkpt lat="45.94854" lon="4.50613">
        <ele>457</ele>
        <time>2016-09-15T12:42:42Z</time>
      </trkpt>
      <trkpt lat="45.94856" lon="4.50625">
        <ele>456</ele>
        <time>2016-09-15T12:42:50Z</time>
      </trkpt>
      <trkpt lat="45.94856" lon="4.50627">
        <ele>456</ele>
        <time>2016-09-15T12:42:51Z</time>
      </trkpt>
      <trkpt lat="45.94862" lon="4.50637">
        <ele>455</ele>
        <time>2016-09-15T12:42:59Z</time>
      </trkpt>
      <trkpt lat="45.94863" lon="4.50637">
        <ele>455</ele>
        <time>2016-09-15T12:43:00Z</time>
      </trkpt>
      <trkpt lat="45.94868" lon="4.50646">
        <ele>455</ele>
        <time>2016-09-15T12:43:08Z</time>
      </trkpt>
      <trkpt lat="45.94869" lon="4.50648">
        <ele>455</ele>
        <time>2016-09-15T12:43:09Z</time>
      </trkpt>
      <trkpt lat="45.9487" lon="4.5066">
        <ele>454</ele>
        <time>2016-09-15T12:43:19Z</time>
      </trkpt>
      <trkpt lat="45.9487" lon="4.50661">
        <ele>454</ele>
        <time>2016-09-15T12:43:20Z</time>
      </trkpt>
      <trkpt lat="45.94873" lon="4.50673">
        <ele>448</ele>
        <time>2016-09-15T12:43:28Z</time>
      </trkpt>
      <trkpt lat="45.94874" lon="4.50675">
        <ele>448</ele>
        <time>2016-09-15T12:43:29Z</time>
      </trkpt>
      <trkpt lat="45.94878" lon="4.50685">
        <ele>448</ele>
        <time>2016-09-15T12:43:36Z</time>
      </trkpt>
      <trkpt lat="45.94879" lon="4.50686">
        <ele>448</ele>
        <time>2016-09-15T12:43:37Z</time>
      </trkpt>
      <trkpt lat="45.94878" lon="4.50698">
        <ele>447</ele>
        <time>2016-09-15T12:43:44Z</time>
      </trkpt>
      <trkpt lat="45.94878" lon="4.507">
        <ele>447</ele>
        <time>2016-09-15T12:43:45Z</time>
      </trkpt>
      <trkpt lat="45.94875" lon="4.50711">
        <ele>447</ele>
        <time>2016-09-15T12:43:53Z</time>
      </trkpt>
      <trkpt lat="45.94875" lon="4.50713">
        <ele>447</ele>
        <time>2016-09-15T12:43:54Z</time>
      </trkpt>
      <trkpt lat="45.94874" lon="4.50724">
        <ele>446</ele>
        <time>2016-09-15T12:44:01Z</time>
      </trkpt>
      <trkpt lat="45.94873" lon="4.50726">
        <ele>446</ele>
        <time>2016-09-15T12:44:02Z</time>
      </trkpt>
      <trkpt lat="45.9487" lon="4.50736">
        <ele>445</ele>
        <time>2016-09-15T12:44:08Z</time>
      </trkpt>
      <trkpt lat="45.9487" lon="4.50738">
        <ele>445</ele>
        <time>2016-09-15T12:44:09Z</time>
      </trkpt>
      <trkpt lat="45.94865" lon="4.50749">
        <ele>445</ele>
        <time>2016-09-15T12:44:16Z</time>
      </trkpt>
      <trkpt lat="45.94865" lon="4.5075">
        <ele>440</ele>
        <time>2016-09-15T12:44:17Z</time>
      </trkpt>
      <trkpt lat="45.94858" lon="4.50759">
        <ele>440</ele>
        <time>2016-09-15T12:44:25Z</time>
      </trkpt>
      <trkpt lat="45.94857" lon="4.5076">
        <ele>440</ele>
        <time>2016-09-15T12:44:26Z</time>
      </trkpt>
      <trkpt lat="45.9485" lon="4.50767">
        <ele>440</ele>
        <time>2016-09-15T12:44:34Z</time>
      </trkpt>
      <trkpt lat="45.9485" lon="4.50768">
        <ele>440</ele>
        <time>2016-09-15T12:44:35Z</time>
      </trkpt>
      <trkpt lat="45.94843" lon="4.50777">
        <ele>439</ele>
        <time>2016-09-15T12:44:44Z</time>
      </trkpt>
      <trkpt lat="45.94842" lon="4.50777">
        <ele>439</ele>
        <time>2016-09-15T12:44:45Z</time>
      </trkpt>
      <trkpt lat="45.94837" lon="4.50786">
        <ele>439</ele>
        <time>2016-09-15T12:44:56Z</time>
      </trkpt>
      <trkpt lat="45.94836" lon="4.50787">
        <ele>439</ele>
        <time>2016-09-15T12:44:57Z</time>
      </trkpt>
      <trkpt lat="45.94831" lon="4.50796">
        <ele>431</ele>
        <time>2016-09-15T12:45:06Z</time>
      </trkpt>
      <trkpt lat="45.9483" lon="4.50798">
        <ele>431</ele>
        <time>2016-09-15T12:45:07Z</time>
      </trkpt>
      <trkpt lat="45.94829" lon="4.50809">
        <ele>431</ele>
        <time>2016-09-15T12:45:14Z</time>
      </trkpt>
      <trkpt lat="45.94829" lon="4.50811">
        <ele>431</ele>
        <time>2016-09-15T12:45:15Z</time>
      </trkpt>
      <trkpt lat="45.94829" lon="4.50823">
        <ele>432</ele>
        <time>2016-09-15T12:45:22Z</time>
      </trkpt>
      <trkpt lat="45.94828" lon="4.50824">
        <ele>432</ele>
        <time>2016-09-15T12:45:23Z</time>
      </trkpt>
      <trkpt lat="45.94828" lon="4.50836">
        <ele>431</ele>
        <time>2016-09-15T12:45:30Z</time>
      </trkpt>
      <trkpt lat="45.94828" lon="4.50838">
        <ele>431</ele>
        <time>2016-09-15T12:45:31Z</time>
      </trkpt>
      <trkpt lat="45.94827" lon="4.50849">
        <ele>428</ele>
        <time>2016-09-15T12:45:38Z</time>
      </trkpt>
      <trkpt lat="45.94827" lon="4.50851">
        <ele>428</ele>
        <time>2016-09-15T12:45:39Z</time>
      </trkpt>
      <trkpt lat="45.94828" lon="4.50863">
        <ele>426</ele>
        <time>2016-09-15T12:45:46Z</time>
      </trkpt>
      <trkpt lat="45.94828" lon="4.50865">
        <ele>426</ele>
        <time>2016-09-15T12:45:47Z</time>
      </trkpt>
      <trkpt lat="45.9483" lon="4.50877">
        <ele>425</ele>
        <time>2016-09-15T12:45:55Z</time>
      </trkpt>
      <trkpt lat="45.94831" lon="4.50878">
        <ele>425</ele>
        <time>2016-09-15T12:45:56Z</time>
      </trkpt>
      <trkpt lat="45.94832" lon="4.5089">
        <ele>425</ele>
        <time>2016-09-15T12:46:03Z</time>
      </trkpt>
      <trkpt lat="45.94832" lon="4.50891">
        <ele>425</ele>
        <time>2016-09-15T12:46:04Z</time>
      </trkpt>
      <trkpt lat="45.94834" lon="4.50904">
        <ele>430</ele>
        <time>2016-09-15T12:46:12Z</time>
      </trkpt>
      <trkpt lat="45.94834" lon="4.50905">
        <ele>429</ele>
        <time>2016-09-15T12:46:13Z</time>
      </trkpt>
      <trkpt lat="45.94833" lon="4.50917">
        <ele>428</ele>
        <time>2016-09-15T12:46:20Z</time>
      </trkpt>
      <trkpt lat="45.94833" lon="4.50918">
        <ele>427</ele>
        <time>2016-09-15T12:46:21Z</time>
      </trkpt>
      <trkpt lat="45.94833" lon="4.5093">
        <ele>427</ele>
        <time>2016-09-15T12:46:28Z</time>
      </trkpt>
      <trkpt lat="45.94834" lon="4.50932">
        <ele>427</ele>
        <time>2016-09-15T12:46:29Z</time>
      </trkpt>
      <trkpt lat="45.94836" lon="4.50944">
        <ele>426</ele>
        <time>2016-09-15T12:46:37Z</time>
      </trkpt>
      <trkpt lat="45.94836" lon="4.50946">
        <ele>426</ele>
        <time>2016-09-15T12:46:38Z</time>
      </trkpt>
      <trkpt lat="45.94839" lon="4.50957">
        <ele>426</ele>
        <time>2016-09-15T12:46:45Z</time>
      </trkpt>
      <trkpt lat="45.9484" lon="4.50959">
        <ele>425</ele>
        <time>2016-09-15T12:46:46Z</time>
      </trkpt>
      <trkpt lat="45.9484" lon="4.5097">
        <ele>425</ele>
        <time>2016-09-15T12:46:53Z</time>
      </trkpt>
      <trkpt lat="45.9484" lon="4.50972">
        <ele>425</ele>
        <time>2016-09-15T12:46:54Z</time>
      </trkpt>
      <trkpt lat="45.9484" lon="4.50983">
        <ele>424</ele>
        <time>2016-09-15T12:47:01Z</time>
      </trkpt>
      <trkpt lat="45.94839" lon="4.50985">
        <ele>424</ele>
        <time>2016-09-15T12:47:02Z</time>
      </trkpt>
      <trkpt lat="45.9484" lon="4.50998">
        <ele>423</ele>
        <time>2016-09-15T12:47:09Z</time>
      </trkpt>
      <trkpt lat="45.9484" lon="4.50999">
        <ele>423</ele>
        <time>2016-09-15T12:47:10Z</time>
      </trkpt>
      <trkpt lat="45.94842" lon="4.5101">
        <ele>422</ele>
        <time>2016-09-15T12:47:17Z</time>
      </trkpt>
      <trkpt lat="45.94843" lon="4.51012">
        <ele>422</ele>
        <time>2016-09-15T12:47:18Z</time>
      </trkpt>
      <trkpt lat="45.94845" lon="4.51023">
        <ele>421</ele>
        <time>2016-09-15T12:47:25Z</time>
      </trkpt>
      <trkpt lat="45.94846" lon="4.51024">
        <ele>421</ele>
        <time>2016-09-15T12:47:26Z</time>
      </trkpt>
      <trkpt lat="45.94849" lon="4.51036">
        <ele>421</ele>
        <time>2016-09-15T12:47:33Z</time>
      </trkpt>
      <trkpt lat="45.94849" lon="4.51037">
        <ele>421</ele>
        <time>2016-09-15T12:47:34Z</time>
      </trkpt>
      <trkpt lat="45.9485" lon="4.5105">
        <ele>421</ele>
        <time>2016-09-15T12:47:42Z</time>
      </trkpt>
      <trkpt lat="45.9485" lon="4.51051">
        <ele>421</ele>
        <time>2016-09-15T12:47:43Z</time>
      </trkpt>
      <trkpt lat="45.94854" lon="4.51063">
        <ele>421</ele>
        <time>2016-09-15T12:48:04Z</time>
      </trkpt>
      <trkpt lat="45.94854" lon="4.51063">
        <ele>421</ele>
        <time>2016-09-15T12:48:05Z</time>
      </trkpt>
      <trkpt lat="45.9486" lon="4.51072">
        <ele>421</ele>
        <time>2016-09-15T12:48:15Z</time>
      </trkpt>
      <trkpt lat="45.94861" lon="4.51073">
        <ele>421</ele>
        <time>2016-09-15T12:48:16Z</time>
      </trkpt>
      <trkpt lat="45.94866" lon="4.51084">
        <ele>418</ele>
        <time>2016-09-15T12:48:24Z</time>
      </trkpt>
      <trkpt lat="45.94867" lon="4.51085">
        <ele>418</ele>
        <time>2016-09-15T12:48:25Z</time>
      </trkpt>
      <trkpt lat="45.94871" lon="4.51095">
        <ele>418</ele>
        <time>2016-09-15T12:48:31Z</time>
      </trkpt>
      <trkpt lat="45.94872" lon="4.51097">
        <ele>418</ele>
        <time>2016-09-15T12:48:32Z</time>
      </trkpt>
      <trkpt lat="45.94873" lon="4.51108">
        <ele>418</ele>
        <time>2016-09-15T12:48:39Z</time>
      </trkpt>
      <trkpt lat="45.94874" lon="4.5111">
        <ele>418</ele>
        <time>2016-09-15T12:48:40Z</time>
      </trkpt>
      <trkpt lat="45.94874" lon="4.51121">
        <ele>417</ele>
        <time>2016-09-15T12:48:47Z</time>
      </trkpt>
      <trkpt lat="45.94875" lon="4.51123">
        <ele>417</ele>
        <time>2016-09-15T12:48:48Z</time>
      </trkpt>
      <trkpt lat="45.94876" lon="4.51135">
        <ele>417</ele>
        <time>2016-09-15T12:48:56Z</time>
      </trkpt>
      <trkpt lat="45.94876" lon="4.51137">
        <ele>417</ele>
        <time>2016-09-15T12:48:57Z</time>
      </trkpt>
      <trkpt lat="45.94875" lon="4.51148">
        <ele>417</ele>
        <time>2016-09-15T12:49:04Z</time>
      </trkpt>
      <trkpt lat="45.94875" lon="4.5115">
        <ele>417</ele>
        <time>2016-09-15T12:49:05Z</time>
      </trkpt>
      <trkpt lat="45.94876" lon="4.51161">
        <ele>416</ele>
        <time>2016-09-15T12:49:12Z</time>
      </trkpt>
      <trkpt lat="45.94877" lon="4.51163">
        <ele>416</ele>
        <time>2016-09-15T12:49:13Z</time>
      </trkpt>
      <trkpt lat="45.94875" lon="4.51175">
        <ele>413</ele>
        <time>2016-09-15T12:49:20Z</time>
      </trkpt>
      <trkpt lat="45.94875" lon="4.51177">
        <ele>413</ele>
        <time>2016-09-15T12:49:21Z</time>
      </trkpt>
      <trkpt lat="45.94874" lon="4.51189">
        <ele>412</ele>
        <time>2016-09-15T12:49:29Z</time>
      </trkpt>
      <trkpt lat="45.94873" lon="4.51191">
        <ele>412</ele>
        <time>2016-09-15T12:49:30Z</time>
      </trkpt>
      <trkpt lat="45.94871" lon="4.51202">
        <ele>412</ele>
        <time>2016-09-15T12:49:37Z</time>
      </trkpt>
      <trkpt lat="45.9487" lon="4.51203">
        <ele>412</ele>
        <time>2016-09-15T12:49:38Z</time>
      </trkpt>
      <trkpt lat="45.94866" lon="4.51213">
        <ele>412</ele>
        <time>2016-09-15T12:49:45Z</time>
      </trkpt>
      <trkpt lat="45.94865" lon="4.51214">
        <ele>412</ele>
        <time>2016-09-15T12:49:46Z</time>
      </trkpt>
      <trkpt lat="45.94863" lon="4.51226">
        <ele>411</ele>
        <time>2016-09-15T12:49:54Z</time>
      </trkpt>
      <trkpt lat="45.94862" lon="4.51228">
        <ele>411</ele>
        <time>2016-09-15T12:49:55Z</time>
      </trkpt>
      <trkpt lat="45.9486" lon="4.5124">
        <ele>411</ele>
        <time>2016-09-15T12:50:03Z</time>
      </trkpt>
      <trkpt lat="45.9486" lon="4.51242">
        <ele>411</ele>
        <time>2016-09-15T12:50:04Z</time>
      </trkpt>
      <trkpt lat="45.94859" lon="4.51253">
        <ele>407</ele>
        <time>2016-09-15T12:50:11Z</time>
      </trkpt>
      <trkpt lat="45.94859" lon="4.51255">
        <ele>407</ele>
        <time>2016-09-15T12:50:12Z</time>
      </trkpt>
      <trkpt lat="45.94857" lon="4.51266">
        <ele>407</ele>
        <time>2016-09-15T12:50:19Z</time>
      </trkpt>
      <trkpt lat="45.94857" lon="4.51268">
        <ele>407</ele>
        <time>2016-09-15T12:50:20Z</time>
      </trkpt>
      <trkpt lat="45.94855" lon="4.5128">
        <ele>407</ele>
        <time>2016-09-15T12:50:32Z</time>
      </trkpt>
      <trkpt lat="45.94855" lon="4.51281">
        <ele>407</ele>
        <time>2016-09-15T12:50:33Z</time>
      </trkpt>
      <trkpt lat="45.94852" lon="4.51292">
        <ele>406</ele>
        <time>2016-09-15T12:51:00Z</time>
      </trkpt>
      <trkpt lat="45.94852" lon="4.51294">
        <ele>406</ele>
        <time>2016-09-15T12:51:01Z</time>
      </trkpt>
      <trkpt lat="45.94847" lon="4.51304">
        <ele>406</ele>
        <time>2016-09-15T12:51:10Z</time>
      </trkpt>
      <trkpt lat="45.94847" lon="4.51305">
        <ele>406</ele>
        <time>2016-09-15T12:51:11Z</time>
      </trkpt>
      <trkpt lat="45.94844" lon="4.51317">
        <ele>405</ele>
        <time>2016-09-15T12:51:19Z</time>
      </trkpt>
      <trkpt lat="45.94844" lon="4.51318">
        <ele>405</ele>
        <time>2016-09-15T12:51:20Z</time>
      </trkpt>
      <trkpt lat="45.94843" lon="4.5133">
        <ele>405</ele>
        <time>2016-09-15T12:51:28Z</time>
      </trkpt>
      <trkpt lat="45.94843" lon="4.51332">
        <ele>405</ele>
        <time>2016-09-15T12:51:29Z</time>
      </trkpt>
      <trkpt lat="45.9484" lon="4.51344">
        <ele>403</ele>
        <time>2016-09-15T12:51:37Z</time>
      </trkpt>
      <trkpt lat="45.9484" lon="4.51345">
        <ele>403</ele>
        <time>2016-09-15T12:51:38Z</time>
      </trkpt>
      <trkpt lat="45.94837" lon="4.51356">
        <ele>402</ele>
        <time>2016-09-15T12:51:45Z</time>
      </trkpt>
      <trkpt lat="45.94837" lon="4.51358">
        <ele>402</ele>
        <time>2016-09-15T12:51:46Z</time>
      </trkpt>
      <trkpt lat="45.94835" lon="4.51369">
        <ele>401</ele>
        <time>2016-09-15T12:51:53Z</time>
      </trkpt>
      <trkpt lat="45.94834" lon="4.51371">
        <ele>401</ele>
        <time>2016-09-15T12:51:54Z</time>
      </trkpt>
      <trkpt lat="45.94834" lon="4.51382">
        <ele>400</ele>
        <time>2016-09-15T12:52:01Z</time>
      </trkpt>
      <trkpt lat="45.94834" lon="4.51384">
        <ele>400</ele>
        <time>2016-09-15T12:52:02Z</time>
      </trkpt>
      <trkpt lat="45.94836" lon="4.51395">
        <ele>400</ele>
        <time>2016-09-15T12:52:09Z</time>
      </trkpt>
      <trkpt lat="45.94836" lon="4.51396">
        <ele>399</ele>
        <time>2016-09-15T12:52:10Z</time>
      </trkpt>
      <trkpt lat="45.94835" lon="4.51408">
        <ele>399</ele>
        <time>2016-09-15T12:52:18Z</time>
      </trkpt>
      <trkpt lat="45.94835" lon="4.5141">
        <ele>399</ele>
        <time>2016-09-15T12:52:19Z</time>
      </trkpt>
      <trkpt lat="45.94836" lon="4.51422">
        <ele>397</ele>
        <time>2016-09-15T12:52:27Z</time>
      </trkpt>
      <trkpt lat="45.94836" lon="4.51424">
        <ele>397</ele>
        <time>2016-09-15T12:52:28Z</time>
      </trkpt>
      <trkpt lat="45.94836" lon="4.51437">
        <ele>396</ele>
        <time>2016-09-15T12:52:36Z</time>
      </trkpt>
      <trkpt lat="45.94836" lon="4.51438">
        <ele>396</ele>
        <time>2016-09-15T12:52:37Z</time>
      </trkpt>
      <trkpt lat="45.94837" lon="4.5145">
        <ele>396</ele>
        <time>2016-09-15T12:52:47Z</time>
      </trkpt>
      <trkpt lat="45.94838" lon="4.51451">
        <ele>396</ele>
        <time>2016-09-15T12:52:48Z</time>
      </trkpt>
      <trkpt lat="45.94838" lon="4.51463">
        <ele>395</ele>
        <time>2016-09-15T12:52:57Z</time>
      </trkpt>
      <trkpt lat="45.94839" lon="4.51465">
        <ele>395</ele>
        <time>2016-09-15T12:52:58Z</time>
      </trkpt>
      <trkpt lat="45.94838" lon="4.51477">
        <ele>395</ele>
        <time>2016-09-15T12:53:05Z</time>
      </trkpt>
      <trkpt lat="45.94838" lon="4.51478">
        <ele>395</ele>
        <time>2016-09-15T12:53:06Z</time>
      </trkpt>
      <trkpt lat="45.94839" lon="4.5149">
        <ele>395</ele>
        <time>2016-09-15T12:53:14Z</time>
      </trkpt>
      <trkpt lat="45.94839" lon="4.51492">
        <ele>395</ele>
        <time>2016-09-15T12:53:15Z</time>
      </trkpt>
      <trkpt lat="45.94839" lon="4.51504">
        <ele>394</ele>
        <time>2016-09-15T12:53:23Z</time>
      </trkpt>
      <trkpt lat="45.94838" lon="4.51506">
        <ele>393</ele>
        <time>2016-09-15T12:53:24Z</time>
      </trkpt>
      <trkpt lat="45.94836" lon="4.51518">
        <ele>392</ele>
        <time>2016-09-15T12:53:31Z</time>
      </trkpt>
      <trkpt lat="45.94836" lon="4.51519">
        <ele>392</ele>
        <time>2016-09-15T12:53:32Z</time>
      </trkpt>
      <trkpt lat="45.94835" lon="4.51531">
        <ele>390</ele>
        <time>2016-09-15T12:53:39Z</time>
      </trkpt>
      <trkpt lat="45.94835" lon="4.51532">
        <ele>390</ele>
        <time>2016-09-15T12:53:40Z</time>
      </trkpt>
      <trkpt lat="45.94834" lon="4.51545">
        <ele>389</ele>
        <time>2016-09-15T12:53:48Z</time>
      </trkpt>
      <trkpt lat="45.94834" lon="4.51546">
        <ele>389</ele>
        <time>2016-09-15T12:53:49Z</time>
      </trkpt>
      <trkpt lat="45.94833" lon="4.51559">
        <ele>387</ele>
        <time>2016-09-15T12:53:58Z</time>
      </trkpt>
      <trkpt lat="45.94833" lon="4.5156">
        <ele>387</ele>
        <time>2016-09-15T12:53:59Z</time>
      </trkpt>
      <trkpt lat="45.94832" lon="4.51572">
        <ele>387</ele>
        <time>2016-09-15T12:54:07Z</time>
      </trkpt>
      <trkpt lat="45.94832" lon="4.51574">
        <ele>387</ele>
        <time>2016-09-15T12:54:08Z</time>
      </trkpt>
      <trkpt lat="45.9483" lon="4.51585">
        <ele>386</ele>
        <time>2016-09-15T12:54:16Z</time>
      </trkpt>
      <trkpt lat="45.9483" lon="4.51587">
        <ele>386</ele>
        <time>2016-09-15T12:54:17Z</time>
      </trkpt>
      <trkpt lat="45.94831" lon="4.51599">
        <ele>383</ele>
        <time>2016-09-15T12:54:26Z</time>
      </trkpt>
      <trkpt lat="45.94831" lon="4.51601">
        <ele>383</ele>
        <time>2016-09-15T12:54:27Z</time>
      </trkpt>
      <trkpt lat="45.94831" lon="4.51613">
        <ele>382</ele>
        <time>2016-09-15T12:54:36Z</time>
      </trkpt>
      <trkpt lat="45.94831" lon="4.51614">
        <ele>382</ele>
        <time>2016-09-15T12:54:37Z</time>
      </trkpt>
      <trkpt lat="45.94832" lon="4.51627">
        <ele>381</ele>
        <time>2016-09-15T12:54:50Z</time>
      </trkpt>
      <trkpt lat="45.94832" lon="4.51628">
        <ele>381</ele>
        <time>2016-09-15T12:54:51Z</time>
      </trkpt>
      <trkpt lat="45.9483" lon="4.51639">
        <ele>380</ele>
        <time>2016-09-15T12:54:58Z</time>
      </trkpt>
      <trkpt lat="45.9483" lon="4.51641">
        <ele>380</ele>
        <time>2016-09-15T12:54:59Z</time>
      </trkpt>
      <trkpt lat="45.94829" lon="4.51653">
        <ele>381</ele>
        <time>2016-09-15T12:55:07Z</time>
      </trkpt>
      <trkpt lat="45.94829" lon="4.51655">
        <ele>381</ele>
        <time>2016-09-15T12:55:08Z</time>
      </trkpt>
      <trkpt lat="45.9483" lon="4.51667">
        <ele>381</ele>
        <time>2016-09-15T12:55:16Z</time>
      </trkpt>
      <trkpt lat="45.94829" lon="4.51668">
        <ele>380</ele>
        <time>2016-09-15T12:55:17Z</time>
      </trkpt>
      <trkpt lat="45.94827" lon="4.5168">
        <ele>378</ele>
        <time>2016-09-15T12:55:26Z</time>
      </trkpt>
      <trkpt lat="45.94827" lon="4.51682">
        <ele>377</ele>
        <time>2016-09-15T12:55:27Z</time>
      </trkpt>
      <trkpt lat="45.94825" lon="4.51694">
        <ele>375</ele>
        <time>2016-09-15T12:55:35Z</time>
      </trkpt>
      <trkpt lat="45.94824" lon="4.51695">
        <ele>375</ele>
        <time>2016-09-15T12:55:36Z</time>
      </trkpt>
      <trkpt lat="45.94823" lon="4.51707">
        <ele>374</ele>
        <time>2016-09-15T12:55:43Z</time>
      </trkpt>
      <trkpt lat="45.94823" lon="4.51709">
        <ele>374</ele>
        <time>2016-09-15T12:55:44Z</time>
      </trkpt>
      <trkpt lat="45.94824" lon="4.5172">
        <ele>374</ele>
        <time>2016-09-15T12:55:50Z</time>
      </trkpt>
      <trkpt lat="45.94824" lon="4.51722">
        <ele>374</ele>
        <time>2016-09-15T12:55:51Z</time>
      </trkpt>
      <trkpt lat="45.94822" lon="4.51733">
        <ele>374</ele>
        <time>2016-09-15T12:55:57Z</time>
      </trkpt>
      <trkpt lat="45.94822" lon="4.51735">
        <ele>374</ele>
        <time>2016-09-15T12:55:58Z</time>
      </trkpt>
      <trkpt lat="45.9482" lon="4.51747">
        <ele>374</ele>
        <time>2016-09-15T12:56:06Z</time>
      </trkpt>
      <trkpt lat="45.94819" lon="4.51749">
        <ele>374</ele>
        <time>2016-09-15T12:56:07Z</time>
      </trkpt>
      <trkpt lat="45.94818" lon="4.5176">
        <ele>370</ele>
        <time>2016-09-15T12:56:14Z</time>
      </trkpt>
      <trkpt lat="45.94818" lon="4.51762">
        <ele>370</ele>
        <time>2016-09-15T12:56:15Z</time>
      </trkpt>
      <trkpt lat="45.94816" lon="4.51774">
        <ele>368</ele>
        <time>2016-09-15T12:56:23Z</time>
      </trkpt>
      <trkpt lat="45.94815" lon="4.51775">
        <ele>368</ele>
        <time>2016-09-15T12:56:24Z</time>
      </trkpt>
      <trkpt lat="45.94814" lon="4.51787">
        <ele>367</ele>
        <time>2016-09-15T12:56:33Z</time>
      </trkpt>
      <trkpt lat="45.94814" lon="4.51788">
        <ele>367</ele>
        <time>2016-09-15T12:56:34Z</time>
      </trkpt>
      <trkpt lat="45.94811" lon="4.51799">
        <ele>366</ele>
        <time>2016-09-15T12:56:52Z</time>
      </trkpt>
      <trkpt lat="45.94811" lon="4.518">
        <ele>366</ele>
        <time>2016-09-15T12:56:53Z</time>
      </trkpt>
      <trkpt lat="45.9481" lon="4.51812">
        <ele>365</ele>
        <time>2016-09-15T12:57:01Z</time>
      </trkpt>
      <trkpt lat="45.9481" lon="4.51813">
        <ele>365</ele>
        <time>2016-09-15T12:57:02Z</time>
      </trkpt>
      <trkpt lat="45.94806" lon="4.51824">
        <ele>365</ele>
        <time>2016-09-15T12:57:10Z</time>
      </trkpt>
      <trkpt lat="45.94805" lon="4.51826">
        <ele>365</ele>
        <time>2016-09-15T12:57:11Z</time>
      </trkpt>
      <trkpt lat="45.94803" lon="4.51837">
        <ele>360</ele>
        <time>2016-09-15T12:57:18Z</time>
      </trkpt>
      <trkpt lat="45.94803" lon="4.51839">
        <ele>360</ele>
        <time>2016-09-15T12:57:19Z</time>
      </trkpt>
      <trkpt lat="45.948" lon="4.5185">
        <ele>359</ele>
        <time>2016-09-15T12:57:26Z</time>
      </trkpt>
      <trkpt lat="45.948" lon="4.51852">
        <ele>359</ele>
        <time>2016-09-15T12:57:27Z</time>
      </trkpt>
      <trkpt lat="45.94798" lon="4.51863">
        <ele>358</ele>
        <time>2016-09-15T12:57:33Z</time>
      </trkpt>
      <trkpt lat="45.94797" lon="4.51865">
        <ele>358</ele>
        <time>2016-09-15T12:57:34Z</time>
      </trkpt>
      <trkpt lat="45.94796" lon="4.51877">
        <ele>357</ele>
        <time>2016-09-15T12:57:42Z</time>
      </trkpt>
      <trkpt lat="45.94797" lon="4.51879">
        <ele>357</ele>
        <time>2016-09-15T12:57:43Z</time>
      </trkpt>
      <trkpt lat="45.94797" lon="4.51891">
        <ele>357</ele>
        <time>2016-09-15T12:57:51Z</time>
      </trkpt>
      <trkpt lat="45.94797" lon="4.51893">
        <ele>357</ele>
        <time>2016-09-15T12:57:52Z</time>
      </trkpt>
      <trkpt lat="45.94794" lon="4.51905">
        <ele>356</ele>
        <time>2016-09-15T12:58:00Z</time>
      </trkpt>
      <trkpt lat="45.94794" lon="4.51906">
        <ele>356</ele>
        <time>2016-09-15T12:58:01Z</time>
      </trkpt>
      <trkpt lat="45.94792" lon="4.51918">
        <ele>352</ele>
        <time>2016-09-15T12:58:09Z</time>
      </trkpt>
      <trkpt lat="45.94792" lon="4.51919">
        <ele>352</ele>
        <time>2016-09-15T12:58:10Z</time>
      </trkpt>
      <trkpt lat="45.94795" lon="4.51931">
        <ele>352</ele>
        <time>2016-09-15T12:58:18Z</time>
      </trkpt>
      <trkpt lat="45.94795" lon="4.51932">
        <ele>352</ele>
        <time>2016-09-15T12:58:19Z</time>
      </trkpt>
      <trkpt lat="45.94795" lon="4.51944">
        <ele>351</ele>
        <time>2016-09-15T12:58:29Z</time>
      </trkpt>
      <trkpt lat="45.94795" lon="4.51945">
        <ele>351</ele>
        <time>2016-09-15T12:58:30Z</time>
      </trkpt>
      <trkpt lat="45.94794" lon="4.51956">
        <ele>350</ele>
        <time>2016-09-15T12:58:38Z</time>
      </trkpt>
      <trkpt lat="45.94794" lon="4.51958">
        <ele>350</ele>
        <time>2016-09-15T12:58:39Z</time>
      </trkpt>
      <trkpt lat="45.94794" lon="4.5197">
        <ele>350</ele>
        <time>2016-09-15T12:58:47Z</time>
      </trkpt>
      <trkpt lat="45.94794" lon="4.51972">
        <ele>350</ele>
        <time>2016-09-15T12:58:48Z</time>
      </trkpt>
      <trkpt lat="45.94795" lon="4.51984">
        <ele>349</ele>
        <time>2016-09-15T12:58:57Z</time>
      </trkpt>
      <trkpt lat="45.94795" lon="4.51986">
        <ele>349</ele>
        <time>2016-09-15T12:58:58Z</time>
      </trkpt>
      <trkpt lat="45.94792" lon="4.51998">
        <ele>349</ele>
        <time>2016-09-15T12:59:07Z</time>
      </trkpt>
      <trkpt lat="45.94792" lon="4.51999">
        <ele>349</ele>
        <time>2016-09-15T12:59:08Z</time>
      </trkpt>
      <trkpt lat="45.94789" lon="4.5201">
        <ele>343</ele>
        <time>2016-09-15T12:59:17Z</time>
      </trkpt>
      <trkpt lat="45.94788" lon="4.52011">
        <ele>343</ele>
        <time>2016-09-15T12:59:18Z</time>
      </trkpt>
      <trkpt lat="45.94785" lon="4.52022">
        <ele>343</ele>
        <time>2016-09-15T12:59:26Z</time>
      </trkpt>
      <trkpt lat="45.94785" lon="4.52024">
        <ele>343</ele>
        <time>2016-09-15T12:59:27Z</time>
      </trkpt>
      <trkpt lat="45.94782" lon="4.52036">
        <ele>342</ele>
        <time>2016-09-15T12:59:38Z</time>
      </trkpt>
      <trkpt lat="45.94782" lon="4.52037">
        <ele>342</ele>
        <time>2016-09-15T12:59:39Z</time>
      </trkpt>
      <trkpt lat="45.94779" lon="4.52048">
        <ele>341</ele>
        <time>2016-09-15T12:59:49Z</time>
      </trkpt>
      <trkpt lat="45.94779" lon="4.52049">
        <ele>341</ele>
        <time>2016-09-15T12:59:50Z</time>
      </trkpt>
      <trkpt lat="45.94777" lon="4.52061">
        <ele>340</ele>
        <time>2016-09-15T13:00:01Z</time>
      </trkpt>
      <trkpt lat="45.94776" lon="4.52062">
        <ele>340</ele>
        <time>2016-09-15T13:00:02Z</time>
      </trkpt>
      <trkpt lat="45.94771" lon="4.5207">
        <ele>339</ele>
        <time>2016-09-15T13:00:11Z</time>
      </trkpt>
      <trkpt lat="45.9477" lon="4.52071">
        <ele>339</ele>
        <time>2016-09-15T13:00:12Z</time>
      </trkpt>
      <trkpt lat="45.94763" lon="4.52079">
        <ele>338</ele>
        <time>2016-09-15T13:00:21Z</time>
      </trkpt>
      <trkpt lat="45.94763" lon="4.5208">
        <ele>338</ele>
        <time>2016-09-15T13:00:22Z</time>
      </trkpt>
      <trkpt lat="45.94758" lon="4.5209">
        <ele>336</ele>
        <time>2016-09-15T13:00:31Z</time>
      </trkpt>
      <trkpt lat="45.94757" lon="4.52091">
        <ele>336</ele>
        <time>2016-09-15T13:00:32Z</time>
      </trkpt>
      <trkpt lat="45.94754" lon="4.52102">
        <ele>336</ele>
        <time>2016-09-15T13:00:40Z</time>
      </trkpt>
      <trkpt lat="45.94753" lon="4.52103">
        <ele>336</ele>
        <time>2016-09-15T13:00:41Z</time>
      </trkpt>
      <trkpt lat="45.94747" lon="4.5211">
        <ele>334</ele>
        <time>2016-09-15T13:00:50Z</time>
      </trkpt>
      <trkpt lat="45.94746" lon="4.52111">
        <ele>334</ele>
        <time>2016-09-15T13:00:51Z</time>
      </trkpt>
      <trkpt lat="45.94742" lon="4.52123">
        <ele>334</ele>
        <time>2016-09-15T13:01:02Z</time>
      </trkpt>
      <trkpt lat="45.94742" lon="4.52124">
        <ele>334</ele>
        <time>2016-09-15T13:01:03Z</time>
      </trkpt>
      <trkpt lat="45.94737" lon="4.52135">
        <ele>333</ele>
        <time>2016-09-15T13:01:12Z</time>
      </trkpt>
      <trkpt lat="45.94736" lon="4.52136">
        <ele>333</ele>
        <time>2016-09-15T13:01:13Z</time>
      </trkpt>
      <trkpt lat="45.94732" lon="4.52146">
        <ele>332</ele>
        <time>2016-09-15T13:01:22Z</time>
      </trkpt>
      <trkpt lat="45.94731" lon="4.52148">
        <ele>332</ele>
        <time>2016-09-15T13:01:23Z</time>
      </trkpt>
      <trkpt lat="45.94726" lon="4.52156">
        <ele>332</ele>
        <time>2016-09-15T13:01:30Z</time>
      </trkpt>
      <trkpt lat="45.94725" lon="4.52158">
        <ele>332</ele>
        <time>2016-09-15T13:01:31Z</time>
      </trkpt>
      <trkpt lat="45.94722" lon="4.52169">
        <ele>330</ele>
        <time>2016-09-15T13:01:37Z</time>
      </trkpt>
      <trkpt lat="45.94722" lon="4.52171">
        <ele>330</ele>
        <time>2016-09-15T13:01:38Z</time>
      </trkpt>
      <trkpt lat="45.94717" lon="4.52181">
        <ele>330</ele>
        <time>2016-09-15T13:01:45Z</time>
      </trkpt>
      <trkpt lat="45.94716" lon="4.52181">
        <ele>330</ele>
        <time>2016-09-15T13:01:46Z</time>
      </trkpt>
      <trkpt lat="45.94708" lon="4.52188">
        <ele>331</ele>
        <time>2016-09-15T13:01:55Z</time>
      </trkpt>
      <trkpt lat="45.94708" lon="4.52189">
        <ele>331</ele>
        <time>2016-09-15T13:01:56Z</time>
      </trkpt>
      <trkpt lat="45.94707" lon="4.52202">
        <ele>331</ele>
        <time>2016-09-15T13:02:05Z</time>
      </trkpt>
      <trkpt lat="45.94707" lon="4.52203">
        <ele>331</ele>
        <time>2016-09-15T13:02:06Z</time>
      </trkpt>
      <trkpt lat="45.94703" lon="4.52214">
        <ele>331</ele>
        <time>2016-09-15T13:02:15Z</time>
      </trkpt>
      <trkpt lat="45.94703" lon="4.52215">
        <ele>331</ele>
        <time>2016-09-15T13:02:16Z</time>
      </trkpt>
      <trkpt lat="45.94698" lon="4.52225">
        <ele>331</ele>
        <time>2016-09-15T13:02:25Z</time>
      </trkpt>
      <trkpt lat="45.94697" lon="4.52226">
        <ele>331</ele>
        <time>2016-09-15T13:02:26Z</time>
      </trkpt>
      <trkpt lat="45.94702" lon="4.52237">
        <ele>331</ele>
        <time>2016-09-15T13:02:52Z</time>
      </trkpt>
      <trkpt lat="45.94702" lon="4.52237">
        <ele>331</ele>
        <time>2016-09-15T13:02:53Z</time>
      </trkpt>
      <trkpt lat="45.94707" lon="4.52247">
        <ele>331</ele>
        <time>2016-09-15T13:03:01Z</time>
      </trkpt>
      <trkpt lat="45.94707" lon="4.52249">
        <ele>331</ele>
        <time>2016-09-15T13:03:02Z</time>
      </trkpt>
      <trkpt lat="45.9471" lon="4.5226">
        <ele>331</ele>
        <time>2016-09-15T13:03:09Z</time>
      </trkpt>
      <trkpt lat="45.94711" lon="4.52262">
        <ele>331</ele>
        <time>2016-09-15T13:03:10Z</time>
      </trkpt>
      <trkpt lat="45.9471" lon="4.52274">
        <ele>331</ele>
        <time>2016-09-15T13:03:17Z</time>
      </trkpt>
      <trkpt lat="45.94709" lon="4.52275">
        <ele>331</ele>
        <time>2016-09-15T13:03:18Z</time>
      </trkpt>
      <trkpt lat="45.94708" lon="4.52287">
        <ele>331</ele>
        <time>2016-09-15T13:03:26Z</time>
      </trkpt>
      <trkpt lat="45.94708" lon="4.52289">
        <ele>331</ele>
        <time>2016-09-15T13:03:27Z</time>
      </trkpt>
      <trkpt lat="45.94706" lon="4.52301">
        <ele>331</ele>
        <time>2016-09-15T13:03:36Z</time>
      </trkpt>
      <trkpt lat="45.94706" lon="4.52302">
        <ele>331</ele>
        <time>2016-09-15T13:03:37Z</time>
      </trkpt>
      <trkpt lat="45.94704" lon="4.52315">
        <ele>331</ele>
        <time>2016-09-15T13:03:48Z</time>
      </trkpt>
      <trkpt lat="45.94704" lon="4.52316">
        <ele>331</ele>
        <time>2016-09-15T13:03:49Z</time>
      </trkpt>
      <trkpt lat="45.94701" lon="4.52328">
        <ele>331</ele>
        <time>2016-09-15T13:03:58Z</time>
      </trkpt>
      <trkpt lat="45.94701" lon="4.52329">
        <ele>330</ele>
        <time>2016-09-15T13:03:59Z</time>
      </trkpt>
      <trkpt lat="45.94696" lon="4.52338">
        <ele>332</ele>
        <time>2016-09-15T13:04:08Z</time>
      </trkpt>
      <trkpt lat="45.94696" lon="4.5234">
        <ele>332</ele>
        <time>2016-09-15T13:04:09Z</time>
      </trkpt>
      <trkpt lat="45.94695" lon="4.52352">
        <ele>333</ele>
        <time>2016-09-15T13:04:19Z</time>
      </trkpt>
      <trkpt lat="45.94695" lon="4.52353">
        <ele>333</ele>
        <time>2016-09-15T13:04:20Z</time>
      </trkpt>
      <trkpt lat="45.94694" lon="4.52365">
        <ele>334</ele>
        <time>2016-09-15T13:04:28Z</time>
      </trkpt>
      <trkpt lat="45.94694" lon="4.52366">
        <ele>334</ele>
        <time>2016-09-15T13:04:29Z</time>
      </trkpt>
      <trkpt lat="45.94693" lon="4.52379">
        <ele>335</ele>
        <time>2016-09-15T13:04:38Z</time>
      </trkpt>
      <trkpt lat="45.94693" lon="4.52379">
        <ele>335</ele>
        <time>2016-09-15T13:04:39Z</time>
      </trkpt>
      <trkpt lat="45.9469" lon="4.52391">
        <ele>335</ele>
        <time>2016-09-15T13:04:50Z</time>
      </trkpt>
      <trkpt lat="45.9469" lon="4.52392">
        <ele>335</ele>
        <time>2016-09-15T13:04:51Z</time>
      </trkpt>
      <trkpt lat="45.94688" lon="4.52404">
        <ele>335</ele>
        <time>2016-09-15T13:05:01Z</time>
      </trkpt>
      <trkpt lat="45.94688" lon="4.52405">
        <ele>335</ele>
        <time>2016-09-15T13:05:02Z</time>
      </trkpt>
      <trkpt lat="45.94685" lon="4.52417">
        <ele>334</ele>
        <time>2016-09-15T13:05:14Z</time>
      </trkpt>
      <trkpt lat="45.94685" lon="4.52417">
        <ele>338</ele>
        <time>2016-09-15T13:05:15Z</time>
      </trkpt>
      <trkpt lat="45.9468" lon="4.52428">
        <ele>338</ele>
        <time>2016-09-15T13:05:26Z</time>
      </trkpt>
      <trkpt lat="45.9468" lon="4.52429">
        <ele>338</ele>
        <time>2016-09-15T13:05:27Z</time>
      </trkpt>
      <trkpt lat="45.94675" lon="4.52439">
        <ele>339</ele>
        <time>2016-09-15T13:05:38Z</time>
      </trkpt>
      <trkpt lat="45.94675" lon="4.52441">
        <ele>339</ele>
        <time>2016-09-15T13:05:39Z</time>
      </trkpt>
      <trkpt lat="45.94671" lon="4.5245">
        <ele>340</ele>
        <time>2016-09-15T13:05:48Z</time>
      </trkpt>
      <trkpt lat="45.9467" lon="4.52452">
        <ele>341</ele>
        <time>2016-09-15T13:05:49Z</time>
      </trkpt>
      <trkpt lat="45.94665" lon="4.52461">
        <ele>335</ele>
        <time>2016-09-15T13:06:00Z</time>
      </trkpt>
      <trkpt lat="45.94664" lon="4.52462">
        <ele>335</ele>
        <time>2016-09-15T13:06:01Z</time>
      </trkpt>
      <trkpt lat="45.94658" lon="4.52472">
        <ele>337</ele>
        <time>2016-09-15T13:06:11Z</time>
      </trkpt>
      <trkpt lat="45.94658" lon="4.52473">
        <ele>337</ele>
        <time>2016-09-15T13:06:12Z</time>
      </trkpt>
      <trkpt lat="45.94652" lon="4.52482">
        <ele>338</ele>
        <time>2016-09-15T13:06:22Z</time>
      </trkpt>
      <trkpt lat="45.94652" lon="4.52483">
        <ele>338</ele>
        <time>2016-09-15T13:06:23Z</time>
      </trkpt>
      <trkpt lat="45.94646" lon="4.52493">
        <ele>339</ele>
        <time>2016-09-15T13:06:37Z</time>
      </trkpt>
      <trkpt lat="45.94646" lon="4.52494">
        <ele>338</ele>
        <time>2016-09-15T13:06:38Z</time>
      </trkpt>
      <trkpt lat="45.94639" lon="4.525">
        <ele>345</ele>
        <time>2016-09-15T13:06:49Z</time>
      </trkpt>
      <trkpt lat="45.94638" lon="4.52501">
        <ele>345</ele>
        <time>2016-09-15T13:06:50Z</time>
      </trkpt>
      <trkpt lat="45.94632" lon="4.52508">
        <ele>344</ele>
        <time>2016-09-15T13:06:57Z</time>
      </trkpt>
      <trkpt lat="45.94631" lon="4.52509">
        <ele>344</ele>
        <time>2016-09-15T13:06:58Z</time>
      </trkpt>
      <trkpt lat="45.94624" lon="4.52516">
        <ele>344</ele>
        <time>2016-09-15T13:07:06Z</time>
      </trkpt>
      <trkpt lat="45.94623" lon="4.52517">
        <ele>344</ele>
        <time>2016-09-15T13:07:07Z</time>
      </trkpt>
      <trkpt lat="45.94631" lon="4.5252">
        <ele>344</ele>
        <time>2016-09-15T13:07:20Z</time>
      </trkpt>
      <trkpt lat="45.94632" lon="4.5252">
        <ele>344</ele>
        <time>2016-09-15T13:07:21Z</time>
      </trkpt>
      <trkpt lat="45.9464" lon="4.52524">
        <ele>345</ele>
        <time>2016-09-15T13:07:30Z</time>
      </trkpt>
      <trkpt lat="45.9464" lon="4.52525">
        <ele>345</ele>
        <time>2016-09-15T13:07:31Z</time>
      </trkpt>
      <trkpt lat="45.94636" lon="4.52536">
        <ele>345</ele>
        <time>2016-09-15T13:07:44Z</time>
      </trkpt>
      <trkpt lat="45.94636" lon="4.52537">
        <ele>345</ele>
        <time>2016-09-15T13:07:45Z</time>
      </trkpt>
      <trkpt lat="45.94631" lon="4.52547">
        <ele>345</ele>
        <time>2016-09-15T13:07:56Z</time>
      </trkpt>
      <trkpt lat="45.94631" lon="4.52548">
        <ele>345</ele>
        <time>2016-09-15T13:07:57Z</time>
      </trkpt>
      <trkpt lat="45.9463" lon="4.5256">
        <ele>346</ele>
        <time>2016-09-15T13:08:09Z</time>
      </trkpt>
      <trkpt lat="45.94629" lon="4.52561">
        <ele>346</ele>
        <time>2016-09-15T13:08:10Z</time>
      </trkpt>
      <trkpt lat="45.94625" lon="4.52571">
        <ele>346</ele>
        <time>2016-09-15T13:08:20Z</time>
      </trkpt>
      <trkpt lat="45.94624" lon="4.52572">
        <ele>346</ele>
        <time>2016-09-15T13:08:21Z</time>
      </trkpt>
      <trkpt lat="45.94619" lon="4.52581">
        <ele>347</ele>
        <time>2016-09-15T13:08:31Z</time>
      </trkpt>
      <trkpt lat="45.94618" lon="4.52582">
        <ele>347</ele>
        <time>2016-09-15T13:08:32Z</time>
      </trkpt>
      <trkpt lat="45.94612" lon="4.5259">
        <ele>349</ele>
        <time>2016-09-15T13:08:41Z</time>
      </trkpt>
      <trkpt lat="45.94611" lon="4.52591">
        <ele>349</ele>
        <time>2016-09-15T13:08:42Z</time>
      </trkpt>
      <trkpt lat="45.94604" lon="4.52599">
        <ele>349</ele>
        <time>2016-09-15T13:08:51Z</time>
      </trkpt>
      <trkpt lat="45.94603" lon="4.526">
        <ele>349</ele>
        <time>2016-09-15T13:08:52Z</time>
      </trkpt>
      <trkpt lat="45.946" lon="4.52611">
        <ele>350</ele>
        <time>2016-09-15T13:09:01Z</time>
      </trkpt>
      <trkpt lat="45.94599" lon="4.52612">
        <ele>350</ele>
        <time>2016-09-15T13:09:02Z</time>
      </trkpt>
      <trkpt lat="45.94595" lon="4.52622">
        <ele>350</ele>
        <time>2016-09-15T13:09:10Z</time>
      </trkpt>
      <trkpt lat="45.94594" lon="4.52623">
        <ele>350</ele>
        <time>2016-09-15T13:09:11Z</time>
      </trkpt>
      <trkpt lat="45.94591" lon="4.52634">
        <ele>351</ele>
        <time>2016-09-15T13:09:19Z</time>
      </trkpt>
      <trkpt lat="45.9459" lon="4.52636">
        <ele>351</ele>
        <time>2016-09-15T13:09:20Z</time>
      </trkpt>
      <trkpt lat="45.94586" lon="4.52647">
        <ele>352</ele>
        <time>2016-09-15T13:09:28Z</time>
      </trkpt>
      <trkpt lat="45.94586" lon="4.52648">
        <ele>352</ele>
        <time>2016-09-15T13:09:29Z</time>
      </trkpt>
      <trkpt lat="45.94582" lon="4.52659">
        <ele>354</ele>
        <time>2016-09-15T13:09:37Z</time>
      </trkpt>
      <trkpt lat="45.94582" lon="4.52661">
        <ele>354</ele>
        <time>2016-09-15T13:09:38Z</time>
      </trkpt>
      <trkpt lat="45.94579" lon="4.52673">
        <ele>355</ele>
        <time>2016-09-15T13:09:46Z</time>
      </trkpt>
      <trkpt lat="45.94579" lon="4.52674">
        <ele>354</ele>
        <time>2016-09-15T13:09:47Z</time>
      </trkpt>
      <trkpt lat="45.94577" lon="4.52686">
        <ele>352</ele>
        <time>2016-09-15T13:09:55Z</time>
      </trkpt>
      <trkpt lat="45.94576" lon="4.52687">
        <ele>352</ele>
        <time>2016-09-15T13:09:56Z</time>
      </trkpt>
      <trkpt lat="45.94574" lon="4.52698">
        <ele>351</ele>
        <time>2016-09-15T13:10:04Z</time>
      </trkpt>
      <trkpt lat="45.94573" lon="4.52699">
        <ele>351</ele>
        <time>2016-09-15T13:10:05Z</time>
      </trkpt>
      <trkpt lat="45.9457" lon="4.52711">
        <ele>350</ele>
        <time>2016-09-15T13:10:13Z</time>
      </trkpt>
      <trkpt lat="45.94569" lon="4.52712">
        <ele>350</ele>
        <time>2016-09-15T13:10:14Z</time>
      </trkpt>
      <trkpt lat="45.94564" lon="4.52723">
        <ele>349</ele>
        <time>2016-09-15T13:10:22Z</time>
      </trkpt>
      <trkpt lat="45.94564" lon="4.52724">
        <ele>349</ele>
        <time>2016-09-15T13:10:23Z</time>
      </trkpt>
      <trkpt lat="45.94559" lon="4.52735">
        <ele>349</ele>
        <time>2016-09-15T13:10:31Z</time>
      </trkpt>
      <trkpt lat="45.94559" lon="4.52736">
        <ele>349</ele>
        <time>2016-09-15T13:10:32Z</time>
      </trkpt>
      <trkpt lat="45.94553" lon="4.52745">
        <ele>349</ele>
        <time>2016-09-15T13:10:40Z</time>
      </trkpt>
      <trkpt lat="45.94552" lon="4.52746">
        <ele>349</ele>
        <time>2016-09-15T13:10:41Z</time>
      </trkpt>
      <trkpt lat="45.94551" lon="4.52757">
        <ele>346</ele>
        <time>2016-09-15T13:11:39.685Z</time>
      </trkpt>
    </trkseg>
  </trk>
</gpx>